<?xml version="1.0" encoding="UTF-8" standalone="no" ?>
<gpx xmlns="http://www.topografix.com/GPX/1/1" xmlns:xsi="http://www.w3.org/2001/XMLSchema-instance" xsi:schemaLocation="http://www.topografix.com/GPX/1/1 http://www.topografix.com/GPX/1/1/gpx.xsd" version="1.1" creator="VisuGPX - https://www.visugpx.com">
  <metadata>
    <name>La roche d'öetre-21Km96</name>
    <desc><![CDATA[Boucke A-R au départ de la Forêt d'Auvray
Randonnée sur la journée]]></desc>
  </metadata>
  <wpt lat="48.82797" lon="-0.38093">
    <ele>151</ele>
  </wpt>
  <trk>
    <name><![CDATA[La roche d'öetre-21Km96_1]]></name>
    <trkseg>
      <trkpt lat="48.81187" lon="-0.34163">
        <ele>172.3</ele>
        <time>2016-06-10T09:09:46Z</time>
      </trkpt>
      <trkpt lat="48.81187" lon="-0.34163">
        <ele>172.3</ele>
        <time>2016-06-10T09:09:51Z</time>
      </trkpt>
      <trkpt lat="48.81187" lon="-0.34163">
        <ele>172.3</ele>
        <time>2016-06-10T09:09:56Z</time>
      </trkpt>
      <trkpt lat="48.81187" lon="-0.34163">
        <ele>172.3</ele>
        <time>2016-06-10T09:10:06Z</time>
      </trkpt>
      <trkpt lat="48.81187" lon="-0.34163">
        <ele>172.3</ele>
        <time>2016-06-10T09:10:11Z</time>
      </trkpt>
      <trkpt lat="48.81187" lon="-0.34163">
        <ele>172.3</ele>
        <time>2016-06-10T09:10:26Z</time>
      </trkpt>
      <trkpt lat="48.81187" lon="-0.34163">
        <ele>172.3</ele>
        <time>2016-06-10T09:10:31Z</time>
      </trkpt>
      <trkpt lat="48.81187" lon="-0.34163">
        <ele>172.3</ele>
        <time>2016-06-10T09:10:41Z</time>
      </trkpt>
      <trkpt lat="48.81187" lon="-0.34163">
        <ele>172.3</ele>
        <time>2016-06-10T09:10:46Z</time>
      </trkpt>
      <trkpt lat="48.81187" lon="-0.34163">
        <ele>172.3</ele>
        <time>2016-06-10T09:10:51Z</time>
      </trkpt>
      <trkpt lat="48.81187" lon="-0.34163">
        <ele>172.3</ele>
        <time>2016-06-10T09:10:56Z</time>
      </trkpt>
      <trkpt lat="48.81187" lon="-0.34163">
        <ele>172.3</ele>
        <time>2016-06-10T09:11:01Z</time>
      </trkpt>
      <trkpt lat="48.81187" lon="-0.34163">
        <ele>172.3</ele>
        <time>2016-06-10T09:11:11Z</time>
      </trkpt>
      <trkpt lat="48.81187" lon="-0.34163">
        <ele>172.3</ele>
        <time>2016-06-10T09:11:16Z</time>
      </trkpt>
      <trkpt lat="48.81187" lon="-0.34163">
        <ele>172.3</ele>
        <time>2016-06-10T09:11:21Z</time>
      </trkpt>
      <trkpt lat="48.81187" lon="-0.34164">
        <ele>172.3</ele>
        <time>2016-06-10T09:11:26Z</time>
      </trkpt>
      <trkpt lat="48.81186" lon="-0.34165">
        <ele>172.3</ele>
        <time>2016-06-10T09:11:36Z</time>
      </trkpt>
      <trkpt lat="48.81186" lon="-0.34164">
        <ele>172.3</ele>
        <time>2016-06-10T09:11:41Z</time>
      </trkpt>
      <trkpt lat="48.81186" lon="-0.34163">
        <ele>172.3</ele>
        <time>2016-06-10T09:11:51Z</time>
      </trkpt>
      <trkpt lat="48.81186" lon="-0.34162">
        <ele>172.3</ele>
        <time>2016-06-10T09:11:56Z</time>
      </trkpt>
      <trkpt lat="48.81186" lon="-0.34163">
        <ele>172.3</ele>
        <time>2016-06-10T09:12:06Z</time>
      </trkpt>
      <trkpt lat="48.81185" lon="-0.34165">
        <ele>172.3</ele>
        <time>2016-06-10T09:12:11Z</time>
      </trkpt>
      <trkpt lat="48.81182" lon="-0.34168">
        <ele>204.70981</ele>
        <time>2016-06-10T09:12:21Z</time>
      </trkpt>
      <trkpt lat="48.81182" lon="-0.34168">
        <ele>204.70981</ele>
        <time>2016-06-10T09:12:26Z</time>
      </trkpt>
      <trkpt lat="48.81182" lon="-0.34166">
        <ele>204.70981</ele>
        <time>2016-06-10T09:12:36Z</time>
      </trkpt>
      <trkpt lat="48.81182" lon="-0.34167">
        <ele>204.70981</ele>
        <time>2016-06-10T09:12:41Z</time>
      </trkpt>
      <trkpt lat="48.81182" lon="-0.34167">
        <ele>204.70981</ele>
        <time>2016-06-10T09:12:51Z</time>
      </trkpt>
      <trkpt lat="48.81182" lon="-0.34168">
        <ele>204.70981</ele>
        <time>2016-06-10T09:12:56Z</time>
      </trkpt>
      <trkpt lat="48.81182" lon="-0.34169">
        <ele>204.70981</ele>
        <time>2016-06-10T09:13:06Z</time>
      </trkpt>
      <trkpt lat="48.81181" lon="-0.34169">
        <ele>204.70981</ele>
        <time>2016-06-10T09:13:11Z</time>
      </trkpt>
      <trkpt lat="48.81179" lon="-0.34176">
        <ele>208.61186</ele>
        <time>2016-06-10T09:13:21Z</time>
      </trkpt>
      <trkpt lat="48.81179" lon="-0.34182">
        <ele>208.61186</ele>
        <time>2016-06-10T09:13:26Z</time>
      </trkpt>
      <trkpt lat="48.81177" lon="-0.34195">
        <ele>211.13185</ele>
        <time>2016-06-10T09:13:36Z</time>
      </trkpt>
      <trkpt lat="48.81177" lon="-0.342">
        <ele>211.13185</ele>
        <time>2016-06-10T09:13:41Z</time>
      </trkpt>
      <trkpt lat="48.81191" lon="-0.34204">
        <ele>213.85909</ele>
        <time>2016-06-10T09:13:56Z</time>
      </trkpt>
      <trkpt lat="48.81194" lon="-0.3421">
        <ele>213.85909</ele>
        <time>2016-06-10T09:14:01Z</time>
      </trkpt>
      <trkpt lat="48.81197" lon="-0.34222">
        <ele>215.20705</ele>
        <time>2016-06-10T09:14:11Z</time>
      </trkpt>
      <trkpt lat="48.81197" lon="-0.34228">
        <ele>215.20705</ele>
        <time>2016-06-10T09:14:16Z</time>
      </trkpt>
      <trkpt lat="48.81197" lon="-0.34229">
        <ele>215.20705</ele>
        <time>2016-06-10T09:14:26Z</time>
      </trkpt>
      <trkpt lat="48.81197" lon="-0.34229">
        <ele>215.20705</ele>
        <time>2016-06-10T09:14:31Z</time>
      </trkpt>
      <trkpt lat="48.81197" lon="-0.34229">
        <ele>215.20705</ele>
        <time>2016-06-10T09:14:36Z</time>
      </trkpt>
      <trkpt lat="48.81197" lon="-0.34229">
        <ele>215.20705</ele>
        <time>2016-06-10T09:14:41Z</time>
      </trkpt>
      <trkpt lat="48.81199" lon="-0.34229">
        <ele>215.20705</ele>
        <time>2016-06-10T09:14:46Z</time>
      </trkpt>
      <trkpt lat="48.81199" lon="-0.34229">
        <ele>215.20705</ele>
        <time>2016-06-10T09:14:51Z</time>
      </trkpt>
      <trkpt lat="48.812" lon="-0.3423">
        <ele>215.20705</ele>
        <time>2016-06-10T09:14:56Z</time>
      </trkpt>
      <trkpt lat="48.81201" lon="-0.34232">
        <ele>215.52359</ele>
        <time>2016-06-10T09:15:01Z</time>
      </trkpt>
      <trkpt lat="48.81201" lon="-0.34234">
        <ele>215.52359</ele>
        <time>2016-06-10T09:15:11Z</time>
      </trkpt>
      <trkpt lat="48.81202" lon="-0.34235">
        <ele>215.52359</ele>
        <time>2016-06-10T09:15:16Z</time>
      </trkpt>
      <trkpt lat="48.81202" lon="-0.3424">
        <ele>215.52359</ele>
        <time>2016-06-10T09:15:21Z</time>
      </trkpt>
      <trkpt lat="48.81207" lon="-0.34255">
        <ele>216.01758</ele>
        <time>2016-06-10T09:15:31Z</time>
      </trkpt>
      <trkpt lat="48.81214" lon="-0.34263">
        <ele>216.01758</ele>
        <time>2016-06-10T09:15:36Z</time>
      </trkpt>
      <trkpt lat="48.81214" lon="-0.34268">
        <ele>217.82521</ele>
        <time>2016-06-10T09:15:41Z</time>
      </trkpt>
      <trkpt lat="48.8122" lon="-0.34273">
        <ele>217.82521</ele>
        <time>2016-06-10T09:15:46Z</time>
      </trkpt>
      <trkpt lat="48.81221" lon="-0.3428">
        <ele>218.56033</ele>
        <time>2016-06-10T09:15:51Z</time>
      </trkpt>
      <trkpt lat="48.8123" lon="-0.34282">
        <ele>219.83936</ele>
        <time>2016-06-10T09:15:56Z</time>
      </trkpt>
      <trkpt lat="48.81237" lon="-0.3429">
        <ele>219.83936</ele>
        <time>2016-06-10T09:16:06Z</time>
      </trkpt>
      <trkpt lat="48.81232" lon="-0.34283">
        <ele>221.04056</ele>
        <time>2016-06-10T09:16:11Z</time>
      </trkpt>
      <trkpt lat="48.81219" lon="-0.34271">
        <ele>222.10387</ele>
        <time>2016-06-10T09:16:26Z</time>
      </trkpt>
      <trkpt lat="48.81215" lon="-0.34267">
        <ele>222.10387</ele>
        <time>2016-06-10T09:16:31Z</time>
      </trkpt>
      <trkpt lat="48.81204" lon="-0.34258">
        <ele>222.32567</ele>
        <time>2016-06-10T09:16:41Z</time>
      </trkpt>
      <trkpt lat="48.81202" lon="-0.34252">
        <ele>222.32567</ele>
        <time>2016-06-10T09:16:46Z</time>
      </trkpt>
      <trkpt lat="48.81202" lon="-0.34233">
        <ele>222.0883</ele>
        <time>2016-06-10T09:16:56Z</time>
      </trkpt>
      <trkpt lat="48.81208" lon="-0.34229">
        <ele>222.0883</ele>
        <time>2016-06-10T09:17:01Z</time>
      </trkpt>
      <trkpt lat="48.81224" lon="-0.34234">
        <ele>222.79472</ele>
        <time>2016-06-10T09:17:11Z</time>
      </trkpt>
      <trkpt lat="48.81225" lon="-0.34233">
        <ele>222.79472</ele>
        <time>2016-06-10T09:17:16Z</time>
      </trkpt>
      <trkpt lat="48.81231" lon="-0.34235">
        <ele>222.79472</ele>
        <time>2016-06-10T09:17:21Z</time>
      </trkpt>
      <trkpt lat="48.81236" lon="-0.34239">
        <ele>223.48714</ele>
        <time>2016-06-10T09:17:26Z</time>
      </trkpt>
      <trkpt lat="48.81237" lon="-0.34239">
        <ele>223.48714</ele>
        <time>2016-06-10T09:17:31Z</time>
      </trkpt>
      <trkpt lat="48.81241" lon="-0.34242">
        <ele>223.48714</ele>
        <time>2016-06-10T09:17:36Z</time>
      </trkpt>
      <trkpt lat="48.8125" lon="-0.34253">
        <ele>223.79628</ele>
        <time>2016-06-10T09:17:46Z</time>
      </trkpt>
      <trkpt lat="48.81254" lon="-0.34259">
        <ele>223.79628</ele>
        <time>2016-06-10T09:17:51Z</time>
      </trkpt>
      <trkpt lat="48.81257" lon="-0.34254">
        <ele>222.76973</ele>
        <time>2016-06-10T09:18:01Z</time>
      </trkpt>
      <trkpt lat="48.81261" lon="-0.34259">
        <ele>222.76973</ele>
        <time>2016-06-10T09:18:06Z</time>
      </trkpt>
      <trkpt lat="48.81272" lon="-0.34264">
        <ele>221.92361</ele>
        <time>2016-06-10T09:18:16Z</time>
      </trkpt>
      <trkpt lat="48.81276" lon="-0.34264">
        <ele>221.92361</ele>
        <time>2016-06-10T09:18:21Z</time>
      </trkpt>
      <trkpt lat="48.8128" lon="-0.34262">
        <ele>221.92361</ele>
        <time>2016-06-10T09:18:26Z</time>
      </trkpt>
      <trkpt lat="48.81283" lon="-0.34256">
        <ele>221.23242</ele>
        <time>2016-06-10T09:18:31Z</time>
      </trkpt>
      <trkpt lat="48.8129" lon="-0.34255">
        <ele>221.23242</ele>
        <time>2016-06-10T09:18:36Z</time>
      </trkpt>
      <trkpt lat="48.81305" lon="-0.34246">
        <ele>220.11395</ele>
        <time>2016-06-10T09:18:51Z</time>
      </trkpt>
      <trkpt lat="48.81308" lon="-0.34243">
        <ele>220.11395</ele>
        <time>2016-06-10T09:18:56Z</time>
      </trkpt>
      <trkpt lat="48.81318" lon="-0.34239">
        <ele>218.79141</ele>
        <time>2016-06-10T09:19:06Z</time>
      </trkpt>
      <trkpt lat="48.81324" lon="-0.34236">
        <ele>218.79141</ele>
        <time>2016-06-10T09:19:11Z</time>
      </trkpt>
      <trkpt lat="48.81336" lon="-0.34232">
        <ele>217.41333</ele>
        <time>2016-06-10T09:19:21Z</time>
      </trkpt>
      <trkpt lat="48.81342" lon="-0.34229">
        <ele>217.41333</ele>
        <time>2016-06-10T09:19:26Z</time>
      </trkpt>
      <trkpt lat="48.81352" lon="-0.34225">
        <ele>215.62048</ele>
        <time>2016-06-10T09:19:36Z</time>
      </trkpt>
      <trkpt lat="48.81359" lon="-0.34226">
        <ele>215.62048</ele>
        <time>2016-06-10T09:19:41Z</time>
      </trkpt>
      <trkpt lat="48.81371" lon="-0.34223">
        <ele>213.69414</ele>
        <time>2016-06-10T09:19:51Z</time>
      </trkpt>
      <trkpt lat="48.81376" lon="-0.34223">
        <ele>213.69414</ele>
        <time>2016-06-10T09:19:56Z</time>
      </trkpt>
      <trkpt lat="48.81382" lon="-0.34223">
        <ele>211.63585</ele>
        <time>2016-06-10T09:20:06Z</time>
      </trkpt>
      <trkpt lat="48.81381" lon="-0.34222">
        <ele>211.63585</ele>
        <time>2016-06-10T09:20:11Z</time>
      </trkpt>
      <trkpt lat="48.81379" lon="-0.34221">
        <ele>211.63585</ele>
        <time>2016-06-10T09:20:21Z</time>
      </trkpt>
      <trkpt lat="48.81379" lon="-0.34225">
        <ele>211.63585</ele>
        <time>2016-06-10T09:20:26Z</time>
      </trkpt>
      <trkpt lat="48.81382" lon="-0.34242">
        <ele>209.65941</ele>
        <time>2016-06-10T09:20:36Z</time>
      </trkpt>
      <trkpt lat="48.81385" lon="-0.34249">
        <ele>209.65941</ele>
        <time>2016-06-10T09:20:41Z</time>
      </trkpt>
      <trkpt lat="48.81389" lon="-0.34264">
        <ele>208.0538</ele>
        <time>2016-06-10T09:20:51Z</time>
      </trkpt>
      <trkpt lat="48.81392" lon="-0.34271">
        <ele>208.0538</ele>
        <time>2016-06-10T09:20:56Z</time>
      </trkpt>
      <trkpt lat="48.81397" lon="-0.34286">
        <ele>206.4348</ele>
        <time>2016-06-10T09:21:06Z</time>
      </trkpt>
      <trkpt lat="48.81401" lon="-0.34291">
        <ele>206.4348</ele>
        <time>2016-06-10T09:21:11Z</time>
      </trkpt>
      <trkpt lat="48.81412" lon="-0.34306">
        <ele>204.4553</ele>
        <time>2016-06-10T09:21:26Z</time>
      </trkpt>
      <trkpt lat="48.81417" lon="-0.34315">
        <ele>204.4553</ele>
        <time>2016-06-10T09:21:31Z</time>
      </trkpt>
      <trkpt lat="48.81426" lon="-0.34327">
        <ele>203.27115</ele>
        <time>2016-06-10T09:21:41Z</time>
      </trkpt>
      <trkpt lat="48.81431" lon="-0.34332">
        <ele>203.27115</ele>
        <time>2016-06-10T09:21:46Z</time>
      </trkpt>
      <trkpt lat="48.81441" lon="-0.34342">
        <ele>202.12794</ele>
        <time>2016-06-10T09:21:56Z</time>
      </trkpt>
      <trkpt lat="48.81444" lon="-0.3435">
        <ele>202.12794</ele>
        <time>2016-06-10T09:22:01Z</time>
      </trkpt>
      <trkpt lat="48.81451" lon="-0.34366">
        <ele>201.10736</ele>
        <time>2016-06-10T09:22:11Z</time>
      </trkpt>
      <trkpt lat="48.81454" lon="-0.34372">
        <ele>201.10736</ele>
        <time>2016-06-10T09:22:16Z</time>
      </trkpt>
      <trkpt lat="48.81459" lon="-0.34389">
        <ele>200.09135</ele>
        <time>2016-06-10T09:22:26Z</time>
      </trkpt>
      <trkpt lat="48.81462" lon="-0.34397">
        <ele>200.09135</ele>
        <time>2016-06-10T09:22:31Z</time>
      </trkpt>
      <trkpt lat="48.81469" lon="-0.34413">
        <ele>198.91406</ele>
        <time>2016-06-10T09:22:41Z</time>
      </trkpt>
      <trkpt lat="48.81472" lon="-0.34421">
        <ele>198.91406</ele>
        <time>2016-06-10T09:22:46Z</time>
      </trkpt>
      <trkpt lat="48.81482" lon="-0.34445">
        <ele>197.93817</ele>
        <time>2016-06-10T09:23:01Z</time>
      </trkpt>
      <trkpt lat="48.81485" lon="-0.34453">
        <ele>197.93817</ele>
        <time>2016-06-10T09:23:06Z</time>
      </trkpt>
      <trkpt lat="48.81491" lon="-0.34469">
        <ele>196.90022</ele>
        <time>2016-06-10T09:23:16Z</time>
      </trkpt>
      <trkpt lat="48.81494" lon="-0.34479">
        <ele>196.90022</ele>
        <time>2016-06-10T09:23:21Z</time>
      </trkpt>
      <trkpt lat="48.81499" lon="-0.34497">
        <ele>196.31667</ele>
        <time>2016-06-10T09:23:31Z</time>
      </trkpt>
      <trkpt lat="48.815" lon="-0.34514">
        <ele>195.83464</ele>
        <time>2016-06-10T09:23:36Z</time>
      </trkpt>
      <trkpt lat="48.81502" lon="-0.34524">
        <ele>195.83464</ele>
        <time>2016-06-10T09:23:46Z</time>
      </trkpt>
      <trkpt lat="48.81504" lon="-0.34532">
        <ele>194.6442</ele>
        <time>2016-06-10T09:23:51Z</time>
      </trkpt>
      <trkpt lat="48.81514" lon="-0.34548">
        <ele>194.16313</ele>
        <time>2016-06-10T09:24:01Z</time>
      </trkpt>
      <trkpt lat="48.81517" lon="-0.34556">
        <ele>194.16313</ele>
        <time>2016-06-10T09:24:06Z</time>
      </trkpt>
      <trkpt lat="48.81526" lon="-0.34567">
        <ele>193.56451</ele>
        <time>2016-06-10T09:24:16Z</time>
      </trkpt>
      <trkpt lat="48.8153" lon="-0.34573">
        <ele>193.56451</ele>
        <time>2016-06-10T09:24:21Z</time>
      </trkpt>
      <trkpt lat="48.81538" lon="-0.34592">
        <ele>193.03162</ele>
        <time>2016-06-10T09:24:31Z</time>
      </trkpt>
      <trkpt lat="48.81542" lon="-0.346">
        <ele>193.03162</ele>
        <time>2016-06-10T09:24:36Z</time>
      </trkpt>
      <trkpt lat="48.81551" lon="-0.3461">
        <ele>192.60484</ele>
        <time>2016-06-10T09:24:46Z</time>
      </trkpt>
      <trkpt lat="48.81555" lon="-0.34618">
        <ele>192.60484</ele>
        <time>2016-06-10T09:24:51Z</time>
      </trkpt>
      <trkpt lat="48.81564" lon="-0.34631">
        <ele>191.86192</ele>
        <time>2016-06-10T09:25:01Z</time>
      </trkpt>
      <trkpt lat="48.81568" lon="-0.34639">
        <ele>191.86192</ele>
        <time>2016-06-10T09:25:06Z</time>
      </trkpt>
      <trkpt lat="48.81577" lon="-0.34673">
        <ele>192.01547</ele>
        <time>2016-06-10T09:25:21Z</time>
      </trkpt>
      <trkpt lat="48.81579" lon="-0.34677">
        <ele>192.01547</ele>
        <time>2016-06-10T09:25:26Z</time>
      </trkpt>
      <trkpt lat="48.81586" lon="-0.3469">
        <ele>191.41829</ele>
        <time>2016-06-10T09:25:36Z</time>
      </trkpt>
      <trkpt lat="48.81591" lon="-0.34697">
        <ele>191.41829</ele>
        <time>2016-06-10T09:25:41Z</time>
      </trkpt>
      <trkpt lat="48.81598" lon="-0.34712">
        <ele>190.64594</ele>
        <time>2016-06-10T09:25:51Z</time>
      </trkpt>
      <trkpt lat="48.81602" lon="-0.3472">
        <ele>190.64594</ele>
        <time>2016-06-10T09:25:56Z</time>
      </trkpt>
      <trkpt lat="48.81609" lon="-0.34733">
        <ele>189.9671</ele>
        <time>2016-06-10T09:26:06Z</time>
      </trkpt>
      <trkpt lat="48.81613" lon="-0.34737">
        <ele>189.9671</ele>
        <time>2016-06-10T09:26:11Z</time>
      </trkpt>
      <trkpt lat="48.81619" lon="-0.34749">
        <ele>189.31522</ele>
        <time>2016-06-10T09:26:21Z</time>
      </trkpt>
      <trkpt lat="48.81621" lon="-0.34753">
        <ele>189.31522</ele>
        <time>2016-06-10T09:26:26Z</time>
      </trkpt>
      <trkpt lat="48.81627" lon="-0.34767">
        <ele>188.73378</ele>
        <time>2016-06-10T09:26:36Z</time>
      </trkpt>
      <trkpt lat="48.81628" lon="-0.34772">
        <ele>188.73378</ele>
        <time>2016-06-10T09:26:41Z</time>
      </trkpt>
      <trkpt lat="48.81634" lon="-0.34791">
        <ele>188.53444</ele>
        <time>2016-06-10T09:26:51Z</time>
      </trkpt>
      <trkpt lat="48.81636" lon="-0.34803">
        <ele>188.53444</ele>
        <time>2016-06-10T09:26:56Z</time>
      </trkpt>
      <trkpt lat="48.81639" lon="-0.34817">
        <ele>189.09404</ele>
        <time>2016-06-10T09:27:06Z</time>
      </trkpt>
      <trkpt lat="48.81642" lon="-0.34824">
        <ele>189.09404</ele>
        <time>2016-06-10T09:27:11Z</time>
      </trkpt>
      <trkpt lat="48.81643" lon="-0.3483">
        <ele>189.62506</ele>
        <time>2016-06-10T09:27:21Z</time>
      </trkpt>
      <trkpt lat="48.81645" lon="-0.3484">
        <ele>189.62506</ele>
        <time>2016-06-10T09:27:26Z</time>
      </trkpt>
      <trkpt lat="48.81646" lon="-0.34842">
        <ele>189.62506</ele>
        <time>2016-06-10T09:27:36Z</time>
      </trkpt>
      <trkpt lat="48.81646" lon="-0.34843">
        <ele>190.74352</ele>
        <time>2016-06-10T09:27:41Z</time>
      </trkpt>
      <trkpt lat="48.81656" lon="-0.34875">
        <ele>191.77946</ele>
        <time>2016-06-10T09:27:56Z</time>
      </trkpt>
      <trkpt lat="48.8166" lon="-0.34879">
        <ele>191.77946</ele>
        <time>2016-06-10T09:28:01Z</time>
      </trkpt>
      <trkpt lat="48.81667" lon="-0.34892">
        <ele>192.97452</ele>
        <time>2016-06-10T09:28:11Z</time>
      </trkpt>
      <trkpt lat="48.81669" lon="-0.34899">
        <ele>192.97452</ele>
        <time>2016-06-10T09:28:16Z</time>
      </trkpt>
      <trkpt lat="48.81673" lon="-0.34928">
        <ele>195.09001</ele>
        <time>2016-06-10T09:28:26Z</time>
      </trkpt>
      <trkpt lat="48.81671" lon="-0.34935">
        <ele>195.09001</ele>
        <time>2016-06-10T09:28:31Z</time>
      </trkpt>
      <trkpt lat="48.8167" lon="-0.34946">
        <ele>197.54889</ele>
        <time>2016-06-10T09:28:41Z</time>
      </trkpt>
      <trkpt lat="48.81669" lon="-0.34956">
        <ele>197.54889</ele>
        <time>2016-06-10T09:28:46Z</time>
      </trkpt>
      <trkpt lat="48.8167" lon="-0.34968">
        <ele>198.7913</ele>
        <time>2016-06-10T09:28:56Z</time>
      </trkpt>
      <trkpt lat="48.8167" lon="-0.34973">
        <ele>198.7913</ele>
        <time>2016-06-10T09:29:01Z</time>
      </trkpt>
      <trkpt lat="48.81669" lon="-0.3499">
        <ele>200.28214</ele>
        <time>2016-06-10T09:29:11Z</time>
      </trkpt>
      <trkpt lat="48.81669" lon="-0.34994">
        <ele>200.28214</ele>
        <time>2016-06-10T09:29:16Z</time>
      </trkpt>
      <trkpt lat="48.81666" lon="-0.35016">
        <ele>201.66884</ele>
        <time>2016-06-10T09:29:31Z</time>
      </trkpt>
      <trkpt lat="48.81663" lon="-0.35026">
        <ele>201.66884</ele>
        <time>2016-06-10T09:29:36Z</time>
      </trkpt>
      <trkpt lat="48.81658" lon="-0.35039">
        <ele>203.41443</ele>
        <time>2016-06-10T09:29:46Z</time>
      </trkpt>
      <trkpt lat="48.81658" lon="-0.35046">
        <ele>203.41443</ele>
        <time>2016-06-10T09:29:51Z</time>
      </trkpt>
      <trkpt lat="48.81653" lon="-0.35061">
        <ele>205.33615</ele>
        <time>2016-06-10T09:30:01Z</time>
      </trkpt>
      <trkpt lat="48.81652" lon="-0.35064">
        <ele>205.33615</ele>
        <time>2016-06-10T09:30:06Z</time>
      </trkpt>
      <trkpt lat="48.81647" lon="-0.35083">
        <ele>207.00081</ele>
        <time>2016-06-10T09:30:16Z</time>
      </trkpt>
      <trkpt lat="48.81643" lon="-0.35091">
        <ele>207.00081</ele>
        <time>2016-06-10T09:30:21Z</time>
      </trkpt>
      <trkpt lat="48.81642" lon="-0.35095">
        <ele>208.57127</ele>
        <time>2016-06-10T09:30:26Z</time>
      </trkpt>
      <trkpt lat="48.81641" lon="-0.35104">
        <ele>208.57127</ele>
        <time>2016-06-10T09:30:31Z</time>
      </trkpt>
      <trkpt lat="48.8164" lon="-0.35111">
        <ele>209.36058</ele>
        <time>2016-06-10T09:30:36Z</time>
      </trkpt>
      <trkpt lat="48.81636" lon="-0.35117">
        <ele>209.36058</ele>
        <time>2016-06-10T09:30:41Z</time>
      </trkpt>
      <trkpt lat="48.8163" lon="-0.35131">
        <ele>210.26373</ele>
        <time>2016-06-10T09:30:56Z</time>
      </trkpt>
      <trkpt lat="48.81629" lon="-0.35132">
        <ele>210.26373</ele>
        <time>2016-06-10T09:31:01Z</time>
      </trkpt>
      <trkpt lat="48.81628" lon="-0.35144">
        <ele>210.8888</ele>
        <time>2016-06-10T09:31:11Z</time>
      </trkpt>
      <trkpt lat="48.81626" lon="-0.35154">
        <ele>210.8888</ele>
        <time>2016-06-10T09:31:16Z</time>
      </trkpt>
      <trkpt lat="48.81621" lon="-0.3517">
        <ele>210.96408</ele>
        <time>2016-06-10T09:31:26Z</time>
      </trkpt>
      <trkpt lat="48.81616" lon="-0.35174">
        <ele>210.96408</ele>
        <time>2016-06-10T09:31:31Z</time>
      </trkpt>
      <trkpt lat="48.81608" lon="-0.3518">
        <ele>211.33351</ele>
        <time>2016-06-10T09:31:41Z</time>
      </trkpt>
      <trkpt lat="48.81605" lon="-0.35186">
        <ele>211.33351</ele>
        <time>2016-06-10T09:31:46Z</time>
      </trkpt>
      <trkpt lat="48.81596" lon="-0.35195">
        <ele>211.76933</ele>
        <time>2016-06-10T09:31:56Z</time>
      </trkpt>
      <trkpt lat="48.81591" lon="-0.35201">
        <ele>211.76933</ele>
        <time>2016-06-10T09:32:01Z</time>
      </trkpt>
      <trkpt lat="48.81582" lon="-0.35211">
        <ele>212.6137</ele>
        <time>2016-06-10T09:32:11Z</time>
      </trkpt>
      <trkpt lat="48.81579" lon="-0.35214">
        <ele>212.6137</ele>
        <time>2016-06-10T09:32:16Z</time>
      </trkpt>
      <trkpt lat="48.81573" lon="-0.35221">
        <ele>212.84665</ele>
        <time>2016-06-10T09:32:26Z</time>
      </trkpt>
      <trkpt lat="48.81569" lon="-0.35224">
        <ele>212.84665</ele>
        <time>2016-06-10T09:32:31Z</time>
      </trkpt>
      <trkpt lat="48.81564" lon="-0.35231">
        <ele>213.32602</ele>
        <time>2016-06-10T09:32:46Z</time>
      </trkpt>
      <trkpt lat="48.81555" lon="-0.35241">
        <ele>214.00304</ele>
        <time>2016-06-10T09:32:51Z</time>
      </trkpt>
      <trkpt lat="48.8154" lon="-0.35252">
        <ele>215.12157</ele>
        <time>2016-06-10T09:33:01Z</time>
      </trkpt>
      <trkpt lat="48.81535" lon="-0.35253">
        <ele>215.12157</ele>
        <time>2016-06-10T09:33:06Z</time>
      </trkpt>
      <trkpt lat="48.81529" lon="-0.35261">
        <ele>216.12549</ele>
        <time>2016-06-10T09:33:16Z</time>
      </trkpt>
      <trkpt lat="48.81525" lon="-0.35267">
        <ele>216.12549</ele>
        <time>2016-06-10T09:33:21Z</time>
      </trkpt>
      <trkpt lat="48.81518" lon="-0.35273">
        <ele>217.03583</ele>
        <time>2016-06-10T09:33:31Z</time>
      </trkpt>
      <trkpt lat="48.81514" lon="-0.35279">
        <ele>217.03583</ele>
        <time>2016-06-10T09:33:36Z</time>
      </trkpt>
      <trkpt lat="48.81498" lon="-0.35288">
        <ele>217.7135</ele>
        <time>2016-06-10T09:33:46Z</time>
      </trkpt>
      <trkpt lat="48.81494" lon="-0.3529">
        <ele>217.7135</ele>
        <time>2016-06-10T09:33:51Z</time>
      </trkpt>
      <trkpt lat="48.81485" lon="-0.3529">
        <ele>218.95404</ele>
        <time>2016-06-10T09:34:01Z</time>
      </trkpt>
      <trkpt lat="48.81481" lon="-0.35291">
        <ele>218.95404</ele>
        <time>2016-06-10T09:34:06Z</time>
      </trkpt>
      <trkpt lat="48.81472" lon="-0.35295">
        <ele>220.17934</ele>
        <time>2016-06-10T09:34:16Z</time>
      </trkpt>
      <trkpt lat="48.81471" lon="-0.35294">
        <ele>220.17934</ele>
        <time>2016-06-10T09:34:21Z</time>
      </trkpt>
      <trkpt lat="48.81462" lon="-0.353">
        <ele>221.35934</ele>
        <time>2016-06-10T09:34:36Z</time>
      </trkpt>
      <trkpt lat="48.81458" lon="-0.35303">
        <ele>221.35934</ele>
        <time>2016-06-10T09:34:41Z</time>
      </trkpt>
      <trkpt lat="48.81449" lon="-0.35307">
        <ele>222.62506</ele>
        <time>2016-06-10T09:34:51Z</time>
      </trkpt>
      <trkpt lat="48.81445" lon="-0.35309">
        <ele>222.62506</ele>
        <time>2016-06-10T09:34:56Z</time>
      </trkpt>
      <trkpt lat="48.81438" lon="-0.35313">
        <ele>223.27576</ele>
        <time>2016-06-10T09:35:06Z</time>
      </trkpt>
      <trkpt lat="48.81436" lon="-0.35315">
        <ele>223.27576</ele>
        <time>2016-06-10T09:35:11Z</time>
      </trkpt>
      <trkpt lat="48.81433" lon="-0.35315">
        <ele>223.27576</ele>
        <time>2016-06-10T09:35:21Z</time>
      </trkpt>
      <trkpt lat="48.81431" lon="-0.35316">
        <ele>223.27576</ele>
        <time>2016-06-10T09:35:26Z</time>
      </trkpt>
      <trkpt lat="48.81426" lon="-0.35319">
        <ele>225.08641</ele>
        <time>2016-06-10T09:35:36Z</time>
      </trkpt>
      <trkpt lat="48.81426" lon="-0.3532">
        <ele>225.08641</ele>
        <time>2016-06-10T09:35:41Z</time>
      </trkpt>
      <trkpt lat="48.81425" lon="-0.3532">
        <ele>225.08641</ele>
        <time>2016-06-10T09:35:56Z</time>
      </trkpt>
      <trkpt lat="48.81425" lon="-0.3532">
        <ele>225.08641</ele>
        <time>2016-06-10T09:36:01Z</time>
      </trkpt>
      <trkpt lat="48.81421" lon="-0.35323">
        <ele>225.08641</ele>
        <time>2016-06-10T09:36:11Z</time>
      </trkpt>
      <trkpt lat="48.81419" lon="-0.35324">
        <ele>225.08641</ele>
        <time>2016-06-10T09:36:16Z</time>
      </trkpt>
      <trkpt lat="48.81417" lon="-0.35325">
        <ele>227.04526</ele>
        <time>2016-06-10T09:36:26Z</time>
      </trkpt>
      <trkpt lat="48.81414" lon="-0.35327">
        <ele>227.04526</ele>
        <time>2016-06-10T09:36:31Z</time>
      </trkpt>
      <trkpt lat="48.81402" lon="-0.35339">
        <ele>228.57518</ele>
        <time>2016-06-10T09:36:41Z</time>
      </trkpt>
      <trkpt lat="48.81401" lon="-0.3534">
        <ele>228.57518</ele>
        <time>2016-06-10T09:36:46Z</time>
      </trkpt>
      <trkpt lat="48.81396" lon="-0.35343">
        <ele>228.57518</ele>
        <time>2016-06-10T09:36:56Z</time>
      </trkpt>
      <trkpt lat="48.81395" lon="-0.35345">
        <ele>228.57518</ele>
        <time>2016-06-10T09:37:01Z</time>
      </trkpt>
      <trkpt lat="48.81393" lon="-0.35346">
        <ele>230.48355</ele>
        <time>2016-06-10T09:37:11Z</time>
      </trkpt>
      <trkpt lat="48.81391" lon="-0.35347">
        <ele>230.48355</ele>
        <time>2016-06-10T09:37:16Z</time>
      </trkpt>
      <trkpt lat="48.81389" lon="-0.35348">
        <ele>230.48355</ele>
        <time>2016-06-10T09:37:31Z</time>
      </trkpt>
      <trkpt lat="48.81389" lon="-0.35349">
        <ele>230.48355</ele>
        <time>2016-06-10T09:37:36Z</time>
      </trkpt>
      <trkpt lat="48.81389" lon="-0.35349">
        <ele>230.48355</ele>
        <time>2016-06-10T09:37:46Z</time>
      </trkpt>
      <trkpt lat="48.81389" lon="-0.35349">
        <ele>230.48355</ele>
        <time>2016-06-10T09:37:51Z</time>
      </trkpt>
      <trkpt lat="48.81389" lon="-0.35349">
        <ele>230.48355</ele>
        <time>2016-06-10T09:38:01Z</time>
      </trkpt>
      <trkpt lat="48.81389" lon="-0.35349">
        <ele>230.48355</ele>
        <time>2016-06-10T09:38:06Z</time>
      </trkpt>
      <trkpt lat="48.81387" lon="-0.35353">
        <ele>230.48355</ele>
        <time>2016-06-10T09:38:16Z</time>
      </trkpt>
      <trkpt lat="48.81386" lon="-0.35354">
        <ele>232.95523</ele>
        <time>2016-06-10T09:38:21Z</time>
      </trkpt>
      <trkpt lat="48.81385" lon="-0.35355">
        <ele>232.95523</ele>
        <time>2016-06-10T09:38:31Z</time>
      </trkpt>
      <trkpt lat="48.81385" lon="-0.35356">
        <ele>232.95523</ele>
        <time>2016-06-10T09:38:36Z</time>
      </trkpt>
      <trkpt lat="48.81381" lon="-0.3536">
        <ele>232.95523</ele>
        <time>2016-06-10T09:38:46Z</time>
      </trkpt>
      <trkpt lat="48.8138" lon="-0.35361">
        <ele>232.95523</ele>
        <time>2016-06-10T09:38:51Z</time>
      </trkpt>
      <trkpt lat="48.81379" lon="-0.35361">
        <ele>232.95523</ele>
        <time>2016-06-10T09:39:01Z</time>
      </trkpt>
      <trkpt lat="48.81372" lon="-0.35372">
        <ele>234.79019</ele>
        <time>2016-06-10T09:39:06Z</time>
      </trkpt>
      <trkpt lat="48.81365" lon="-0.35385">
        <ele>236.1761</ele>
        <time>2016-06-10T09:39:21Z</time>
      </trkpt>
      <trkpt lat="48.81366" lon="-0.35388">
        <ele>236.1761</ele>
        <time>2016-06-10T09:39:26Z</time>
      </trkpt>
      <trkpt lat="48.81366" lon="-0.35405">
        <ele>236.97095</ele>
        <time>2016-06-10T09:39:36Z</time>
      </trkpt>
      <trkpt lat="48.81368" lon="-0.35411">
        <ele>236.97095</ele>
        <time>2016-06-10T09:39:41Z</time>
      </trkpt>
      <trkpt lat="48.81368" lon="-0.35428">
        <ele>237.6795</ele>
        <time>2016-06-10T09:39:51Z</time>
      </trkpt>
      <trkpt lat="48.81368" lon="-0.35428">
        <ele>237.6795</ele>
        <time>2016-06-10T09:39:56Z</time>
      </trkpt>
      <trkpt lat="48.8137" lon="-0.35435">
        <ele>237.6795</ele>
        <time>2016-06-10T09:40:06Z</time>
      </trkpt>
      <trkpt lat="48.81372" lon="-0.35447">
        <ele>237.8612</ele>
        <time>2016-06-10T09:40:11Z</time>
      </trkpt>
      <trkpt lat="48.81381" lon="-0.35464">
        <ele>237.55655</ele>
        <time>2016-06-10T09:40:21Z</time>
      </trkpt>
      <trkpt lat="48.81383" lon="-0.3547">
        <ele>237.55655</ele>
        <time>2016-06-10T09:40:26Z</time>
      </trkpt>
      <trkpt lat="48.81381" lon="-0.35481">
        <ele>237.46799</ele>
        <time>2016-06-10T09:40:36Z</time>
      </trkpt>
      <trkpt lat="48.81381" lon="-0.35483">
        <ele>237.46799</ele>
        <time>2016-06-10T09:40:41Z</time>
      </trkpt>
      <trkpt lat="48.81386" lon="-0.35506">
        <ele>237.12077</ele>
        <time>2016-06-10T09:40:51Z</time>
      </trkpt>
      <trkpt lat="48.81388" lon="-0.35517">
        <ele>237.12077</ele>
        <time>2016-06-10T09:40:56Z</time>
      </trkpt>
      <trkpt lat="48.81392" lon="-0.35534">
        <ele>236.99901</ele>
        <time>2016-06-10T09:41:06Z</time>
      </trkpt>
      <trkpt lat="48.81393" lon="-0.35543">
        <ele>236.99901</ele>
        <time>2016-06-10T09:41:11Z</time>
      </trkpt>
      <trkpt lat="48.81393" lon="-0.3556">
        <ele>236.97359</ele>
        <time>2016-06-10T09:41:21Z</time>
      </trkpt>
      <trkpt lat="48.81396" lon="-0.35568">
        <ele>236.97359</ele>
        <time>2016-06-10T09:41:26Z</time>
      </trkpt>
      <trkpt lat="48.814" lon="-0.35584">
        <ele>237.54492</ele>
        <time>2016-06-10T09:41:36Z</time>
      </trkpt>
      <trkpt lat="48.81401" lon="-0.35593">
        <ele>237.54492</ele>
        <time>2016-06-10T09:41:41Z</time>
      </trkpt>
      <trkpt lat="48.81409" lon="-0.35612">
        <ele>237.25652</ele>
        <time>2016-06-10T09:41:56Z</time>
      </trkpt>
      <trkpt lat="48.8141" lon="-0.35619">
        <ele>237.25652</ele>
        <time>2016-06-10T09:42:01Z</time>
      </trkpt>
      <trkpt lat="48.81414" lon="-0.35637">
        <ele>236.70868</ele>
        <time>2016-06-10T09:42:11Z</time>
      </trkpt>
      <trkpt lat="48.81415" lon="-0.35644">
        <ele>236.70868</ele>
        <time>2016-06-10T09:42:16Z</time>
      </trkpt>
      <trkpt lat="48.81419" lon="-0.35661">
        <ele>236.18427</ele>
        <time>2016-06-10T09:42:26Z</time>
      </trkpt>
      <trkpt lat="48.81419" lon="-0.35671">
        <ele>236.18427</ele>
        <time>2016-06-10T09:42:31Z</time>
      </trkpt>
      <trkpt lat="48.81422" lon="-0.35689">
        <ele>235.85863</ele>
        <time>2016-06-10T09:42:41Z</time>
      </trkpt>
      <trkpt lat="48.81422" lon="-0.35697">
        <ele>235.85863</ele>
        <time>2016-06-10T09:42:46Z</time>
      </trkpt>
      <trkpt lat="48.81424" lon="-0.35714">
        <ele>235.2735</ele>
        <time>2016-06-10T09:42:56Z</time>
      </trkpt>
      <trkpt lat="48.81428" lon="-0.35724">
        <ele>235.2735</ele>
        <time>2016-06-10T09:43:01Z</time>
      </trkpt>
      <trkpt lat="48.81434" lon="-0.35735">
        <ele>234.88478</ele>
        <time>2016-06-10T09:43:11Z</time>
      </trkpt>
      <trkpt lat="48.81439" lon="-0.35737">
        <ele>234.88478</ele>
        <time>2016-06-10T09:43:16Z</time>
      </trkpt>
      <trkpt lat="48.81444" lon="-0.35751">
        <ele>234.10469</ele>
        <time>2016-06-10T09:43:26Z</time>
      </trkpt>
      <trkpt lat="48.81448" lon="-0.35756">
        <ele>234.10469</ele>
        <time>2016-06-10T09:43:31Z</time>
      </trkpt>
      <trkpt lat="48.81453" lon="-0.35778">
        <ele>231.92836</ele>
        <time>2016-06-10T09:43:41Z</time>
      </trkpt>
      <trkpt lat="48.81454" lon="-0.35784">
        <ele>231.92836</ele>
        <time>2016-06-10T09:43:46Z</time>
      </trkpt>
      <trkpt lat="48.81464" lon="-0.3579">
        <ele>231.40865</ele>
        <time>2016-06-10T09:44:01Z</time>
      </trkpt>
      <trkpt lat="48.81464" lon="-0.3579">
        <ele>231.40865</ele>
        <time>2016-06-10T09:44:06Z</time>
      </trkpt>
      <trkpt lat="48.81465" lon="-0.3579">
        <ele>231.40865</ele>
        <time>2016-06-10T09:44:16Z</time>
      </trkpt>
      <trkpt lat="48.81469" lon="-0.35792">
        <ele>231.40865</ele>
        <time>2016-06-10T09:44:21Z</time>
      </trkpt>
      <trkpt lat="48.81473" lon="-0.35792">
        <ele>230.49513</ele>
        <time>2016-06-10T09:44:31Z</time>
      </trkpt>
      <trkpt lat="48.81476" lon="-0.3579">
        <ele>230.49513</ele>
        <time>2016-06-10T09:44:36Z</time>
      </trkpt>
      <trkpt lat="48.81477" lon="-0.3579">
        <ele>230.49513</ele>
        <time>2016-06-10T09:44:46Z</time>
      </trkpt>
      <trkpt lat="48.81477" lon="-0.3579">
        <ele>230.49513</ele>
        <time>2016-06-10T09:44:51Z</time>
      </trkpt>
      <trkpt lat="48.81481" lon="-0.35793">
        <ele>230.49513</ele>
        <time>2016-06-10T09:45:01Z</time>
      </trkpt>
      <trkpt lat="48.81481" lon="-0.35793">
        <ele>229.72617</ele>
        <time>2016-06-10T09:45:06Z</time>
      </trkpt>
      <trkpt lat="48.81482" lon="-0.35793">
        <ele>229.72617</ele>
        <time>2016-06-10T09:45:16Z</time>
      </trkpt>
      <trkpt lat="48.81482" lon="-0.35793">
        <ele>229.72617</ele>
        <time>2016-06-10T09:45:21Z</time>
      </trkpt>
      <trkpt lat="48.81486" lon="-0.35799">
        <ele>229.72617</ele>
        <time>2016-06-10T09:45:31Z</time>
      </trkpt>
      <trkpt lat="48.81494" lon="-0.35802">
        <ele>228.70607</ele>
        <time>2016-06-10T09:45:36Z</time>
      </trkpt>
      <trkpt lat="48.81499" lon="-0.35806">
        <ele>228.70607</ele>
        <time>2016-06-10T09:45:46Z</time>
      </trkpt>
      <trkpt lat="48.81499" lon="-0.35806">
        <ele>228.70607</ele>
        <time>2016-06-10T09:45:51Z</time>
      </trkpt>
      <trkpt lat="48.81499" lon="-0.35806">
        <ele>228.70607</ele>
        <time>2016-06-10T09:45:56Z</time>
      </trkpt>
      <trkpt lat="48.81505" lon="-0.35812">
        <ele>227.7609</ele>
        <time>2016-06-10T09:46:01Z</time>
      </trkpt>
      <trkpt lat="48.8151" lon="-0.35814">
        <ele>227.7609</ele>
        <time>2016-06-10T09:46:06Z</time>
      </trkpt>
      <trkpt lat="48.81514" lon="-0.35818">
        <ele>227.09148</ele>
        <time>2016-06-10T09:46:11Z</time>
      </trkpt>
      <trkpt lat="48.81526" lon="-0.35828">
        <ele>226.63788</ele>
        <time>2016-06-10T09:46:21Z</time>
      </trkpt>
      <trkpt lat="48.81533" lon="-0.35832">
        <ele>226.63788</ele>
        <time>2016-06-10T09:46:26Z</time>
      </trkpt>
      <trkpt lat="48.81541" lon="-0.35834">
        <ele>225.96912</ele>
        <time>2016-06-10T09:46:36Z</time>
      </trkpt>
      <trkpt lat="48.81542" lon="-0.35834">
        <ele>225.96912</ele>
        <time>2016-06-10T09:46:41Z</time>
      </trkpt>
      <trkpt lat="48.81546" lon="-0.35838">
        <ele>225.96912</ele>
        <time>2016-06-10T09:46:51Z</time>
      </trkpt>
      <trkpt lat="48.81546" lon="-0.35838">
        <ele>225.96912</ele>
        <time>2016-06-10T09:46:56Z</time>
      </trkpt>
      <trkpt lat="48.81546" lon="-0.35838">
        <ele>225.96912</ele>
        <time>2016-06-10T09:47:06Z</time>
      </trkpt>
      <trkpt lat="48.81546" lon="-0.35838">
        <ele>225.96912</ele>
        <time>2016-06-10T09:47:11Z</time>
      </trkpt>
      <trkpt lat="48.81546" lon="-0.35838">
        <ele>225.96912</ele>
        <time>2016-06-10T09:47:21Z</time>
      </trkpt>
      <trkpt lat="48.81544" lon="-0.3584">
        <ele>225.96912</ele>
        <time>2016-06-10T09:47:26Z</time>
      </trkpt>
      <trkpt lat="48.81546" lon="-0.35838">
        <ele>225.43593</ele>
        <time>2016-06-10T09:47:36Z</time>
      </trkpt>
      <trkpt lat="48.81546" lon="-0.35839">
        <ele>225.43593</ele>
        <time>2016-06-10T09:47:41Z</time>
      </trkpt>
      <trkpt lat="48.81547" lon="-0.35843">
        <ele>225.43593</ele>
        <time>2016-06-10T09:47:51Z</time>
      </trkpt>
      <trkpt lat="48.81547" lon="-0.35844">
        <ele>225.43593</ele>
        <time>2016-06-10T09:47:56Z</time>
      </trkpt>
      <trkpt lat="48.81545" lon="-0.35862">
        <ele>224.7718</ele>
        <time>2016-06-10T09:48:06Z</time>
      </trkpt>
      <trkpt lat="48.81545" lon="-0.35872">
        <ele>224.7718</ele>
        <time>2016-06-10T09:48:11Z</time>
      </trkpt>
      <trkpt lat="48.81547" lon="-0.35875">
        <ele>224.7718</ele>
        <time>2016-06-10T09:48:26Z</time>
      </trkpt>
      <trkpt lat="48.81547" lon="-0.35876">
        <ele>224.14807</ele>
        <time>2016-06-10T09:48:31Z</time>
      </trkpt>
      <trkpt lat="48.81547" lon="-0.35876">
        <ele>224.14807</ele>
        <time>2016-06-10T09:48:41Z</time>
      </trkpt>
      <trkpt lat="48.81547" lon="-0.35876">
        <ele>224.14807</ele>
        <time>2016-06-10T09:48:46Z</time>
      </trkpt>
      <trkpt lat="48.81547" lon="-0.35876">
        <ele>224.14807</ele>
        <time>2016-06-10T09:48:56Z</time>
      </trkpt>
      <trkpt lat="48.81547" lon="-0.35876">
        <ele>224.14807</ele>
        <time>2016-06-10T09:49:01Z</time>
      </trkpt>
      <trkpt lat="48.81549" lon="-0.35892">
        <ele>223.75204</ele>
        <time>2016-06-10T09:49:11Z</time>
      </trkpt>
      <trkpt lat="48.81549" lon="-0.35902">
        <ele>223.75204</ele>
        <time>2016-06-10T09:49:16Z</time>
      </trkpt>
      <trkpt lat="48.81547" lon="-0.35916">
        <ele>223.45387</ele>
        <time>2016-06-10T09:49:26Z</time>
      </trkpt>
      <trkpt lat="48.81544" lon="-0.35926">
        <ele>223.45387</ele>
        <time>2016-06-10T09:49:31Z</time>
      </trkpt>
      <trkpt lat="48.81534" lon="-0.35935">
        <ele>223.14723</ele>
        <time>2016-06-10T09:49:41Z</time>
      </trkpt>
      <trkpt lat="48.8153" lon="-0.35939">
        <ele>223.14723</ele>
        <time>2016-06-10T09:49:46Z</time>
      </trkpt>
      <trkpt lat="48.81514" lon="-0.35951">
        <ele>223.16594</ele>
        <time>2016-06-10T09:50:01Z</time>
      </trkpt>
      <trkpt lat="48.81508" lon="-0.35954">
        <ele>223.16594</ele>
        <time>2016-06-10T09:50:06Z</time>
      </trkpt>
      <trkpt lat="48.81499" lon="-0.35962">
        <ele>223.34262</ele>
        <time>2016-06-10T09:50:16Z</time>
      </trkpt>
      <trkpt lat="48.81495" lon="-0.35963">
        <ele>223.34262</ele>
        <time>2016-06-10T09:50:21Z</time>
      </trkpt>
      <trkpt lat="48.81493" lon="-0.35965">
        <ele>223.34262</ele>
        <time>2016-06-10T09:50:26Z</time>
      </trkpt>
      <trkpt lat="48.81493" lon="-0.35965">
        <ele>223.34262</ele>
        <time>2016-06-10T09:50:31Z</time>
      </trkpt>
      <trkpt lat="48.81491" lon="-0.35968">
        <ele>223.392</ele>
        <time>2016-06-10T09:50:36Z</time>
      </trkpt>
      <trkpt lat="48.81481" lon="-0.35978">
        <ele>223.75616</ele>
        <time>2016-06-10T09:50:46Z</time>
      </trkpt>
      <trkpt lat="48.81475" lon="-0.35983">
        <ele>223.75616</ele>
        <time>2016-06-10T09:50:51Z</time>
      </trkpt>
      <trkpt lat="48.81468" lon="-0.35999">
        <ele>224.55554</ele>
        <time>2016-06-10T09:51:01Z</time>
      </trkpt>
      <trkpt lat="48.81467" lon="-0.36003">
        <ele>224.55554</ele>
        <time>2016-06-10T09:51:06Z</time>
      </trkpt>
      <trkpt lat="48.81466" lon="-0.36025">
        <ele>225.66982</ele>
        <time>2016-06-10T09:51:21Z</time>
      </trkpt>
      <trkpt lat="48.81466" lon="-0.36033">
        <ele>225.66982</ele>
        <time>2016-06-10T09:51:26Z</time>
      </trkpt>
      <trkpt lat="48.81468" lon="-0.36039">
        <ele>226.78479</ele>
        <time>2016-06-10T09:51:36Z</time>
      </trkpt>
      <trkpt lat="48.81472" lon="-0.36047">
        <ele>226.78479</ele>
        <time>2016-06-10T09:51:41Z</time>
      </trkpt>
      <trkpt lat="48.81477" lon="-0.3606">
        <ele>227.63815</ele>
        <time>2016-06-10T09:51:51Z</time>
      </trkpt>
      <trkpt lat="48.81478" lon="-0.36067">
        <ele>227.63815</ele>
        <time>2016-06-10T09:51:56Z</time>
      </trkpt>
      <trkpt lat="48.81481" lon="-0.36083">
        <ele>228.21811</ele>
        <time>2016-06-10T09:52:06Z</time>
      </trkpt>
      <trkpt lat="48.81482" lon="-0.36093">
        <ele>228.21811</ele>
        <time>2016-06-10T09:52:11Z</time>
      </trkpt>
      <trkpt lat="48.81478" lon="-0.36104">
        <ele>228.96123</ele>
        <time>2016-06-10T09:52:21Z</time>
      </trkpt>
      <trkpt lat="48.81478" lon="-0.36105">
        <ele>228.96123</ele>
        <time>2016-06-10T09:52:26Z</time>
      </trkpt>
      <trkpt lat="48.81479" lon="-0.36105">
        <ele>228.96123</ele>
        <time>2016-06-10T09:52:36Z</time>
      </trkpt>
      <trkpt lat="48.81479" lon="-0.36105">
        <ele>228.96123</ele>
        <time>2016-06-10T09:52:41Z</time>
      </trkpt>
      <trkpt lat="48.81485" lon="-0.36115">
        <ele>229.94003</ele>
        <time>2016-06-10T09:52:51Z</time>
      </trkpt>
      <trkpt lat="48.81484" lon="-0.36115">
        <ele>229.94003</ele>
        <time>2016-06-10T09:52:56Z</time>
      </trkpt>
      <trkpt lat="48.81489" lon="-0.36128">
        <ele>230.9761</ele>
        <time>2016-06-10T09:53:06Z</time>
      </trkpt>
      <trkpt lat="48.8149" lon="-0.36134">
        <ele>230.9761</ele>
        <time>2016-06-10T09:53:11Z</time>
      </trkpt>
      <trkpt lat="48.81497" lon="-0.36166">
        <ele>232.19212</ele>
        <time>2016-06-10T09:53:26Z</time>
      </trkpt>
      <trkpt lat="48.81498" lon="-0.36172">
        <ele>232.19212</ele>
        <time>2016-06-10T09:53:31Z</time>
      </trkpt>
      <trkpt lat="48.81501" lon="-0.36187">
        <ele>233.25456</ele>
        <time>2016-06-10T09:53:41Z</time>
      </trkpt>
      <trkpt lat="48.81504" lon="-0.36191">
        <ele>233.25456</ele>
        <time>2016-06-10T09:53:46Z</time>
      </trkpt>
      <trkpt lat="48.8151" lon="-0.36204">
        <ele>233.82597</ele>
        <time>2016-06-10T09:53:56Z</time>
      </trkpt>
      <trkpt lat="48.81515" lon="-0.3621">
        <ele>233.82597</ele>
        <time>2016-06-10T09:54:01Z</time>
      </trkpt>
      <trkpt lat="48.81526" lon="-0.36222">
        <ele>234.17155</ele>
        <time>2016-06-10T09:54:11Z</time>
      </trkpt>
      <trkpt lat="48.81531" lon="-0.36226">
        <ele>234.17155</ele>
        <time>2016-06-10T09:54:16Z</time>
      </trkpt>
      <trkpt lat="48.81538" lon="-0.36232">
        <ele>234.24945</ele>
        <time>2016-06-10T09:54:26Z</time>
      </trkpt>
      <trkpt lat="48.81544" lon="-0.36237">
        <ele>234.24945</ele>
        <time>2016-06-10T09:54:31Z</time>
      </trkpt>
      <trkpt lat="48.81557" lon="-0.36247">
        <ele>234.42519</ele>
        <time>2016-06-10T09:54:41Z</time>
      </trkpt>
      <trkpt lat="48.81565" lon="-0.36254">
        <ele>234.82097</ele>
        <time>2016-06-10T09:54:46Z</time>
      </trkpt>
      <trkpt lat="48.81574" lon="-0.36266">
        <ele>234.97304</ele>
        <time>2016-06-10T09:54:56Z</time>
      </trkpt>
      <trkpt lat="48.81579" lon="-0.36271">
        <ele>234.97304</ele>
        <time>2016-06-10T09:55:01Z</time>
      </trkpt>
      <trkpt lat="48.81589" lon="-0.36281">
        <ele>235.12967</ele>
        <time>2016-06-10T09:55:11Z</time>
      </trkpt>
      <trkpt lat="48.81594" lon="-0.36285">
        <ele>235.12967</ele>
        <time>2016-06-10T09:55:16Z</time>
      </trkpt>
      <trkpt lat="48.81602" lon="-0.36293">
        <ele>236.45772</ele>
        <time>2016-06-10T09:55:26Z</time>
      </trkpt>
      <trkpt lat="48.81609" lon="-0.36297">
        <ele>236.45772</ele>
        <time>2016-06-10T09:55:31Z</time>
      </trkpt>
      <trkpt lat="48.81612" lon="-0.36301">
        <ele>237.10951</ele>
        <time>2016-06-10T09:55:36Z</time>
      </trkpt>
      <trkpt lat="48.81617" lon="-0.36303">
        <ele>237.10951</ele>
        <time>2016-06-10T09:55:41Z</time>
      </trkpt>
      <trkpt lat="48.81635" lon="-0.36319">
        <ele>237.70966</ele>
        <time>2016-06-10T09:55:56Z</time>
      </trkpt>
      <trkpt lat="48.81641" lon="-0.36324">
        <ele>237.70966</ele>
        <time>2016-06-10T09:56:01Z</time>
      </trkpt>
      <trkpt lat="48.81652" lon="-0.36334">
        <ele>238.64975</ele>
        <time>2016-06-10T09:56:11Z</time>
      </trkpt>
      <trkpt lat="48.81657" lon="-0.36343">
        <ele>238.64975</ele>
        <time>2016-06-10T09:56:16Z</time>
      </trkpt>
      <trkpt lat="48.81664" lon="-0.36354">
        <ele>239.05228</ele>
        <time>2016-06-10T09:56:26Z</time>
      </trkpt>
      <trkpt lat="48.81667" lon="-0.3636">
        <ele>239.05228</ele>
        <time>2016-06-10T09:56:31Z</time>
      </trkpt>
      <trkpt lat="48.81674" lon="-0.36374">
        <ele>239.37398</ele>
        <time>2016-06-10T09:56:41Z</time>
      </trkpt>
      <trkpt lat="48.8168" lon="-0.36377">
        <ele>239.37398</ele>
        <time>2016-06-10T09:56:46Z</time>
      </trkpt>
      <trkpt lat="48.81692" lon="-0.36383">
        <ele>239.28885</ele>
        <time>2016-06-10T09:56:56Z</time>
      </trkpt>
      <trkpt lat="48.81697" lon="-0.36387">
        <ele>239.28885</ele>
        <time>2016-06-10T09:57:01Z</time>
      </trkpt>
      <trkpt lat="48.81708" lon="-0.36388">
        <ele>238.914</ele>
        <time>2016-06-10T09:57:11Z</time>
      </trkpt>
      <trkpt lat="48.81716" lon="-0.36386">
        <ele>238.914</ele>
        <time>2016-06-10T09:57:16Z</time>
      </trkpt>
      <trkpt lat="48.81725" lon="-0.36385">
        <ele>238.87755</ele>
        <time>2016-06-10T09:57:26Z</time>
      </trkpt>
      <trkpt lat="48.8173" lon="-0.36386">
        <ele>238.87755</ele>
        <time>2016-06-10T09:57:31Z</time>
      </trkpt>
      <trkpt lat="48.81743" lon="-0.36384">
        <ele>238.62204</ele>
        <time>2016-06-10T09:57:41Z</time>
      </trkpt>
      <trkpt lat="48.81748" lon="-0.36382">
        <ele>238.62204</ele>
        <time>2016-06-10T09:57:46Z</time>
      </trkpt>
      <trkpt lat="48.81762" lon="-0.3638">
        <ele>238.48193</ele>
        <time>2016-06-10T09:57:56Z</time>
      </trkpt>
      <trkpt lat="48.81766" lon="-0.36381">
        <ele>238.48193</ele>
        <time>2016-06-10T09:58:01Z</time>
      </trkpt>
      <trkpt lat="48.81778" lon="-0.36384">
        <ele>237.93088</ele>
        <time>2016-06-10T09:58:11Z</time>
      </trkpt>
      <trkpt lat="48.81788" lon="-0.36385">
        <ele>237.83705</ele>
        <time>2016-06-10T09:58:16Z</time>
      </trkpt>
      <trkpt lat="48.81792" lon="-0.36387">
        <ele>237.83705</ele>
        <time>2016-06-10T09:58:21Z</time>
      </trkpt>
      <trkpt lat="48.81794" lon="-0.36391">
        <ele>237.83705</ele>
        <time>2016-06-10T09:58:26Z</time>
      </trkpt>
      <trkpt lat="48.81799" lon="-0.36396">
        <ele>237.74979</ele>
        <time>2016-06-10T09:58:31Z</time>
      </trkpt>
      <trkpt lat="48.81811" lon="-0.36406">
        <ele>237.23709</ele>
        <time>2016-06-10T09:58:41Z</time>
      </trkpt>
      <trkpt lat="48.81814" lon="-0.36411">
        <ele>237.23709</ele>
        <time>2016-06-10T09:58:46Z</time>
      </trkpt>
      <trkpt lat="48.81826" lon="-0.3642">
        <ele>236.89429</ele>
        <time>2016-06-10T09:58:56Z</time>
      </trkpt>
      <trkpt lat="48.81831" lon="-0.36425">
        <ele>236.89429</ele>
        <time>2016-06-10T09:59:01Z</time>
      </trkpt>
      <trkpt lat="48.81839" lon="-0.36434">
        <ele>236.35014</ele>
        <time>2016-06-10T09:59:11Z</time>
      </trkpt>
      <trkpt lat="48.81844" lon="-0.36439">
        <ele>236.35014</ele>
        <time>2016-06-10T09:59:16Z</time>
      </trkpt>
      <trkpt lat="48.81856" lon="-0.36445">
        <ele>236.54385</ele>
        <time>2016-06-10T09:59:26Z</time>
      </trkpt>
      <trkpt lat="48.81862" lon="-0.36448">
        <ele>236.54385</ele>
        <time>2016-06-10T09:59:31Z</time>
      </trkpt>
      <trkpt lat="48.81874" lon="-0.36454">
        <ele>236.48448</ele>
        <time>2016-06-10T09:59:41Z</time>
      </trkpt>
      <trkpt lat="48.81877" lon="-0.36455">
        <ele>236.48448</ele>
        <time>2016-06-10T09:59:46Z</time>
      </trkpt>
      <trkpt lat="48.81891" lon="-0.36466">
        <ele>236.52278</ele>
        <time>2016-06-10T09:59:56Z</time>
      </trkpt>
      <trkpt lat="48.81895" lon="-0.36468">
        <ele>236.52278</ele>
        <time>2016-06-10T10:00:01Z</time>
      </trkpt>
      <trkpt lat="48.8191" lon="-0.36485">
        <ele>236.65198</ele>
        <time>2016-06-10T10:00:16Z</time>
      </trkpt>
      <trkpt lat="48.81915" lon="-0.36491">
        <ele>236.65198</ele>
        <time>2016-06-10T10:00:21Z</time>
      </trkpt>
      <trkpt lat="48.81922" lon="-0.36503">
        <ele>236.54848</ele>
        <time>2016-06-10T10:00:31Z</time>
      </trkpt>
      <trkpt lat="48.81927" lon="-0.36513">
        <ele>236.54848</ele>
        <time>2016-06-10T10:00:36Z</time>
      </trkpt>
      <trkpt lat="48.81934" lon="-0.36525">
        <ele>236.48956</ele>
        <time>2016-06-10T10:00:46Z</time>
      </trkpt>
      <trkpt lat="48.81939" lon="-0.36533">
        <ele>236.48956</ele>
        <time>2016-06-10T10:00:51Z</time>
      </trkpt>
      <trkpt lat="48.81946" lon="-0.36545">
        <ele>236.05463</ele>
        <time>2016-06-10T10:01:01Z</time>
      </trkpt>
      <trkpt lat="48.8195" lon="-0.3655">
        <ele>236.05463</ele>
        <time>2016-06-10T10:01:06Z</time>
      </trkpt>
      <trkpt lat="48.81958" lon="-0.36564">
        <ele>235.70532</ele>
        <time>2016-06-10T10:01:16Z</time>
      </trkpt>
      <trkpt lat="48.81961" lon="-0.36572">
        <ele>235.70532</ele>
        <time>2016-06-10T10:01:21Z</time>
      </trkpt>
      <trkpt lat="48.81969" lon="-0.36583">
        <ele>235.06204</ele>
        <time>2016-06-10T10:01:31Z</time>
      </trkpt>
      <trkpt lat="48.81973" lon="-0.36589">
        <ele>235.06204</ele>
        <time>2016-06-10T10:01:36Z</time>
      </trkpt>
      <trkpt lat="48.8198" lon="-0.36601">
        <ele>234.0477</ele>
        <time>2016-06-10T10:01:46Z</time>
      </trkpt>
      <trkpt lat="48.81984" lon="-0.36606">
        <ele>234.0477</ele>
        <time>2016-06-10T10:01:51Z</time>
      </trkpt>
      <trkpt lat="48.81998" lon="-0.36623">
        <ele>233.1251</ele>
        <time>2016-06-10T10:02:06Z</time>
      </trkpt>
      <trkpt lat="48.82003" lon="-0.36631">
        <ele>233.1251</ele>
        <time>2016-06-10T10:02:11Z</time>
      </trkpt>
      <trkpt lat="48.8201" lon="-0.36636">
        <ele>232.07426</ele>
        <time>2016-06-10T10:02:21Z</time>
      </trkpt>
      <trkpt lat="48.82014" lon="-0.36639">
        <ele>232.07426</ele>
        <time>2016-06-10T10:02:26Z</time>
      </trkpt>
      <trkpt lat="48.82019" lon="-0.36643">
        <ele>231.0087</ele>
        <time>2016-06-10T10:02:36Z</time>
      </trkpt>
      <trkpt lat="48.8202" lon="-0.36644">
        <ele>231.0087</ele>
        <time>2016-06-10T10:02:41Z</time>
      </trkpt>
      <trkpt lat="48.82029" lon="-0.36651">
        <ele>230.32181</ele>
        <time>2016-06-10T10:02:51Z</time>
      </trkpt>
      <trkpt lat="48.82035" lon="-0.36659">
        <ele>230.32181</ele>
        <time>2016-06-10T10:02:56Z</time>
      </trkpt>
      <trkpt lat="48.82045" lon="-0.36672">
        <ele>229.71408</ele>
        <time>2016-06-10T10:03:06Z</time>
      </trkpt>
      <trkpt lat="48.82049" lon="-0.36678">
        <ele>229.71408</ele>
        <time>2016-06-10T10:03:11Z</time>
      </trkpt>
      <trkpt lat="48.82059" lon="-0.36694">
        <ele>228.93654</ele>
        <time>2016-06-10T10:03:21Z</time>
      </trkpt>
      <trkpt lat="48.82063" lon="-0.36696">
        <ele>228.93654</ele>
        <time>2016-06-10T10:03:26Z</time>
      </trkpt>
      <trkpt lat="48.82071" lon="-0.36712">
        <ele>228.16243</ele>
        <time>2016-06-10T10:03:36Z</time>
      </trkpt>
      <trkpt lat="48.82075" lon="-0.36721">
        <ele>228.16243</ele>
        <time>2016-06-10T10:03:41Z</time>
      </trkpt>
      <trkpt lat="48.82083" lon="-0.36741">
        <ele>226.97575</ele>
        <time>2016-06-10T10:03:51Z</time>
      </trkpt>
      <trkpt lat="48.82085" lon="-0.36747">
        <ele>226.97575</ele>
        <time>2016-06-10T10:03:56Z</time>
      </trkpt>
      <trkpt lat="48.82093" lon="-0.36764">
        <ele>225.95769</ele>
        <time>2016-06-10T10:04:06Z</time>
      </trkpt>
      <trkpt lat="48.82096" lon="-0.36771">
        <ele>225.95769</ele>
        <time>2016-06-10T10:04:11Z</time>
      </trkpt>
      <trkpt lat="48.82104" lon="-0.36784">
        <ele>225.0842</ele>
        <time>2016-06-10T10:04:21Z</time>
      </trkpt>
      <trkpt lat="48.82106" lon="-0.36792">
        <ele>225.0842</ele>
        <time>2016-06-10T10:04:26Z</time>
      </trkpt>
      <trkpt lat="48.82115" lon="-0.36819">
        <ele>224.18837</ele>
        <time>2016-06-10T10:04:41Z</time>
      </trkpt>
      <trkpt lat="48.82119" lon="-0.36823">
        <ele>224.18837</ele>
        <time>2016-06-10T10:04:46Z</time>
      </trkpt>
      <trkpt lat="48.82125" lon="-0.36844">
        <ele>223.4038</ele>
        <time>2016-06-10T10:04:56Z</time>
      </trkpt>
      <trkpt lat="48.82127" lon="-0.36849">
        <ele>223.4038</ele>
        <time>2016-06-10T10:05:01Z</time>
      </trkpt>
      <trkpt lat="48.8213" lon="-0.36862">
        <ele>222.33505</ele>
        <time>2016-06-10T10:05:11Z</time>
      </trkpt>
      <trkpt lat="48.82133" lon="-0.36867">
        <ele>222.33505</ele>
        <time>2016-06-10T10:05:16Z</time>
      </trkpt>
      <trkpt lat="48.8214" lon="-0.36884">
        <ele>221.02002</ele>
        <time>2016-06-10T10:05:26Z</time>
      </trkpt>
      <trkpt lat="48.82144" lon="-0.36893">
        <ele>221.02002</ele>
        <time>2016-06-10T10:05:31Z</time>
      </trkpt>
      <trkpt lat="48.82149" lon="-0.36911">
        <ele>219.94113</ele>
        <time>2016-06-10T10:05:41Z</time>
      </trkpt>
      <trkpt lat="48.82152" lon="-0.36919">
        <ele>219.94113</ele>
        <time>2016-06-10T10:05:46Z</time>
      </trkpt>
      <trkpt lat="48.82152" lon="-0.36924">
        <ele>218.91055</ele>
        <time>2016-06-10T10:05:56Z</time>
      </trkpt>
      <trkpt lat="48.82152" lon="-0.36924">
        <ele>218.91055</ele>
        <time>2016-06-10T10:06:01Z</time>
      </trkpt>
      <trkpt lat="48.82152" lon="-0.36927">
        <ele>218.91055</ele>
        <time>2016-06-10T10:06:11Z</time>
      </trkpt>
      <trkpt lat="48.82157" lon="-0.3693">
        <ele>218.91055</ele>
        <time>2016-06-10T10:06:16Z</time>
      </trkpt>
      <trkpt lat="48.82162" lon="-0.36945">
        <ele>218.17198</ele>
        <time>2016-06-10T10:06:26Z</time>
      </trkpt>
      <trkpt lat="48.82166" lon="-0.36954">
        <ele>218.17198</ele>
        <time>2016-06-10T10:06:31Z</time>
      </trkpt>
      <trkpt lat="48.82178" lon="-0.36956">
        <ele>216.95592</ele>
        <time>2016-06-10T10:06:41Z</time>
      </trkpt>
      <trkpt lat="48.82183" lon="-0.36952">
        <ele>216.95592</ele>
        <time>2016-06-10T10:06:46Z</time>
      </trkpt>
      <trkpt lat="48.82194" lon="-0.36942">
        <ele>216.4241</ele>
        <time>2016-06-10T10:06:56Z</time>
      </trkpt>
      <trkpt lat="48.82201" lon="-0.36938">
        <ele>216.4241</ele>
        <time>2016-06-10T10:07:01Z</time>
      </trkpt>
      <trkpt lat="48.82217" lon="-0.36921">
        <ele>215.97923</ele>
        <time>2016-06-10T10:07:16Z</time>
      </trkpt>
      <trkpt lat="48.82223" lon="-0.36924">
        <ele>215.97923</ele>
        <time>2016-06-10T10:07:21Z</time>
      </trkpt>
      <trkpt lat="48.82231" lon="-0.36939">
        <ele>215.22614</ele>
        <time>2016-06-10T10:07:31Z</time>
      </trkpt>
      <trkpt lat="48.82234" lon="-0.36947">
        <ele>215.22614</ele>
        <time>2016-06-10T10:07:36Z</time>
      </trkpt>
      <trkpt lat="48.82237" lon="-0.36953">
        <ele>214.60641</ele>
        <time>2016-06-10T10:07:41Z</time>
      </trkpt>
      <trkpt lat="48.8224" lon="-0.36961">
        <ele>214.60641</ele>
        <time>2016-06-10T10:07:46Z</time>
      </trkpt>
      <trkpt lat="48.82241" lon="-0.36968">
        <ele>214.05327</ele>
        <time>2016-06-10T10:07:51Z</time>
      </trkpt>
      <trkpt lat="48.82244" lon="-0.36987">
        <ele>213.01456</ele>
        <time>2016-06-10T10:08:01Z</time>
      </trkpt>
      <trkpt lat="48.82246" lon="-0.36993">
        <ele>213.01456</ele>
        <time>2016-06-10T10:08:06Z</time>
      </trkpt>
      <trkpt lat="48.8225" lon="-0.37009">
        <ele>211.91672</ele>
        <time>2016-06-10T10:08:16Z</time>
      </trkpt>
      <trkpt lat="48.82252" lon="-0.37012">
        <ele>211.91672</ele>
        <time>2016-06-10T10:08:21Z</time>
      </trkpt>
      <trkpt lat="48.8226" lon="-0.37039">
        <ele>211.28467</ele>
        <time>2016-06-10T10:08:36Z</time>
      </trkpt>
      <trkpt lat="48.82263" lon="-0.37048">
        <ele>211.28467</ele>
        <time>2016-06-10T10:08:41Z</time>
      </trkpt>
      <trkpt lat="48.82269" lon="-0.37063">
        <ele>210.6811</ele>
        <time>2016-06-10T10:08:51Z</time>
      </trkpt>
      <trkpt lat="48.82272" lon="-0.37072">
        <ele>210.6811</ele>
        <time>2016-06-10T10:08:56Z</time>
      </trkpt>
      <trkpt lat="48.82276" lon="-0.37089">
        <ele>210.40681</ele>
        <time>2016-06-10T10:09:06Z</time>
      </trkpt>
      <trkpt lat="48.82278" lon="-0.371">
        <ele>210.40681</ele>
        <time>2016-06-10T10:09:11Z</time>
      </trkpt>
      <trkpt lat="48.82286" lon="-0.37113">
        <ele>210.13428</ele>
        <time>2016-06-10T10:09:21Z</time>
      </trkpt>
      <trkpt lat="48.82288" lon="-0.37122">
        <ele>210.13428</ele>
        <time>2016-06-10T10:09:26Z</time>
      </trkpt>
      <trkpt lat="48.82293" lon="-0.37136">
        <ele>209.76173</ele>
        <time>2016-06-10T10:09:36Z</time>
      </trkpt>
      <trkpt lat="48.82297" lon="-0.37144">
        <ele>209.76173</ele>
        <time>2016-06-10T10:09:41Z</time>
      </trkpt>
      <trkpt lat="48.82304" lon="-0.37156">
        <ele>208.87807</ele>
        <time>2016-06-10T10:09:51Z</time>
      </trkpt>
      <trkpt lat="48.82307" lon="-0.37167">
        <ele>208.87807</ele>
        <time>2016-06-10T10:09:56Z</time>
      </trkpt>
      <trkpt lat="48.82314" lon="-0.37178">
        <ele>207.75226</ele>
        <time>2016-06-10T10:10:06Z</time>
      </trkpt>
      <trkpt lat="48.82317" lon="-0.37185">
        <ele>207.75226</ele>
        <time>2016-06-10T10:10:11Z</time>
      </trkpt>
      <trkpt lat="48.8232" lon="-0.37189">
        <ele>206.72066</ele>
        <time>2016-06-10T10:10:16Z</time>
      </trkpt>
      <trkpt lat="48.8232" lon="-0.3719">
        <ele>206.72066</ele>
        <time>2016-06-10T10:10:21Z</time>
      </trkpt>
      <trkpt lat="48.82321" lon="-0.3719">
        <ele>206.72066</ele>
        <time>2016-06-10T10:10:31Z</time>
      </trkpt>
      <trkpt lat="48.82322" lon="-0.3719">
        <ele>206.72066</ele>
        <time>2016-06-10T10:10:36Z</time>
      </trkpt>
      <trkpt lat="48.82324" lon="-0.37194">
        <ele>206.72066</ele>
        <time>2016-06-10T10:10:46Z</time>
      </trkpt>
      <trkpt lat="48.82327" lon="-0.37198">
        <ele>205.70549</ele>
        <time>2016-06-10T10:10:51Z</time>
      </trkpt>
      <trkpt lat="48.82334" lon="-0.37211">
        <ele>204.3896</ele>
        <time>2016-06-10T10:11:01Z</time>
      </trkpt>
      <trkpt lat="48.82337" lon="-0.37215">
        <ele>204.3896</ele>
        <time>2016-06-10T10:11:06Z</time>
      </trkpt>
      <trkpt lat="48.82348" lon="-0.37227">
        <ele>202.82585</ele>
        <time>2016-06-10T10:11:16Z</time>
      </trkpt>
      <trkpt lat="48.82352" lon="-0.37234">
        <ele>202.82585</ele>
        <time>2016-06-10T10:11:21Z</time>
      </trkpt>
      <trkpt lat="48.82357" lon="-0.37244">
        <ele>201.72672</ele>
        <time>2016-06-10T10:11:31Z</time>
      </trkpt>
      <trkpt lat="48.82359" lon="-0.37245">
        <ele>201.72672</ele>
        <time>2016-06-10T10:11:36Z</time>
      </trkpt>
      <trkpt lat="48.82364" lon="-0.37251">
        <ele>201.72672</ele>
        <time>2016-06-10T10:11:46Z</time>
      </trkpt>
      <trkpt lat="48.82368" lon="-0.37256">
        <ele>200.46843</ele>
        <time>2016-06-10T10:11:51Z</time>
      </trkpt>
      <trkpt lat="48.82379" lon="-0.37278">
        <ele>199.19402</ele>
        <time>2016-06-10T10:12:06Z</time>
      </trkpt>
      <trkpt lat="48.82383" lon="-0.37282">
        <ele>199.19402</ele>
        <time>2016-06-10T10:12:11Z</time>
      </trkpt>
      <trkpt lat="48.82387" lon="-0.37286">
        <ele>198.18007</ele>
        <time>2016-06-10T10:12:16Z</time>
      </trkpt>
      <trkpt lat="48.8239" lon="-0.37291">
        <ele>198.18007</ele>
        <time>2016-06-10T10:12:21Z</time>
      </trkpt>
      <trkpt lat="48.82395" lon="-0.37299">
        <ele>197.66771</ele>
        <time>2016-06-10T10:12:31Z</time>
      </trkpt>
      <trkpt lat="48.82399" lon="-0.37303">
        <ele>197.66771</ele>
        <time>2016-06-10T10:12:36Z</time>
      </trkpt>
      <trkpt lat="48.82402" lon="-0.37312">
        <ele>196.94212</ele>
        <time>2016-06-10T10:12:46Z</time>
      </trkpt>
      <trkpt lat="48.82403" lon="-0.37312">
        <ele>196.94212</ele>
        <time>2016-06-10T10:12:51Z</time>
      </trkpt>
      <trkpt lat="48.82407" lon="-0.37317">
        <ele>196.94212</ele>
        <time>2016-06-10T10:13:06Z</time>
      </trkpt>
      <trkpt lat="48.82409" lon="-0.37321">
        <ele>195.8748</ele>
        <time>2016-06-10T10:13:11Z</time>
      </trkpt>
      <trkpt lat="48.82415" lon="-0.37328">
        <ele>195.8748</ele>
        <time>2016-06-10T10:13:21Z</time>
      </trkpt>
      <trkpt lat="48.82418" lon="-0.37331">
        <ele>194.40523</ele>
        <time>2016-06-10T10:13:26Z</time>
      </trkpt>
      <trkpt lat="48.82425" lon="-0.37336">
        <ele>194.40523</ele>
        <time>2016-06-10T10:13:36Z</time>
      </trkpt>
      <trkpt lat="48.82427" lon="-0.37339">
        <ele>192.98283</ele>
        <time>2016-06-10T10:13:41Z</time>
      </trkpt>
      <trkpt lat="48.82433" lon="-0.37348">
        <ele>192.98283</ele>
        <time>2016-06-10T10:13:51Z</time>
      </trkpt>
      <trkpt lat="48.82438" lon="-0.37352">
        <ele>191.79323</ele>
        <time>2016-06-10T10:13:56Z</time>
      </trkpt>
      <trkpt lat="48.82445" lon="-0.37358">
        <ele>191.79323</ele>
        <time>2016-06-10T10:14:06Z</time>
      </trkpt>
      <trkpt lat="48.82449" lon="-0.37363">
        <ele>190.67628</ele>
        <time>2016-06-10T10:14:11Z</time>
      </trkpt>
      <trkpt lat="48.82459" lon="-0.37369">
        <ele>189.58426</ele>
        <time>2016-06-10T10:14:21Z</time>
      </trkpt>
      <trkpt lat="48.82463" lon="-0.37371">
        <ele>189.58426</ele>
        <time>2016-06-10T10:14:26Z</time>
      </trkpt>
      <trkpt lat="48.82472" lon="-0.37371">
        <ele>188.55923</ele>
        <time>2016-06-10T10:14:36Z</time>
      </trkpt>
      <trkpt lat="48.82475" lon="-0.37371">
        <ele>188.55923</ele>
        <time>2016-06-10T10:14:41Z</time>
      </trkpt>
      <trkpt lat="48.82476" lon="-0.3737">
        <ele>188.55923</ele>
        <time>2016-06-10T10:14:46Z</time>
      </trkpt>
      <trkpt lat="48.82477" lon="-0.3737">
        <ele>188.55923</ele>
        <time>2016-06-10T10:14:51Z</time>
      </trkpt>
      <trkpt lat="48.82478" lon="-0.37369">
        <ele>188.55923</ele>
        <time>2016-06-10T10:14:56Z</time>
      </trkpt>
      <trkpt lat="48.82479" lon="-0.3737">
        <ele>188.55923</ele>
        <time>2016-06-10T10:15:01Z</time>
      </trkpt>
      <trkpt lat="48.82478" lon="-0.3737">
        <ele>188.55923</ele>
        <time>2016-06-10T10:15:06Z</time>
      </trkpt>
      <trkpt lat="48.82478" lon="-0.3737">
        <ele>188.15883</ele>
        <time>2016-06-10T10:15:11Z</time>
      </trkpt>
      <trkpt lat="48.82478" lon="-0.3737">
        <ele>188.15883</ele>
        <time>2016-06-10T10:15:16Z</time>
      </trkpt>
      <trkpt lat="48.82478" lon="-0.3737">
        <ele>188.15883</ele>
        <time>2016-06-10T10:15:26Z</time>
      </trkpt>
      <trkpt lat="48.82482" lon="-0.37371">
        <ele>188.15883</ele>
        <time>2016-06-10T10:15:41Z</time>
      </trkpt>
      <trkpt lat="48.82482" lon="-0.37371">
        <ele>188.15883</ele>
        <time>2016-06-10T10:15:46Z</time>
      </trkpt>
      <trkpt lat="48.82483" lon="-0.37367">
        <ele>188.15883</ele>
        <time>2016-06-10T10:15:56Z</time>
      </trkpt>
      <trkpt lat="48.82483" lon="-0.37368">
        <ele>188.15883</ele>
        <time>2016-06-10T10:16:01Z</time>
      </trkpt>
      <trkpt lat="48.82478" lon="-0.37371">
        <ele>187.31264</ele>
        <time>2016-06-10T10:16:11Z</time>
      </trkpt>
      <trkpt lat="48.82479" lon="-0.37371">
        <ele>187.31264</ele>
        <time>2016-06-10T10:16:16Z</time>
      </trkpt>
      <trkpt lat="48.8248" lon="-0.3737">
        <ele>187.31264</ele>
        <time>2016-06-10T10:16:26Z</time>
      </trkpt>
      <trkpt lat="48.82481" lon="-0.3737">
        <ele>187.31264</ele>
        <time>2016-06-10T10:16:31Z</time>
      </trkpt>
      <trkpt lat="48.82481" lon="-0.37369">
        <ele>187.31264</ele>
        <time>2016-06-10T10:16:41Z</time>
      </trkpt>
      <trkpt lat="48.82481" lon="-0.37369">
        <ele>187.31264</ele>
        <time>2016-06-10T10:16:46Z</time>
      </trkpt>
      <trkpt lat="48.82481" lon="-0.37369">
        <ele>187.31264</ele>
        <time>2016-06-10T10:16:51Z</time>
      </trkpt>
      <trkpt lat="48.82481" lon="-0.37369">
        <ele>187.31264</ele>
        <time>2016-06-10T10:16:56Z</time>
      </trkpt>
      <trkpt lat="48.82481" lon="-0.37369">
        <ele>187.31264</ele>
        <time>2016-06-10T10:17:01Z</time>
      </trkpt>
      <trkpt lat="48.82481" lon="-0.37369">
        <ele>187.31264</ele>
        <time>2016-06-10T10:17:06Z</time>
      </trkpt>
      <trkpt lat="48.82481" lon="-0.37369">
        <ele>187.31264</ele>
        <time>2016-06-10T10:17:11Z</time>
      </trkpt>
      <trkpt lat="48.82481" lon="-0.37369">
        <ele>187.31264</ele>
        <time>2016-06-10T10:17:16Z</time>
      </trkpt>
      <trkpt lat="48.82481" lon="-0.37369">
        <ele>187.31264</ele>
        <time>2016-06-10T10:17:21Z</time>
      </trkpt>
      <trkpt lat="48.82481" lon="-0.37369">
        <ele>187.31264</ele>
        <time>2016-06-10T10:17:26Z</time>
      </trkpt>
      <trkpt lat="48.82481" lon="-0.37369">
        <ele>187.31264</ele>
        <time>2016-06-10T10:17:31Z</time>
      </trkpt>
      <trkpt lat="48.82482" lon="-0.37369">
        <ele>187.31264</ele>
        <time>2016-06-10T10:17:36Z</time>
      </trkpt>
      <trkpt lat="48.82483" lon="-0.37369">
        <ele>187.31264</ele>
        <time>2016-06-10T10:17:41Z</time>
      </trkpt>
      <trkpt lat="48.82484" lon="-0.37368">
        <ele>187.31264</ele>
        <time>2016-06-10T10:17:46Z</time>
      </trkpt>
      <trkpt lat="48.82484" lon="-0.37369">
        <ele>187.31264</ele>
        <time>2016-06-10T10:17:56Z</time>
      </trkpt>
      <trkpt lat="48.82483" lon="-0.37368">
        <ele>187.31264</ele>
        <time>2016-06-10T10:18:01Z</time>
      </trkpt>
      <trkpt lat="48.82483" lon="-0.37368">
        <ele>187.31264</ele>
        <time>2016-06-10T10:18:11Z</time>
      </trkpt>
      <trkpt lat="48.82482" lon="-0.37368">
        <ele>187.31264</ele>
        <time>2016-06-10T10:18:16Z</time>
      </trkpt>
      <trkpt lat="48.82483" lon="-0.37372">
        <ele>186.45682</ele>
        <time>2016-06-10T10:18:26Z</time>
      </trkpt>
      <trkpt lat="48.82486" lon="-0.37378">
        <ele>186.45682</ele>
        <time>2016-06-10T10:18:31Z</time>
      </trkpt>
      <trkpt lat="48.82493" lon="-0.3739">
        <ele>185.347</ele>
        <time>2016-06-10T10:18:41Z</time>
      </trkpt>
      <trkpt lat="48.82498" lon="-0.37401">
        <ele>185.347</ele>
        <time>2016-06-10T10:18:46Z</time>
      </trkpt>
      <trkpt lat="48.82504" lon="-0.37416">
        <ele>184.33388</ele>
        <time>2016-06-10T10:18:56Z</time>
      </trkpt>
      <trkpt lat="48.82507" lon="-0.37422">
        <ele>184.33388</ele>
        <time>2016-06-10T10:19:01Z</time>
      </trkpt>
      <trkpt lat="48.82512" lon="-0.37432">
        <ele>183.45387</ele>
        <time>2016-06-10T10:19:11Z</time>
      </trkpt>
      <trkpt lat="48.82516" lon="-0.3744">
        <ele>183.45387</ele>
        <time>2016-06-10T10:19:16Z</time>
      </trkpt>
      <trkpt lat="48.82523" lon="-0.37454">
        <ele>182.63943</ele>
        <time>2016-06-10T10:19:26Z</time>
      </trkpt>
      <trkpt lat="48.82525" lon="-0.37458">
        <ele>182.63943</ele>
        <time>2016-06-10T10:19:31Z</time>
      </trkpt>
      <trkpt lat="48.82535" lon="-0.37487">
        <ele>182.20247</ele>
        <time>2016-06-10T10:19:46Z</time>
      </trkpt>
      <trkpt lat="48.82546" lon="-0.37511">
        <ele>181.6671</ele>
        <time>2016-06-10T10:20:01Z</time>
      </trkpt>
      <trkpt lat="48.8255" lon="-0.37518">
        <ele>181.6671</ele>
        <time>2016-06-10T10:20:06Z</time>
      </trkpt>
      <trkpt lat="48.82557" lon="-0.37538">
        <ele>180.89532</ele>
        <time>2016-06-10T10:20:16Z</time>
      </trkpt>
      <trkpt lat="48.82559" lon="-0.37541">
        <ele>180.89532</ele>
        <time>2016-06-10T10:20:21Z</time>
      </trkpt>
      <trkpt lat="48.82564" lon="-0.3756">
        <ele>180.14899</ele>
        <time>2016-06-10T10:20:31Z</time>
      </trkpt>
      <trkpt lat="48.82567" lon="-0.37568">
        <ele>180.14899</ele>
        <time>2016-06-10T10:20:36Z</time>
      </trkpt>
      <trkpt lat="48.82574" lon="-0.37582">
        <ele>179.42566</ele>
        <time>2016-06-10T10:20:46Z</time>
      </trkpt>
      <trkpt lat="48.82579" lon="-0.37588">
        <ele>179.42566</ele>
        <time>2016-06-10T10:20:51Z</time>
      </trkpt>
      <trkpt lat="48.82589" lon="-0.376">
        <ele>178.78065</ele>
        <time>2016-06-10T10:21:01Z</time>
      </trkpt>
      <trkpt lat="48.82594" lon="-0.37599">
        <ele>178.78065</ele>
        <time>2016-06-10T10:21:06Z</time>
      </trkpt>
      <trkpt lat="48.82593" lon="-0.37629">
        <ele>177.6165</ele>
        <time>2016-06-10T10:21:16Z</time>
      </trkpt>
      <trkpt lat="48.82598" lon="-0.37634">
        <ele>177.6165</ele>
        <time>2016-06-10T10:21:21Z</time>
      </trkpt>
      <trkpt lat="48.82606" lon="-0.37646">
        <ele>176.53397</ele>
        <time>2016-06-10T10:21:31Z</time>
      </trkpt>
      <trkpt lat="48.8261" lon="-0.37653">
        <ele>176.53397</ele>
        <time>2016-06-10T10:21:36Z</time>
      </trkpt>
      <trkpt lat="48.82619" lon="-0.37678">
        <ele>175.09508</ele>
        <time>2016-06-10T10:21:51Z</time>
      </trkpt>
      <trkpt lat="48.82623" lon="-0.37685">
        <ele>175.09508</ele>
        <time>2016-06-10T10:21:56Z</time>
      </trkpt>
      <trkpt lat="48.82628" lon="-0.37692">
        <ele>173.05354</ele>
        <time>2016-06-10T10:22:06Z</time>
      </trkpt>
      <trkpt lat="48.82634" lon="-0.37704">
        <ele>171.89778</ele>
        <time>2016-06-10T10:22:11Z</time>
      </trkpt>
      <trkpt lat="48.82641" lon="-0.37721">
        <ele>171.6065</ele>
        <time>2016-06-10T10:22:21Z</time>
      </trkpt>
      <trkpt lat="48.82643" lon="-0.37724">
        <ele>171.6065</ele>
        <time>2016-06-10T10:22:26Z</time>
      </trkpt>
      <trkpt lat="48.82644" lon="-0.37729">
        <ele>171.6065</ele>
        <time>2016-06-10T10:22:31Z</time>
      </trkpt>
      <trkpt lat="48.82648" lon="-0.37738">
        <ele>171.39374</ele>
        <time>2016-06-10T10:22:36Z</time>
      </trkpt>
      <trkpt lat="48.82651" lon="-0.37746">
        <ele>171.39374</ele>
        <time>2016-06-10T10:22:41Z</time>
      </trkpt>
      <trkpt lat="48.82654" lon="-0.37762">
        <ele>171.12192</ele>
        <time>2016-06-10T10:22:51Z</time>
      </trkpt>
      <trkpt lat="48.82656" lon="-0.3777">
        <ele>171.12192</ele>
        <time>2016-06-10T10:22:56Z</time>
      </trkpt>
      <trkpt lat="48.82667" lon="-0.37783">
        <ele>170.70692</ele>
        <time>2016-06-10T10:23:06Z</time>
      </trkpt>
      <trkpt lat="48.82668" lon="-0.37783">
        <ele>170.70692</ele>
        <time>2016-06-10T10:23:11Z</time>
      </trkpt>
      <trkpt lat="48.82668" lon="-0.3778">
        <ele>170.70692</ele>
        <time>2016-06-10T10:23:21Z</time>
      </trkpt>
      <trkpt lat="48.82666" lon="-0.37779">
        <ele>170.70692</ele>
        <time>2016-06-10T10:23:26Z</time>
      </trkpt>
      <trkpt lat="48.82661" lon="-0.37776">
        <ele>169.88391</ele>
        <time>2016-06-10T10:23:36Z</time>
      </trkpt>
      <trkpt lat="48.82661" lon="-0.37776">
        <ele>169.88391</ele>
        <time>2016-06-10T10:23:41Z</time>
      </trkpt>
      <trkpt lat="48.8266" lon="-0.37776">
        <ele>169.88391</ele>
        <time>2016-06-10T10:23:51Z</time>
      </trkpt>
      <trkpt lat="48.8266" lon="-0.37784">
        <ele>169.88391</ele>
        <time>2016-06-10T10:23:56Z</time>
      </trkpt>
      <trkpt lat="48.82663" lon="-0.3779">
        <ele>169.35977</ele>
        <time>2016-06-10T10:24:06Z</time>
      </trkpt>
      <trkpt lat="48.82667" lon="-0.37794">
        <ele>169.35977</ele>
        <time>2016-06-10T10:24:11Z</time>
      </trkpt>
      <trkpt lat="48.82673" lon="-0.37808">
        <ele>168.79428</ele>
        <time>2016-06-10T10:24:21Z</time>
      </trkpt>
      <trkpt lat="48.82676" lon="-0.37815">
        <ele>168.79428</ele>
        <time>2016-06-10T10:24:26Z</time>
      </trkpt>
      <trkpt lat="48.82682" lon="-0.3783">
        <ele>168.31905</ele>
        <time>2016-06-10T10:24:36Z</time>
      </trkpt>
      <trkpt lat="48.82686" lon="-0.37836">
        <ele>168.31905</ele>
        <time>2016-06-10T10:24:41Z</time>
      </trkpt>
      <trkpt lat="48.82687" lon="-0.3784">
        <ele>168.31905</ele>
        <time>2016-06-10T10:24:46Z</time>
      </trkpt>
      <trkpt lat="48.82702" lon="-0.37858">
        <ele>167.63788</ele>
        <time>2016-06-10T10:25:01Z</time>
      </trkpt>
      <trkpt lat="48.82706" lon="-0.37861">
        <ele>167.63788</ele>
        <time>2016-06-10T10:25:06Z</time>
      </trkpt>
      <trkpt lat="48.82718" lon="-0.37873">
        <ele>167.25513</ele>
        <time>2016-06-10T10:25:16Z</time>
      </trkpt>
      <trkpt lat="48.82722" lon="-0.37878">
        <ele>167.25513</ele>
        <time>2016-06-10T10:25:21Z</time>
      </trkpt>
      <trkpt lat="48.82728" lon="-0.37883">
        <ele>166.38351</ele>
        <time>2016-06-10T10:25:31Z</time>
      </trkpt>
      <trkpt lat="48.8273" lon="-0.37886">
        <ele>166.38351</ele>
        <time>2016-06-10T10:25:36Z</time>
      </trkpt>
      <trkpt lat="48.82732" lon="-0.3789">
        <ele>166.38351</ele>
        <time>2016-06-10T10:25:46Z</time>
      </trkpt>
      <trkpt lat="48.82732" lon="-0.3789">
        <ele>166.38351</ele>
        <time>2016-06-10T10:25:51Z</time>
      </trkpt>
      <trkpt lat="48.82732" lon="-0.3789">
        <ele>166.38351</ele>
        <time>2016-06-10T10:26:01Z</time>
      </trkpt>
      <trkpt lat="48.82738" lon="-0.37895">
        <ele>165.50552</ele>
        <time>2016-06-10T10:26:06Z</time>
      </trkpt>
      <trkpt lat="48.82743" lon="-0.37904">
        <ele>165.50552</ele>
        <time>2016-06-10T10:26:16Z</time>
      </trkpt>
      <trkpt lat="48.82743" lon="-0.37909">
        <ele>164.39088</ele>
        <time>2016-06-10T10:26:21Z</time>
      </trkpt>
      <trkpt lat="48.82743" lon="-0.37917">
        <ele>164.39088</ele>
        <time>2016-06-10T10:26:31Z</time>
      </trkpt>
      <trkpt lat="48.82743" lon="-0.37918">
        <ele>164.39088</ele>
        <time>2016-06-10T10:26:36Z</time>
      </trkpt>
      <trkpt lat="48.82739" lon="-0.37923">
        <ele>164.03749</ele>
        <time>2016-06-10T10:26:46Z</time>
      </trkpt>
      <trkpt lat="48.82739" lon="-0.37923">
        <ele>164.03749</ele>
        <time>2016-06-10T10:26:51Z</time>
      </trkpt>
      <trkpt lat="48.82739" lon="-0.37923">
        <ele>164.03749</ele>
        <time>2016-06-10T10:27:01Z</time>
      </trkpt>
      <trkpt lat="48.82739" lon="-0.37924">
        <ele>164.03749</ele>
        <time>2016-06-10T10:27:06Z</time>
      </trkpt>
      <trkpt lat="48.82739" lon="-0.37924">
        <ele>164.03749</ele>
        <time>2016-06-10T10:27:21Z</time>
      </trkpt>
      <trkpt lat="48.82739" lon="-0.37924">
        <ele>164.03749</ele>
        <time>2016-06-10T10:27:26Z</time>
      </trkpt>
      <trkpt lat="48.82739" lon="-0.37921">
        <ele>164.03749</ele>
        <time>2016-06-10T10:27:36Z</time>
      </trkpt>
      <trkpt lat="48.82739" lon="-0.37921">
        <ele>164.03749</ele>
        <time>2016-06-10T10:27:41Z</time>
      </trkpt>
      <trkpt lat="48.82739" lon="-0.37921">
        <ele>164.03749</ele>
        <time>2016-06-10T10:27:51Z</time>
      </trkpt>
      <trkpt lat="48.82739" lon="-0.37921">
        <ele>164.03749</ele>
        <time>2016-06-10T10:27:56Z</time>
      </trkpt>
      <trkpt lat="48.82739" lon="-0.37921">
        <ele>164.03749</ele>
        <time>2016-06-10T10:28:06Z</time>
      </trkpt>
      <trkpt lat="48.82741" lon="-0.37919">
        <ele>164.03749</ele>
        <time>2016-06-10T10:28:11Z</time>
      </trkpt>
      <trkpt lat="48.82748" lon="-0.37916">
        <ele>163.6673</ele>
        <time>2016-06-10T10:28:21Z</time>
      </trkpt>
      <trkpt lat="48.8275" lon="-0.37915">
        <ele>163.6673</ele>
        <time>2016-06-10T10:28:26Z</time>
      </trkpt>
      <trkpt lat="48.82767" lon="-0.37921">
        <ele>162.81886</ele>
        <time>2016-06-10T10:28:36Z</time>
      </trkpt>
      <trkpt lat="48.82773" lon="-0.37922">
        <ele>162.81886</ele>
        <time>2016-06-10T10:28:41Z</time>
      </trkpt>
      <trkpt lat="48.82776" lon="-0.37936">
        <ele>161.71452</ele>
        <time>2016-06-10T10:28:51Z</time>
      </trkpt>
      <trkpt lat="48.82775" lon="-0.37946">
        <ele>161.71452</ele>
        <time>2016-06-10T10:28:56Z</time>
      </trkpt>
      <trkpt lat="48.82776" lon="-0.37959">
        <ele>160.6619</ele>
        <time>2016-06-10T10:29:06Z</time>
      </trkpt>
      <trkpt lat="48.8278" lon="-0.3796">
        <ele>160.6619</ele>
        <time>2016-06-10T10:29:11Z</time>
      </trkpt>
      <trkpt lat="48.82787" lon="-0.37968">
        <ele>159.81615</ele>
        <time>2016-06-10T10:29:21Z</time>
      </trkpt>
      <trkpt lat="48.82788" lon="-0.37976">
        <ele>159.81615</ele>
        <time>2016-06-10T10:29:26Z</time>
      </trkpt>
      <trkpt lat="48.82785" lon="-0.37995">
        <ele>159.62317</ele>
        <time>2016-06-10T10:29:36Z</time>
      </trkpt>
      <trkpt lat="48.82781" lon="-0.37998">
        <ele>159.62317</ele>
        <time>2016-06-10T10:29:41Z</time>
      </trkpt>
      <trkpt lat="48.82779" lon="-0.37996">
        <ele>159.62317</ele>
        <time>2016-06-10T10:29:51Z</time>
      </trkpt>
      <trkpt lat="48.82779" lon="-0.37996">
        <ele>159.62317</ele>
        <time>2016-06-10T10:29:56Z</time>
      </trkpt>
      <trkpt lat="48.82778" lon="-0.37995">
        <ele>159.62317</ele>
        <time>2016-06-10T10:30:11Z</time>
      </trkpt>
      <trkpt lat="48.82778" lon="-0.37995">
        <ele>159.62317</ele>
        <time>2016-06-10T10:30:16Z</time>
      </trkpt>
      <trkpt lat="48.82778" lon="-0.37995">
        <ele>159.62317</ele>
        <time>2016-06-10T10:30:26Z</time>
      </trkpt>
      <trkpt lat="48.82778" lon="-0.37996">
        <ele>159.73045</ele>
        <time>2016-06-10T10:30:31Z</time>
      </trkpt>
      <trkpt lat="48.82779" lon="-0.37996">
        <ele>159.73045</ele>
        <time>2016-06-10T10:30:41Z</time>
      </trkpt>
      <trkpt lat="48.82778" lon="-0.37994">
        <ele>159.73045</ele>
        <time>2016-06-10T10:30:46Z</time>
      </trkpt>
      <trkpt lat="48.82777" lon="-0.37994">
        <ele>159.73045</ele>
        <time>2016-06-10T10:30:56Z</time>
      </trkpt>
      <trkpt lat="48.82776" lon="-0.37995">
        <ele>159.73045</ele>
        <time>2016-06-10T10:31:01Z</time>
      </trkpt>
      <trkpt lat="48.82776" lon="-0.37995">
        <ele>159.73045</ele>
        <time>2016-06-10T10:31:11Z</time>
      </trkpt>
      <trkpt lat="48.82776" lon="-0.37997">
        <ele>159.73045</ele>
        <time>2016-06-10T10:31:16Z</time>
      </trkpt>
      <trkpt lat="48.82778" lon="-0.38001">
        <ele>160.0988</ele>
        <time>2016-06-10T10:31:26Z</time>
      </trkpt>
      <trkpt lat="48.82778" lon="-0.38002">
        <ele>160.0988</ele>
        <time>2016-06-10T10:31:31Z</time>
      </trkpt>
      <trkpt lat="48.82785" lon="-0.37998">
        <ele>160.0988</ele>
        <time>2016-06-10T10:31:41Z</time>
      </trkpt>
      <trkpt lat="48.82792" lon="-0.37997">
        <ele>159.74004</ele>
        <time>2016-06-10T10:31:46Z</time>
      </trkpt>
      <trkpt lat="48.82804" lon="-0.37998">
        <ele>159.25386</ele>
        <time>2016-06-10T10:31:56Z</time>
      </trkpt>
      <trkpt lat="48.8281" lon="-0.38002">
        <ele>159.25386</ele>
        <time>2016-06-10T10:32:01Z</time>
      </trkpt>
      <trkpt lat="48.82818" lon="-0.38017">
        <ele>159.41243</ele>
        <time>2016-06-10T10:32:16Z</time>
      </trkpt>
      <trkpt lat="48.82824" lon="-0.38022">
        <ele>159.41243</ele>
        <time>2016-06-10T10:32:21Z</time>
      </trkpt>
      <trkpt lat="48.82832" lon="-0.38037">
        <ele>160.06476</ele>
        <time>2016-06-10T10:32:31Z</time>
      </trkpt>
      <trkpt lat="48.82833" lon="-0.38045">
        <ele>160.06476</ele>
        <time>2016-06-10T10:32:36Z</time>
      </trkpt>
      <trkpt lat="48.82834" lon="-0.38057">
        <ele>160.1329</ele>
        <time>2016-06-10T10:32:46Z</time>
      </trkpt>
      <trkpt lat="48.82832" lon="-0.38065">
        <ele>160.1329</ele>
        <time>2016-06-10T10:32:51Z</time>
      </trkpt>
      <trkpt lat="48.82825" lon="-0.38082">
        <ele>160.65173</ele>
        <time>2016-06-10T10:33:01Z</time>
      </trkpt>
      <trkpt lat="48.82821" lon="-0.38088">
        <ele>160.65173</ele>
        <time>2016-06-10T10:33:06Z</time>
      </trkpt>
      <trkpt lat="48.82813" lon="-0.381">
        <ele>161.31073</ele>
        <time>2016-06-10T10:33:16Z</time>
      </trkpt>
      <trkpt lat="48.82809" lon="-0.38103">
        <ele>161.31073</ele>
        <time>2016-06-10T10:33:21Z</time>
      </trkpt>
      <trkpt lat="48.82805" lon="-0.38099">
        <ele>162.28302</ele>
        <time>2016-06-10T10:33:31Z</time>
      </trkpt>
      <trkpt lat="48.82803" lon="-0.38095">
        <ele>162.28302</ele>
        <time>2016-06-10T10:33:36Z</time>
      </trkpt>
      <trkpt lat="48.82798" lon="-0.38094">
        <ele>162.28302</ele>
        <time>2016-06-10T10:33:46Z</time>
      </trkpt>
      <trkpt lat="48.82797" lon="-0.38093">
        <ele>163.15172</ele>
        <time>2016-06-10T10:33:51Z</time>
      </trkpt>
      <trkpt lat="48.82796" lon="-0.38093">
        <ele>163.15172</ele>
        <time>2016-06-10T10:34:01Z</time>
      </trkpt>
      <trkpt lat="48.82797" lon="-0.38093">
        <ele>163.15172</ele>
        <time>2016-06-10T10:34:06Z</time>
      </trkpt>
      <trkpt lat="48.82797" lon="-0.38093">
        <ele>163.15172</ele>
        <time>2016-06-10T10:34:11Z</time>
      </trkpt>
      <trkpt lat="48.82798" lon="-0.38092">
        <ele>163.15172</ele>
        <time>2016-06-10T10:34:16Z</time>
      </trkpt>
      <trkpt lat="48.82797" lon="-0.38093">
        <ele>163.15172</ele>
        <time>2016-06-10T10:34:21Z</time>
      </trkpt>
      <trkpt lat="48.82797" lon="-0.38092">
        <ele>163.15172</ele>
        <time>2016-06-10T10:34:31Z</time>
      </trkpt>
      <trkpt lat="48.82797" lon="-0.38091">
        <ele>163.15172</ele>
        <time>2016-06-10T10:34:36Z</time>
      </trkpt>
      <trkpt lat="48.82797" lon="-0.38091">
        <ele>163.15172</ele>
        <time>2016-06-10T10:34:41Z</time>
      </trkpt>
      <trkpt lat="48.82795" lon="-0.38089">
        <ele>163.15172</ele>
        <time>2016-06-10T10:34:56Z</time>
      </trkpt>
      <trkpt lat="48.82795" lon="-0.38091">
        <ele>163.15172</ele>
        <time>2016-06-10T10:35:01Z</time>
      </trkpt>
      <trkpt lat="48.82795" lon="-0.38091">
        <ele>163.15172</ele>
        <time>2016-06-10T10:35:11Z</time>
      </trkpt>
      <trkpt lat="48.82795" lon="-0.38091">
        <ele>163.15172</ele>
        <time>2016-06-10T10:35:16Z</time>
      </trkpt>
      <trkpt lat="48.82795" lon="-0.38091">
        <ele>163.15172</ele>
        <time>2016-06-10T10:35:26Z</time>
      </trkpt>
      <trkpt lat="48.82795" lon="-0.38091">
        <ele>163.15172</ele>
        <time>2016-06-10T10:35:31Z</time>
      </trkpt>
      <trkpt lat="48.82796" lon="-0.38093">
        <ele>164.06418</ele>
        <time>2016-06-10T10:35:41Z</time>
      </trkpt>
      <trkpt lat="48.82797" lon="-0.38095">
        <ele>164.06418</ele>
        <time>2016-06-10T10:35:46Z</time>
      </trkpt>
      <trkpt lat="48.82797" lon="-0.38094">
        <ele>164.06418</ele>
        <time>2016-06-10T10:35:56Z</time>
      </trkpt>
      <trkpt lat="48.82796" lon="-0.38095">
        <ele>164.06418</ele>
        <time>2016-06-10T10:36:01Z</time>
      </trkpt>
      <trkpt lat="48.82802" lon="-0.38095">
        <ele>164.06418</ele>
        <time>2016-06-10T10:36:11Z</time>
      </trkpt>
      <trkpt lat="48.82802" lon="-0.38096">
        <ele>164.06418</ele>
        <time>2016-06-10T10:36:16Z</time>
      </trkpt>
      <trkpt lat="48.82806" lon="-0.38102">
        <ele>164.85425</ele>
        <time>2016-06-10T10:36:26Z</time>
      </trkpt>
      <trkpt lat="48.82808" lon="-0.38101">
        <ele>164.85425</ele>
        <time>2016-06-10T10:36:31Z</time>
      </trkpt>
      <trkpt lat="48.82822" lon="-0.381">
        <ele>164.8352</ele>
        <time>2016-06-10T10:36:46Z</time>
      </trkpt>
      <trkpt lat="48.82822" lon="-0.38101">
        <ele>164.8352</ele>
        <time>2016-06-10T10:36:51Z</time>
      </trkpt>
      <trkpt lat="48.82821" lon="-0.38101">
        <ele>164.8352</ele>
        <time>2016-06-10T10:37:01Z</time>
      </trkpt>
      <trkpt lat="48.82821" lon="-0.38102">
        <ele>164.8352</ele>
        <time>2016-06-10T10:37:06Z</time>
      </trkpt>
      <trkpt lat="48.82819" lon="-0.38103">
        <ele>164.8352</ele>
        <time>2016-06-10T10:37:16Z</time>
      </trkpt>
      <trkpt lat="48.82819" lon="-0.38103">
        <ele>164.8352</ele>
        <time>2016-06-10T10:37:21Z</time>
      </trkpt>
      <trkpt lat="48.82818" lon="-0.38103">
        <ele>164.8352</ele>
        <time>2016-06-10T10:37:31Z</time>
      </trkpt>
      <trkpt lat="48.82818" lon="-0.38103">
        <ele>164.8352</ele>
        <time>2016-06-10T10:37:36Z</time>
      </trkpt>
      <trkpt lat="48.82818" lon="-0.38103">
        <ele>164.8352</ele>
        <time>2016-06-10T10:37:46Z</time>
      </trkpt>
      <trkpt lat="48.82818" lon="-0.38103">
        <ele>164.8352</ele>
        <time>2016-06-10T10:37:51Z</time>
      </trkpt>
      <trkpt lat="48.82822" lon="-0.381">
        <ele>164.56926</ele>
        <time>2016-06-10T10:38:01Z</time>
      </trkpt>
      <trkpt lat="48.82824" lon="-0.38097">
        <ele>164.56926</ele>
        <time>2016-06-10T10:38:06Z</time>
      </trkpt>
      <trkpt lat="48.82834" lon="-0.38099">
        <ele>164.24661</ele>
        <time>2016-06-10T10:38:16Z</time>
      </trkpt>
      <trkpt lat="48.8284" lon="-0.381">
        <ele>164.24661</ele>
        <time>2016-06-10T10:38:21Z</time>
      </trkpt>
      <trkpt lat="48.82851" lon="-0.38101">
        <ele>163.69794</ele>
        <time>2016-06-10T10:38:31Z</time>
      </trkpt>
      <trkpt lat="48.82857" lon="-0.38102">
        <ele>163.69794</ele>
        <time>2016-06-10T10:38:36Z</time>
      </trkpt>
      <trkpt lat="48.82868" lon="-0.38103">
        <ele>163.1417</ele>
        <time>2016-06-10T10:38:46Z</time>
      </trkpt>
      <trkpt lat="48.82873" lon="-0.38099">
        <ele>163.1417</ele>
        <time>2016-06-10T10:38:51Z</time>
      </trkpt>
      <trkpt lat="48.82882" lon="-0.38092">
        <ele>162.89574</ele>
        <time>2016-06-10T10:39:06Z</time>
      </trkpt>
      <trkpt lat="48.82887" lon="-0.38097">
        <ele>162.89574</ele>
        <time>2016-06-10T10:39:11Z</time>
      </trkpt>
      <trkpt lat="48.82892" lon="-0.38098">
        <ele>163.02315</ele>
        <time>2016-06-10T10:39:21Z</time>
      </trkpt>
      <trkpt lat="48.82894" lon="-0.38106">
        <ele>163.02315</ele>
        <time>2016-06-10T10:39:26Z</time>
      </trkpt>
      <trkpt lat="48.82908" lon="-0.38115">
        <ele>162.99059</ele>
        <time>2016-06-10T10:39:36Z</time>
      </trkpt>
      <trkpt lat="48.82911" lon="-0.38125">
        <ele>162.99059</ele>
        <time>2016-06-10T10:39:41Z</time>
      </trkpt>
      <trkpt lat="48.82917" lon="-0.38137">
        <ele>162.66463</ele>
        <time>2016-06-10T10:39:51Z</time>
      </trkpt>
      <trkpt lat="48.82922" lon="-0.38145">
        <ele>162.66463</ele>
        <time>2016-06-10T10:39:56Z</time>
      </trkpt>
      <trkpt lat="48.82931" lon="-0.38157">
        <ele>162.26846</ele>
        <time>2016-06-10T10:40:06Z</time>
      </trkpt>
      <trkpt lat="48.82934" lon="-0.38162">
        <ele>162.26846</ele>
        <time>2016-06-10T10:40:11Z</time>
      </trkpt>
      <trkpt lat="48.82934" lon="-0.38165">
        <ele>162.26846</ele>
        <time>2016-06-10T10:40:21Z</time>
      </trkpt>
      <trkpt lat="48.82934" lon="-0.38165">
        <ele>162.26846</ele>
        <time>2016-06-10T10:40:26Z</time>
      </trkpt>
      <trkpt lat="48.8294" lon="-0.38176">
        <ele>161.7641</ele>
        <time>2016-06-10T10:40:36Z</time>
      </trkpt>
      <trkpt lat="48.8294" lon="-0.38177">
        <ele>161.7641</ele>
        <time>2016-06-10T10:40:41Z</time>
      </trkpt>
      <trkpt lat="48.82934" lon="-0.38192">
        <ele>161.2032</ele>
        <time>2016-06-10T10:40:51Z</time>
      </trkpt>
      <trkpt lat="48.8293" lon="-0.38196">
        <ele>161.2032</ele>
        <time>2016-06-10T10:40:56Z</time>
      </trkpt>
      <trkpt lat="48.8293" lon="-0.38196">
        <ele>161.2032</ele>
        <time>2016-06-10T10:41:11Z</time>
      </trkpt>
      <trkpt lat="48.8293" lon="-0.38196">
        <ele>161.2032</ele>
        <time>2016-06-10T10:41:16Z</time>
      </trkpt>
      <trkpt lat="48.82939" lon="-0.38197">
        <ele>160.36003</ele>
        <time>2016-06-10T10:41:26Z</time>
      </trkpt>
      <trkpt lat="48.82946" lon="-0.38196">
        <ele>160.36003</ele>
        <time>2016-06-10T10:41:31Z</time>
      </trkpt>
      <trkpt lat="48.8296" lon="-0.3819">
        <ele>159.73238</ele>
        <time>2016-06-10T10:41:41Z</time>
      </trkpt>
      <trkpt lat="48.82966" lon="-0.38186">
        <ele>159.73238</ele>
        <time>2016-06-10T10:41:46Z</time>
      </trkpt>
      <trkpt lat="48.82977" lon="-0.38181">
        <ele>159.24773</ele>
        <time>2016-06-10T10:41:56Z</time>
      </trkpt>
      <trkpt lat="48.82984" lon="-0.3818">
        <ele>159.24773</ele>
        <time>2016-06-10T10:42:01Z</time>
      </trkpt>
      <trkpt lat="48.82996" lon="-0.38178">
        <ele>158.79526</ele>
        <time>2016-06-10T10:42:11Z</time>
      </trkpt>
      <trkpt lat="48.82999" lon="-0.3817">
        <ele>158.79526</ele>
        <time>2016-06-10T10:42:16Z</time>
      </trkpt>
      <trkpt lat="48.83008" lon="-0.38158">
        <ele>158.22902</ele>
        <time>2016-06-10T10:42:26Z</time>
      </trkpt>
      <trkpt lat="48.83011" lon="-0.3815">
        <ele>158.22902</ele>
        <time>2016-06-10T10:42:31Z</time>
      </trkpt>
      <trkpt lat="48.83013" lon="-0.38135">
        <ele>157.97614</ele>
        <time>2016-06-10T10:42:41Z</time>
      </trkpt>
      <trkpt lat="48.83017" lon="-0.38131">
        <ele>157.97614</ele>
        <time>2016-06-10T10:42:46Z</time>
      </trkpt>
      <trkpt lat="48.83027" lon="-0.38132">
        <ele>156.83186</ele>
        <time>2016-06-10T10:42:56Z</time>
      </trkpt>
      <trkpt lat="48.83035" lon="-0.38133">
        <ele>156.83186</ele>
        <time>2016-06-10T10:43:01Z</time>
      </trkpt>
      <trkpt lat="48.83049" lon="-0.38132">
        <ele>156.24767</ele>
        <time>2016-06-10T10:43:11Z</time>
      </trkpt>
      <trkpt lat="48.83055" lon="-0.38133">
        <ele>156.24767</ele>
        <time>2016-06-10T10:43:16Z</time>
      </trkpt>
      <trkpt lat="48.83062" lon="-0.38139">
        <ele>154.54048</ele>
        <time>2016-06-10T10:43:26Z</time>
      </trkpt>
      <trkpt lat="48.83067" lon="-0.38142">
        <ele>154.54048</ele>
        <time>2016-06-10T10:43:31Z</time>
      </trkpt>
      <trkpt lat="48.83079" lon="-0.3815">
        <ele>152.69037</ele>
        <time>2016-06-10T10:43:41Z</time>
      </trkpt>
      <trkpt lat="48.83087" lon="-0.38154">
        <ele>152.69037</ele>
        <time>2016-06-10T10:43:46Z</time>
      </trkpt>
      <trkpt lat="48.83104" lon="-0.38169">
        <ele>151.79318</ele>
        <time>2016-06-10T10:44:01Z</time>
      </trkpt>
      <trkpt lat="48.83107" lon="-0.38173">
        <ele>151.79318</ele>
        <time>2016-06-10T10:44:06Z</time>
      </trkpt>
      <trkpt lat="48.83116" lon="-0.38184">
        <ele>150.80072</ele>
        <time>2016-06-10T10:44:16Z</time>
      </trkpt>
      <trkpt lat="48.83121" lon="-0.38188">
        <ele>150.80072</ele>
        <time>2016-06-10T10:44:21Z</time>
      </trkpt>
      <trkpt lat="48.8313" lon="-0.38201">
        <ele>149.98146</ele>
        <time>2016-06-10T10:44:31Z</time>
      </trkpt>
      <trkpt lat="48.83135" lon="-0.38209">
        <ele>149.98146</ele>
        <time>2016-06-10T10:44:36Z</time>
      </trkpt>
      <trkpt lat="48.83145" lon="-0.38219">
        <ele>148.89185</ele>
        <time>2016-06-10T10:44:46Z</time>
      </trkpt>
      <trkpt lat="48.83149" lon="-0.38227">
        <ele>148.89185</ele>
        <time>2016-06-10T10:44:51Z</time>
      </trkpt>
      <trkpt lat="48.83156" lon="-0.38241">
        <ele>148.00076</ele>
        <time>2016-06-10T10:45:01Z</time>
      </trkpt>
      <trkpt lat="48.8316" lon="-0.3825">
        <ele>148.00076</ele>
        <time>2016-06-10T10:45:06Z</time>
      </trkpt>
      <trkpt lat="48.83169" lon="-0.38265">
        <ele>147.65553</ele>
        <time>2016-06-10T10:45:16Z</time>
      </trkpt>
      <trkpt lat="48.83173" lon="-0.38273">
        <ele>147.65553</ele>
        <time>2016-06-10T10:45:21Z</time>
      </trkpt>
      <trkpt lat="48.83181" lon="-0.38288">
        <ele>147.58562</ele>
        <time>2016-06-10T10:45:31Z</time>
      </trkpt>
      <trkpt lat="48.83185" lon="-0.38293">
        <ele>147.58562</ele>
        <time>2016-06-10T10:45:36Z</time>
      </trkpt>
      <trkpt lat="48.83191" lon="-0.38301">
        <ele>147.48183</ele>
        <time>2016-06-10T10:45:46Z</time>
      </trkpt>
      <trkpt lat="48.83195" lon="-0.38305">
        <ele>147.48183</ele>
        <time>2016-06-10T10:45:51Z</time>
      </trkpt>
      <trkpt lat="48.83202" lon="-0.38316">
        <ele>147.1875</ele>
        <time>2016-06-10T10:46:01Z</time>
      </trkpt>
      <trkpt lat="48.83206" lon="-0.38323">
        <ele>147.1875</ele>
        <time>2016-06-10T10:46:06Z</time>
      </trkpt>
      <trkpt lat="48.83212" lon="-0.38334">
        <ele>146.9903</ele>
        <time>2016-06-10T10:46:16Z</time>
      </trkpt>
      <trkpt lat="48.83215" lon="-0.38342">
        <ele>146.9903</ele>
        <time>2016-06-10T10:46:21Z</time>
      </trkpt>
      <trkpt lat="48.83226" lon="-0.38361">
        <ele>146.94029</ele>
        <time>2016-06-10T10:46:36Z</time>
      </trkpt>
      <trkpt lat="48.83228" lon="-0.3837">
        <ele>146.94029</ele>
        <time>2016-06-10T10:46:41Z</time>
      </trkpt>
      <trkpt lat="48.83235" lon="-0.38386">
        <ele>147.32845</ele>
        <time>2016-06-10T10:46:51Z</time>
      </trkpt>
      <trkpt lat="48.83237" lon="-0.38394">
        <ele>147.32845</ele>
        <time>2016-06-10T10:46:56Z</time>
      </trkpt>
      <trkpt lat="48.83244" lon="-0.38411">
        <ele>147.51518</ele>
        <time>2016-06-10T10:47:06Z</time>
      </trkpt>
      <trkpt lat="48.83247" lon="-0.38417">
        <ele>147.51518</ele>
        <time>2016-06-10T10:47:11Z</time>
      </trkpt>
      <trkpt lat="48.83253" lon="-0.38431">
        <ele>147.44171</ele>
        <time>2016-06-10T10:47:21Z</time>
      </trkpt>
      <trkpt lat="48.83256" lon="-0.38439">
        <ele>147.44171</ele>
        <time>2016-06-10T10:47:26Z</time>
      </trkpt>
      <trkpt lat="48.83262" lon="-0.38457">
        <ele>147.34245</ele>
        <time>2016-06-10T10:47:36Z</time>
      </trkpt>
      <trkpt lat="48.83265" lon="-0.38468">
        <ele>147.34245</ele>
        <time>2016-06-10T10:47:41Z</time>
      </trkpt>
      <trkpt lat="48.83272" lon="-0.38483">
        <ele>147.44913</ele>
        <time>2016-06-10T10:47:51Z</time>
      </trkpt>
      <trkpt lat="48.83274" lon="-0.38491">
        <ele>147.44913</ele>
        <time>2016-06-10T10:47:56Z</time>
      </trkpt>
      <trkpt lat="48.8328" lon="-0.38513">
        <ele>147.71646</ele>
        <time>2016-06-10T10:48:06Z</time>
      </trkpt>
      <trkpt lat="48.83283" lon="-0.38522">
        <ele>147.71646</ele>
        <time>2016-06-10T10:48:11Z</time>
      </trkpt>
      <trkpt lat="48.83292" lon="-0.38535">
        <ele>148.08762</ele>
        <time>2016-06-10T10:48:21Z</time>
      </trkpt>
      <trkpt lat="48.83296" lon="-0.38546">
        <ele>148.08762</ele>
        <time>2016-06-10T10:48:26Z</time>
      </trkpt>
      <trkpt lat="48.83305" lon="-0.38566">
        <ele>148.46648</ele>
        <time>2016-06-10T10:48:41Z</time>
      </trkpt>
      <trkpt lat="48.83308" lon="-0.38572">
        <ele>148.46648</ele>
        <time>2016-06-10T10:48:46Z</time>
      </trkpt>
      <trkpt lat="48.83317" lon="-0.38583">
        <ele>148.49008</ele>
        <time>2016-06-10T10:48:56Z</time>
      </trkpt>
      <trkpt lat="48.83322" lon="-0.38589">
        <ele>148.49008</ele>
        <time>2016-06-10T10:49:01Z</time>
      </trkpt>
      <trkpt lat="48.83332" lon="-0.386">
        <ele>148.5438</ele>
        <time>2016-06-10T10:49:11Z</time>
      </trkpt>
      <trkpt lat="48.83333" lon="-0.38598">
        <ele>148.5438</ele>
        <time>2016-06-10T10:49:16Z</time>
      </trkpt>
      <trkpt lat="48.83335" lon="-0.38601">
        <ele>148.5438</ele>
        <time>2016-06-10T10:49:26Z</time>
      </trkpt>
      <trkpt lat="48.83335" lon="-0.38601">
        <ele>148.5438</ele>
        <time>2016-06-10T10:49:31Z</time>
      </trkpt>
      <trkpt lat="48.83335" lon="-0.38601">
        <ele>148.5438</ele>
        <time>2016-06-10T10:49:41Z</time>
      </trkpt>
      <trkpt lat="48.83335" lon="-0.38601">
        <ele>148.5438</ele>
        <time>2016-06-10T10:49:46Z</time>
      </trkpt>
      <trkpt lat="48.83335" lon="-0.38601">
        <ele>148.5438</ele>
        <time>2016-06-10T10:49:56Z</time>
      </trkpt>
      <trkpt lat="48.83335" lon="-0.38599">
        <ele>148.5438</ele>
        <time>2016-06-10T10:50:01Z</time>
      </trkpt>
      <trkpt lat="48.83335" lon="-0.38599">
        <ele>148.5438</ele>
        <time>2016-06-10T10:50:11Z</time>
      </trkpt>
      <trkpt lat="48.83335" lon="-0.38598">
        <ele>148.5438</ele>
        <time>2016-06-10T10:50:16Z</time>
      </trkpt>
      <trkpt lat="48.83335" lon="-0.38599">
        <ele>148.5438</ele>
        <time>2016-06-10T10:50:31Z</time>
      </trkpt>
      <trkpt lat="48.83335" lon="-0.38599">
        <ele>148.5438</ele>
        <time>2016-06-10T10:50:36Z</time>
      </trkpt>
      <trkpt lat="48.83335" lon="-0.38599">
        <ele>148.5438</ele>
        <time>2016-06-10T10:50:46Z</time>
      </trkpt>
      <trkpt lat="48.83335" lon="-0.38599">
        <ele>148.5438</ele>
        <time>2016-06-10T10:50:51Z</time>
      </trkpt>
      <trkpt lat="48.83335" lon="-0.38599">
        <ele>148.5438</ele>
        <time>2016-06-10T10:51:01Z</time>
      </trkpt>
      <trkpt lat="48.83335" lon="-0.38599">
        <ele>148.5438</ele>
        <time>2016-06-10T10:51:06Z</time>
      </trkpt>
      <trkpt lat="48.83335" lon="-0.38599">
        <ele>148.5438</ele>
        <time>2016-06-10T10:51:16Z</time>
      </trkpt>
      <trkpt lat="48.83335" lon="-0.38599">
        <ele>148.5438</ele>
        <time>2016-06-10T10:51:21Z</time>
      </trkpt>
      <trkpt lat="48.83335" lon="-0.38598">
        <ele>148.5438</ele>
        <time>2016-06-10T10:51:31Z</time>
      </trkpt>
      <trkpt lat="48.83336" lon="-0.38598">
        <ele>148.5438</ele>
        <time>2016-06-10T10:51:36Z</time>
      </trkpt>
      <trkpt lat="48.83342" lon="-0.38588">
        <ele>148.50899</ele>
        <time>2016-06-10T10:51:46Z</time>
      </trkpt>
      <trkpt lat="48.83345" lon="-0.38584">
        <ele>148.50899</ele>
        <time>2016-06-10T10:51:51Z</time>
      </trkpt>
      <trkpt lat="48.83353" lon="-0.38572">
        <ele>148.7372</ele>
        <time>2016-06-10T10:52:01Z</time>
      </trkpt>
      <trkpt lat="48.83357" lon="-0.38567">
        <ele>148.7372</ele>
        <time>2016-06-10T10:52:06Z</time>
      </trkpt>
      <trkpt lat="48.83366" lon="-0.38557">
        <ele>149.43811</ele>
        <time>2016-06-10T10:52:16Z</time>
      </trkpt>
      <trkpt lat="48.8337" lon="-0.38552">
        <ele>149.43811</ele>
        <time>2016-06-10T10:52:21Z</time>
      </trkpt>
      <trkpt lat="48.83379" lon="-0.38544">
        <ele>150.18507</ele>
        <time>2016-06-10T10:52:31Z</time>
      </trkpt>
      <trkpt lat="48.83382" lon="-0.3854">
        <ele>150.18507</ele>
        <time>2016-06-10T10:52:36Z</time>
      </trkpt>
      <trkpt lat="48.83398" lon="-0.38525">
        <ele>151.27438</ele>
        <time>2016-06-10T10:52:51Z</time>
      </trkpt>
      <trkpt lat="48.83401" lon="-0.3852">
        <ele>151.27438</ele>
        <time>2016-06-10T10:52:56Z</time>
      </trkpt>
      <trkpt lat="48.83408" lon="-0.38509">
        <ele>152.31676</ele>
        <time>2016-06-10T10:53:06Z</time>
      </trkpt>
      <trkpt lat="48.83413" lon="-0.38502">
        <ele>152.31676</ele>
        <time>2016-06-10T10:53:11Z</time>
      </trkpt>
      <trkpt lat="48.83421" lon="-0.38489">
        <ele>153.47047</ele>
        <time>2016-06-10T10:53:21Z</time>
      </trkpt>
      <trkpt lat="48.83423" lon="-0.38484">
        <ele>153.47047</ele>
        <time>2016-06-10T10:53:26Z</time>
      </trkpt>
      <trkpt lat="48.8343" lon="-0.3847">
        <ele>154.50728</ele>
        <time>2016-06-10T10:53:36Z</time>
      </trkpt>
      <trkpt lat="48.83432" lon="-0.38464">
        <ele>154.50728</ele>
        <time>2016-06-10T10:53:41Z</time>
      </trkpt>
      <trkpt lat="48.83437" lon="-0.38451">
        <ele>155.36012</ele>
        <time>2016-06-10T10:53:51Z</time>
      </trkpt>
      <trkpt lat="48.8344" lon="-0.38443">
        <ele>155.36012</ele>
        <time>2016-06-10T10:53:56Z</time>
      </trkpt>
      <trkpt lat="48.83448" lon="-0.38429">
        <ele>156.4431</ele>
        <time>2016-06-10T10:54:06Z</time>
      </trkpt>
      <trkpt lat="48.8345" lon="-0.38423">
        <ele>156.4431</ele>
        <time>2016-06-10T10:54:11Z</time>
      </trkpt>
      <trkpt lat="48.83456" lon="-0.38404">
        <ele>157.49078</ele>
        <time>2016-06-10T10:54:21Z</time>
      </trkpt>
      <trkpt lat="48.83458" lon="-0.38396">
        <ele>157.49078</ele>
        <time>2016-06-10T10:54:26Z</time>
      </trkpt>
      <trkpt lat="48.83466" lon="-0.38376">
        <ele>158.8915</ele>
        <time>2016-06-10T10:54:36Z</time>
      </trkpt>
      <trkpt lat="48.83468" lon="-0.38369">
        <ele>158.8915</ele>
        <time>2016-06-10T10:54:41Z</time>
      </trkpt>
      <trkpt lat="48.83474" lon="-0.3835">
        <ele>160.60063</ele>
        <time>2016-06-10T10:54:51Z</time>
      </trkpt>
      <trkpt lat="48.83477" lon="-0.38341">
        <ele>160.60063</ele>
        <time>2016-06-10T10:54:56Z</time>
      </trkpt>
      <trkpt lat="48.83484" lon="-0.38324">
        <ele>162.80669</ele>
        <time>2016-06-10T10:55:06Z</time>
      </trkpt>
      <trkpt lat="48.83487" lon="-0.38315">
        <ele>162.80669</ele>
        <time>2016-06-10T10:55:11Z</time>
      </trkpt>
      <trkpt lat="48.83492" lon="-0.38291">
        <ele>164.90479</ele>
        <time>2016-06-10T10:55:26Z</time>
      </trkpt>
      <trkpt lat="48.83494" lon="-0.38283">
        <ele>164.90479</ele>
        <time>2016-06-10T10:55:31Z</time>
      </trkpt>
      <trkpt lat="48.83499" lon="-0.38266">
        <ele>166.72401</ele>
        <time>2016-06-10T10:55:41Z</time>
      </trkpt>
      <trkpt lat="48.83501" lon="-0.38257">
        <ele>166.72401</ele>
        <time>2016-06-10T10:55:46Z</time>
      </trkpt>
      <trkpt lat="48.83506" lon="-0.38241">
        <ele>168.32306</ele>
        <time>2016-06-10T10:55:56Z</time>
      </trkpt>
      <trkpt lat="48.83508" lon="-0.38234">
        <ele>168.32306</ele>
        <time>2016-06-10T10:56:01Z</time>
      </trkpt>
      <trkpt lat="48.83516" lon="-0.38219">
        <ele>169.10858</ele>
        <time>2016-06-10T10:56:11Z</time>
      </trkpt>
      <trkpt lat="48.83518" lon="-0.38214">
        <ele>169.10858</ele>
        <time>2016-06-10T10:56:16Z</time>
      </trkpt>
      <trkpt lat="48.83524" lon="-0.38209">
        <ele>169.38342</ele>
        <time>2016-06-10T10:56:21Z</time>
      </trkpt>
      <trkpt lat="48.83528" lon="-0.38205">
        <ele>169.38342</ele>
        <time>2016-06-10T10:56:26Z</time>
      </trkpt>
      <trkpt lat="48.83538" lon="-0.38196">
        <ele>169.0551</ele>
        <time>2016-06-10T10:56:36Z</time>
      </trkpt>
      <trkpt lat="48.83543" lon="-0.38191">
        <ele>169.0551</ele>
        <time>2016-06-10T10:56:41Z</time>
      </trkpt>
      <trkpt lat="48.83554" lon="-0.38184">
        <ele>168.70262</ele>
        <time>2016-06-10T10:56:51Z</time>
      </trkpt>
      <trkpt lat="48.83559" lon="-0.38181">
        <ele>168.70262</ele>
        <time>2016-06-10T10:56:56Z</time>
      </trkpt>
      <trkpt lat="48.83576" lon="-0.38172">
        <ele>168.61761</ele>
        <time>2016-06-10T10:57:11Z</time>
      </trkpt>
      <trkpt lat="48.83583" lon="-0.38169">
        <ele>168.61761</ele>
        <time>2016-06-10T10:57:16Z</time>
      </trkpt>
      <trkpt lat="48.83594" lon="-0.38164">
        <ele>168.00325</ele>
        <time>2016-06-10T10:57:26Z</time>
      </trkpt>
      <trkpt lat="48.83599" lon="-0.38161">
        <ele>168.00325</ele>
        <time>2016-06-10T10:57:31Z</time>
      </trkpt>
      <trkpt lat="48.8361" lon="-0.38156">
        <ele>167.62152</ele>
        <time>2016-06-10T10:57:41Z</time>
      </trkpt>
      <trkpt lat="48.83616" lon="-0.38153">
        <ele>167.62152</ele>
        <time>2016-06-10T10:57:46Z</time>
      </trkpt>
      <trkpt lat="48.83628" lon="-0.38149">
        <ele>167.12585</ele>
        <time>2016-06-10T10:57:56Z</time>
      </trkpt>
      <trkpt lat="48.83636" lon="-0.38147">
        <ele>167.12585</ele>
        <time>2016-06-10T10:58:01Z</time>
      </trkpt>
      <trkpt lat="48.83644" lon="-0.3814">
        <ele>166.57019</ele>
        <time>2016-06-10T10:58:11Z</time>
      </trkpt>
      <trkpt lat="48.83652" lon="-0.38137">
        <ele>166.57019</ele>
        <time>2016-06-10T10:58:16Z</time>
      </trkpt>
      <trkpt lat="48.83662" lon="-0.3813">
        <ele>165.90388</ele>
        <time>2016-06-10T10:58:26Z</time>
      </trkpt>
      <trkpt lat="48.83666" lon="-0.38125">
        <ele>165.90388</ele>
        <time>2016-06-10T10:58:31Z</time>
      </trkpt>
      <trkpt lat="48.83676" lon="-0.38114">
        <ele>165.31087</ele>
        <time>2016-06-10T10:58:41Z</time>
      </trkpt>
      <trkpt lat="48.83679" lon="-0.3811">
        <ele>165.31087</ele>
        <time>2016-06-10T10:58:46Z</time>
      </trkpt>
      <trkpt lat="48.83688" lon="-0.38098">
        <ele>164.77406</ele>
        <time>2016-06-10T10:58:56Z</time>
      </trkpt>
      <trkpt lat="48.83693" lon="-0.38091">
        <ele>164.77406</ele>
        <time>2016-06-10T10:59:01Z</time>
      </trkpt>
      <trkpt lat="48.83702" lon="-0.38077">
        <ele>164.43607</ele>
        <time>2016-06-10T10:59:11Z</time>
      </trkpt>
      <trkpt lat="48.83705" lon="-0.3807">
        <ele>164.43607</ele>
        <time>2016-06-10T10:59:16Z</time>
      </trkpt>
      <trkpt lat="48.83717" lon="-0.3805">
        <ele>164.12573</ele>
        <time>2016-06-10T10:59:31Z</time>
      </trkpt>
      <trkpt lat="48.8372" lon="-0.38043">
        <ele>164.12573</ele>
        <time>2016-06-10T10:59:36Z</time>
      </trkpt>
      <trkpt lat="48.83728" lon="-0.3803">
        <ele>163.6124</ele>
        <time>2016-06-10T10:59:46Z</time>
      </trkpt>
      <trkpt lat="48.83732" lon="-0.38023">
        <ele>163.6124</ele>
        <time>2016-06-10T10:59:51Z</time>
      </trkpt>
      <trkpt lat="48.83741" lon="-0.3801">
        <ele>163.10083</ele>
        <time>2016-06-10T11:00:01Z</time>
      </trkpt>
      <trkpt lat="48.83744" lon="-0.38004">
        <ele>163.10083</ele>
        <time>2016-06-10T11:00:06Z</time>
      </trkpt>
      <trkpt lat="48.83754" lon="-0.37991">
        <ele>162.36281</ele>
        <time>2016-06-10T11:00:16Z</time>
      </trkpt>
      <trkpt lat="48.83757" lon="-0.37986">
        <ele>162.36281</ele>
        <time>2016-06-10T11:00:21Z</time>
      </trkpt>
      <trkpt lat="48.83765" lon="-0.37975">
        <ele>161.33157</ele>
        <time>2016-06-10T11:00:31Z</time>
      </trkpt>
      <trkpt lat="48.8377" lon="-0.37969">
        <ele>161.33157</ele>
        <time>2016-06-10T11:00:36Z</time>
      </trkpt>
      <trkpt lat="48.83778" lon="-0.37957">
        <ele>160.119</ele>
        <time>2016-06-10T11:00:46Z</time>
      </trkpt>
      <trkpt lat="48.83782" lon="-0.3795">
        <ele>160.119</ele>
        <time>2016-06-10T11:00:51Z</time>
      </trkpt>
      <trkpt lat="48.8379" lon="-0.37939">
        <ele>158.52663</ele>
        <time>2016-06-10T11:01:01Z</time>
      </trkpt>
      <trkpt lat="48.83795" lon="-0.37932">
        <ele>158.52663</ele>
        <time>2016-06-10T11:01:06Z</time>
      </trkpt>
      <trkpt lat="48.83802" lon="-0.37919">
        <ele>156.91916</ele>
        <time>2016-06-10T11:01:16Z</time>
      </trkpt>
      <trkpt lat="48.83805" lon="-0.37914">
        <ele>156.91916</ele>
        <time>2016-06-10T11:01:21Z</time>
      </trkpt>
      <trkpt lat="48.83812" lon="-0.37902">
        <ele>155.18776</ele>
        <time>2016-06-10T11:01:31Z</time>
      </trkpt>
      <trkpt lat="48.83815" lon="-0.37894">
        <ele>155.18776</ele>
        <time>2016-06-10T11:01:36Z</time>
      </trkpt>
      <trkpt lat="48.83825" lon="-0.37873">
        <ele>153.54889</ele>
        <time>2016-06-10T11:01:51Z</time>
      </trkpt>
      <trkpt lat="48.83824" lon="-0.37873">
        <ele>153.54889</ele>
        <time>2016-06-10T11:01:56Z</time>
      </trkpt>
      <trkpt lat="48.83824" lon="-0.37875">
        <ele>153.54889</ele>
        <time>2016-06-10T11:02:01Z</time>
      </trkpt>
      <trkpt lat="48.83826" lon="-0.37874">
        <ele>153.54889</ele>
        <time>2016-06-10T11:02:06Z</time>
      </trkpt>
      <trkpt lat="48.83828" lon="-0.37871">
        <ele>153.54889</ele>
        <time>2016-06-10T11:02:11Z</time>
      </trkpt>
      <trkpt lat="48.83826" lon="-0.37871">
        <ele>153.54889</ele>
        <time>2016-06-10T11:02:16Z</time>
      </trkpt>
      <trkpt lat="48.83826" lon="-0.3787">
        <ele>153.54889</ele>
        <time>2016-06-10T11:02:21Z</time>
      </trkpt>
      <trkpt lat="48.83827" lon="-0.3787">
        <ele>153.54889</ele>
        <time>2016-06-10T11:02:26Z</time>
      </trkpt>
      <trkpt lat="48.83827" lon="-0.3787">
        <ele>153.54889</ele>
        <time>2016-06-10T11:02:31Z</time>
      </trkpt>
      <trkpt lat="48.83831" lon="-0.37871">
        <ele>150.61758</ele>
        <time>2016-06-10T11:02:36Z</time>
      </trkpt>
      <trkpt lat="48.83832" lon="-0.3787">
        <ele>150.61758</ele>
        <time>2016-06-10T11:02:41Z</time>
      </trkpt>
      <trkpt lat="48.83832" lon="-0.3787">
        <ele>150.61758</ele>
        <time>2016-06-10T11:02:46Z</time>
      </trkpt>
      <trkpt lat="48.83834" lon="-0.3787">
        <ele>150.61758</ele>
        <time>2016-06-10T11:02:51Z</time>
      </trkpt>
      <trkpt lat="48.83838" lon="-0.37877">
        <ele>147.78015</ele>
        <time>2016-06-10T11:02:56Z</time>
      </trkpt>
      <trkpt lat="48.83842" lon="-0.37884">
        <ele>147.78015</ele>
        <time>2016-06-10T11:03:01Z</time>
      </trkpt>
      <trkpt lat="48.83847" lon="-0.37889">
        <ele>145.36958</ele>
        <time>2016-06-10T11:03:06Z</time>
      </trkpt>
      <trkpt lat="48.8385" lon="-0.37893">
        <ele>145.36958</ele>
        <time>2016-06-10T11:03:11Z</time>
      </trkpt>
      <trkpt lat="48.83855" lon="-0.37897">
        <ele>143.00134</ele>
        <time>2016-06-10T11:03:16Z</time>
      </trkpt>
      <trkpt lat="48.83856" lon="-0.37898">
        <ele>143.00134</ele>
        <time>2016-06-10T11:03:26Z</time>
      </trkpt>
      <trkpt lat="48.8386" lon="-0.37904">
        <ele>143.00134</ele>
        <time>2016-06-10T11:03:31Z</time>
      </trkpt>
      <trkpt lat="48.83871" lon="-0.37916">
        <ele>140.56386</ele>
        <time>2016-06-10T11:03:41Z</time>
      </trkpt>
      <trkpt lat="48.83875" lon="-0.37919">
        <ele>140.56386</ele>
        <time>2016-06-10T11:03:46Z</time>
      </trkpt>
      <trkpt lat="48.83884" lon="-0.37931">
        <ele>138.29968</ele>
        <time>2016-06-10T11:03:56Z</time>
      </trkpt>
      <trkpt lat="48.83889" lon="-0.37938">
        <ele>138.29968</ele>
        <time>2016-06-10T11:04:01Z</time>
      </trkpt>
      <trkpt lat="48.83897" lon="-0.3795">
        <ele>136.18791</ele>
        <time>2016-06-10T11:04:11Z</time>
      </trkpt>
      <trkpt lat="48.83901" lon="-0.37954">
        <ele>136.18791</ele>
        <time>2016-06-10T11:04:16Z</time>
      </trkpt>
      <trkpt lat="48.83905" lon="-0.37959">
        <ele>134.26624</ele>
        <time>2016-06-10T11:04:21Z</time>
      </trkpt>
      <trkpt lat="48.8391" lon="-0.37965">
        <ele>134.26624</ele>
        <time>2016-06-10T11:04:26Z</time>
      </trkpt>
      <trkpt lat="48.83914" lon="-0.37972">
        <ele>132.68411</ele>
        <time>2016-06-10T11:04:31Z</time>
      </trkpt>
      <trkpt lat="48.83925" lon="-0.37984">
        <ele>131.14664</ele>
        <time>2016-06-10T11:04:46Z</time>
      </trkpt>
      <trkpt lat="48.8393" lon="-0.37989">
        <ele>131.14664</ele>
        <time>2016-06-10T11:04:51Z</time>
      </trkpt>
      <trkpt lat="48.83939" lon="-0.38">
        <ele>129.74051</ele>
        <time>2016-06-10T11:05:01Z</time>
      </trkpt>
      <trkpt lat="48.83943" lon="-0.38008">
        <ele>129.74051</ele>
        <time>2016-06-10T11:05:06Z</time>
      </trkpt>
      <trkpt lat="48.83945" lon="-0.38011">
        <ele>128.2861</ele>
        <time>2016-06-10T11:05:16Z</time>
      </trkpt>
      <trkpt lat="48.83947" lon="-0.38014">
        <ele>128.2861</ele>
        <time>2016-06-10T11:05:21Z</time>
      </trkpt>
      <trkpt lat="48.83957" lon="-0.38026">
        <ele>126.09821</ele>
        <time>2016-06-10T11:05:31Z</time>
      </trkpt>
      <trkpt lat="48.83964" lon="-0.38035">
        <ele>124.67665</ele>
        <time>2016-06-10T11:05:36Z</time>
      </trkpt>
      <trkpt lat="48.83967" lon="-0.38041">
        <ele>124.67665</ele>
        <time>2016-06-10T11:05:41Z</time>
      </trkpt>
      <trkpt lat="48.8397" lon="-0.38045">
        <ele>124.67665</ele>
        <time>2016-06-10T11:05:46Z</time>
      </trkpt>
      <trkpt lat="48.8398" lon="-0.38054">
        <ele>123.275925</ele>
        <time>2016-06-10T11:05:56Z</time>
      </trkpt>
      <trkpt lat="48.83986" lon="-0.3806">
        <ele>123.275925</ele>
        <time>2016-06-10T11:06:01Z</time>
      </trkpt>
      <trkpt lat="48.83996" lon="-0.3807">
        <ele>121.70948</ele>
        <time>2016-06-10T11:06:11Z</time>
      </trkpt>
      <trkpt lat="48.84" lon="-0.38079">
        <ele>121.70948</ele>
        <time>2016-06-10T11:06:16Z</time>
      </trkpt>
      <trkpt lat="48.84003" lon="-0.38083">
        <ele>120.43885</ele>
        <time>2016-06-10T11:06:26Z</time>
      </trkpt>
      <trkpt lat="48.84005" lon="-0.3809">
        <ele>120.43885</ele>
        <time>2016-06-10T11:06:31Z</time>
      </trkpt>
      <trkpt lat="48.84014" lon="-0.3811">
        <ele>118.69457</ele>
        <time>2016-06-10T11:06:46Z</time>
      </trkpt>
      <trkpt lat="48.84015" lon="-0.38118">
        <ele>118.69457</ele>
        <time>2016-06-10T11:06:51Z</time>
      </trkpt>
      <trkpt lat="48.84021" lon="-0.38135">
        <ele>117.0619</ele>
        <time>2016-06-10T11:07:01Z</time>
      </trkpt>
      <trkpt lat="48.84023" lon="-0.38144">
        <ele>117.0619</ele>
        <time>2016-06-10T11:07:06Z</time>
      </trkpt>
      <trkpt lat="48.84026" lon="-0.3816">
        <ele>115.56382</ele>
        <time>2016-06-10T11:07:16Z</time>
      </trkpt>
      <trkpt lat="48.84029" lon="-0.38167">
        <ele>115.56382</ele>
        <time>2016-06-10T11:07:21Z</time>
      </trkpt>
      <trkpt lat="48.84038" lon="-0.38183">
        <ele>114.27876</ele>
        <time>2016-06-10T11:07:31Z</time>
      </trkpt>
      <trkpt lat="48.84039" lon="-0.38186">
        <ele>114.27876</ele>
        <time>2016-06-10T11:07:36Z</time>
      </trkpt>
      <trkpt lat="48.84045" lon="-0.38196">
        <ele>112.486084</ele>
        <time>2016-06-10T11:07:46Z</time>
      </trkpt>
      <trkpt lat="48.84048" lon="-0.38201">
        <ele>112.486084</ele>
        <time>2016-06-10T11:07:51Z</time>
      </trkpt>
      <trkpt lat="48.84056" lon="-0.38213">
        <ele>110.398415</ele>
        <time>2016-06-10T11:08:01Z</time>
      </trkpt>
      <trkpt lat="48.84058" lon="-0.3822">
        <ele>110.398415</ele>
        <time>2016-06-10T11:08:06Z</time>
      </trkpt>
      <trkpt lat="48.84069" lon="-0.38234">
        <ele>108.55935</ele>
        <time>2016-06-10T11:08:21Z</time>
      </trkpt>
      <trkpt lat="48.84071" lon="-0.38237">
        <ele>108.55935</ele>
        <time>2016-06-10T11:08:26Z</time>
      </trkpt>
      <trkpt lat="48.84077" lon="-0.38248">
        <ele>106.75118</ele>
        <time>2016-06-10T11:08:36Z</time>
      </trkpt>
      <trkpt lat="48.8408" lon="-0.38251">
        <ele>106.75118</ele>
        <time>2016-06-10T11:08:41Z</time>
      </trkpt>
      <trkpt lat="48.84085" lon="-0.38265">
        <ele>105.36284</ele>
        <time>2016-06-10T11:08:51Z</time>
      </trkpt>
      <trkpt lat="48.84088" lon="-0.38272">
        <ele>105.36284</ele>
        <time>2016-06-10T11:08:56Z</time>
      </trkpt>
      <trkpt lat="48.84093" lon="-0.38284">
        <ele>103.2258</ele>
        <time>2016-06-10T11:09:06Z</time>
      </trkpt>
      <trkpt lat="48.84096" lon="-0.38291">
        <ele>103.2258</ele>
        <time>2016-06-10T11:09:11Z</time>
      </trkpt>
      <trkpt lat="48.84104" lon="-0.38302">
        <ele>101.13282</ele>
        <time>2016-06-10T11:09:21Z</time>
      </trkpt>
      <trkpt lat="48.84108" lon="-0.38306">
        <ele>101.13282</ele>
        <time>2016-06-10T11:09:26Z</time>
      </trkpt>
      <trkpt lat="48.84117" lon="-0.38315">
        <ele>98.838234</ele>
        <time>2016-06-10T11:09:36Z</time>
      </trkpt>
      <trkpt lat="48.84119" lon="-0.3832">
        <ele>98.838234</ele>
        <time>2016-06-10T11:09:41Z</time>
      </trkpt>
      <trkpt lat="48.8412" lon="-0.38329">
        <ele>96.9507</ele>
        <time>2016-06-10T11:09:51Z</time>
      </trkpt>
      <trkpt lat="48.84121" lon="-0.38329">
        <ele>96.9507</ele>
        <time>2016-06-10T11:09:56Z</time>
      </trkpt>
      <trkpt lat="48.84121" lon="-0.3833">
        <ele>96.9507</ele>
        <time>2016-06-10T11:10:06Z</time>
      </trkpt>
      <trkpt lat="48.84122" lon="-0.38332">
        <ele>96.9507</ele>
        <time>2016-06-10T11:10:11Z</time>
      </trkpt>
      <trkpt lat="48.84121" lon="-0.38342">
        <ele>95.48531</ele>
        <time>2016-06-10T11:10:26Z</time>
      </trkpt>
      <trkpt lat="48.84122" lon="-0.3835">
        <ele>95.48531</ele>
        <time>2016-06-10T11:10:31Z</time>
      </trkpt>
      <trkpt lat="48.84123" lon="-0.38364">
        <ele>94.13771</ele>
        <time>2016-06-10T11:10:41Z</time>
      </trkpt>
      <trkpt lat="48.84122" lon="-0.38372">
        <ele>94.13771</ele>
        <time>2016-06-10T11:10:46Z</time>
      </trkpt>
      <trkpt lat="48.84122" lon="-0.38382">
        <ele>93.086624</ele>
        <time>2016-06-10T11:10:56Z</time>
      </trkpt>
      <trkpt lat="48.84122" lon="-0.38387">
        <ele>93.086624</ele>
        <time>2016-06-10T11:11:01Z</time>
      </trkpt>
      <trkpt lat="48.84119" lon="-0.38399">
        <ele>92.294975</ele>
        <time>2016-06-10T11:11:11Z</time>
      </trkpt>
      <trkpt lat="48.84119" lon="-0.38407">
        <ele>92.294975</ele>
        <time>2016-06-10T11:11:16Z</time>
      </trkpt>
      <trkpt lat="48.84119" lon="-0.38419">
        <ele>91.6267</ele>
        <time>2016-06-10T11:11:26Z</time>
      </trkpt>
      <trkpt lat="48.84119" lon="-0.38419">
        <ele>91.6267</ele>
        <time>2016-06-10T11:11:31Z</time>
      </trkpt>
      <trkpt lat="48.84119" lon="-0.38419">
        <ele>91.6267</ele>
        <time>2016-06-10T11:11:41Z</time>
      </trkpt>
      <trkpt lat="48.84119" lon="-0.38419">
        <ele>91.6267</ele>
        <time>2016-06-10T11:11:46Z</time>
      </trkpt>
      <trkpt lat="48.84119" lon="-0.38419">
        <ele>91.6267</ele>
        <time>2016-06-10T11:11:56Z</time>
      </trkpt>
      <trkpt lat="48.84119" lon="-0.38419">
        <ele>91.6267</ele>
        <time>2016-06-10T11:12:01Z</time>
      </trkpt>
      <trkpt lat="48.84119" lon="-0.38419">
        <ele>91.6267</ele>
        <time>2016-06-10T11:12:16Z</time>
      </trkpt>
      <trkpt lat="48.84119" lon="-0.38419">
        <ele>91.6267</ele>
        <time>2016-06-10T11:12:21Z</time>
      </trkpt>
      <trkpt lat="48.84119" lon="-0.38419">
        <ele>91.6267</ele>
        <time>2016-06-10T11:12:31Z</time>
      </trkpt>
      <trkpt lat="48.84119" lon="-0.38419">
        <ele>91.6267</ele>
        <time>2016-06-10T11:12:36Z</time>
      </trkpt>
      <trkpt lat="48.84119" lon="-0.38419">
        <ele>91.6267</ele>
        <time>2016-06-10T11:12:46Z</time>
      </trkpt>
      <trkpt lat="48.84119" lon="-0.38419">
        <ele>91.6267</ele>
        <time>2016-06-10T11:12:51Z</time>
      </trkpt>
      <trkpt lat="48.84119" lon="-0.38419">
        <ele>91.6267</ele>
        <time>2016-06-10T11:13:01Z</time>
      </trkpt>
      <trkpt lat="48.84119" lon="-0.38419">
        <ele>91.6267</ele>
        <time>2016-06-10T11:13:06Z</time>
      </trkpt>
      <trkpt lat="48.84119" lon="-0.38419">
        <ele>91.6267</ele>
        <time>2016-06-10T11:13:16Z</time>
      </trkpt>
      <trkpt lat="48.84119" lon="-0.38419">
        <ele>91.6267</ele>
        <time>2016-06-10T11:13:21Z</time>
      </trkpt>
      <trkpt lat="48.84119" lon="-0.38419">
        <ele>91.6267</ele>
        <time>2016-06-10T11:13:31Z</time>
      </trkpt>
      <trkpt lat="48.84119" lon="-0.38419">
        <ele>91.6267</ele>
        <time>2016-06-10T11:13:36Z</time>
      </trkpt>
      <trkpt lat="48.84124" lon="-0.38433">
        <ele>91.53179</ele>
        <time>2016-06-10T11:13:46Z</time>
      </trkpt>
      <trkpt lat="48.84129" lon="-0.38437">
        <ele>91.53179</ele>
        <time>2016-06-10T11:13:51Z</time>
      </trkpt>
      <trkpt lat="48.84132" lon="-0.38438">
        <ele>91.53179</ele>
        <time>2016-06-10T11:14:01Z</time>
      </trkpt>
      <trkpt lat="48.84133" lon="-0.38439">
        <ele>91.9067</ele>
        <time>2016-06-10T11:14:06Z</time>
      </trkpt>
      <trkpt lat="48.84132" lon="-0.38435">
        <ele>91.9067</ele>
        <time>2016-06-10T11:14:16Z</time>
      </trkpt>
      <trkpt lat="48.84134" lon="-0.38433">
        <ele>91.9067</ele>
        <time>2016-06-10T11:14:21Z</time>
      </trkpt>
      <trkpt lat="48.84129" lon="-0.38419">
        <ele>91.38594</ele>
        <time>2016-06-10T11:14:36Z</time>
      </trkpt>
      <trkpt lat="48.8413" lon="-0.38411">
        <ele>91.38594</ele>
        <time>2016-06-10T11:14:41Z</time>
      </trkpt>
      <trkpt lat="48.8413" lon="-0.38405">
        <ele>91.18554</ele>
        <time>2016-06-10T11:14:46Z</time>
      </trkpt>
      <trkpt lat="48.8413" lon="-0.38401">
        <ele>91.18554</ele>
        <time>2016-06-10T11:14:51Z</time>
      </trkpt>
      <trkpt lat="48.84129" lon="-0.38393">
        <ele>91.18554</ele>
        <time>2016-06-10T11:14:56Z</time>
      </trkpt>
      <trkpt lat="48.8413" lon="-0.3839">
        <ele>91.42249</ele>
        <time>2016-06-10T11:15:06Z</time>
      </trkpt>
      <trkpt lat="48.84131" lon="-0.3839">
        <ele>91.42249</ele>
        <time>2016-06-10T11:15:11Z</time>
      </trkpt>
      <trkpt lat="48.84132" lon="-0.38391">
        <ele>91.42249</ele>
        <time>2016-06-10T11:15:21Z</time>
      </trkpt>
      <trkpt lat="48.84133" lon="-0.38391">
        <ele>91.42249</ele>
        <time>2016-06-10T11:15:26Z</time>
      </trkpt>
      <trkpt lat="48.84132" lon="-0.38391">
        <ele>91.42249</ele>
        <time>2016-06-10T11:15:36Z</time>
      </trkpt>
      <trkpt lat="48.84132" lon="-0.3839">
        <ele>91.42249</ele>
        <time>2016-06-10T11:15:41Z</time>
      </trkpt>
      <trkpt lat="48.84129" lon="-0.38367">
        <ele>91.339325</ele>
        <time>2016-06-10T11:15:56Z</time>
      </trkpt>
      <trkpt lat="48.84128" lon="-0.38367">
        <ele>91.339325</ele>
        <time>2016-06-10T11:16:01Z</time>
      </trkpt>
      <trkpt lat="48.84128" lon="-0.38355">
        <ele>91.339325</ele>
        <time>2016-06-10T11:16:11Z</time>
      </trkpt>
      <trkpt lat="48.84124" lon="-0.38333">
        <ele>91.48886</ele>
        <time>2016-06-10T11:16:26Z</time>
      </trkpt>
      <trkpt lat="48.84123" lon="-0.38334">
        <ele>91.48886</ele>
        <time>2016-06-10T11:16:31Z</time>
      </trkpt>
      <trkpt lat="48.84124" lon="-0.38333">
        <ele>91.48886</ele>
        <time>2016-06-10T11:16:41Z</time>
      </trkpt>
      <trkpt lat="48.84124" lon="-0.38332">
        <ele>91.48886</ele>
        <time>2016-06-10T11:16:46Z</time>
      </trkpt>
      <trkpt lat="48.84122" lon="-0.3832">
        <ele>91.44597</ele>
        <time>2016-06-10T11:16:56Z</time>
      </trkpt>
      <trkpt lat="48.84123" lon="-0.38309">
        <ele>91.44597</ele>
        <time>2016-06-10T11:17:01Z</time>
      </trkpt>
      <trkpt lat="48.84127" lon="-0.3831">
        <ele>91.6964</ele>
        <time>2016-06-10T11:17:11Z</time>
      </trkpt>
      <trkpt lat="48.8413" lon="-0.38317">
        <ele>91.6964</ele>
        <time>2016-06-10T11:17:16Z</time>
      </trkpt>
      <trkpt lat="48.84134" lon="-0.38322">
        <ele>91.738304</ele>
        <time>2016-06-10T11:17:21Z</time>
      </trkpt>
      <trkpt lat="48.84138" lon="-0.38329">
        <ele>91.738304</ele>
        <time>2016-06-10T11:17:26Z</time>
      </trkpt>
      <trkpt lat="48.84141" lon="-0.38334">
        <ele>91.770256</ele>
        <time>2016-06-10T11:17:31Z</time>
      </trkpt>
      <trkpt lat="48.84144" lon="-0.3834">
        <ele>91.770256</ele>
        <time>2016-06-10T11:17:36Z</time>
      </trkpt>
      <trkpt lat="48.84148" lon="-0.38342">
        <ele>91.38546</ele>
        <time>2016-06-10T11:17:41Z</time>
      </trkpt>
      <trkpt lat="48.84152" lon="-0.38351">
        <ele>91.38546</ele>
        <time>2016-06-10T11:17:46Z</time>
      </trkpt>
      <trkpt lat="48.84156" lon="-0.38373">
        <ele>91.245865</ele>
        <time>2016-06-10T11:17:56Z</time>
      </trkpt>
      <trkpt lat="48.84159" lon="-0.3838">
        <ele>91.245865</ele>
        <time>2016-06-10T11:18:01Z</time>
      </trkpt>
      <trkpt lat="48.84158" lon="-0.38401">
        <ele>90.75362</ele>
        <time>2016-06-10T11:18:11Z</time>
      </trkpt>
      <trkpt lat="48.84159" lon="-0.38409">
        <ele>90.75362</ele>
        <time>2016-06-10T11:18:16Z</time>
      </trkpt>
      <trkpt lat="48.84164" lon="-0.38423">
        <ele>90.624054</ele>
        <time>2016-06-10T11:18:26Z</time>
      </trkpt>
      <trkpt lat="48.84165" lon="-0.38434">
        <ele>90.624054</ele>
        <time>2016-06-10T11:18:31Z</time>
      </trkpt>
      <trkpt lat="48.84166" lon="-0.38448">
        <ele>90.48141</ele>
        <time>2016-06-10T11:18:41Z</time>
      </trkpt>
      <trkpt lat="48.84166" lon="-0.38459">
        <ele>90.48141</ele>
        <time>2016-06-10T11:18:46Z</time>
      </trkpt>
      <trkpt lat="48.84166" lon="-0.38485">
        <ele>90.62614</ele>
        <time>2016-06-10T11:19:01Z</time>
      </trkpt>
      <trkpt lat="48.84166" lon="-0.38494">
        <ele>90.62614</ele>
        <time>2016-06-10T11:19:06Z</time>
      </trkpt>
      <trkpt lat="48.84165" lon="-0.38511">
        <ele>90.71623</ele>
        <time>2016-06-10T11:19:16Z</time>
      </trkpt>
      <trkpt lat="48.84164" lon="-0.38521">
        <ele>90.71623</ele>
        <time>2016-06-10T11:19:21Z</time>
      </trkpt>
      <trkpt lat="48.84163" lon="-0.38539">
        <ele>90.91063</ele>
        <time>2016-06-10T11:19:31Z</time>
      </trkpt>
      <trkpt lat="48.84161" lon="-0.3855">
        <ele>90.91063</ele>
        <time>2016-06-10T11:19:36Z</time>
      </trkpt>
      <trkpt lat="48.84157" lon="-0.38571">
        <ele>91.22667</ele>
        <time>2016-06-10T11:19:46Z</time>
      </trkpt>
      <trkpt lat="48.84157" lon="-0.3858">
        <ele>91.22667</ele>
        <time>2016-06-10T11:19:51Z</time>
      </trkpt>
      <trkpt lat="48.84157" lon="-0.38596">
        <ele>91.57933</ele>
        <time>2016-06-10T11:20:01Z</time>
      </trkpt>
      <trkpt lat="48.84159" lon="-0.38602">
        <ele>91.57933</ele>
        <time>2016-06-10T11:20:06Z</time>
      </trkpt>
      <trkpt lat="48.84159" lon="-0.38623">
        <ele>92.336555</ele>
        <time>2016-06-10T11:20:16Z</time>
      </trkpt>
      <trkpt lat="48.84161" lon="-0.3863">
        <ele>92.336555</ele>
        <time>2016-06-10T11:20:21Z</time>
      </trkpt>
      <trkpt lat="48.84157" lon="-0.38652">
        <ele>93.37709</ele>
        <time>2016-06-10T11:20:31Z</time>
      </trkpt>
      <trkpt lat="48.84158" lon="-0.38661">
        <ele>93.37709</ele>
        <time>2016-06-10T11:20:36Z</time>
      </trkpt>
      <trkpt lat="48.84159" lon="-0.38675">
        <ele>94.09793</ele>
        <time>2016-06-10T11:20:46Z</time>
      </trkpt>
      <trkpt lat="48.8416" lon="-0.38686">
        <ele>94.09793</ele>
        <time>2016-06-10T11:20:51Z</time>
      </trkpt>
      <trkpt lat="48.84162" lon="-0.38707">
        <ele>94.77724</ele>
        <time>2016-06-10T11:21:06Z</time>
      </trkpt>
      <trkpt lat="48.84163" lon="-0.38714">
        <ele>94.77724</ele>
        <time>2016-06-10T11:21:11Z</time>
      </trkpt>
      <trkpt lat="48.84165" lon="-0.38728">
        <ele>95.399155</ele>
        <time>2016-06-10T11:21:21Z</time>
      </trkpt>
      <trkpt lat="48.84166" lon="-0.38738">
        <ele>95.399155</ele>
        <time>2016-06-10T11:21:26Z</time>
      </trkpt>
      <trkpt lat="48.84169" lon="-0.38755">
        <ele>96.10783</ele>
        <time>2016-06-10T11:21:36Z</time>
      </trkpt>
      <trkpt lat="48.8417" lon="-0.38763">
        <ele>96.10783</ele>
        <time>2016-06-10T11:21:41Z</time>
      </trkpt>
      <trkpt lat="48.84175" lon="-0.3878">
        <ele>96.61876</ele>
        <time>2016-06-10T11:21:51Z</time>
      </trkpt>
      <trkpt lat="48.84175" lon="-0.38783">
        <ele>96.61876</ele>
        <time>2016-06-10T11:21:56Z</time>
      </trkpt>
      <trkpt lat="48.84177" lon="-0.388">
        <ele>97.33198</ele>
        <time>2016-06-10T11:22:06Z</time>
      </trkpt>
      <trkpt lat="48.84178" lon="-0.38807">
        <ele>97.33198</ele>
        <time>2016-06-10T11:22:11Z</time>
      </trkpt>
      <trkpt lat="48.84179" lon="-0.38823">
        <ele>97.709785</ele>
        <time>2016-06-10T11:22:21Z</time>
      </trkpt>
      <trkpt lat="48.84178" lon="-0.38832">
        <ele>97.709785</ele>
        <time>2016-06-10T11:22:26Z</time>
      </trkpt>
      <trkpt lat="48.84174" lon="-0.38842">
        <ele>98.681755</ele>
        <time>2016-06-10T11:22:36Z</time>
      </trkpt>
      <trkpt lat="48.84171" lon="-0.3885">
        <ele>98.681755</ele>
        <time>2016-06-10T11:22:41Z</time>
      </trkpt>
      <trkpt lat="48.84169" lon="-0.38853">
        <ele>98.681755</ele>
        <time>2016-06-10T11:22:51Z</time>
      </trkpt>
      <trkpt lat="48.84167" lon="-0.38858">
        <ele>99.98359</ele>
        <time>2016-06-10T11:22:56Z</time>
      </trkpt>
      <trkpt lat="48.84164" lon="-0.38876">
        <ele>100.836426</ele>
        <time>2016-06-10T11:23:11Z</time>
      </trkpt>
      <trkpt lat="48.84165" lon="-0.38884">
        <ele>100.836426</ele>
        <time>2016-06-10T11:23:16Z</time>
      </trkpt>
      <trkpt lat="48.84167" lon="-0.38898">
        <ele>101.24054</ele>
        <time>2016-06-10T11:23:26Z</time>
      </trkpt>
      <trkpt lat="48.84168" lon="-0.38905">
        <ele>101.24054</ele>
        <time>2016-06-10T11:23:31Z</time>
      </trkpt>
      <trkpt lat="48.8417" lon="-0.38922">
        <ele>101.58673</ele>
        <time>2016-06-10T11:23:41Z</time>
      </trkpt>
      <trkpt lat="48.84171" lon="-0.38931">
        <ele>101.58673</ele>
        <time>2016-06-10T11:23:46Z</time>
      </trkpt>
      <trkpt lat="48.84174" lon="-0.38949">
        <ele>102.179726</ele>
        <time>2016-06-10T11:23:56Z</time>
      </trkpt>
      <trkpt lat="48.84175" lon="-0.38958">
        <ele>102.179726</ele>
        <time>2016-06-10T11:24:01Z</time>
      </trkpt>
      <trkpt lat="48.84179" lon="-0.38973">
        <ele>102.73928</ele>
        <time>2016-06-10T11:24:11Z</time>
      </trkpt>
      <trkpt lat="48.84181" lon="-0.38981">
        <ele>102.73928</ele>
        <time>2016-06-10T11:24:16Z</time>
      </trkpt>
      <trkpt lat="48.84185" lon="-0.38997">
        <ele>102.86186</ele>
        <time>2016-06-10T11:24:26Z</time>
      </trkpt>
      <trkpt lat="48.84185" lon="-0.39003">
        <ele>102.86186</ele>
        <time>2016-06-10T11:24:31Z</time>
      </trkpt>
      <trkpt lat="48.84192" lon="-0.39023">
        <ele>102.82344</ele>
        <time>2016-06-10T11:24:41Z</time>
      </trkpt>
      <trkpt lat="48.84192" lon="-0.39034">
        <ele>102.82344</ele>
        <time>2016-06-10T11:24:46Z</time>
      </trkpt>
      <trkpt lat="48.84193" lon="-0.39049">
        <ele>102.808235</ele>
        <time>2016-06-10T11:24:56Z</time>
      </trkpt>
      <trkpt lat="48.84195" lon="-0.39056">
        <ele>102.808235</ele>
        <time>2016-06-10T11:25:01Z</time>
      </trkpt>
      <trkpt lat="48.84204" lon="-0.39077">
        <ele>103.21755</ele>
        <time>2016-06-10T11:25:16Z</time>
      </trkpt>
      <trkpt lat="48.84204" lon="-0.39088">
        <ele>103.21755</ele>
        <time>2016-06-10T11:25:21Z</time>
      </trkpt>
      <trkpt lat="48.84207" lon="-0.39103">
        <ele>103.62955</ele>
        <time>2016-06-10T11:25:31Z</time>
      </trkpt>
      <trkpt lat="48.84207" lon="-0.39112">
        <ele>103.62955</ele>
        <time>2016-06-10T11:25:36Z</time>
      </trkpt>
      <trkpt lat="48.84209" lon="-0.39128">
        <ele>103.88403</ele>
        <time>2016-06-10T11:25:46Z</time>
      </trkpt>
      <trkpt lat="48.8421" lon="-0.39137">
        <ele>103.88403</ele>
        <time>2016-06-10T11:25:51Z</time>
      </trkpt>
      <trkpt lat="48.84211" lon="-0.39154">
        <ele>104.23664</ele>
        <time>2016-06-10T11:26:01Z</time>
      </trkpt>
      <trkpt lat="48.84212" lon="-0.39163">
        <ele>104.23664</ele>
        <time>2016-06-10T11:26:06Z</time>
      </trkpt>
      <trkpt lat="48.84214" lon="-0.39179">
        <ele>104.28996</ele>
        <time>2016-06-10T11:26:16Z</time>
      </trkpt>
      <trkpt lat="48.84215" lon="-0.39187">
        <ele>104.28996</ele>
        <time>2016-06-10T11:26:21Z</time>
      </trkpt>
      <trkpt lat="48.84217" lon="-0.39203">
        <ele>104.09464</ele>
        <time>2016-06-10T11:26:31Z</time>
      </trkpt>
      <trkpt lat="48.84217" lon="-0.39211">
        <ele>104.09464</ele>
        <time>2016-06-10T11:26:36Z</time>
      </trkpt>
      <trkpt lat="48.84219" lon="-0.39228">
        <ele>103.69838</ele>
        <time>2016-06-10T11:26:46Z</time>
      </trkpt>
      <trkpt lat="48.84219" lon="-0.39239">
        <ele>103.69838</ele>
        <time>2016-06-10T11:26:51Z</time>
      </trkpt>
      <trkpt lat="48.84219" lon="-0.39264">
        <ele>103.26131</ele>
        <time>2016-06-10T11:27:06Z</time>
      </trkpt>
      <trkpt lat="48.84219" lon="-0.39271">
        <ele>103.26131</ele>
        <time>2016-06-10T11:27:11Z</time>
      </trkpt>
      <trkpt lat="48.84218" lon="-0.39284">
        <ele>102.41317</ele>
        <time>2016-06-10T11:27:21Z</time>
      </trkpt>
      <trkpt lat="48.84216" lon="-0.39294">
        <ele>102.41317</ele>
        <time>2016-06-10T11:27:26Z</time>
      </trkpt>
      <trkpt lat="48.84215" lon="-0.39311">
        <ele>101.691216</ele>
        <time>2016-06-10T11:27:36Z</time>
      </trkpt>
      <trkpt lat="48.84213" lon="-0.3932">
        <ele>101.691216</ele>
        <time>2016-06-10T11:27:41Z</time>
      </trkpt>
      <trkpt lat="48.84211" lon="-0.39337">
        <ele>100.97322</ele>
        <time>2016-06-10T11:27:51Z</time>
      </trkpt>
      <trkpt lat="48.84209" lon="-0.39343">
        <ele>100.97322</ele>
        <time>2016-06-10T11:27:56Z</time>
      </trkpt>
      <trkpt lat="48.84205" lon="-0.39362">
        <ele>100.08833</ele>
        <time>2016-06-10T11:28:06Z</time>
      </trkpt>
      <trkpt lat="48.84201" lon="-0.39369">
        <ele>100.08833</ele>
        <time>2016-06-10T11:28:11Z</time>
      </trkpt>
      <trkpt lat="48.84196" lon="-0.39388">
        <ele>99.03727</ele>
        <time>2016-06-10T11:28:21Z</time>
      </trkpt>
      <trkpt lat="48.84195" lon="-0.39394">
        <ele>99.03727</ele>
        <time>2016-06-10T11:28:26Z</time>
      </trkpt>
      <trkpt lat="48.84193" lon="-0.394">
        <ele>99.03727</ele>
        <time>2016-06-10T11:28:36Z</time>
      </trkpt>
      <trkpt lat="48.8419" lon="-0.39403">
        <ele>97.143845</ele>
        <time>2016-06-10T11:28:41Z</time>
      </trkpt>
      <trkpt lat="48.84185" lon="-0.39411">
        <ele>97.143845</ele>
        <time>2016-06-10T11:28:51Z</time>
      </trkpt>
      <trkpt lat="48.84184" lon="-0.39414">
        <ele>95.25385</ele>
        <time>2016-06-10T11:28:56Z</time>
      </trkpt>
      <trkpt lat="48.84186" lon="-0.39425">
        <ele>95.25385</ele>
        <time>2016-06-10T11:29:06Z</time>
      </trkpt>
      <trkpt lat="48.84188" lon="-0.39433">
        <ele>93.214195</ele>
        <time>2016-06-10T11:29:11Z</time>
      </trkpt>
      <trkpt lat="48.84191" lon="-0.39449">
        <ele>91.17165</ele>
        <time>2016-06-10T11:29:26Z</time>
      </trkpt>
      <trkpt lat="48.84192" lon="-0.39453">
        <ele>91.17165</ele>
        <time>2016-06-10T11:29:31Z</time>
      </trkpt>
      <trkpt lat="48.84198" lon="-0.3946">
        <ele>88.68572</ele>
        <time>2016-06-10T11:29:41Z</time>
      </trkpt>
      <trkpt lat="48.842" lon="-0.39463">
        <ele>88.68572</ele>
        <time>2016-06-10T11:29:46Z</time>
      </trkpt>
      <trkpt lat="48.84206" lon="-0.39471">
        <ele>86.070015</ele>
        <time>2016-06-10T11:29:56Z</time>
      </trkpt>
      <trkpt lat="48.84209" lon="-0.39477">
        <ele>86.070015</ele>
        <time>2016-06-10T11:30:01Z</time>
      </trkpt>
      <trkpt lat="48.84212" lon="-0.39483">
        <ele>83.31274</ele>
        <time>2016-06-10T11:30:11Z</time>
      </trkpt>
      <trkpt lat="48.84216" lon="-0.39487">
        <ele>83.31274</ele>
        <time>2016-06-10T11:30:16Z</time>
      </trkpt>
      <trkpt lat="48.84217" lon="-0.39494">
        <ele>79.89889</ele>
        <time>2016-06-10T11:30:26Z</time>
      </trkpt>
      <trkpt lat="48.84219" lon="-0.39501">
        <ele>79.89889</ele>
        <time>2016-06-10T11:30:31Z</time>
      </trkpt>
      <trkpt lat="48.84222" lon="-0.39513">
        <ele>77.26971</ele>
        <time>2016-06-10T11:30:41Z</time>
      </trkpt>
      <trkpt lat="48.84223" lon="-0.39521">
        <ele>77.26971</ele>
        <time>2016-06-10T11:30:46Z</time>
      </trkpt>
      <trkpt lat="48.84227" lon="-0.39532">
        <ele>75.15859</ele>
        <time>2016-06-10T11:30:56Z</time>
      </trkpt>
      <trkpt lat="48.8423" lon="-0.39538">
        <ele>75.15859</ele>
        <time>2016-06-10T11:31:01Z</time>
      </trkpt>
      <trkpt lat="48.84237" lon="-0.39547">
        <ele>73.33135</ele>
        <time>2016-06-10T11:31:11Z</time>
      </trkpt>
      <trkpt lat="48.84239" lon="-0.3955">
        <ele>73.33135</ele>
        <time>2016-06-10T11:31:16Z</time>
      </trkpt>
      <trkpt lat="48.84246" lon="-0.39556">
        <ele>70.79185</ele>
        <time>2016-06-10T11:31:26Z</time>
      </trkpt>
      <trkpt lat="48.84249" lon="-0.39554">
        <ele>70.79185</ele>
        <time>2016-06-10T11:31:31Z</time>
      </trkpt>
      <trkpt lat="48.84254" lon="-0.39563">
        <ele>68.36271</ele>
        <time>2016-06-10T11:31:41Z</time>
      </trkpt>
      <trkpt lat="48.84249" lon="-0.39567">
        <ele>68.36271</ele>
        <time>2016-06-10T11:31:46Z</time>
      </trkpt>
      <trkpt lat="48.84238" lon="-0.39572">
        <ele>65.73925</ele>
        <time>2016-06-10T11:31:56Z</time>
      </trkpt>
      <trkpt lat="48.84234" lon="-0.39574">
        <ele>65.73925</ele>
        <time>2016-06-10T11:32:01Z</time>
      </trkpt>
      <trkpt lat="48.84224" lon="-0.39578">
        <ele>63.82124</ele>
        <time>2016-06-10T11:32:11Z</time>
      </trkpt>
      <trkpt lat="48.84218" lon="-0.39581">
        <ele>63.82124</ele>
        <time>2016-06-10T11:32:16Z</time>
      </trkpt>
      <trkpt lat="48.84221" lon="-0.39578">
        <ele>62.186455</ele>
        <time>2016-06-10T11:32:26Z</time>
      </trkpt>
      <trkpt lat="48.8422" lon="-0.39579">
        <ele>62.186455</ele>
        <time>2016-06-10T11:32:31Z</time>
      </trkpt>
      <trkpt lat="48.84215" lon="-0.39578">
        <ele>62.186455</ele>
        <time>2016-06-10T11:32:46Z</time>
      </trkpt>
      <trkpt lat="48.84215" lon="-0.39578">
        <ele>62.186455</ele>
        <time>2016-06-10T11:32:51Z</time>
      </trkpt>
      <trkpt lat="48.84207" lon="-0.39583">
        <ele>60.02479</ele>
        <time>2016-06-10T11:33:01Z</time>
      </trkpt>
      <trkpt lat="48.84203" lon="-0.39586">
        <ele>60.02479</ele>
        <time>2016-06-10T11:33:06Z</time>
      </trkpt>
      <trkpt lat="48.84197" lon="-0.39595">
        <ele>58.28747</ele>
        <time>2016-06-10T11:33:16Z</time>
      </trkpt>
      <trkpt lat="48.84194" lon="-0.39603">
        <ele>58.28747</ele>
        <time>2016-06-10T11:33:21Z</time>
      </trkpt>
      <trkpt lat="48.8419" lon="-0.39612">
        <ele>56.860123</ele>
        <time>2016-06-10T11:33:31Z</time>
      </trkpt>
      <trkpt lat="48.84185" lon="-0.39617">
        <ele>56.860123</ele>
        <time>2016-06-10T11:33:36Z</time>
      </trkpt>
      <trkpt lat="48.84184" lon="-0.39622">
        <ele>55.650143</ele>
        <time>2016-06-10T11:33:46Z</time>
      </trkpt>
      <trkpt lat="48.84181" lon="-0.39626">
        <ele>55.650143</ele>
        <time>2016-06-10T11:33:51Z</time>
      </trkpt>
      <trkpt lat="48.84175" lon="-0.39637">
        <ele>54.70067</ele>
        <time>2016-06-10T11:34:01Z</time>
      </trkpt>
      <trkpt lat="48.84173" lon="-0.39643">
        <ele>54.70067</ele>
        <time>2016-06-10T11:34:06Z</time>
      </trkpt>
      <trkpt lat="48.84174" lon="-0.39658">
        <ele>53.71933</ele>
        <time>2016-06-10T11:34:16Z</time>
      </trkpt>
      <trkpt lat="48.84175" lon="-0.39667">
        <ele>53.71933</ele>
        <time>2016-06-10T11:34:21Z</time>
      </trkpt>
      <trkpt lat="48.84184" lon="-0.39689">
        <ele>53.227783</ele>
        <time>2016-06-10T11:34:36Z</time>
      </trkpt>
      <trkpt lat="48.84185" lon="-0.39697">
        <ele>53.227783</ele>
        <time>2016-06-10T11:34:41Z</time>
      </trkpt>
      <trkpt lat="48.84191" lon="-0.3971">
        <ele>52.52616</ele>
        <time>2016-06-10T11:34:51Z</time>
      </trkpt>
      <trkpt lat="48.84194" lon="-0.39716">
        <ele>52.52616</ele>
        <time>2016-06-10T11:34:56Z</time>
      </trkpt>
      <trkpt lat="48.842" lon="-0.39729">
        <ele>51.90318</ele>
        <time>2016-06-10T11:35:06Z</time>
      </trkpt>
      <trkpt lat="48.84203" lon="-0.39734">
        <ele>51.90318</ele>
        <time>2016-06-10T11:35:11Z</time>
      </trkpt>
      <trkpt lat="48.84211" lon="-0.39749">
        <ele>51.208107</ele>
        <time>2016-06-10T11:35:21Z</time>
      </trkpt>
      <trkpt lat="48.84214" lon="-0.39751">
        <ele>51.208107</ele>
        <time>2016-06-10T11:35:26Z</time>
      </trkpt>
      <trkpt lat="48.84223" lon="-0.39762">
        <ele>50.791363</ele>
        <time>2016-06-10T11:35:36Z</time>
      </trkpt>
      <trkpt lat="48.84231" lon="-0.39769">
        <ele>51.582016</ele>
        <time>2016-06-10T11:35:41Z</time>
      </trkpt>
      <trkpt lat="48.84241" lon="-0.3978">
        <ele>52.79457</ele>
        <time>2016-06-10T11:35:51Z</time>
      </trkpt>
      <trkpt lat="48.84244" lon="-0.39786">
        <ele>52.79457</ele>
        <time>2016-06-10T11:35:56Z</time>
      </trkpt>
      <trkpt lat="48.84246" lon="-0.39796">
        <ele>53.09472</ele>
        <time>2016-06-10T11:36:06Z</time>
      </trkpt>
      <trkpt lat="48.8425" lon="-0.39799">
        <ele>53.09472</ele>
        <time>2016-06-10T11:36:11Z</time>
      </trkpt>
      <trkpt lat="48.84259" lon="-0.3981">
        <ele>53.52566</ele>
        <time>2016-06-10T11:36:21Z</time>
      </trkpt>
      <trkpt lat="48.84264" lon="-0.39815">
        <ele>53.52566</ele>
        <time>2016-06-10T11:36:26Z</time>
      </trkpt>
      <trkpt lat="48.84267" lon="-0.39824">
        <ele>54.07361</ele>
        <time>2016-06-10T11:36:41Z</time>
      </trkpt>
      <trkpt lat="48.84271" lon="-0.39826">
        <ele>54.07361</ele>
        <time>2016-06-10T11:36:46Z</time>
      </trkpt>
      <trkpt lat="48.84274" lon="-0.39829">
        <ele>54.07361</ele>
        <time>2016-06-10T11:36:51Z</time>
      </trkpt>
      <trkpt lat="48.84283" lon="-0.39837">
        <ele>54.566936</ele>
        <time>2016-06-10T11:37:01Z</time>
      </trkpt>
      <trkpt lat="48.84286" lon="-0.39839">
        <ele>54.566936</ele>
        <time>2016-06-10T11:37:06Z</time>
      </trkpt>
      <trkpt lat="48.84293" lon="-0.39843">
        <ele>54.717083</ele>
        <time>2016-06-10T11:37:16Z</time>
      </trkpt>
      <trkpt lat="48.84298" lon="-0.39843">
        <ele>54.717083</ele>
        <time>2016-06-10T11:37:21Z</time>
      </trkpt>
      <trkpt lat="48.84306" lon="-0.39847">
        <ele>54.83412</ele>
        <time>2016-06-10T11:37:31Z</time>
      </trkpt>
      <trkpt lat="48.8431" lon="-0.39847">
        <ele>54.83412</ele>
        <time>2016-06-10T11:37:36Z</time>
      </trkpt>
      <trkpt lat="48.84315" lon="-0.39848">
        <ele>54.83412</ele>
        <time>2016-06-10T11:37:46Z</time>
      </trkpt>
      <trkpt lat="48.84318" lon="-0.39848">
        <ele>55.27752</ele>
        <time>2016-06-10T11:37:51Z</time>
      </trkpt>
      <trkpt lat="48.84318" lon="-0.39849">
        <ele>55.27752</ele>
        <time>2016-06-10T11:38:06Z</time>
      </trkpt>
      <trkpt lat="48.84318" lon="-0.39849">
        <ele>55.27752</ele>
        <time>2016-06-10T11:38:11Z</time>
      </trkpt>
      <trkpt lat="48.84318" lon="-0.39849">
        <ele>55.27752</ele>
        <time>2016-06-10T11:38:21Z</time>
      </trkpt>
      <trkpt lat="48.84317" lon="-0.39848">
        <ele>55.27752</ele>
        <time>2016-06-10T11:38:26Z</time>
      </trkpt>
      <trkpt lat="48.84317" lon="-0.39847">
        <ele>55.27752</ele>
        <time>2016-06-10T11:38:36Z</time>
      </trkpt>
      <trkpt lat="48.84316" lon="-0.39846">
        <ele>55.27752</ele>
        <time>2016-06-10T11:38:41Z</time>
      </trkpt>
      <trkpt lat="48.84316" lon="-0.39846">
        <ele>55.27752</ele>
        <time>2016-06-10T11:38:51Z</time>
      </trkpt>
      <trkpt lat="48.84316" lon="-0.39846">
        <ele>55.27752</ele>
        <time>2016-06-10T11:38:56Z</time>
      </trkpt>
      <trkpt lat="48.84318" lon="-0.39844">
        <ele>55.27752</ele>
        <time>2016-06-10T11:39:06Z</time>
      </trkpt>
      <trkpt lat="48.84318" lon="-0.39843">
        <ele>55.27752</ele>
        <time>2016-06-10T11:39:11Z</time>
      </trkpt>
      <trkpt lat="48.84318" lon="-0.39843">
        <ele>55.27752</ele>
        <time>2016-06-10T11:39:21Z</time>
      </trkpt>
      <trkpt lat="48.84319" lon="-0.39843">
        <ele>55.27752</ele>
        <time>2016-06-10T11:39:26Z</time>
      </trkpt>
      <trkpt lat="48.84333" lon="-0.39845">
        <ele>55.831833</ele>
        <time>2016-06-10T11:39:36Z</time>
      </trkpt>
      <trkpt lat="48.84341" lon="-0.39844">
        <ele>55.831833</ele>
        <time>2016-06-10T11:39:41Z</time>
      </trkpt>
      <trkpt lat="48.8435" lon="-0.39841">
        <ele>56.3116</ele>
        <time>2016-06-10T11:39:51Z</time>
      </trkpt>
      <trkpt lat="48.84356" lon="-0.39843">
        <ele>56.3116</ele>
        <time>2016-06-10T11:39:56Z</time>
      </trkpt>
      <trkpt lat="48.84371" lon="-0.39841">
        <ele>56.948753</ele>
        <time>2016-06-10T11:40:06Z</time>
      </trkpt>
      <trkpt lat="48.84379" lon="-0.39837">
        <ele>56.948753</ele>
        <time>2016-06-10T11:40:11Z</time>
      </trkpt>
      <trkpt lat="48.84391" lon="-0.39829">
        <ele>57.65519</ele>
        <time>2016-06-10T11:40:21Z</time>
      </trkpt>
      <trkpt lat="48.84394" lon="-0.39822">
        <ele>57.65519</ele>
        <time>2016-06-10T11:40:26Z</time>
      </trkpt>
      <trkpt lat="48.84407" lon="-0.39811">
        <ele>57.772697</ele>
        <time>2016-06-10T11:40:41Z</time>
      </trkpt>
      <trkpt lat="48.84411" lon="-0.39804">
        <ele>57.772697</ele>
        <time>2016-06-10T11:40:46Z</time>
      </trkpt>
      <trkpt lat="48.8442" lon="-0.39793">
        <ele>57.860462</ele>
        <time>2016-06-10T11:40:56Z</time>
      </trkpt>
      <trkpt lat="48.84427" lon="-0.39785">
        <ele>57.860462</ele>
        <time>2016-06-10T11:41:01Z</time>
      </trkpt>
      <trkpt lat="48.84439" lon="-0.39778">
        <ele>58.739376</ele>
        <time>2016-06-10T11:41:11Z</time>
      </trkpt>
      <trkpt lat="48.84444" lon="-0.39772">
        <ele>58.739376</ele>
        <time>2016-06-10T11:41:16Z</time>
      </trkpt>
      <trkpt lat="48.84455" lon="-0.3976">
        <ele>59.726807</ele>
        <time>2016-06-10T11:41:26Z</time>
      </trkpt>
      <trkpt lat="48.84461" lon="-0.3975">
        <ele>59.726807</ele>
        <time>2016-06-10T11:41:31Z</time>
      </trkpt>
      <trkpt lat="48.84462" lon="-0.39747">
        <ele>59.195675</ele>
        <time>2016-06-10T11:41:41Z</time>
      </trkpt>
      <trkpt lat="48.84464" lon="-0.3974">
        <ele>59.195675</ele>
        <time>2016-06-10T11:41:46Z</time>
      </trkpt>
      <trkpt lat="48.84475" lon="-0.39729">
        <ele>58.654713</ele>
        <time>2016-06-10T11:41:56Z</time>
      </trkpt>
      <trkpt lat="48.8448" lon="-0.39724">
        <ele>58.654713</ele>
        <time>2016-06-10T11:42:01Z</time>
      </trkpt>
      <trkpt lat="48.84493" lon="-0.39704">
        <ele>58.421104</ele>
        <time>2016-06-10T11:42:16Z</time>
      </trkpt>
      <trkpt lat="48.84497" lon="-0.397">
        <ele>58.421104</ele>
        <time>2016-06-10T11:42:21Z</time>
      </trkpt>
      <trkpt lat="48.84504" lon="-0.39684">
        <ele>58.355637</ele>
        <time>2016-06-10T11:42:31Z</time>
      </trkpt>
      <trkpt lat="48.84506" lon="-0.39666">
        <ele>58.876564</ele>
        <time>2016-06-10T11:42:36Z</time>
      </trkpt>
      <trkpt lat="48.84508" lon="-0.39653">
        <ele>58.876564</ele>
        <time>2016-06-10T11:42:46Z</time>
      </trkpt>
      <trkpt lat="48.84512" lon="-0.3965">
        <ele>58.95756</ele>
        <time>2016-06-10T11:42:51Z</time>
      </trkpt>
      <trkpt lat="48.84514" lon="-0.39633">
        <ele>58.441647</ele>
        <time>2016-06-10T11:43:01Z</time>
      </trkpt>
      <trkpt lat="48.84515" lon="-0.39628">
        <ele>58.441647</ele>
        <time>2016-06-10T11:43:06Z</time>
      </trkpt>
      <trkpt lat="48.84516" lon="-0.39622">
        <ele>58.441647</ele>
        <time>2016-06-10T11:43:16Z</time>
      </trkpt>
      <trkpt lat="48.84516" lon="-0.39621">
        <ele>58.441647</ele>
        <time>2016-06-10T11:43:21Z</time>
      </trkpt>
      <trkpt lat="48.84522" lon="-0.39607">
        <ele>57.89126</ele>
        <time>2016-06-10T11:43:31Z</time>
      </trkpt>
      <trkpt lat="48.84524" lon="-0.39598">
        <ele>57.89126</ele>
        <time>2016-06-10T11:43:36Z</time>
      </trkpt>
      <trkpt lat="48.84528" lon="-0.3959">
        <ele>56.991863</ele>
        <time>2016-06-10T11:43:46Z</time>
      </trkpt>
      <trkpt lat="48.8453" lon="-0.39579">
        <ele>56.991863</ele>
        <time>2016-06-10T11:43:51Z</time>
      </trkpt>
      <trkpt lat="48.84544" lon="-0.39551">
        <ele>56.59156</ele>
        <time>2016-06-10T11:44:01Z</time>
      </trkpt>
      <trkpt lat="48.84549" lon="-0.39538">
        <ele>56.768677</ele>
        <time>2016-06-10T11:44:06Z</time>
      </trkpt>
      <trkpt lat="48.84549" lon="-0.39526">
        <ele>56.768677</ele>
        <time>2016-06-10T11:44:16Z</time>
      </trkpt>
      <trkpt lat="48.84551" lon="-0.39514">
        <ele>56.686333</ele>
        <time>2016-06-10T11:44:21Z</time>
      </trkpt>
      <trkpt lat="48.8456" lon="-0.39489">
        <ele>57.371307</ele>
        <time>2016-06-10T11:44:31Z</time>
      </trkpt>
      <trkpt lat="48.84562" lon="-0.39484">
        <ele>57.371307</ele>
        <time>2016-06-10T11:44:36Z</time>
      </trkpt>
      <trkpt lat="48.84568" lon="-0.39457">
        <ele>57.755306</ele>
        <time>2016-06-10T11:44:46Z</time>
      </trkpt>
      <trkpt lat="48.8457" lon="-0.39448">
        <ele>57.755306</ele>
        <time>2016-06-10T11:44:51Z</time>
      </trkpt>
      <trkpt lat="48.84576" lon="-0.39429">
        <ele>58.204067</ele>
        <time>2016-06-10T11:45:06Z</time>
      </trkpt>
      <trkpt lat="48.84577" lon="-0.3942">
        <ele>58.204067</ele>
        <time>2016-06-10T11:45:11Z</time>
      </trkpt>
      <trkpt lat="48.84579" lon="-0.394">
        <ele>58.148457</ele>
        <time>2016-06-10T11:45:21Z</time>
      </trkpt>
      <trkpt lat="48.8458" lon="-0.39395">
        <ele>58.148457</ele>
        <time>2016-06-10T11:45:26Z</time>
      </trkpt>
      <trkpt lat="48.84581" lon="-0.39391">
        <ele>58.148457</ele>
        <time>2016-06-10T11:45:36Z</time>
      </trkpt>
      <trkpt lat="48.84581" lon="-0.39384">
        <ele>58.229923</ele>
        <time>2016-06-10T11:45:41Z</time>
      </trkpt>
      <trkpt lat="48.84583" lon="-0.39343">
        <ele>59.892742</ele>
        <time>2016-06-10T11:45:51Z</time>
      </trkpt>
      <trkpt lat="48.84589" lon="-0.39337">
        <ele>59.892742</ele>
        <time>2016-06-10T11:45:56Z</time>
      </trkpt>
      <trkpt lat="48.84592" lon="-0.39323">
        <ele>60.85353</ele>
        <time>2016-06-10T11:46:06Z</time>
      </trkpt>
      <trkpt lat="48.84589" lon="-0.3931">
        <ele>61.93857</ele>
        <time>2016-06-10T11:46:11Z</time>
      </trkpt>
      <trkpt lat="48.84586" lon="-0.39284">
        <ele>62.60175</ele>
        <time>2016-06-10T11:46:21Z</time>
      </trkpt>
      <trkpt lat="48.84584" lon="-0.39272">
        <ele>62.60175</ele>
        <time>2016-06-10T11:46:26Z</time>
      </trkpt>
      <trkpt lat="48.84584" lon="-0.39262">
        <ele>63.837112</ele>
        <time>2016-06-10T11:46:36Z</time>
      </trkpt>
      <trkpt lat="48.84582" lon="-0.39255">
        <ele>63.837112</ele>
        <time>2016-06-10T11:46:41Z</time>
      </trkpt>
      <trkpt lat="48.84578" lon="-0.39239">
        <ele>65.180695</ele>
        <time>2016-06-10T11:46:51Z</time>
      </trkpt>
      <trkpt lat="48.84576" lon="-0.39232">
        <ele>65.180695</ele>
        <time>2016-06-10T11:46:56Z</time>
      </trkpt>
      <trkpt lat="48.84572" lon="-0.3921">
        <ele>65.87095</ele>
        <time>2016-06-10T11:47:11Z</time>
      </trkpt>
      <trkpt lat="48.84569" lon="-0.39199">
        <ele>65.87095</ele>
        <time>2016-06-10T11:47:16Z</time>
      </trkpt>
      <trkpt lat="48.84563" lon="-0.3918">
        <ele>65.93916</ele>
        <time>2016-06-10T11:47:26Z</time>
      </trkpt>
      <trkpt lat="48.84559" lon="-0.39171">
        <ele>65.93916</ele>
        <time>2016-06-10T11:47:31Z</time>
      </trkpt>
      <trkpt lat="48.84557" lon="-0.39157">
        <ele>66.19438</ele>
        <time>2016-06-10T11:47:41Z</time>
      </trkpt>
      <trkpt lat="48.84553" lon="-0.39152">
        <ele>66.19438</ele>
        <time>2016-06-10T11:47:46Z</time>
      </trkpt>
      <trkpt lat="48.84548" lon="-0.39141">
        <ele>66.08876</ele>
        <time>2016-06-10T11:47:56Z</time>
      </trkpt>
      <trkpt lat="48.84545" lon="-0.39131">
        <ele>66.08876</ele>
        <time>2016-06-10T11:48:01Z</time>
      </trkpt>
      <trkpt lat="48.84537" lon="-0.39115">
        <ele>65.92284</ele>
        <time>2016-06-10T11:48:11Z</time>
      </trkpt>
      <trkpt lat="48.84532" lon="-0.39105">
        <ele>65.92284</ele>
        <time>2016-06-10T11:48:16Z</time>
      </trkpt>
      <trkpt lat="48.84523" lon="-0.39094">
        <ele>65.91768</ele>
        <time>2016-06-10T11:48:26Z</time>
      </trkpt>
      <trkpt lat="48.84518" lon="-0.39086">
        <ele>65.91768</ele>
        <time>2016-06-10T11:48:31Z</time>
      </trkpt>
      <trkpt lat="48.8451" lon="-0.39077">
        <ele>66.277725</ele>
        <time>2016-06-10T11:48:41Z</time>
      </trkpt>
      <trkpt lat="48.84509" lon="-0.39071">
        <ele>66.277725</ele>
        <time>2016-06-10T11:48:46Z</time>
      </trkpt>
      <trkpt lat="48.84505" lon="-0.3906">
        <ele>66.71589</ele>
        <time>2016-06-10T11:48:56Z</time>
      </trkpt>
      <trkpt lat="48.84503" lon="-0.39058">
        <ele>66.71589</ele>
        <time>2016-06-10T11:49:01Z</time>
      </trkpt>
      <trkpt lat="48.84501" lon="-0.39055">
        <ele>66.71589</ele>
        <time>2016-06-10T11:49:11Z</time>
      </trkpt>
      <trkpt lat="48.84495" lon="-0.3905">
        <ele>67.13895</ele>
        <time>2016-06-10T11:49:16Z</time>
      </trkpt>
      <trkpt lat="48.84482" lon="-0.39029">
        <ele>67.27328</ele>
        <time>2016-06-10T11:49:26Z</time>
      </trkpt>
      <trkpt lat="48.84478" lon="-0.39022">
        <ele>67.27328</ele>
        <time>2016-06-10T11:49:31Z</time>
      </trkpt>
      <trkpt lat="48.8447" lon="-0.39008">
        <ele>66.578026</ele>
        <time>2016-06-10T11:49:41Z</time>
      </trkpt>
      <trkpt lat="48.84463" lon="-0.38998">
        <ele>66.57198</ele>
        <time>2016-06-10T11:49:46Z</time>
      </trkpt>
      <trkpt lat="48.84456" lon="-0.38988">
        <ele>66.57198</ele>
        <time>2016-06-10T11:49:56Z</time>
      </trkpt>
      <trkpt lat="48.8445" lon="-0.38988">
        <ele>66.25383</ele>
        <time>2016-06-10T11:50:01Z</time>
      </trkpt>
      <trkpt lat="48.84445" lon="-0.38968">
        <ele>64.595856</ele>
        <time>2016-06-10T11:50:11Z</time>
      </trkpt>
      <trkpt lat="48.8444" lon="-0.38965">
        <ele>64.595856</ele>
        <time>2016-06-10T11:50:16Z</time>
      </trkpt>
      <trkpt lat="48.84421" lon="-0.38949">
        <ele>64.324455</ele>
        <time>2016-06-10T11:50:31Z</time>
      </trkpt>
      <trkpt lat="48.84413" lon="-0.38946">
        <ele>64.324455</ele>
        <time>2016-06-10T11:50:36Z</time>
      </trkpt>
      <trkpt lat="48.84404" lon="-0.38934">
        <ele>64.45998</ele>
        <time>2016-06-10T11:50:46Z</time>
      </trkpt>
      <trkpt lat="48.84402" lon="-0.38928">
        <ele>64.45998</ele>
        <time>2016-06-10T11:50:51Z</time>
      </trkpt>
      <trkpt lat="48.84393" lon="-0.38914">
        <ele>63.863014</ele>
        <time>2016-06-10T11:51:01Z</time>
      </trkpt>
      <trkpt lat="48.84389" lon="-0.3891">
        <ele>63.863014</ele>
        <time>2016-06-10T11:51:06Z</time>
      </trkpt>
      <trkpt lat="48.84383" lon="-0.38902">
        <ele>62.892235</ele>
        <time>2016-06-10T11:51:16Z</time>
      </trkpt>
      <trkpt lat="48.84379" lon="-0.38894">
        <ele>62.892235</ele>
        <time>2016-06-10T11:51:21Z</time>
      </trkpt>
      <trkpt lat="48.84366" lon="-0.38881">
        <ele>62.35656</ele>
        <time>2016-06-10T11:51:31Z</time>
      </trkpt>
      <trkpt lat="48.84361" lon="-0.38873">
        <ele>62.35656</ele>
        <time>2016-06-10T11:51:36Z</time>
      </trkpt>
      <trkpt lat="48.84353" lon="-0.38861">
        <ele>62.240467</ele>
        <time>2016-06-10T11:51:46Z</time>
      </trkpt>
      <trkpt lat="48.8435" lon="-0.38858">
        <ele>62.240467</ele>
        <time>2016-06-10T11:51:51Z</time>
      </trkpt>
      <trkpt lat="48.84343" lon="-0.38843">
        <ele>61.389915</ele>
        <time>2016-06-10T11:52:01Z</time>
      </trkpt>
      <trkpt lat="48.84339" lon="-0.38834">
        <ele>61.389915</ele>
        <time>2016-06-10T11:52:06Z</time>
      </trkpt>
      <trkpt lat="48.84337" lon="-0.38821">
        <ele>60.654358</ele>
        <time>2016-06-10T11:52:16Z</time>
      </trkpt>
      <trkpt lat="48.84335" lon="-0.38816">
        <ele>60.654358</ele>
        <time>2016-06-10T11:52:21Z</time>
      </trkpt>
      <trkpt lat="48.84333" lon="-0.38808">
        <ele>59.9126</ele>
        <time>2016-06-10T11:52:31Z</time>
      </trkpt>
      <trkpt lat="48.84331" lon="-0.38792">
        <ele>59.02352</ele>
        <time>2016-06-10T11:52:36Z</time>
      </trkpt>
      <trkpt lat="48.84328" lon="-0.38765">
        <ele>58.389946</ele>
        <time>2016-06-10T11:52:51Z</time>
      </trkpt>
      <trkpt lat="48.84327" lon="-0.38758">
        <ele>58.389946</ele>
        <time>2016-06-10T11:52:56Z</time>
      </trkpt>
      <trkpt lat="48.84326" lon="-0.38742">
        <ele>57.404408</ele>
        <time>2016-06-10T11:53:06Z</time>
      </trkpt>
      <trkpt lat="48.84325" lon="-0.38736">
        <ele>57.404408</ele>
        <time>2016-06-10T11:53:11Z</time>
      </trkpt>
      <trkpt lat="48.84321" lon="-0.38707">
        <ele>55.82204</ele>
        <time>2016-06-10T11:53:21Z</time>
      </trkpt>
      <trkpt lat="48.84321" lon="-0.38701">
        <ele>55.82204</ele>
        <time>2016-06-10T11:53:26Z</time>
      </trkpt>
      <trkpt lat="48.84321" lon="-0.38692">
        <ele>54.656948</ele>
        <time>2016-06-10T11:53:36Z</time>
      </trkpt>
      <trkpt lat="48.8432" lon="-0.38676">
        <ele>53.896378</ele>
        <time>2016-06-10T11:53:41Z</time>
      </trkpt>
      <trkpt lat="48.84321" lon="-0.38672">
        <ele>53.896378</ele>
        <time>2016-06-10T11:53:51Z</time>
      </trkpt>
      <trkpt lat="48.84321" lon="-0.38666">
        <ele>53.896378</ele>
        <time>2016-06-10T11:53:56Z</time>
      </trkpt>
      <trkpt lat="48.84322" lon="-0.3865">
        <ele>52.662643</ele>
        <time>2016-06-10T11:54:06Z</time>
      </trkpt>
      <trkpt lat="48.84321" lon="-0.38638">
        <ele>52.662643</ele>
        <time>2016-06-10T11:54:11Z</time>
      </trkpt>
      <trkpt lat="48.84318" lon="-0.38626">
        <ele>52.75221</ele>
        <time>2016-06-10T11:54:16Z</time>
      </trkpt>
      <trkpt lat="48.84322" lon="-0.38621">
        <ele>52.75221</ele>
        <time>2016-06-10T11:54:21Z</time>
      </trkpt>
      <trkpt lat="48.84325" lon="-0.38614">
        <ele>52.61211</ele>
        <time>2016-06-10T11:54:26Z</time>
      </trkpt>
      <trkpt lat="48.84327" lon="-0.38607">
        <ele>52.61211</ele>
        <time>2016-06-10T11:54:36Z</time>
      </trkpt>
      <trkpt lat="48.84327" lon="-0.38602">
        <ele>52.61211</ele>
        <time>2016-06-10T11:54:41Z</time>
      </trkpt>
      <trkpt lat="48.84329" lon="-0.38574">
        <ele>52.41808</ele>
        <time>2016-06-10T11:54:51Z</time>
      </trkpt>
      <trkpt lat="48.84331" lon="-0.38565">
        <ele>52.41808</ele>
        <time>2016-06-10T11:54:56Z</time>
      </trkpt>
      <trkpt lat="48.84336" lon="-0.38545">
        <ele>51.69895</ele>
        <time>2016-06-10T11:55:11Z</time>
      </trkpt>
      <trkpt lat="48.84337" lon="-0.38531">
        <ele>51.2301</ele>
        <time>2016-06-10T11:55:16Z</time>
      </trkpt>
      <trkpt lat="48.84338" lon="-0.38527">
        <ele>51.2301</ele>
        <time>2016-06-10T11:55:26Z</time>
      </trkpt>
      <trkpt lat="48.84339" lon="-0.38526">
        <ele>51.2301</ele>
        <time>2016-06-10T11:55:31Z</time>
      </trkpt>
      <trkpt lat="48.8434" lon="-0.38502">
        <ele>50.979813</ele>
        <time>2016-06-10T11:55:41Z</time>
      </trkpt>
      <trkpt lat="48.84344" lon="-0.38492">
        <ele>50.979813</ele>
        <time>2016-06-10T11:55:46Z</time>
      </trkpt>
      <trkpt lat="48.84353" lon="-0.38475">
        <ele>49.995712</ele>
        <time>2016-06-10T11:55:56Z</time>
      </trkpt>
      <trkpt lat="48.84355" lon="-0.38472">
        <ele>49.995712</ele>
        <time>2016-06-10T11:56:01Z</time>
      </trkpt>
      <trkpt lat="48.84355" lon="-0.38468">
        <ele>49.995712</ele>
        <time>2016-06-10T11:56:11Z</time>
      </trkpt>
      <trkpt lat="48.84359" lon="-0.38461">
        <ele>48.67998</ele>
        <time>2016-06-10T11:56:16Z</time>
      </trkpt>
      <trkpt lat="48.84365" lon="-0.38436">
        <ele>47.305244</ele>
        <time>2016-06-10T11:56:26Z</time>
      </trkpt>
      <trkpt lat="48.84365" lon="-0.38423">
        <ele>47.305244</ele>
        <time>2016-06-10T11:56:31Z</time>
      </trkpt>
      <trkpt lat="48.84374" lon="-0.38407">
        <ele>46.023323</ele>
        <time>2016-06-10T11:56:41Z</time>
      </trkpt>
      <trkpt lat="48.84375" lon="-0.38399">
        <ele>46.023323</ele>
        <time>2016-06-10T11:56:46Z</time>
      </trkpt>
      <trkpt lat="48.84393" lon="-0.38371">
        <ele>46.069794</ele>
        <time>2016-06-10T11:57:01Z</time>
      </trkpt>
      <trkpt lat="48.84394" lon="-0.38366">
        <ele>46.069794</ele>
        <time>2016-06-10T11:57:06Z</time>
      </trkpt>
      <trkpt lat="48.84396" lon="-0.38361">
        <ele>46.069794</ele>
        <time>2016-06-10T11:57:16Z</time>
      </trkpt>
      <trkpt lat="48.84396" lon="-0.38355">
        <ele>46.48167</ele>
        <time>2016-06-10T11:57:21Z</time>
      </trkpt>
      <trkpt lat="48.844" lon="-0.38334">
        <ele>45.91886</ele>
        <time>2016-06-10T11:57:31Z</time>
      </trkpt>
      <trkpt lat="48.84402" lon="-0.3832">
        <ele>45.91886</ele>
        <time>2016-06-10T11:57:36Z</time>
      </trkpt>
      <trkpt lat="48.84405" lon="-0.38299">
        <ele>45.77963</ele>
        <time>2016-06-10T11:57:46Z</time>
      </trkpt>
      <trkpt lat="48.84409" lon="-0.38291">
        <ele>45.77963</ele>
        <time>2016-06-10T11:57:51Z</time>
      </trkpt>
      <trkpt lat="48.84412" lon="-0.38279">
        <ele>45.42719</ele>
        <time>2016-06-10T11:58:01Z</time>
      </trkpt>
      <trkpt lat="48.84415" lon="-0.38266">
        <ele>45.266453</ele>
        <time>2016-06-10T11:58:06Z</time>
      </trkpt>
      <trkpt lat="48.84419" lon="-0.38258">
        <ele>45.266453</ele>
        <time>2016-06-10T11:58:11Z</time>
      </trkpt>
      <trkpt lat="48.84421" lon="-0.38248">
        <ele>44.850567</ele>
        <time>2016-06-10T11:58:16Z</time>
      </trkpt>
      <trkpt lat="48.84423" lon="-0.38243">
        <ele>44.850567</ele>
        <time>2016-06-10T11:58:21Z</time>
      </trkpt>
      <trkpt lat="48.84432" lon="-0.38214">
        <ele>44.60203</ele>
        <time>2016-06-10T11:58:36Z</time>
      </trkpt>
      <trkpt lat="48.84442" lon="-0.38214">
        <ele>45.15678</ele>
        <time>2016-06-10T11:58:41Z</time>
      </trkpt>
      <trkpt lat="48.84446" lon="-0.38198">
        <ele>46.049747</ele>
        <time>2016-06-10T11:58:51Z</time>
      </trkpt>
      <trkpt lat="48.84451" lon="-0.38193">
        <ele>46.049747</ele>
        <time>2016-06-10T11:58:56Z</time>
      </trkpt>
      <trkpt lat="48.84458" lon="-0.38181">
        <ele>46.60407</ele>
        <time>2016-06-10T11:59:06Z</time>
      </trkpt>
      <trkpt lat="48.84463" lon="-0.38173">
        <ele>46.60407</ele>
        <time>2016-06-10T11:59:11Z</time>
      </trkpt>
      <trkpt lat="48.84474" lon="-0.38166">
        <ele>47.21673</ele>
        <time>2016-06-10T11:59:21Z</time>
      </trkpt>
      <trkpt lat="48.84477" lon="-0.38161">
        <ele>47.21673</ele>
        <time>2016-06-10T11:59:26Z</time>
      </trkpt>
      <trkpt lat="48.84481" lon="-0.38156">
        <ele>47.621284</ele>
        <time>2016-06-10T11:59:36Z</time>
      </trkpt>
      <trkpt lat="48.84488" lon="-0.38154">
        <ele>47.621284</ele>
        <time>2016-06-10T11:59:41Z</time>
      </trkpt>
      <trkpt lat="48.84509" lon="-0.38154">
        <ele>48.854057</ele>
        <time>2016-06-10T11:59:56Z</time>
      </trkpt>
      <trkpt lat="48.84515" lon="-0.38154">
        <ele>48.854057</ele>
        <time>2016-06-10T12:00:01Z</time>
      </trkpt>
      <trkpt lat="48.84523" lon="-0.38155">
        <ele>50.17241</ele>
        <time>2016-06-10T12:00:11Z</time>
      </trkpt>
      <trkpt lat="48.84526" lon="-0.3816">
        <ele>50.17241</ele>
        <time>2016-06-10T12:00:16Z</time>
      </trkpt>
      <trkpt lat="48.84525" lon="-0.38168">
        <ele>51.277157</ele>
        <time>2016-06-10T12:00:26Z</time>
      </trkpt>
      <trkpt lat="48.84523" lon="-0.38169">
        <ele>51.277157</ele>
        <time>2016-06-10T12:00:31Z</time>
      </trkpt>
      <trkpt lat="48.84519" lon="-0.38176">
        <ele>51.277157</ele>
        <time>2016-06-10T12:00:41Z</time>
      </trkpt>
      <trkpt lat="48.84516" lon="-0.38181">
        <ele>52.583443</ele>
        <time>2016-06-10T12:00:46Z</time>
      </trkpt>
      <trkpt lat="48.84509" lon="-0.38188">
        <ele>52.583443</ele>
        <time>2016-06-10T12:00:56Z</time>
      </trkpt>
      <trkpt lat="48.84506" lon="-0.3819">
        <ele>53.596333</ele>
        <time>2016-06-10T12:01:01Z</time>
      </trkpt>
      <trkpt lat="48.84504" lon="-0.38199">
        <ele>53.596333</ele>
        <time>2016-06-10T12:01:11Z</time>
      </trkpt>
      <trkpt lat="48.84504" lon="-0.382">
        <ele>53.596333</ele>
        <time>2016-06-10T12:01:16Z</time>
      </trkpt>
      <trkpt lat="48.84504" lon="-0.38202">
        <ele>53.596333</ele>
        <time>2016-06-10T12:01:26Z</time>
      </trkpt>
      <trkpt lat="48.84504" lon="-0.38202">
        <ele>53.596333</ele>
        <time>2016-06-10T12:01:31Z</time>
      </trkpt>
      <trkpt lat="48.84502" lon="-0.38209">
        <ele>55.169537</ele>
        <time>2016-06-10T12:01:41Z</time>
      </trkpt>
      <trkpt lat="48.84501" lon="-0.38212">
        <ele>55.169537</ele>
        <time>2016-06-10T12:01:46Z</time>
      </trkpt>
      <trkpt lat="48.84496" lon="-0.38233">
        <ele>57.60256</ele>
        <time>2016-06-10T12:02:01Z</time>
      </trkpt>
      <trkpt lat="48.84494" lon="-0.38234">
        <ele>57.60256</ele>
        <time>2016-06-10T12:02:06Z</time>
      </trkpt>
      <trkpt lat="48.84493" lon="-0.38236">
        <ele>57.60256</ele>
        <time>2016-06-10T12:02:16Z</time>
      </trkpt>
      <trkpt lat="48.84491" lon="-0.38238">
        <ele>57.60256</ele>
        <time>2016-06-10T12:02:21Z</time>
      </trkpt>
      <trkpt lat="48.84486" lon="-0.38248">
        <ele>59.945637</ele>
        <time>2016-06-10T12:02:31Z</time>
      </trkpt>
      <trkpt lat="48.84484" lon="-0.38252">
        <ele>59.945637</ele>
        <time>2016-06-10T12:02:36Z</time>
      </trkpt>
      <trkpt lat="48.84477" lon="-0.38267">
        <ele>62.126133</ele>
        <time>2016-06-10T12:02:46Z</time>
      </trkpt>
      <trkpt lat="48.84474" lon="-0.38273">
        <ele>62.126133</ele>
        <time>2016-06-10T12:02:51Z</time>
      </trkpt>
      <trkpt lat="48.84468" lon="-0.3829">
        <ele>64.74022</ele>
        <time>2016-06-10T12:03:01Z</time>
      </trkpt>
      <trkpt lat="48.84465" lon="-0.38293">
        <ele>64.74022</ele>
        <time>2016-06-10T12:03:06Z</time>
      </trkpt>
      <trkpt lat="48.84463" lon="-0.38301">
        <ele>67.215126</ele>
        <time>2016-06-10T12:03:16Z</time>
      </trkpt>
      <trkpt lat="48.84461" lon="-0.38311">
        <ele>67.215126</ele>
        <time>2016-06-10T12:03:21Z</time>
      </trkpt>
      <trkpt lat="48.84457" lon="-0.38323">
        <ele>69.280045</ele>
        <time>2016-06-10T12:03:31Z</time>
      </trkpt>
      <trkpt lat="48.84456" lon="-0.38329">
        <ele>69.280045</ele>
        <time>2016-06-10T12:03:36Z</time>
      </trkpt>
      <trkpt lat="48.84455" lon="-0.38356">
        <ele>71.18978</ele>
        <time>2016-06-10T12:03:51Z</time>
      </trkpt>
      <trkpt lat="48.84455" lon="-0.3836">
        <ele>71.18978</ele>
        <time>2016-06-10T12:03:56Z</time>
      </trkpt>
      <trkpt lat="48.84454" lon="-0.38369">
        <ele>72.89275</ele>
        <time>2016-06-10T12:04:06Z</time>
      </trkpt>
      <trkpt lat="48.84452" lon="-0.38371">
        <ele>72.89275</ele>
        <time>2016-06-10T12:04:11Z</time>
      </trkpt>
      <trkpt lat="48.8445" lon="-0.3838">
        <ele>72.89275</ele>
        <time>2016-06-10T12:04:21Z</time>
      </trkpt>
      <trkpt lat="48.84449" lon="-0.38385">
        <ele>75.49481</ele>
        <time>2016-06-10T12:04:26Z</time>
      </trkpt>
      <trkpt lat="48.84448" lon="-0.38395">
        <ele>75.49481</ele>
        <time>2016-06-10T12:04:36Z</time>
      </trkpt>
      <trkpt lat="48.84448" lon="-0.38406">
        <ele>78.76443</ele>
        <time>2016-06-10T12:04:41Z</time>
      </trkpt>
      <trkpt lat="48.84448" lon="-0.38414">
        <ele>78.76443</ele>
        <time>2016-06-10T12:04:51Z</time>
      </trkpt>
      <trkpt lat="48.84448" lon="-0.38425">
        <ele>81.620735</ele>
        <time>2016-06-10T12:04:56Z</time>
      </trkpt>
      <trkpt lat="48.84449" lon="-0.38439">
        <ele>81.620735</ele>
        <time>2016-06-10T12:05:06Z</time>
      </trkpt>
      <trkpt lat="48.84449" lon="-0.38442">
        <ele>84.79292</ele>
        <time>2016-06-10T12:05:11Z</time>
      </trkpt>
      <trkpt lat="48.84451" lon="-0.38449">
        <ele>84.79292</ele>
        <time>2016-06-10T12:05:21Z</time>
      </trkpt>
      <trkpt lat="48.84451" lon="-0.38455">
        <ele>84.79292</ele>
        <time>2016-06-10T12:05:26Z</time>
      </trkpt>
      <trkpt lat="48.84451" lon="-0.38461">
        <ele>87.90391</ele>
        <time>2016-06-10T12:05:36Z</time>
      </trkpt>
      <trkpt lat="48.84452" lon="-0.38469">
        <ele>87.90391</ele>
        <time>2016-06-10T12:05:41Z</time>
      </trkpt>
      <trkpt lat="48.84453" lon="-0.38489">
        <ele>91.00819</ele>
        <time>2016-06-10T12:05:56Z</time>
      </trkpt>
      <trkpt lat="48.84453" lon="-0.3849">
        <ele>91.00819</ele>
        <time>2016-06-10T12:06:01Z</time>
      </trkpt>
      <trkpt lat="48.84452" lon="-0.38493">
        <ele>91.00819</ele>
        <time>2016-06-10T12:06:11Z</time>
      </trkpt>
      <trkpt lat="48.84452" lon="-0.38493">
        <ele>91.00819</ele>
        <time>2016-06-10T12:06:16Z</time>
      </trkpt>
      <trkpt lat="48.8445" lon="-0.385">
        <ele>93.26299</ele>
        <time>2016-06-10T12:06:26Z</time>
      </trkpt>
      <trkpt lat="48.8445" lon="-0.385">
        <ele>93.26299</ele>
        <time>2016-06-10T12:06:31Z</time>
      </trkpt>
      <trkpt lat="48.84446" lon="-0.38508">
        <ele>93.26299</ele>
        <time>2016-06-10T12:06:41Z</time>
      </trkpt>
      <trkpt lat="48.84446" lon="-0.38517">
        <ele>95.47527</ele>
        <time>2016-06-10T12:06:46Z</time>
      </trkpt>
      <trkpt lat="48.84448" lon="-0.38535">
        <ele>97.24014</ele>
        <time>2016-06-10T12:06:56Z</time>
      </trkpt>
      <trkpt lat="48.84448" lon="-0.38538">
        <ele>97.24014</ele>
        <time>2016-06-10T12:07:01Z</time>
      </trkpt>
      <trkpt lat="48.84448" lon="-0.38549">
        <ele>98.2848</ele>
        <time>2016-06-10T12:07:11Z</time>
      </trkpt>
      <trkpt lat="48.84448" lon="-0.38553">
        <ele>98.2848</ele>
        <time>2016-06-10T12:07:16Z</time>
      </trkpt>
      <trkpt lat="48.84448" lon="-0.38562">
        <ele>98.2848</ele>
        <time>2016-06-10T12:07:21Z</time>
      </trkpt>
      <trkpt lat="48.84448" lon="-0.38569">
        <ele>98.99278</ele>
        <time>2016-06-10T12:07:26Z</time>
      </trkpt>
      <trkpt lat="48.84447" lon="-0.38574">
        <ele>98.99278</ele>
        <time>2016-06-10T12:07:41Z</time>
      </trkpt>
      <trkpt lat="48.84448" lon="-0.3858">
        <ele>98.99278</ele>
        <time>2016-06-10T12:07:46Z</time>
      </trkpt>
      <trkpt lat="48.8445" lon="-0.38584">
        <ele>99.374725</ele>
        <time>2016-06-10T12:07:51Z</time>
      </trkpt>
      <trkpt lat="48.84451" lon="-0.38589">
        <ele>99.374725</ele>
        <time>2016-06-10T12:07:56Z</time>
      </trkpt>
      <trkpt lat="48.84452" lon="-0.38597">
        <ele>99.374725</ele>
        <time>2016-06-10T12:08:01Z</time>
      </trkpt>
      <trkpt lat="48.84456" lon="-0.38616">
        <ele>100.11888</ele>
        <time>2016-06-10T12:08:11Z</time>
      </trkpt>
      <trkpt lat="48.84457" lon="-0.3862">
        <ele>100.11888</ele>
        <time>2016-06-10T12:08:16Z</time>
      </trkpt>
      <trkpt lat="48.84465" lon="-0.38634">
        <ele>100.70921</ele>
        <time>2016-06-10T12:08:26Z</time>
      </trkpt>
      <trkpt lat="48.84466" lon="-0.38637">
        <ele>100.70921</ele>
        <time>2016-06-10T12:08:31Z</time>
      </trkpt>
      <trkpt lat="48.84472" lon="-0.38648">
        <ele>100.99962</ele>
        <time>2016-06-10T12:08:41Z</time>
      </trkpt>
      <trkpt lat="48.84475" lon="-0.38652">
        <ele>100.99962</ele>
        <time>2016-06-10T12:08:46Z</time>
      </trkpt>
      <trkpt lat="48.84476" lon="-0.38659">
        <ele>100.99962</ele>
        <time>2016-06-10T12:08:56Z</time>
      </trkpt>
      <trkpt lat="48.84476" lon="-0.38659">
        <ele>101.43212</ele>
        <time>2016-06-10T12:09:01Z</time>
      </trkpt>
      <trkpt lat="48.84478" lon="-0.38669">
        <ele>101.43212</ele>
        <time>2016-06-10T12:09:11Z</time>
      </trkpt>
      <trkpt lat="48.84479" lon="-0.38676">
        <ele>102.09896</ele>
        <time>2016-06-10T12:09:16Z</time>
      </trkpt>
      <trkpt lat="48.84484" lon="-0.38692">
        <ele>102.652725</ele>
        <time>2016-06-10T12:09:26Z</time>
      </trkpt>
      <trkpt lat="48.84486" lon="-0.38701">
        <ele>102.652725</ele>
        <time>2016-06-10T12:09:31Z</time>
      </trkpt>
      <trkpt lat="48.84491" lon="-0.38713">
        <ele>103.14658</ele>
        <time>2016-06-10T12:09:41Z</time>
      </trkpt>
      <trkpt lat="48.84494" lon="-0.38726">
        <ele>104.206505</ele>
        <time>2016-06-10T12:09:46Z</time>
      </trkpt>
      <trkpt lat="48.84493" lon="-0.38727">
        <ele>104.206505</ele>
        <time>2016-06-10T12:09:51Z</time>
      </trkpt>
      <trkpt lat="48.84492" lon="-0.38728">
        <ele>104.206505</ele>
        <time>2016-06-10T12:09:56Z</time>
      </trkpt>
      <trkpt lat="48.84492" lon="-0.38729">
        <ele>104.206505</ele>
        <time>2016-06-10T12:10:01Z</time>
      </trkpt>
      <trkpt lat="48.84492" lon="-0.38729">
        <ele>104.206505</ele>
        <time>2016-06-10T12:10:06Z</time>
      </trkpt>
      <trkpt lat="48.84493" lon="-0.38729">
        <ele>104.206505</ele>
        <time>2016-06-10T12:10:16Z</time>
      </trkpt>
      <trkpt lat="48.84493" lon="-0.3873">
        <ele>104.206505</ele>
        <time>2016-06-10T12:10:21Z</time>
      </trkpt>
      <trkpt lat="48.84494" lon="-0.38733">
        <ele>104.206505</ele>
        <time>2016-06-10T12:10:26Z</time>
      </trkpt>
      <trkpt lat="48.84496" lon="-0.38735">
        <ele>104.73927</ele>
        <time>2016-06-10T12:10:31Z</time>
      </trkpt>
      <trkpt lat="48.84498" lon="-0.38744">
        <ele>104.73927</ele>
        <time>2016-06-10T12:10:41Z</time>
      </trkpt>
      <trkpt lat="48.845" lon="-0.38746">
        <ele>105.059326</ele>
        <time>2016-06-10T12:10:46Z</time>
      </trkpt>
      <trkpt lat="48.84505" lon="-0.3876">
        <ele>105.76128</ele>
        <time>2016-06-10T12:10:56Z</time>
      </trkpt>
      <trkpt lat="48.84507" lon="-0.38767">
        <ele>105.76128</ele>
        <time>2016-06-10T12:11:01Z</time>
      </trkpt>
      <trkpt lat="48.84515" lon="-0.38779">
        <ele>106.87623</ele>
        <time>2016-06-10T12:11:11Z</time>
      </trkpt>
      <trkpt lat="48.84515" lon="-0.38786">
        <ele>106.87623</ele>
        <time>2016-06-10T12:11:16Z</time>
      </trkpt>
      <trkpt lat="48.84522" lon="-0.38803">
        <ele>107.98514</ele>
        <time>2016-06-10T12:11:31Z</time>
      </trkpt>
      <trkpt lat="48.84524" lon="-0.38805">
        <ele>107.98514</ele>
        <time>2016-06-10T12:11:36Z</time>
      </trkpt>
      <trkpt lat="48.8453" lon="-0.38816">
        <ele>108.901535</ele>
        <time>2016-06-10T12:11:46Z</time>
      </trkpt>
      <trkpt lat="48.84532" lon="-0.38821">
        <ele>108.901535</ele>
        <time>2016-06-10T12:11:51Z</time>
      </trkpt>
      <trkpt lat="48.8454" lon="-0.38836">
        <ele>109.51085</ele>
        <time>2016-06-10T12:12:01Z</time>
      </trkpt>
      <trkpt lat="48.84543" lon="-0.38841">
        <ele>109.51085</ele>
        <time>2016-06-10T12:12:06Z</time>
      </trkpt>
      <trkpt lat="48.84546" lon="-0.3885">
        <ele>110.31308</ele>
        <time>2016-06-10T12:12:16Z</time>
      </trkpt>
      <trkpt lat="48.84549" lon="-0.38855">
        <ele>110.31308</ele>
        <time>2016-06-10T12:12:21Z</time>
      </trkpt>
      <trkpt lat="48.84554" lon="-0.38868">
        <ele>111.10804</ele>
        <time>2016-06-10T12:12:31Z</time>
      </trkpt>
      <trkpt lat="48.84557" lon="-0.38883">
        <ele>112.719086</ele>
        <time>2016-06-10T12:12:36Z</time>
      </trkpt>
      <trkpt lat="48.84559" lon="-0.38888">
        <ele>112.719086</ele>
        <time>2016-06-10T12:12:46Z</time>
      </trkpt>
      <trkpt lat="48.8456" lon="-0.38889">
        <ele>112.719086</ele>
        <time>2016-06-10T12:12:51Z</time>
      </trkpt>
      <trkpt lat="48.84567" lon="-0.38907">
        <ele>114.24949</ele>
        <time>2016-06-10T12:13:01Z</time>
      </trkpt>
      <trkpt lat="48.84572" lon="-0.38917">
        <ele>114.24949</ele>
        <time>2016-06-10T12:13:06Z</time>
      </trkpt>
      <trkpt lat="48.84574" lon="-0.38921">
        <ele>115.92067</ele>
        <time>2016-06-10T12:13:11Z</time>
      </trkpt>
      <trkpt lat="48.84577" lon="-0.38925">
        <ele>115.92067</ele>
        <time>2016-06-10T12:13:16Z</time>
      </trkpt>
      <trkpt lat="48.84579" lon="-0.38933">
        <ele>116.971825</ele>
        <time>2016-06-10T12:13:21Z</time>
      </trkpt>
      <trkpt lat="48.84583" lon="-0.38938">
        <ele>116.971825</ele>
        <time>2016-06-10T12:13:31Z</time>
      </trkpt>
      <trkpt lat="48.84587" lon="-0.38942">
        <ele>117.78063</ele>
        <time>2016-06-10T12:13:36Z</time>
      </trkpt>
      <trkpt lat="48.84596" lon="-0.38962">
        <ele>118.81299</ele>
        <time>2016-06-10T12:13:46Z</time>
      </trkpt>
      <trkpt lat="48.84597" lon="-0.38961">
        <ele>118.81299</ele>
        <time>2016-06-10T12:13:51Z</time>
      </trkpt>
      <trkpt lat="48.84607" lon="-0.38979">
        <ele>119.60645</ele>
        <time>2016-06-10T12:14:06Z</time>
      </trkpt>
      <trkpt lat="48.84611" lon="-0.38982">
        <ele>119.60645</ele>
        <time>2016-06-10T12:14:11Z</time>
      </trkpt>
      <trkpt lat="48.84621" lon="-0.38997">
        <ele>120.756424</ele>
        <time>2016-06-10T12:14:21Z</time>
      </trkpt>
      <trkpt lat="48.84624" lon="-0.39004">
        <ele>120.756424</ele>
        <time>2016-06-10T12:14:26Z</time>
      </trkpt>
      <trkpt lat="48.84628" lon="-0.39015">
        <ele>121.44449</ele>
        <time>2016-06-10T12:14:36Z</time>
      </trkpt>
      <trkpt lat="48.84629" lon="-0.39017">
        <ele>121.44449</ele>
        <time>2016-06-10T12:14:41Z</time>
      </trkpt>
      <trkpt lat="48.84633" lon="-0.39034">
        <ele>121.36039</ele>
        <time>2016-06-10T12:14:51Z</time>
      </trkpt>
      <trkpt lat="48.84636" lon="-0.39041">
        <ele>121.36039</ele>
        <time>2016-06-10T12:14:56Z</time>
      </trkpt>
      <trkpt lat="48.84641" lon="-0.39056">
        <ele>121.67435</ele>
        <time>2016-06-10T12:15:06Z</time>
      </trkpt>
      <trkpt lat="48.84642" lon="-0.39063">
        <ele>121.67435</ele>
        <time>2016-06-10T12:15:11Z</time>
      </trkpt>
      <trkpt lat="48.84646" lon="-0.39084">
        <ele>121.76895</ele>
        <time>2016-06-10T12:15:21Z</time>
      </trkpt>
      <trkpt lat="48.84646" lon="-0.39092">
        <ele>121.76895</ele>
        <time>2016-06-10T12:15:26Z</time>
      </trkpt>
      <trkpt lat="48.84649" lon="-0.39115">
        <ele>121.89418</ele>
        <time>2016-06-10T12:15:41Z</time>
      </trkpt>
      <trkpt lat="48.84651" lon="-0.39123">
        <ele>121.89418</ele>
        <time>2016-06-10T12:15:46Z</time>
      </trkpt>
      <trkpt lat="48.84655" lon="-0.39137">
        <ele>121.82036</ele>
        <time>2016-06-10T12:15:56Z</time>
      </trkpt>
      <trkpt lat="48.84657" lon="-0.39142">
        <ele>121.82036</ele>
        <time>2016-06-10T12:16:01Z</time>
      </trkpt>
      <trkpt lat="48.84658" lon="-0.39147">
        <ele>121.82036</ele>
        <time>2016-06-10T12:16:11Z</time>
      </trkpt>
      <trkpt lat="48.84659" lon="-0.39152">
        <ele>121.81078</ele>
        <time>2016-06-10T12:16:16Z</time>
      </trkpt>
      <trkpt lat="48.84664" lon="-0.39175">
        <ele>121.96505</ele>
        <time>2016-06-10T12:16:26Z</time>
      </trkpt>
      <trkpt lat="48.84665" lon="-0.39183">
        <ele>121.96505</ele>
        <time>2016-06-10T12:16:31Z</time>
      </trkpt>
      <trkpt lat="48.84666" lon="-0.392">
        <ele>121.755264</ele>
        <time>2016-06-10T12:16:41Z</time>
      </trkpt>
      <trkpt lat="48.84667" lon="-0.39207">
        <ele>121.755264</ele>
        <time>2016-06-10T12:16:46Z</time>
      </trkpt>
      <trkpt lat="48.84668" lon="-0.39223">
        <ele>120.96705</ele>
        <time>2016-06-10T12:16:56Z</time>
      </trkpt>
      <trkpt lat="48.84669" lon="-0.39232">
        <ele>120.96705</ele>
        <time>2016-06-10T12:17:01Z</time>
      </trkpt>
      <trkpt lat="48.84668" lon="-0.39245">
        <ele>119.33131</ele>
        <time>2016-06-10T12:17:11Z</time>
      </trkpt>
      <trkpt lat="48.84671" lon="-0.39253">
        <ele>119.33131</ele>
        <time>2016-06-10T12:17:16Z</time>
      </trkpt>
      <trkpt lat="48.84675" lon="-0.39267">
        <ele>118.315895</ele>
        <time>2016-06-10T12:17:26Z</time>
      </trkpt>
      <trkpt lat="48.84676" lon="-0.39276">
        <ele>118.315895</ele>
        <time>2016-06-10T12:17:31Z</time>
      </trkpt>
      <trkpt lat="48.84677" lon="-0.39295">
        <ele>117.49205</ele>
        <time>2016-06-10T12:17:41Z</time>
      </trkpt>
      <trkpt lat="48.84676" lon="-0.39303">
        <ele>117.49205</ele>
        <time>2016-06-10T12:17:46Z</time>
      </trkpt>
      <trkpt lat="48.84676" lon="-0.39323">
        <ele>116.76448</ele>
        <time>2016-06-10T12:17:56Z</time>
      </trkpt>
      <trkpt lat="48.84675" lon="-0.39332">
        <ele>116.76448</ele>
        <time>2016-06-10T12:18:01Z</time>
      </trkpt>
      <trkpt lat="48.84674" lon="-0.39348">
        <ele>115.81395</ele>
        <time>2016-06-10T12:18:11Z</time>
      </trkpt>
      <trkpt lat="48.84674" lon="-0.39356">
        <ele>115.81395</ele>
        <time>2016-06-10T12:18:16Z</time>
      </trkpt>
      <trkpt lat="48.84671" lon="-0.39371">
        <ele>114.2731</ele>
        <time>2016-06-10T12:18:31Z</time>
      </trkpt>
      <trkpt lat="48.84671" lon="-0.39378">
        <ele>114.2731</ele>
        <time>2016-06-10T12:18:36Z</time>
      </trkpt>
      <trkpt lat="48.84672" lon="-0.39383">
        <ele>114.2731</ele>
        <time>2016-06-10T12:18:46Z</time>
      </trkpt>
      <trkpt lat="48.84672" lon="-0.39383">
        <ele>114.2731</ele>
        <time>2016-06-10T12:18:51Z</time>
      </trkpt>
      <trkpt lat="48.84672" lon="-0.39383">
        <ele>112.62453</ele>
        <time>2016-06-10T12:19:01Z</time>
      </trkpt>
      <trkpt lat="48.84671" lon="-0.39383">
        <ele>112.62453</ele>
        <time>2016-06-10T12:19:06Z</time>
      </trkpt>
      <trkpt lat="48.84672" lon="-0.39383">
        <ele>112.62453</ele>
        <time>2016-06-10T12:19:11Z</time>
      </trkpt>
      <trkpt lat="48.84672" lon="-0.39384">
        <ele>112.62453</ele>
        <time>2016-06-10T12:19:16Z</time>
      </trkpt>
      <trkpt lat="48.84672" lon="-0.39385">
        <ele>112.62453</ele>
        <time>2016-06-10T12:19:21Z</time>
      </trkpt>
      <trkpt lat="48.84672" lon="-0.39385">
        <ele>112.62453</ele>
        <time>2016-06-10T12:19:26Z</time>
      </trkpt>
      <trkpt lat="48.84672" lon="-0.39385">
        <ele>112.62453</ele>
        <time>2016-06-10T12:19:31Z</time>
      </trkpt>
      <trkpt lat="48.84672" lon="-0.39384">
        <ele>112.62453</ele>
        <time>2016-06-10T12:19:36Z</time>
      </trkpt>
      <trkpt lat="48.84673" lon="-0.39384">
        <ele>112.62453</ele>
        <time>2016-06-10T12:19:41Z</time>
      </trkpt>
      <trkpt lat="48.84674" lon="-0.39385">
        <ele>112.62453</ele>
        <time>2016-06-10T12:19:56Z</time>
      </trkpt>
      <trkpt lat="48.84674" lon="-0.39385">
        <ele>112.62453</ele>
        <time>2016-06-10T12:20:01Z</time>
      </trkpt>
      <trkpt lat="48.84674" lon="-0.39385">
        <ele>112.62453</ele>
        <time>2016-06-10T12:20:11Z</time>
      </trkpt>
      <trkpt lat="48.84674" lon="-0.39385">
        <ele>112.62453</ele>
        <time>2016-06-10T12:20:16Z</time>
      </trkpt>
      <trkpt lat="48.84674" lon="-0.39385">
        <ele>112.62453</ele>
        <time>2016-06-10T12:20:26Z</time>
      </trkpt>
      <trkpt lat="48.84674" lon="-0.39385">
        <ele>112.62453</ele>
        <time>2016-06-10T12:20:31Z</time>
      </trkpt>
      <trkpt lat="48.84674" lon="-0.39385">
        <ele>112.62453</ele>
        <time>2016-06-10T12:20:41Z</time>
      </trkpt>
      <trkpt lat="48.84674" lon="-0.39385">
        <ele>112.62453</ele>
        <time>2016-06-10T12:20:46Z</time>
      </trkpt>
      <trkpt lat="48.84675" lon="-0.39385">
        <ele>112.62453</ele>
        <time>2016-06-10T12:20:56Z</time>
      </trkpt>
      <trkpt lat="48.84675" lon="-0.39384">
        <ele>112.62453</ele>
        <time>2016-06-10T12:21:01Z</time>
      </trkpt>
      <trkpt lat="48.84676" lon="-0.39385">
        <ele>112.62453</ele>
        <time>2016-06-10T12:21:11Z</time>
      </trkpt>
      <trkpt lat="48.84676" lon="-0.39385">
        <ele>112.62453</ele>
        <time>2016-06-10T12:21:16Z</time>
      </trkpt>
      <trkpt lat="48.84675" lon="-0.39384">
        <ele>112.62453</ele>
        <time>2016-06-10T12:21:26Z</time>
      </trkpt>
      <trkpt lat="48.84675" lon="-0.39384">
        <ele>112.62453</ele>
        <time>2016-06-10T12:21:31Z</time>
      </trkpt>
      <trkpt lat="48.84675" lon="-0.39383">
        <ele>112.62453</ele>
        <time>2016-06-10T12:21:46Z</time>
      </trkpt>
      <trkpt lat="48.84675" lon="-0.39383">
        <ele>112.62453</ele>
        <time>2016-06-10T12:21:51Z</time>
      </trkpt>
      <trkpt lat="48.84675" lon="-0.39383">
        <ele>112.62453</ele>
        <time>2016-06-10T12:22:01Z</time>
      </trkpt>
      <trkpt lat="48.84675" lon="-0.39383">
        <ele>112.62453</ele>
        <time>2016-06-10T12:22:06Z</time>
      </trkpt>
      <trkpt lat="48.84674" lon="-0.39383">
        <ele>111.257904</ele>
        <time>2016-06-10T12:22:16Z</time>
      </trkpt>
      <trkpt lat="48.84674" lon="-0.39382">
        <ele>111.257904</ele>
        <time>2016-06-10T12:22:21Z</time>
      </trkpt>
      <trkpt lat="48.84675" lon="-0.39383">
        <ele>111.257904</ele>
        <time>2016-06-10T12:22:31Z</time>
      </trkpt>
      <trkpt lat="48.84678" lon="-0.39383">
        <ele>111.257904</ele>
        <time>2016-06-10T12:22:36Z</time>
      </trkpt>
      <trkpt lat="48.84688" lon="-0.39383">
        <ele>109.7263</ele>
        <time>2016-06-10T12:22:46Z</time>
      </trkpt>
      <trkpt lat="48.84693" lon="-0.39384">
        <ele>109.7263</ele>
        <time>2016-06-10T12:22:51Z</time>
      </trkpt>
      <trkpt lat="48.84703" lon="-0.39387">
        <ele>107.77446</ele>
        <time>2016-06-10T12:23:01Z</time>
      </trkpt>
      <trkpt lat="48.84707" lon="-0.3939">
        <ele>107.77446</ele>
        <time>2016-06-10T12:23:06Z</time>
      </trkpt>
      <trkpt lat="48.84717" lon="-0.39397">
        <ele>105.81537</ele>
        <time>2016-06-10T12:23:16Z</time>
      </trkpt>
      <trkpt lat="48.84718" lon="-0.39396">
        <ele>105.81537</ele>
        <time>2016-06-10T12:23:21Z</time>
      </trkpt>
      <trkpt lat="48.84721" lon="-0.39382">
        <ele>103.98655</ele>
        <time>2016-06-10T12:23:36Z</time>
      </trkpt>
      <trkpt lat="48.84724" lon="-0.39377">
        <ele>103.98655</ele>
        <time>2016-06-10T12:23:41Z</time>
      </trkpt>
      <trkpt lat="48.84729" lon="-0.39364">
        <ele>101.82402</ele>
        <time>2016-06-10T12:23:51Z</time>
      </trkpt>
      <trkpt lat="48.84733" lon="-0.39355">
        <ele>101.82402</ele>
        <time>2016-06-10T12:23:56Z</time>
      </trkpt>
      <trkpt lat="48.84739" lon="-0.39341">
        <ele>99.72005</ele>
        <time>2016-06-10T12:24:06Z</time>
      </trkpt>
      <trkpt lat="48.84742" lon="-0.39336">
        <ele>99.72005</ele>
        <time>2016-06-10T12:24:11Z</time>
      </trkpt>
      <trkpt lat="48.84745" lon="-0.39322">
        <ele>96.9569</ele>
        <time>2016-06-10T12:24:21Z</time>
      </trkpt>
      <trkpt lat="48.84748" lon="-0.39317">
        <ele>96.9569</ele>
        <time>2016-06-10T12:24:26Z</time>
      </trkpt>
      <trkpt lat="48.84755" lon="-0.39303">
        <ele>94.35555</ele>
        <time>2016-06-10T12:24:36Z</time>
      </trkpt>
      <trkpt lat="48.84756" lon="-0.39298">
        <ele>94.35555</ele>
        <time>2016-06-10T12:24:41Z</time>
      </trkpt>
      <trkpt lat="48.84765" lon="-0.39282">
        <ele>91.94104</ele>
        <time>2016-06-10T12:24:51Z</time>
      </trkpt>
      <trkpt lat="48.84767" lon="-0.39276">
        <ele>91.94104</ele>
        <time>2016-06-10T12:24:56Z</time>
      </trkpt>
      <trkpt lat="48.84773" lon="-0.39262">
        <ele>89.634926</ele>
        <time>2016-06-10T12:25:06Z</time>
      </trkpt>
      <trkpt lat="48.84775" lon="-0.39255">
        <ele>89.634926</ele>
        <time>2016-06-10T12:25:11Z</time>
      </trkpt>
      <trkpt lat="48.84785" lon="-0.39238">
        <ele>88.228676</ele>
        <time>2016-06-10T12:25:21Z</time>
      </trkpt>
      <trkpt lat="48.84791" lon="-0.39225">
        <ele>87.155876</ele>
        <time>2016-06-10T12:25:26Z</time>
      </trkpt>
      <trkpt lat="48.84794" lon="-0.39202">
        <ele>86.06348</ele>
        <time>2016-06-10T12:25:36Z</time>
      </trkpt>
      <trkpt lat="48.84798" lon="-0.39196">
        <ele>86.06348</ele>
        <time>2016-06-10T12:25:41Z</time>
      </trkpt>
      <trkpt lat="48.84802" lon="-0.39184">
        <ele>84.898026</ele>
        <time>2016-06-10T12:25:51Z</time>
      </trkpt>
      <trkpt lat="48.84805" lon="-0.39175">
        <ele>84.898026</ele>
        <time>2016-06-10T12:25:56Z</time>
      </trkpt>
      <trkpt lat="48.84808" lon="-0.39161">
        <ele>83.14883</ele>
        <time>2016-06-10T12:26:06Z</time>
      </trkpt>
      <trkpt lat="48.8481" lon="-0.39154">
        <ele>83.14883</ele>
        <time>2016-06-10T12:26:11Z</time>
      </trkpt>
      <trkpt lat="48.84819" lon="-0.39133">
        <ele>80.790886</ele>
        <time>2016-06-10T12:26:26Z</time>
      </trkpt>
      <trkpt lat="48.84823" lon="-0.39127">
        <ele>80.790886</ele>
        <time>2016-06-10T12:26:31Z</time>
      </trkpt>
      <trkpt lat="48.84825" lon="-0.39122">
        <ele>78.984245</ele>
        <time>2016-06-10T12:26:36Z</time>
      </trkpt>
      <trkpt lat="48.84828" lon="-0.39119">
        <ele>78.984245</ele>
        <time>2016-06-10T12:26:41Z</time>
      </trkpt>
      <trkpt lat="48.84831" lon="-0.39117">
        <ele>78.984245</ele>
        <time>2016-06-10T12:26:46Z</time>
      </trkpt>
      <trkpt lat="48.84836" lon="-0.39112">
        <ele>77.51942</ele>
        <time>2016-06-10T12:26:51Z</time>
      </trkpt>
      <trkpt lat="48.8484" lon="-0.39111">
        <ele>77.51942</ele>
        <time>2016-06-10T12:27:01Z</time>
      </trkpt>
      <trkpt lat="48.84842" lon="-0.39109">
        <ele>77.51942</ele>
        <time>2016-06-10T12:27:06Z</time>
      </trkpt>
      <trkpt lat="48.84851" lon="-0.39105">
        <ele>76.4173</ele>
        <time>2016-06-10T12:27:16Z</time>
      </trkpt>
      <trkpt lat="48.84852" lon="-0.39105">
        <ele>76.4173</ele>
        <time>2016-06-10T12:27:21Z</time>
      </trkpt>
      <trkpt lat="48.84859" lon="-0.39105">
        <ele>76.4173</ele>
        <time>2016-06-10T12:27:31Z</time>
      </trkpt>
      <trkpt lat="48.84861" lon="-0.39105">
        <ele>74.917854</ele>
        <time>2016-06-10T12:27:36Z</time>
      </trkpt>
      <trkpt lat="48.84869" lon="-0.3911">
        <ele>74.917854</ele>
        <time>2016-06-10T12:27:46Z</time>
      </trkpt>
      <trkpt lat="48.84881" lon="-0.39118">
        <ele>73.55716</ele>
        <time>2016-06-10T12:27:51Z</time>
      </trkpt>
      <trkpt lat="48.84885" lon="-0.3912">
        <ele>73.55716</ele>
        <time>2016-06-10T12:28:01Z</time>
      </trkpt>
      <trkpt lat="48.84886" lon="-0.39122">
        <ele>73.55716</ele>
        <time>2016-06-10T12:28:06Z</time>
      </trkpt>
      <trkpt lat="48.84893" lon="-0.39132">
        <ele>72.02434</ele>
        <time>2016-06-10T12:28:16Z</time>
      </trkpt>
      <trkpt lat="48.84903" lon="-0.39147">
        <ele>70.305466</ele>
        <time>2016-06-10T12:28:21Z</time>
      </trkpt>
      <trkpt lat="48.84919" lon="-0.39162">
        <ele>68.950035</ele>
        <time>2016-06-10T12:28:31Z</time>
      </trkpt>
      <trkpt lat="48.84921" lon="-0.39166">
        <ele>68.950035</ele>
        <time>2016-06-10T12:28:36Z</time>
      </trkpt>
      <trkpt lat="48.8492" lon="-0.39165">
        <ele>68.950035</ele>
        <time>2016-06-10T12:28:41Z</time>
      </trkpt>
      <trkpt lat="48.84921" lon="-0.39167">
        <ele>68.950035</ele>
        <time>2016-06-10T12:28:46Z</time>
      </trkpt>
      <trkpt lat="48.84929" lon="-0.39175">
        <ele>67.399574</ele>
        <time>2016-06-10T12:28:56Z</time>
      </trkpt>
      <trkpt lat="48.84927" lon="-0.39175">
        <ele>67.399574</ele>
        <time>2016-06-10T12:29:01Z</time>
      </trkpt>
      <trkpt lat="48.84935" lon="-0.3918">
        <ele>65.482895</ele>
        <time>2016-06-10T12:29:11Z</time>
      </trkpt>
      <trkpt lat="48.8494" lon="-0.39186">
        <ele>65.482895</ele>
        <time>2016-06-10T12:29:16Z</time>
      </trkpt>
      <trkpt lat="48.84954" lon="-0.39195">
        <ele>63.445797</ele>
        <time>2016-06-10T12:29:31Z</time>
      </trkpt>
      <trkpt lat="48.84959" lon="-0.39204">
        <ele>63.445797</ele>
        <time>2016-06-10T12:29:36Z</time>
      </trkpt>
      <trkpt lat="48.84964" lon="-0.3921">
        <ele>62.352047</ele>
        <time>2016-06-10T12:29:46Z</time>
      </trkpt>
      <trkpt lat="48.84962" lon="-0.39211">
        <ele>62.352047</ele>
        <time>2016-06-10T12:29:51Z</time>
      </trkpt>
      <trkpt lat="48.84962" lon="-0.39209">
        <ele>62.352047</ele>
        <time>2016-06-10T12:30:01Z</time>
      </trkpt>
      <trkpt lat="48.84961" lon="-0.39211">
        <ele>62.352047</ele>
        <time>2016-06-10T12:30:06Z</time>
      </trkpt>
      <trkpt lat="48.8497" lon="-0.39209">
        <ele>61.23899</ele>
        <time>2016-06-10T12:30:16Z</time>
      </trkpt>
      <trkpt lat="48.84975" lon="-0.39203">
        <ele>61.23899</ele>
        <time>2016-06-10T12:30:21Z</time>
      </trkpt>
      <trkpt lat="48.84983" lon="-0.3919">
        <ele>60.511616</ele>
        <time>2016-06-10T12:30:31Z</time>
      </trkpt>
      <trkpt lat="48.8498" lon="-0.39183">
        <ele>60.511616</ele>
        <time>2016-06-10T12:30:36Z</time>
      </trkpt>
      <trkpt lat="48.84981" lon="-0.39168">
        <ele>58.555233</ele>
        <time>2016-06-10T12:30:46Z</time>
      </trkpt>
      <trkpt lat="48.8498" lon="-0.39167">
        <ele>58.555233</ele>
        <time>2016-06-10T12:30:51Z</time>
      </trkpt>
      <trkpt lat="48.84981" lon="-0.39163">
        <ele>58.555233</ele>
        <time>2016-06-10T12:31:01Z</time>
      </trkpt>
      <trkpt lat="48.84981" lon="-0.39163">
        <ele>58.555233</ele>
        <time>2016-06-10T12:31:06Z</time>
      </trkpt>
      <trkpt lat="48.84981" lon="-0.39162">
        <ele>58.555233</ele>
        <time>2016-06-10T12:31:11Z</time>
      </trkpt>
      <trkpt lat="48.84981" lon="-0.3916">
        <ele>58.555233</ele>
        <time>2016-06-10T12:31:16Z</time>
      </trkpt>
      <trkpt lat="48.84982" lon="-0.3916">
        <ele>58.555233</ele>
        <time>2016-06-10T12:31:21Z</time>
      </trkpt>
      <trkpt lat="48.84983" lon="-0.39161">
        <ele>58.555233</ele>
        <time>2016-06-10T12:31:26Z</time>
      </trkpt>
      <trkpt lat="48.84983" lon="-0.39161">
        <ele>58.555233</ele>
        <time>2016-06-10T12:31:31Z</time>
      </trkpt>
      <trkpt lat="48.84984" lon="-0.39161">
        <ele>58.555233</ele>
        <time>2016-06-10T12:31:36Z</time>
      </trkpt>
      <trkpt lat="48.84983" lon="-0.39161">
        <ele>56.701675</ele>
        <time>2016-06-10T12:31:46Z</time>
      </trkpt>
      <trkpt lat="48.84984" lon="-0.39161">
        <ele>56.701675</ele>
        <time>2016-06-10T12:31:51Z</time>
      </trkpt>
      <trkpt lat="48.84981" lon="-0.39154">
        <ele>56.701675</ele>
        <time>2016-06-10T12:32:01Z</time>
      </trkpt>
      <trkpt lat="48.84981" lon="-0.39153">
        <ele>56.701675</ele>
        <time>2016-06-10T12:32:06Z</time>
      </trkpt>
      <trkpt lat="48.84983" lon="-0.39143">
        <ele>55.11812</ele>
        <time>2016-06-10T12:32:16Z</time>
      </trkpt>
      <trkpt lat="48.84983" lon="-0.39142">
        <ele>55.11812</ele>
        <time>2016-06-10T12:32:21Z</time>
      </trkpt>
      <trkpt lat="48.84982" lon="-0.39142">
        <ele>55.11812</ele>
        <time>2016-06-10T12:32:31Z</time>
      </trkpt>
      <trkpt lat="48.84982" lon="-0.39142">
        <ele>55.11812</ele>
        <time>2016-06-10T12:32:36Z</time>
      </trkpt>
      <trkpt lat="48.84982" lon="-0.39142">
        <ele>55.11812</ele>
        <time>2016-06-10T12:32:46Z</time>
      </trkpt>
      <trkpt lat="48.8498" lon="-0.39142">
        <ele>55.11812</ele>
        <time>2016-06-10T12:32:51Z</time>
      </trkpt>
      <trkpt lat="48.84978" lon="-0.39144">
        <ele>55.11812</ele>
        <time>2016-06-10T12:33:01Z</time>
      </trkpt>
      <trkpt lat="48.84977" lon="-0.39145">
        <ele>55.11812</ele>
        <time>2016-06-10T12:33:06Z</time>
      </trkpt>
      <trkpt lat="48.84974" lon="-0.39148">
        <ele>53.35334</ele>
        <time>2016-06-10T12:33:16Z</time>
      </trkpt>
      <trkpt lat="48.84974" lon="-0.39148">
        <ele>53.35334</ele>
        <time>2016-06-10T12:33:21Z</time>
      </trkpt>
      <trkpt lat="48.84974" lon="-0.39148">
        <ele>53.35334</ele>
        <time>2016-06-10T12:33:31Z</time>
      </trkpt>
      <trkpt lat="48.84974" lon="-0.39148">
        <ele>53.35334</ele>
        <time>2016-06-10T12:33:36Z</time>
      </trkpt>
      <trkpt lat="48.84974" lon="-0.39148">
        <ele>53.35334</ele>
        <time>2016-06-10T12:33:46Z</time>
      </trkpt>
      <trkpt lat="48.84974" lon="-0.39148">
        <ele>53.35334</ele>
        <time>2016-06-10T12:33:51Z</time>
      </trkpt>
      <trkpt lat="48.84974" lon="-0.39148">
        <ele>53.35334</ele>
        <time>2016-06-10T12:34:01Z</time>
      </trkpt>
      <trkpt lat="48.84974" lon="-0.39148">
        <ele>53.35334</ele>
        <time>2016-06-10T12:34:06Z</time>
      </trkpt>
      <trkpt lat="48.84973" lon="-0.39146">
        <ele>53.35334</ele>
        <time>2016-06-10T12:34:16Z</time>
      </trkpt>
      <trkpt lat="48.84974" lon="-0.39147">
        <ele>53.35334</ele>
        <time>2016-06-10T12:34:21Z</time>
      </trkpt>
      <trkpt lat="48.84974" lon="-0.39147">
        <ele>53.35334</ele>
        <time>2016-06-10T12:34:31Z</time>
      </trkpt>
      <trkpt lat="48.84971" lon="-0.39143">
        <ele>53.35334</ele>
        <time>2016-06-10T12:34:36Z</time>
      </trkpt>
      <trkpt lat="48.84959" lon="-0.39133">
        <ele>52.344315</ele>
        <time>2016-06-10T12:34:51Z</time>
      </trkpt>
      <trkpt lat="48.84955" lon="-0.39128">
        <ele>52.344315</ele>
        <time>2016-06-10T12:34:56Z</time>
      </trkpt>
      <trkpt lat="48.84947" lon="-0.39115">
        <ele>50.96825</ele>
        <time>2016-06-10T12:35:06Z</time>
      </trkpt>
      <trkpt lat="48.84943" lon="-0.39112">
        <ele>50.96825</ele>
        <time>2016-06-10T12:35:11Z</time>
      </trkpt>
      <trkpt lat="48.84936" lon="-0.39105">
        <ele>49.75658</ele>
        <time>2016-06-10T12:35:16Z</time>
      </trkpt>
      <trkpt lat="48.84926" lon="-0.39082">
        <ele>49.56145</ele>
        <time>2016-06-10T12:35:31Z</time>
      </trkpt>
      <trkpt lat="48.84923" lon="-0.39079">
        <ele>49.56145</ele>
        <time>2016-06-10T12:35:36Z</time>
      </trkpt>
      <trkpt lat="48.84911" lon="-0.39066">
        <ele>49.569843</ele>
        <time>2016-06-10T12:35:46Z</time>
      </trkpt>
      <trkpt lat="48.84905" lon="-0.3906">
        <ele>49.569843</ele>
        <time>2016-06-10T12:35:51Z</time>
      </trkpt>
      <trkpt lat="48.84901" lon="-0.39041">
        <ele>49.77723</ele>
        <time>2016-06-10T12:36:01Z</time>
      </trkpt>
      <trkpt lat="48.849" lon="-0.39039">
        <ele>49.77723</ele>
        <time>2016-06-10T12:36:06Z</time>
      </trkpt>
      <trkpt lat="48.84895" lon="-0.39032">
        <ele>49.77723</ele>
        <time>2016-06-10T12:36:16Z</time>
      </trkpt>
      <trkpt lat="48.84891" lon="-0.39025">
        <ele>50.178818</ele>
        <time>2016-06-10T12:36:21Z</time>
      </trkpt>
      <trkpt lat="48.84885" lon="-0.39014">
        <ele>50.466957</ele>
        <time>2016-06-10T12:36:31Z</time>
      </trkpt>
      <trkpt lat="48.84886" lon="-0.39006">
        <ele>50.466957</ele>
        <time>2016-06-10T12:36:36Z</time>
      </trkpt>
      <trkpt lat="48.84887" lon="-0.39008">
        <ele>50.466957</ele>
        <time>2016-06-10T12:36:46Z</time>
      </trkpt>
      <trkpt lat="48.84887" lon="-0.39006">
        <ele>50.466957</ele>
        <time>2016-06-10T12:36:51Z</time>
      </trkpt>
      <trkpt lat="48.84889" lon="-0.38995">
        <ele>50.385742</ele>
        <time>2016-06-10T12:37:01Z</time>
      </trkpt>
      <trkpt lat="48.84891" lon="-0.38991">
        <ele>50.385742</ele>
        <time>2016-06-10T12:37:06Z</time>
      </trkpt>
      <trkpt lat="48.84894" lon="-0.38982">
        <ele>50.578182</ele>
        <time>2016-06-10T12:37:16Z</time>
      </trkpt>
      <trkpt lat="48.84896" lon="-0.38977">
        <ele>50.578182</ele>
        <time>2016-06-10T12:37:21Z</time>
      </trkpt>
      <trkpt lat="48.84901" lon="-0.38963">
        <ele>50.198196</ele>
        <time>2016-06-10T12:37:31Z</time>
      </trkpt>
      <trkpt lat="48.84901" lon="-0.38962">
        <ele>50.198196</ele>
        <time>2016-06-10T12:37:36Z</time>
      </trkpt>
      <trkpt lat="48.84899" lon="-0.38949">
        <ele>49.890186</ele>
        <time>2016-06-10T12:37:51Z</time>
      </trkpt>
      <trkpt lat="48.84903" lon="-0.38947">
        <ele>49.890186</ele>
        <time>2016-06-10T12:37:56Z</time>
      </trkpt>
      <trkpt lat="48.84907" lon="-0.38941">
        <ele>49.588146</ele>
        <time>2016-06-10T12:38:06Z</time>
      </trkpt>
      <trkpt lat="48.8491" lon="-0.38935">
        <ele>49.588146</ele>
        <time>2016-06-10T12:38:11Z</time>
      </trkpt>
      <trkpt lat="48.84911" lon="-0.3893">
        <ele>49.588146</ele>
        <time>2016-06-10T12:38:21Z</time>
      </trkpt>
      <trkpt lat="48.84911" lon="-0.38931">
        <ele>49.588146</ele>
        <time>2016-06-10T12:38:26Z</time>
      </trkpt>
      <trkpt lat="48.84916" lon="-0.38915">
        <ele>49.605644</ele>
        <time>2016-06-10T12:38:36Z</time>
      </trkpt>
      <trkpt lat="48.84918" lon="-0.38906">
        <ele>49.605644</ele>
        <time>2016-06-10T12:38:41Z</time>
      </trkpt>
      <trkpt lat="48.84923" lon="-0.38891">
        <ele>49.612675</ele>
        <time>2016-06-10T12:38:51Z</time>
      </trkpt>
      <trkpt lat="48.84928" lon="-0.38881">
        <ele>49.612675</ele>
        <time>2016-06-10T12:38:56Z</time>
      </trkpt>
      <trkpt lat="48.84931" lon="-0.38871">
        <ele>50.038548</ele>
        <time>2016-06-10T12:39:01Z</time>
      </trkpt>
      <trkpt lat="48.84934" lon="-0.38864">
        <ele>50.038548</ele>
        <time>2016-06-10T12:39:06Z</time>
      </trkpt>
      <trkpt lat="48.84936" lon="-0.38857">
        <ele>50.530544</ele>
        <time>2016-06-10T12:39:11Z</time>
      </trkpt>
      <trkpt lat="48.84942" lon="-0.38836">
        <ele>51.20849</ele>
        <time>2016-06-10T12:39:26Z</time>
      </trkpt>
      <trkpt lat="48.84944" lon="-0.38832">
        <ele>51.20849</ele>
        <time>2016-06-10T12:39:31Z</time>
      </trkpt>
      <trkpt lat="48.84949" lon="-0.38818">
        <ele>52.226208</ele>
        <time>2016-06-10T12:39:41Z</time>
      </trkpt>
      <trkpt lat="48.84945" lon="-0.38812">
        <ele>52.226208</ele>
        <time>2016-06-10T12:39:46Z</time>
      </trkpt>
      <trkpt lat="48.84945" lon="-0.38796">
        <ele>52.90393</ele>
        <time>2016-06-10T12:39:56Z</time>
      </trkpt>
      <trkpt lat="48.84949" lon="-0.38788">
        <ele>52.90393</ele>
        <time>2016-06-10T12:40:01Z</time>
      </trkpt>
      <trkpt lat="48.84959" lon="-0.3877">
        <ele>54.515152</ele>
        <time>2016-06-10T12:40:11Z</time>
      </trkpt>
      <trkpt lat="48.8496" lon="-0.38763">
        <ele>54.515152</ele>
        <time>2016-06-10T12:40:16Z</time>
      </trkpt>
      <trkpt lat="48.84964" lon="-0.38749">
        <ele>56.10448</ele>
        <time>2016-06-10T12:40:26Z</time>
      </trkpt>
      <trkpt lat="48.84969" lon="-0.38741">
        <ele>56.10448</ele>
        <time>2016-06-10T12:40:31Z</time>
      </trkpt>
      <trkpt lat="48.84975" lon="-0.38724">
        <ele>58.24241</ele>
        <time>2016-06-10T12:40:41Z</time>
      </trkpt>
      <trkpt lat="48.84977" lon="-0.38718">
        <ele>58.24241</ele>
        <time>2016-06-10T12:40:46Z</time>
      </trkpt>
      <trkpt lat="48.84981" lon="-0.38702">
        <ele>60.14472</ele>
        <time>2016-06-10T12:40:56Z</time>
      </trkpt>
      <trkpt lat="48.84983" lon="-0.38697">
        <ele>60.14472</ele>
        <time>2016-06-10T12:41:01Z</time>
      </trkpt>
      <trkpt lat="48.84988" lon="-0.38681">
        <ele>61.71971</ele>
        <time>2016-06-10T12:41:11Z</time>
      </trkpt>
      <trkpt lat="48.8499" lon="-0.38674">
        <ele>61.71971</ele>
        <time>2016-06-10T12:41:16Z</time>
      </trkpt>
      <trkpt lat="48.84996" lon="-0.38661">
        <ele>63.330254</ele>
        <time>2016-06-10T12:41:26Z</time>
      </trkpt>
      <trkpt lat="48.84998" lon="-0.38653">
        <ele>63.330254</ele>
        <time>2016-06-10T12:41:31Z</time>
      </trkpt>
      <trkpt lat="48.84999" lon="-0.38644">
        <ele>64.89471</ele>
        <time>2016-06-10T12:41:41Z</time>
      </trkpt>
      <trkpt lat="48.84998" lon="-0.38641">
        <ele>64.89471</ele>
        <time>2016-06-10T12:41:46Z</time>
      </trkpt>
      <trkpt lat="48.85" lon="-0.38631">
        <ele>66.2657</ele>
        <time>2016-06-10T12:41:56Z</time>
      </trkpt>
      <trkpt lat="48.85001" lon="-0.38623">
        <ele>66.2657</ele>
        <time>2016-06-10T12:42:01Z</time>
      </trkpt>
      <trkpt lat="48.85006" lon="-0.38614">
        <ele>67.69652</ele>
        <time>2016-06-10T12:42:16Z</time>
      </trkpt>
      <trkpt lat="48.85008" lon="-0.3861">
        <ele>67.69652</ele>
        <time>2016-06-10T12:42:21Z</time>
      </trkpt>
      <trkpt lat="48.85014" lon="-0.38594">
        <ele>69.16246</ele>
        <time>2016-06-10T12:42:31Z</time>
      </trkpt>
      <trkpt lat="48.85012" lon="-0.3859">
        <ele>69.16246</ele>
        <time>2016-06-10T12:42:36Z</time>
      </trkpt>
      <trkpt lat="48.85012" lon="-0.38591">
        <ele>69.16246</ele>
        <time>2016-06-10T12:42:46Z</time>
      </trkpt>
      <trkpt lat="48.85015" lon="-0.38587">
        <ele>69.16246</ele>
        <time>2016-06-10T12:42:51Z</time>
      </trkpt>
      <trkpt lat="48.85018" lon="-0.3857">
        <ele>69.99225</ele>
        <time>2016-06-10T12:43:01Z</time>
      </trkpt>
      <trkpt lat="48.85021" lon="-0.38566">
        <ele>69.99225</ele>
        <time>2016-06-10T12:43:06Z</time>
      </trkpt>
      <trkpt lat="48.85026" lon="-0.38552">
        <ele>70.834076</ele>
        <time>2016-06-10T12:43:16Z</time>
      </trkpt>
      <trkpt lat="48.85031" lon="-0.3854">
        <ele>71.88516</ele>
        <time>2016-06-10T12:43:21Z</time>
      </trkpt>
      <trkpt lat="48.85032" lon="-0.38532">
        <ele>71.88516</ele>
        <time>2016-06-10T12:43:26Z</time>
      </trkpt>
      <trkpt lat="48.85036" lon="-0.38526">
        <ele>72.909935</ele>
        <time>2016-06-10T12:43:31Z</time>
      </trkpt>
      <trkpt lat="48.8504" lon="-0.38518">
        <ele>72.909935</ele>
        <time>2016-06-10T12:43:36Z</time>
      </trkpt>
      <trkpt lat="48.85045" lon="-0.38503">
        <ele>74.38212</ele>
        <time>2016-06-10T12:43:46Z</time>
      </trkpt>
      <trkpt lat="48.85047" lon="-0.38493">
        <ele>74.38212</ele>
        <time>2016-06-10T12:43:51Z</time>
      </trkpt>
      <trkpt lat="48.85052" lon="-0.3848">
        <ele>75.730804</ele>
        <time>2016-06-10T12:44:01Z</time>
      </trkpt>
      <trkpt lat="48.85055" lon="-0.3847">
        <ele>75.730804</ele>
        <time>2016-06-10T12:44:06Z</time>
      </trkpt>
      <trkpt lat="48.8506" lon="-0.38456">
        <ele>76.8887</ele>
        <time>2016-06-10T12:44:16Z</time>
      </trkpt>
      <trkpt lat="48.85063" lon="-0.38446">
        <ele>76.8887</ele>
        <time>2016-06-10T12:44:21Z</time>
      </trkpt>
      <trkpt lat="48.8507" lon="-0.38424">
        <ele>78.24094</ele>
        <time>2016-06-10T12:44:36Z</time>
      </trkpt>
      <trkpt lat="48.85074" lon="-0.38414">
        <ele>78.24094</ele>
        <time>2016-06-10T12:44:41Z</time>
      </trkpt>
      <trkpt lat="48.85079" lon="-0.38398">
        <ele>79.66841</ele>
        <time>2016-06-10T12:44:51Z</time>
      </trkpt>
      <trkpt lat="48.85082" lon="-0.38388">
        <ele>79.66841</ele>
        <time>2016-06-10T12:44:56Z</time>
      </trkpt>
      <trkpt lat="48.85088" lon="-0.38373">
        <ele>81.176025</ele>
        <time>2016-06-10T12:45:06Z</time>
      </trkpt>
      <trkpt lat="48.85091" lon="-0.38364">
        <ele>81.176025</ele>
        <time>2016-06-10T12:45:11Z</time>
      </trkpt>
      <trkpt lat="48.85096" lon="-0.38347">
        <ele>82.66742</ele>
        <time>2016-06-10T12:45:21Z</time>
      </trkpt>
      <trkpt lat="48.85098" lon="-0.38341">
        <ele>82.66742</ele>
        <time>2016-06-10T12:45:26Z</time>
      </trkpt>
      <trkpt lat="48.85102" lon="-0.38329">
        <ele>84.096756</ele>
        <time>2016-06-10T12:45:36Z</time>
      </trkpt>
      <trkpt lat="48.85104" lon="-0.38323">
        <ele>84.096756</ele>
        <time>2016-06-10T12:45:41Z</time>
      </trkpt>
      <trkpt lat="48.85109" lon="-0.38307">
        <ele>85.1481</ele>
        <time>2016-06-10T12:45:51Z</time>
      </trkpt>
      <trkpt lat="48.85111" lon="-0.38301">
        <ele>85.1481</ele>
        <time>2016-06-10T12:45:56Z</time>
      </trkpt>
      <trkpt lat="48.85118" lon="-0.38282">
        <ele>86.12081</ele>
        <time>2016-06-10T12:46:06Z</time>
      </trkpt>
      <trkpt lat="48.85119" lon="-0.38272">
        <ele>86.12081</ele>
        <time>2016-06-10T12:46:11Z</time>
      </trkpt>
      <trkpt lat="48.85123" lon="-0.38264">
        <ele>86.90356</ele>
        <time>2016-06-10T12:46:16Z</time>
      </trkpt>
      <trkpt lat="48.85125" lon="-0.3826">
        <ele>86.90356</ele>
        <time>2016-06-10T12:46:21Z</time>
      </trkpt>
      <trkpt lat="48.85127" lon="-0.38251">
        <ele>87.278564</ele>
        <time>2016-06-10T12:46:26Z</time>
      </trkpt>
      <trkpt lat="48.85128" lon="-0.38245">
        <ele>87.278564</ele>
        <time>2016-06-10T12:46:31Z</time>
      </trkpt>
      <trkpt lat="48.85125" lon="-0.38226">
        <ele>87.391235</ele>
        <time>2016-06-10T12:46:41Z</time>
      </trkpt>
      <trkpt lat="48.85122" lon="-0.38224">
        <ele>87.391235</ele>
        <time>2016-06-10T12:46:46Z</time>
      </trkpt>
      <trkpt lat="48.85122" lon="-0.38223">
        <ele>87.391235</ele>
        <time>2016-06-10T12:46:56Z</time>
      </trkpt>
      <trkpt lat="48.85122" lon="-0.38223">
        <ele>87.391235</ele>
        <time>2016-06-10T12:47:01Z</time>
      </trkpt>
      <trkpt lat="48.85122" lon="-0.38223">
        <ele>87.391235</ele>
        <time>2016-06-10T12:47:11Z</time>
      </trkpt>
      <trkpt lat="48.85122" lon="-0.38223">
        <ele>87.391235</ele>
        <time>2016-06-10T12:47:16Z</time>
      </trkpt>
      <trkpt lat="48.85122" lon="-0.38223">
        <ele>87.391235</ele>
        <time>2016-06-10T12:47:31Z</time>
      </trkpt>
      <trkpt lat="48.85128" lon="-0.38212">
        <ele>87.06011</ele>
        <time>2016-06-10T12:47:41Z</time>
      </trkpt>
      <trkpt lat="48.8513" lon="-0.38203">
        <ele>87.06011</ele>
        <time>2016-06-10T12:47:46Z</time>
      </trkpt>
      <trkpt lat="48.85132" lon="-0.38187">
        <ele>86.57958</ele>
        <time>2016-06-10T12:47:56Z</time>
      </trkpt>
      <trkpt lat="48.85131" lon="-0.3818">
        <ele>86.57958</ele>
        <time>2016-06-10T12:48:01Z</time>
      </trkpt>
      <trkpt lat="48.85129" lon="-0.38173">
        <ele>86.00678</ele>
        <time>2016-06-10T12:48:11Z</time>
      </trkpt>
      <trkpt lat="48.85129" lon="-0.38165">
        <ele>86.00678</ele>
        <time>2016-06-10T12:48:16Z</time>
      </trkpt>
      <trkpt lat="48.85127" lon="-0.38165">
        <ele>86.00678</ele>
        <time>2016-06-10T12:48:26Z</time>
      </trkpt>
      <trkpt lat="48.85126" lon="-0.38165">
        <ele>86.00678</ele>
        <time>2016-06-10T12:48:31Z</time>
      </trkpt>
      <trkpt lat="48.85122" lon="-0.3816">
        <ele>84.78972</ele>
        <time>2016-06-10T12:48:46Z</time>
      </trkpt>
      <trkpt lat="48.85122" lon="-0.3816">
        <ele>84.78972</ele>
        <time>2016-06-10T12:48:51Z</time>
      </trkpt>
      <trkpt lat="48.85121" lon="-0.38157">
        <ele>84.78972</ele>
        <time>2016-06-10T12:49:01Z</time>
      </trkpt>
      <trkpt lat="48.8512" lon="-0.38155">
        <ele>84.78972</ele>
        <time>2016-06-10T12:49:06Z</time>
      </trkpt>
      <trkpt lat="48.8512" lon="-0.38154">
        <ele>84.78972</ele>
        <time>2016-06-10T12:49:16Z</time>
      </trkpt>
      <trkpt lat="48.8512" lon="-0.38154">
        <ele>84.78972</ele>
        <time>2016-06-10T12:49:21Z</time>
      </trkpt>
      <trkpt lat="48.8512" lon="-0.38154">
        <ele>84.78972</ele>
        <time>2016-06-10T12:49:31Z</time>
      </trkpt>
      <trkpt lat="48.8512" lon="-0.38154">
        <ele>84.78972</ele>
        <time>2016-06-10T12:49:36Z</time>
      </trkpt>
      <trkpt lat="48.85121" lon="-0.38161">
        <ele>84.78972</ele>
        <time>2016-06-10T13:36:38Z</time>
      </trkpt>
      <trkpt lat="48.85121" lon="-0.38161">
        <ele>84.78972</ele>
        <time>2016-06-10T13:36:43Z</time>
      </trkpt>
      <trkpt lat="48.85121" lon="-0.38161">
        <ele>84.78972</ele>
        <time>2016-06-10T13:36:48Z</time>
      </trkpt>
      <trkpt lat="48.85121" lon="-0.38161">
        <ele>84.78972</ele>
        <time>2016-06-10T13:36:53Z</time>
      </trkpt>
      <trkpt lat="48.85121" lon="-0.38161">
        <ele>84.78972</ele>
        <time>2016-06-10T13:36:58Z</time>
      </trkpt>
      <trkpt lat="48.8512" lon="-0.38162">
        <ele>82.96645</ele>
        <time>2016-06-10T13:37:03Z</time>
      </trkpt>
      <trkpt lat="48.85124" lon="-0.38155">
        <ele>82.96645</ele>
        <time>2016-06-10T13:37:13Z</time>
      </trkpt>
      <trkpt lat="48.85124" lon="-0.38155">
        <ele>82.96645</ele>
        <time>2016-06-10T13:37:18Z</time>
      </trkpt>
      <trkpt lat="48.85133" lon="-0.38147">
        <ele>81.68366</ele>
        <time>2016-06-10T13:37:28Z</time>
      </trkpt>
      <trkpt lat="48.85139" lon="-0.38146">
        <ele>81.68366</ele>
        <time>2016-06-10T13:37:33Z</time>
      </trkpt>
      <trkpt lat="48.85148" lon="-0.38137">
        <ele>80.690895</ele>
        <time>2016-06-10T13:37:43Z</time>
      </trkpt>
      <trkpt lat="48.85152" lon="-0.38133">
        <ele>80.690895</ele>
        <time>2016-06-10T13:37:48Z</time>
      </trkpt>
      <trkpt lat="48.85158" lon="-0.38119">
        <ele>79.04913</ele>
        <time>2016-06-10T13:37:58Z</time>
      </trkpt>
      <trkpt lat="48.8516" lon="-0.38111">
        <ele>79.04913</ele>
        <time>2016-06-10T13:38:03Z</time>
      </trkpt>
      <trkpt lat="48.85165" lon="-0.38099">
        <ele>78.44095</ele>
        <time>2016-06-10T13:38:18Z</time>
      </trkpt>
      <trkpt lat="48.85163" lon="-0.38098">
        <ele>78.44095</ele>
        <time>2016-06-10T13:38:23Z</time>
      </trkpt>
      <trkpt lat="48.85164" lon="-0.38096">
        <ele>78.44095</ele>
        <time>2016-06-10T13:38:28Z</time>
      </trkpt>
      <trkpt lat="48.85166" lon="-0.38097">
        <ele>78.44095</ele>
        <time>2016-06-10T13:38:33Z</time>
      </trkpt>
      <trkpt lat="48.85166" lon="-0.38093">
        <ele>78.44095</ele>
        <time>2016-06-10T13:38:38Z</time>
      </trkpt>
      <trkpt lat="48.85165" lon="-0.3809">
        <ele>77.69866</ele>
        <time>2016-06-10T13:38:48Z</time>
      </trkpt>
      <trkpt lat="48.85167" lon="-0.38089">
        <ele>77.69866</ele>
        <time>2016-06-10T13:38:53Z</time>
      </trkpt>
      <trkpt lat="48.85166" lon="-0.38089">
        <ele>77.69866</ele>
        <time>2016-06-10T13:39:03Z</time>
      </trkpt>
      <trkpt lat="48.85164" lon="-0.38089">
        <ele>77.69866</ele>
        <time>2016-06-10T13:39:08Z</time>
      </trkpt>
      <trkpt lat="48.85162" lon="-0.3809">
        <ele>77.69866</ele>
        <time>2016-06-10T13:39:18Z</time>
      </trkpt>
      <trkpt lat="48.85162" lon="-0.3809">
        <ele>77.69866</ele>
        <time>2016-06-10T13:39:23Z</time>
      </trkpt>
      <trkpt lat="48.85161" lon="-0.3809">
        <ele>77.69866</ele>
        <time>2016-06-10T13:39:33Z</time>
      </trkpt>
      <trkpt lat="48.85161" lon="-0.3809">
        <ele>77.69866</ele>
        <time>2016-06-10T13:39:38Z</time>
      </trkpt>
      <trkpt lat="48.85162" lon="-0.38085">
        <ele>77.19627</ele>
        <time>2016-06-10T13:39:48Z</time>
      </trkpt>
      <trkpt lat="48.8516" lon="-0.3808">
        <ele>77.19627</ele>
        <time>2016-06-10T13:39:53Z</time>
      </trkpt>
      <trkpt lat="48.8516" lon="-0.38079">
        <ele>77.19627</ele>
        <time>2016-06-10T13:40:03Z</time>
      </trkpt>
      <trkpt lat="48.8516" lon="-0.38081">
        <ele>77.19627</ele>
        <time>2016-06-10T13:40:08Z</time>
      </trkpt>
      <trkpt lat="48.85164" lon="-0.38084">
        <ele>77.19627</ele>
        <time>2016-06-10T13:40:18Z</time>
      </trkpt>
      <trkpt lat="48.85167" lon="-0.3809">
        <ele>76.400475</ele>
        <time>2016-06-10T13:40:23Z</time>
      </trkpt>
      <trkpt lat="48.85162" lon="-0.38101">
        <ele>76.400475</ele>
        <time>2016-06-10T13:40:38Z</time>
      </trkpt>
      <trkpt lat="48.85158" lon="-0.381">
        <ele>74.63061</ele>
        <time>2016-06-10T13:40:43Z</time>
      </trkpt>
      <trkpt lat="48.85149" lon="-0.38095">
        <ele>72.97357</ele>
        <time>2016-06-10T13:40:53Z</time>
      </trkpt>
      <trkpt lat="48.85147" lon="-0.38087">
        <ele>72.97357</ele>
        <time>2016-06-10T13:40:58Z</time>
      </trkpt>
      <trkpt lat="48.85142" lon="-0.38074">
        <ele>71.77314</ele>
        <time>2016-06-10T13:41:08Z</time>
      </trkpt>
      <trkpt lat="48.85139" lon="-0.3807">
        <ele>71.77314</ele>
        <time>2016-06-10T13:41:13Z</time>
      </trkpt>
      <trkpt lat="48.85136" lon="-0.38073">
        <ele>71.77314</ele>
        <time>2016-06-10T13:41:23Z</time>
      </trkpt>
      <trkpt lat="48.85135" lon="-0.38073">
        <ele>71.77314</ele>
        <time>2016-06-10T13:41:28Z</time>
      </trkpt>
      <trkpt lat="48.8513" lon="-0.38086">
        <ele>70.366516</ele>
        <time>2016-06-10T13:41:38Z</time>
      </trkpt>
      <trkpt lat="48.85127" lon="-0.38094">
        <ele>70.366516</ele>
        <time>2016-06-10T13:41:43Z</time>
      </trkpt>
      <trkpt lat="48.85121" lon="-0.38107">
        <ele>69.10561</ele>
        <time>2016-06-10T13:41:53Z</time>
      </trkpt>
      <trkpt lat="48.85118" lon="-0.38108">
        <ele>69.10561</ele>
        <time>2016-06-10T13:41:58Z</time>
      </trkpt>
      <trkpt lat="48.8511" lon="-0.38118">
        <ele>66.75959</ele>
        <time>2016-06-10T13:42:13Z</time>
      </trkpt>
      <trkpt lat="48.85106" lon="-0.38124">
        <ele>66.75959</ele>
        <time>2016-06-10T13:42:18Z</time>
      </trkpt>
      <trkpt lat="48.85095" lon="-0.38132">
        <ele>64.81377</ele>
        <time>2016-06-10T13:42:28Z</time>
      </trkpt>
      <trkpt lat="48.85089" lon="-0.38136">
        <ele>64.81377</ele>
        <time>2016-06-10T13:42:33Z</time>
      </trkpt>
      <trkpt lat="48.85078" lon="-0.38141">
        <ele>63.807274</ele>
        <time>2016-06-10T13:42:43Z</time>
      </trkpt>
      <trkpt lat="48.85072" lon="-0.38142">
        <ele>63.807274</ele>
        <time>2016-06-10T13:42:48Z</time>
      </trkpt>
      <trkpt lat="48.85059" lon="-0.38145">
        <ele>62.896626</ele>
        <time>2016-06-10T13:42:58Z</time>
      </trkpt>
      <trkpt lat="48.85055" lon="-0.38148">
        <ele>62.896626</ele>
        <time>2016-06-10T13:43:03Z</time>
      </trkpt>
      <trkpt lat="48.85048" lon="-0.38153">
        <ele>61.81871</ele>
        <time>2016-06-10T13:43:08Z</time>
      </trkpt>
      <trkpt lat="48.85044" lon="-0.38152">
        <ele>61.81871</ele>
        <time>2016-06-10T13:43:13Z</time>
      </trkpt>
      <trkpt lat="48.85039" lon="-0.38153">
        <ele>61.81871</ele>
        <time>2016-06-10T13:43:18Z</time>
      </trkpt>
      <trkpt lat="48.85029" lon="-0.38153">
        <ele>60.344482</ele>
        <time>2016-06-10T13:43:28Z</time>
      </trkpt>
      <trkpt lat="48.85024" lon="-0.38156">
        <ele>60.344482</ele>
        <time>2016-06-10T13:43:33Z</time>
      </trkpt>
      <trkpt lat="48.85018" lon="-0.38158">
        <ele>58.824726</ele>
        <time>2016-06-10T13:43:43Z</time>
      </trkpt>
      <trkpt lat="48.85015" lon="-0.38158">
        <ele>58.824726</ele>
        <time>2016-06-10T13:43:48Z</time>
      </trkpt>
      <trkpt lat="48.85007" lon="-0.3816">
        <ele>57.944733</ele>
        <time>2016-06-10T13:43:58Z</time>
      </trkpt>
      <trkpt lat="48.85003" lon="-0.38157">
        <ele>57.944733</ele>
        <time>2016-06-10T13:44:03Z</time>
      </trkpt>
      <trkpt lat="48.84998" lon="-0.38154">
        <ele>56.59376</ele>
        <time>2016-06-10T13:44:13Z</time>
      </trkpt>
      <trkpt lat="48.84994" lon="-0.38148">
        <ele>56.59376</ele>
        <time>2016-06-10T13:44:18Z</time>
      </trkpt>
      <trkpt lat="48.84986" lon="-0.38136">
        <ele>55.819054</ele>
        <time>2016-06-10T13:44:28Z</time>
      </trkpt>
      <trkpt lat="48.84982" lon="-0.3813">
        <ele>55.819054</ele>
        <time>2016-06-10T13:44:33Z</time>
      </trkpt>
      <trkpt lat="48.84974" lon="-0.3812">
        <ele>55.148052</ele>
        <time>2016-06-10T13:44:43Z</time>
      </trkpt>
      <trkpt lat="48.8497" lon="-0.38114">
        <ele>55.148052</ele>
        <time>2016-06-10T13:44:48Z</time>
      </trkpt>
      <trkpt lat="48.8496" lon="-0.38101">
        <ele>54.661293</ele>
        <time>2016-06-10T13:44:58Z</time>
      </trkpt>
      <trkpt lat="48.84954" lon="-0.38096">
        <ele>54.661293</ele>
        <time>2016-06-10T13:45:03Z</time>
      </trkpt>
      <trkpt lat="48.84942" lon="-0.38079">
        <ele>54.821842</ele>
        <time>2016-06-10T13:45:18Z</time>
      </trkpt>
      <trkpt lat="48.84938" lon="-0.38074">
        <ele>54.821842</ele>
        <time>2016-06-10T13:45:23Z</time>
      </trkpt>
      <trkpt lat="48.84928" lon="-0.38062">
        <ele>55.48037</ele>
        <time>2016-06-10T13:45:33Z</time>
      </trkpt>
      <trkpt lat="48.84924" lon="-0.38056">
        <ele>55.48037</ele>
        <time>2016-06-10T13:45:38Z</time>
      </trkpt>
      <trkpt lat="48.84921" lon="-0.38053">
        <ele>55.48037</ele>
        <time>2016-06-10T13:45:48Z</time>
      </trkpt>
      <trkpt lat="48.84921" lon="-0.38054">
        <ele>55.531464</ele>
        <time>2016-06-10T13:45:53Z</time>
      </trkpt>
      <trkpt lat="48.84915" lon="-0.38047">
        <ele>55.531464</ele>
        <time>2016-06-10T13:46:03Z</time>
      </trkpt>
      <trkpt lat="48.84911" lon="-0.38042">
        <ele>55.55216</ele>
        <time>2016-06-10T13:46:08Z</time>
      </trkpt>
      <trkpt lat="48.84903" lon="-0.38029">
        <ele>55.80328</ele>
        <time>2016-06-10T13:46:18Z</time>
      </trkpt>
      <trkpt lat="48.84898" lon="-0.38022">
        <ele>55.80328</ele>
        <time>2016-06-10T13:46:23Z</time>
      </trkpt>
      <trkpt lat="48.8489" lon="-0.3801">
        <ele>56.23755</ele>
        <time>2016-06-10T13:46:33Z</time>
      </trkpt>
      <trkpt lat="48.84885" lon="-0.38002">
        <ele>56.23755</ele>
        <time>2016-06-10T13:46:38Z</time>
      </trkpt>
      <trkpt lat="48.84872" lon="-0.37984">
        <ele>56.810585</ele>
        <time>2016-06-10T13:46:53Z</time>
      </trkpt>
      <trkpt lat="48.84868" lon="-0.37978">
        <ele>56.810585</ele>
        <time>2016-06-10T13:46:58Z</time>
      </trkpt>
      <trkpt lat="48.84859" lon="-0.37966">
        <ele>57.091717</ele>
        <time>2016-06-10T13:47:08Z</time>
      </trkpt>
      <trkpt lat="48.84854" lon="-0.37959">
        <ele>57.091717</ele>
        <time>2016-06-10T13:47:13Z</time>
      </trkpt>
      <trkpt lat="48.84845" lon="-0.37947">
        <ele>57.518528</ele>
        <time>2016-06-10T13:47:23Z</time>
      </trkpt>
      <trkpt lat="48.8484" lon="-0.37941">
        <ele>57.518528</ele>
        <time>2016-06-10T13:47:28Z</time>
      </trkpt>
      <trkpt lat="48.8483" lon="-0.37927">
        <ele>57.73223</ele>
        <time>2016-06-10T13:47:38Z</time>
      </trkpt>
      <trkpt lat="48.84826" lon="-0.37921">
        <ele>57.73223</ele>
        <time>2016-06-10T13:47:43Z</time>
      </trkpt>
      <trkpt lat="48.84817" lon="-0.37908">
        <ele>57.573895</ele>
        <time>2016-06-10T13:47:53Z</time>
      </trkpt>
      <trkpt lat="48.84812" lon="-0.37902">
        <ele>57.573895</ele>
        <time>2016-06-10T13:47:58Z</time>
      </trkpt>
      <trkpt lat="48.84802" lon="-0.37889">
        <ele>57.358437</ele>
        <time>2016-06-10T13:48:08Z</time>
      </trkpt>
      <trkpt lat="48.84797" lon="-0.37883">
        <ele>57.358437</ele>
        <time>2016-06-10T13:48:13Z</time>
      </trkpt>
      <trkpt lat="48.84783" lon="-0.37863">
        <ele>56.93105</ele>
        <time>2016-06-10T13:48:28Z</time>
      </trkpt>
      <trkpt lat="48.84779" lon="-0.37856">
        <ele>56.93105</ele>
        <time>2016-06-10T13:48:33Z</time>
      </trkpt>
      <trkpt lat="48.84769" lon="-0.37841">
        <ele>56.826195</ele>
        <time>2016-06-10T13:48:43Z</time>
      </trkpt>
      <trkpt lat="48.84763" lon="-0.37834">
        <ele>56.826195</ele>
        <time>2016-06-10T13:48:48Z</time>
      </trkpt>
      <trkpt lat="48.84753" lon="-0.37816">
        <ele>57.394047</ele>
        <time>2016-06-10T13:48:58Z</time>
      </trkpt>
      <trkpt lat="48.84748" lon="-0.37811">
        <ele>57.394047</ele>
        <time>2016-06-10T13:49:03Z</time>
      </trkpt>
      <trkpt lat="48.84742" lon="-0.378">
        <ele>57.069313</ele>
        <time>2016-06-10T13:49:13Z</time>
      </trkpt>
      <trkpt lat="48.84738" lon="-0.37792">
        <ele>57.069313</ele>
        <time>2016-06-10T13:49:18Z</time>
      </trkpt>
      <trkpt lat="48.8473" lon="-0.37781">
        <ele>56.43615</ele>
        <time>2016-06-10T13:49:28Z</time>
      </trkpt>
      <trkpt lat="48.84726" lon="-0.37776">
        <ele>56.43615</ele>
        <time>2016-06-10T13:49:33Z</time>
      </trkpt>
      <trkpt lat="48.84721" lon="-0.37768">
        <ele>55.89255</ele>
        <time>2016-06-10T13:49:38Z</time>
      </trkpt>
      <trkpt lat="48.84716" lon="-0.37759">
        <ele>55.89255</ele>
        <time>2016-06-10T13:49:43Z</time>
      </trkpt>
      <trkpt lat="48.84712" lon="-0.37752">
        <ele>55.83585</ele>
        <time>2016-06-10T13:49:48Z</time>
      </trkpt>
      <trkpt lat="48.84707" lon="-0.37741">
        <ele>55.83585</ele>
        <time>2016-06-10T13:49:53Z</time>
      </trkpt>
      <trkpt lat="48.84699" lon="-0.3772">
        <ele>54.874664</ele>
        <time>2016-06-10T13:50:08Z</time>
      </trkpt>
      <trkpt lat="48.84695" lon="-0.37712">
        <ele>54.874664</ele>
        <time>2016-06-10T13:50:13Z</time>
      </trkpt>
      <trkpt lat="48.84687" lon="-0.37694">
        <ele>54.24431</ele>
        <time>2016-06-10T13:50:23Z</time>
      </trkpt>
      <trkpt lat="48.84684" lon="-0.37685">
        <ele>54.24431</ele>
        <time>2016-06-10T13:50:28Z</time>
      </trkpt>
      <trkpt lat="48.84679" lon="-0.37669">
        <ele>53.690536</ele>
        <time>2016-06-10T13:50:38Z</time>
      </trkpt>
      <trkpt lat="48.84675" lon="-0.3766">
        <ele>53.690536</ele>
        <time>2016-06-10T13:50:43Z</time>
      </trkpt>
      <trkpt lat="48.84667" lon="-0.37643">
        <ele>53.626064</ele>
        <time>2016-06-10T13:50:53Z</time>
      </trkpt>
      <trkpt lat="48.84665" lon="-0.37635">
        <ele>53.626064</ele>
        <time>2016-06-10T13:50:58Z</time>
      </trkpt>
      <trkpt lat="48.84659" lon="-0.3762">
        <ele>53.2502</ele>
        <time>2016-06-10T13:51:08Z</time>
      </trkpt>
      <trkpt lat="48.84657" lon="-0.37612">
        <ele>53.2502</ele>
        <time>2016-06-10T13:51:13Z</time>
      </trkpt>
      <trkpt lat="48.84652" lon="-0.37595">
        <ele>52.83071</ele>
        <time>2016-06-10T13:51:23Z</time>
      </trkpt>
      <trkpt lat="48.84649" lon="-0.37584">
        <ele>52.83071</ele>
        <time>2016-06-10T13:51:28Z</time>
      </trkpt>
      <trkpt lat="48.84644" lon="-0.37566">
        <ele>52.414074</ele>
        <time>2016-06-10T13:51:38Z</time>
      </trkpt>
      <trkpt lat="48.84641" lon="-0.37556">
        <ele>52.414074</ele>
        <time>2016-06-10T13:51:43Z</time>
      </trkpt>
      <trkpt lat="48.84634" lon="-0.37534">
        <ele>51.55335</ele>
        <time>2016-06-10T13:51:58Z</time>
      </trkpt>
      <trkpt lat="48.84632" lon="-0.37524">
        <ele>51.55335</ele>
        <time>2016-06-10T13:52:03Z</time>
      </trkpt>
      <trkpt lat="48.84629" lon="-0.375">
        <ele>51.680298</ele>
        <time>2016-06-10T13:52:13Z</time>
      </trkpt>
      <trkpt lat="48.84629" lon="-0.3749">
        <ele>51.680298</ele>
        <time>2016-06-10T13:52:18Z</time>
      </trkpt>
      <trkpt lat="48.84629" lon="-0.37468">
        <ele>52.14441</ele>
        <time>2016-06-10T13:52:28Z</time>
      </trkpt>
      <trkpt lat="48.84629" lon="-0.37456">
        <ele>52.14441</ele>
        <time>2016-06-10T13:52:33Z</time>
      </trkpt>
      <trkpt lat="48.84629" lon="-0.37438">
        <ele>52.904057</ele>
        <time>2016-06-10T13:52:43Z</time>
      </trkpt>
      <trkpt lat="48.8463" lon="-0.37429">
        <ele>52.904057</ele>
        <time>2016-06-10T13:52:48Z</time>
      </trkpt>
      <trkpt lat="48.84632" lon="-0.37411">
        <ele>53.718086</ele>
        <time>2016-06-10T13:52:58Z</time>
      </trkpt>
      <trkpt lat="48.84632" lon="-0.37402">
        <ele>53.718086</ele>
        <time>2016-06-10T13:53:03Z</time>
      </trkpt>
      <trkpt lat="48.84633" lon="-0.37378">
        <ele>54.83849</ele>
        <time>2016-06-10T13:53:13Z</time>
      </trkpt>
      <trkpt lat="48.84634" lon="-0.37369">
        <ele>54.83849</ele>
        <time>2016-06-10T13:53:18Z</time>
      </trkpt>
      <trkpt lat="48.84634" lon="-0.37359">
        <ele>55.777367</ele>
        <time>2016-06-10T13:53:23Z</time>
      </trkpt>
      <trkpt lat="48.84636" lon="-0.37349">
        <ele>55.777367</ele>
        <time>2016-06-10T13:53:28Z</time>
      </trkpt>
      <trkpt lat="48.84637" lon="-0.37341">
        <ele>56.630814</ele>
        <time>2016-06-10T13:53:33Z</time>
      </trkpt>
      <trkpt lat="48.8464" lon="-0.3732">
        <ele>57.300816</ele>
        <time>2016-06-10T13:53:44Z</time>
      </trkpt>
      <trkpt lat="48.84641" lon="-0.37308">
        <ele>57.300816</ele>
        <time>2016-06-10T13:53:48Z</time>
      </trkpt>
      <trkpt lat="48.84644" lon="-0.37292">
        <ele>58.129444</ele>
        <time>2016-06-10T13:53:58Z</time>
      </trkpt>
      <trkpt lat="48.84646" lon="-0.37283">
        <ele>58.129444</ele>
        <time>2016-06-10T13:54:03Z</time>
      </trkpt>
      <trkpt lat="48.84649" lon="-0.37265">
        <ele>58.94329</ele>
        <time>2016-06-10T13:54:13Z</time>
      </trkpt>
      <trkpt lat="48.8465" lon="-0.37257">
        <ele>58.94329</ele>
        <time>2016-06-10T13:54:18Z</time>
      </trkpt>
      <trkpt lat="48.84652" lon="-0.3724">
        <ele>59.32238</ele>
        <time>2016-06-10T13:54:28Z</time>
      </trkpt>
      <trkpt lat="48.84655" lon="-0.37232">
        <ele>59.32238</ele>
        <time>2016-06-10T13:54:33Z</time>
      </trkpt>
      <trkpt lat="48.8466" lon="-0.37215">
        <ele>59.412075</ele>
        <time>2016-06-10T13:54:43Z</time>
      </trkpt>
      <trkpt lat="48.84661" lon="-0.37204">
        <ele>59.412075</ele>
        <time>2016-06-10T13:54:48Z</time>
      </trkpt>
      <trkpt lat="48.84667" lon="-0.37188">
        <ele>59.780285</ele>
        <time>2016-06-10T13:54:58Z</time>
      </trkpt>
      <trkpt lat="48.84671" lon="-0.37181">
        <ele>59.780285</ele>
        <time>2016-06-10T13:55:03Z</time>
      </trkpt>
      <trkpt lat="48.84678" lon="-0.37168">
        <ele>59.9437</ele>
        <time>2016-06-10T13:55:13Z</time>
      </trkpt>
      <trkpt lat="48.84681" lon="-0.3716">
        <ele>59.9437</ele>
        <time>2016-06-10T13:55:18Z</time>
      </trkpt>
      <trkpt lat="48.84686" lon="-0.37136">
        <ele>60.204525</ele>
        <time>2016-06-10T13:55:33Z</time>
      </trkpt>
      <trkpt lat="48.84689" lon="-0.37128">
        <ele>60.204525</ele>
        <time>2016-06-10T13:55:38Z</time>
      </trkpt>
      <trkpt lat="48.84693" lon="-0.37111">
        <ele>60.95786</ele>
        <time>2016-06-10T13:55:48Z</time>
      </trkpt>
      <trkpt lat="48.84696" lon="-0.37102">
        <ele>60.95786</ele>
        <time>2016-06-10T13:55:53Z</time>
      </trkpt>
      <trkpt lat="48.84707" lon="-0.37087">
        <ele>61.357914</ele>
        <time>2016-06-10T13:56:03Z</time>
      </trkpt>
      <trkpt lat="48.84709" lon="-0.37077">
        <ele>61.357914</ele>
        <time>2016-06-10T13:56:08Z</time>
      </trkpt>
      <trkpt lat="48.84713" lon="-0.37074">
        <ele>61.933506</ele>
        <time>2016-06-10T13:56:13Z</time>
      </trkpt>
      <trkpt lat="48.84717" lon="-0.37065">
        <ele>61.933506</ele>
        <time>2016-06-10T13:56:18Z</time>
      </trkpt>
      <trkpt lat="48.84725" lon="-0.3705">
        <ele>62.021286</ele>
        <time>2016-06-10T13:56:28Z</time>
      </trkpt>
      <trkpt lat="48.84726" lon="-0.37041">
        <ele>62.021286</ele>
        <time>2016-06-10T13:56:33Z</time>
      </trkpt>
      <trkpt lat="48.8473" lon="-0.37025">
        <ele>62.290657</ele>
        <time>2016-06-10T13:56:43Z</time>
      </trkpt>
      <trkpt lat="48.84732" lon="-0.37016">
        <ele>62.290657</ele>
        <time>2016-06-10T13:56:48Z</time>
      </trkpt>
      <trkpt lat="48.84736" lon="-0.36994">
        <ele>62.36703</ele>
        <time>2016-06-10T13:56:58Z</time>
      </trkpt>
      <trkpt lat="48.84738" lon="-0.36986">
        <ele>62.36703</ele>
        <time>2016-06-10T13:57:03Z</time>
      </trkpt>
      <trkpt lat="48.84744" lon="-0.36956">
        <ele>63.200943</ele>
        <time>2016-06-10T13:57:18Z</time>
      </trkpt>
      <trkpt lat="48.84749" lon="-0.36946">
        <ele>63.200943</ele>
        <time>2016-06-10T13:57:23Z</time>
      </trkpt>
      <trkpt lat="48.84755" lon="-0.36931">
        <ele>64.17228</ele>
        <time>2016-06-10T13:57:33Z</time>
      </trkpt>
      <trkpt lat="48.84757" lon="-0.36924">
        <ele>64.17228</ele>
        <time>2016-06-10T13:57:38Z</time>
      </trkpt>
      <trkpt lat="48.84764" lon="-0.36914">
        <ele>63.510033</ele>
        <time>2016-06-10T13:57:48Z</time>
      </trkpt>
      <trkpt lat="48.8477" lon="-0.36908">
        <ele>63.510033</ele>
        <time>2016-06-10T13:57:53Z</time>
      </trkpt>
      <trkpt lat="48.84774" lon="-0.36891">
        <ele>62.71956</ele>
        <time>2016-06-10T13:58:03Z</time>
      </trkpt>
      <trkpt lat="48.84774" lon="-0.36878">
        <ele>62.71956</ele>
        <time>2016-06-10T13:58:08Z</time>
      </trkpt>
      <trkpt lat="48.84781" lon="-0.36855">
        <ele>62.893394</ele>
        <time>2016-06-10T13:58:18Z</time>
      </trkpt>
      <trkpt lat="48.84785" lon="-0.36847">
        <ele>62.893394</ele>
        <time>2016-06-10T13:58:23Z</time>
      </trkpt>
      <trkpt lat="48.84793" lon="-0.3683">
        <ele>62.706577</ele>
        <time>2016-06-10T13:58:33Z</time>
      </trkpt>
      <trkpt lat="48.84798" lon="-0.36819">
        <ele>62.706577</ele>
        <time>2016-06-10T13:58:38Z</time>
      </trkpt>
      <trkpt lat="48.84802" lon="-0.368">
        <ele>62.61862</ele>
        <time>2016-06-10T13:58:48Z</time>
      </trkpt>
      <trkpt lat="48.84803" lon="-0.36791">
        <ele>62.61862</ele>
        <time>2016-06-10T13:58:53Z</time>
      </trkpt>
      <trkpt lat="48.84812" lon="-0.36767">
        <ele>62.363304</ele>
        <time>2016-06-10T13:59:08Z</time>
      </trkpt>
      <trkpt lat="48.84817" lon="-0.3676">
        <ele>62.363304</ele>
        <time>2016-06-10T13:59:13Z</time>
      </trkpt>
      <trkpt lat="48.84823" lon="-0.36746">
        <ele>62.256504</ele>
        <time>2016-06-10T13:59:23Z</time>
      </trkpt>
      <trkpt lat="48.84825" lon="-0.36737">
        <ele>62.256504</ele>
        <time>2016-06-10T13:59:28Z</time>
      </trkpt>
      <trkpt lat="48.84835" lon="-0.36717">
        <ele>62.02846</ele>
        <time>2016-06-10T13:59:38Z</time>
      </trkpt>
      <trkpt lat="48.84838" lon="-0.36709">
        <ele>62.02846</ele>
        <time>2016-06-10T13:59:43Z</time>
      </trkpt>
      <trkpt lat="48.84844" lon="-0.36692">
        <ele>62.04928</ele>
        <time>2016-06-10T13:59:53Z</time>
      </trkpt>
      <trkpt lat="48.84848" lon="-0.36686">
        <ele>62.04928</ele>
        <time>2016-06-10T13:59:58Z</time>
      </trkpt>
      <trkpt lat="48.84855" lon="-0.3667">
        <ele>61.810936</ele>
        <time>2016-06-10T14:00:08Z</time>
      </trkpt>
      <trkpt lat="48.84859" lon="-0.36661">
        <ele>61.810936</ele>
        <time>2016-06-10T14:00:13Z</time>
      </trkpt>
      <trkpt lat="48.84865" lon="-0.36645">
        <ele>61.477554</ele>
        <time>2016-06-10T14:00:23Z</time>
      </trkpt>
      <trkpt lat="48.84868" lon="-0.36639">
        <ele>61.477554</ele>
        <time>2016-06-10T14:00:28Z</time>
      </trkpt>
      <trkpt lat="48.84875" lon="-0.36622">
        <ele>60.92768</ele>
        <time>2016-06-10T14:00:38Z</time>
      </trkpt>
      <trkpt lat="48.84879" lon="-0.36615">
        <ele>60.92768</ele>
        <time>2016-06-10T14:00:43Z</time>
      </trkpt>
      <trkpt lat="48.84886" lon="-0.3661">
        <ele>60.29437</ele>
        <time>2016-06-10T14:00:48Z</time>
      </trkpt>
      <trkpt lat="48.84899" lon="-0.36607">
        <ele>59.67232</ele>
        <time>2016-06-10T14:00:53Z</time>
      </trkpt>
      <trkpt lat="48.84899" lon="-0.36604">
        <ele>59.67232</ele>
        <time>2016-06-10T14:00:58Z</time>
      </trkpt>
      <trkpt lat="48.84905" lon="-0.36601">
        <ele>59.59599</ele>
        <time>2016-06-10T14:01:03Z</time>
      </trkpt>
      <trkpt lat="48.84908" lon="-0.36597">
        <ele>59.59599</ele>
        <time>2016-06-10T14:01:08Z</time>
      </trkpt>
      <trkpt lat="48.8491" lon="-0.36592">
        <ele>59.59599</ele>
        <time>2016-06-10T14:01:13Z</time>
      </trkpt>
      <trkpt lat="48.8491" lon="-0.3659">
        <ele>59.59599</ele>
        <time>2016-06-10T14:01:23Z</time>
      </trkpt>
      <trkpt lat="48.8491" lon="-0.3659">
        <ele>59.59599</ele>
        <time>2016-06-10T14:01:28Z</time>
      </trkpt>
      <trkpt lat="48.8491" lon="-0.3659">
        <ele>59.6223</ele>
        <time>2016-06-10T14:01:38Z</time>
      </trkpt>
      <trkpt lat="48.8491" lon="-0.3659">
        <ele>59.6223</ele>
        <time>2016-06-10T14:01:43Z</time>
      </trkpt>
      <trkpt lat="48.8491" lon="-0.3659">
        <ele>59.6223</ele>
        <time>2016-06-10T14:01:53Z</time>
      </trkpt>
      <trkpt lat="48.8491" lon="-0.3659">
        <ele>59.6223</ele>
        <time>2016-06-10T14:01:58Z</time>
      </trkpt>
      <trkpt lat="48.8491" lon="-0.3659">
        <ele>59.6223</ele>
        <time>2016-06-10T14:02:08Z</time>
      </trkpt>
      <trkpt lat="48.8491" lon="-0.3659">
        <ele>59.6223</ele>
        <time>2016-06-10T14:02:13Z</time>
      </trkpt>
      <trkpt lat="48.8491" lon="-0.36588">
        <ele>59.6223</ele>
        <time>2016-06-10T14:02:23Z</time>
      </trkpt>
      <trkpt lat="48.84911" lon="-0.36583">
        <ele>59.6223</ele>
        <time>2016-06-10T14:02:28Z</time>
      </trkpt>
      <trkpt lat="48.84913" lon="-0.36578">
        <ele>59.6223</ele>
        <time>2016-06-10T14:02:38Z</time>
      </trkpt>
      <trkpt lat="48.84911" lon="-0.36579">
        <ele>59.369255</ele>
        <time>2016-06-10T14:02:43Z</time>
      </trkpt>
      <trkpt lat="48.84909" lon="-0.36573">
        <ele>59.369255</ele>
        <time>2016-06-10T14:02:53Z</time>
      </trkpt>
      <trkpt lat="48.84911" lon="-0.36567">
        <ele>59.24747</ele>
        <time>2016-06-10T14:02:58Z</time>
      </trkpt>
      <trkpt lat="48.84909" lon="-0.36554">
        <ele>59.24747</ele>
        <time>2016-06-10T14:03:08Z</time>
      </trkpt>
      <trkpt lat="48.8491" lon="-0.36547">
        <ele>59.435265</ele>
        <time>2016-06-10T14:03:13Z</time>
      </trkpt>
      <trkpt lat="48.84912" lon="-0.36543">
        <ele>59.435265</ele>
        <time>2016-06-10T14:03:18Z</time>
      </trkpt>
      <trkpt lat="48.8491" lon="-0.36544">
        <ele>59.435265</ele>
        <time>2016-06-10T14:03:23Z</time>
      </trkpt>
      <trkpt lat="48.84909" lon="-0.36545">
        <ele>59.435265</ele>
        <time>2016-06-10T14:03:33Z</time>
      </trkpt>
      <trkpt lat="48.84909" lon="-0.36547">
        <ele>59.435265</ele>
        <time>2016-06-10T14:03:38Z</time>
      </trkpt>
      <trkpt lat="48.8491" lon="-0.36547">
        <ele>59.435265</ele>
        <time>2016-06-10T14:03:53Z</time>
      </trkpt>
      <trkpt lat="48.8491" lon="-0.36545">
        <ele>59.435265</ele>
        <time>2016-06-10T14:03:58Z</time>
      </trkpt>
      <trkpt lat="48.84913" lon="-0.36541">
        <ele>59.707882</ele>
        <time>2016-06-10T14:04:08Z</time>
      </trkpt>
      <trkpt lat="48.84914" lon="-0.36533">
        <ele>59.707882</ele>
        <time>2016-06-10T14:04:13Z</time>
      </trkpt>
      <trkpt lat="48.84919" lon="-0.3652">
        <ele>59.842407</ele>
        <time>2016-06-10T14:04:23Z</time>
      </trkpt>
      <trkpt lat="48.84922" lon="-0.36512">
        <ele>59.842407</ele>
        <time>2016-06-10T14:04:28Z</time>
      </trkpt>
      <trkpt lat="48.84925" lon="-0.36496">
        <ele>59.43092</ele>
        <time>2016-06-10T14:04:38Z</time>
      </trkpt>
      <trkpt lat="48.84926" lon="-0.36487">
        <ele>59.43092</ele>
        <time>2016-06-10T14:04:43Z</time>
      </trkpt>
      <trkpt lat="48.84928" lon="-0.36478">
        <ele>59.062534</ele>
        <time>2016-06-10T14:04:48Z</time>
      </trkpt>
      <trkpt lat="48.8493" lon="-0.36468">
        <ele>59.062534</ele>
        <time>2016-06-10T14:04:53Z</time>
      </trkpt>
      <trkpt lat="48.84934" lon="-0.36458">
        <ele>59.023552</ele>
        <time>2016-06-10T14:04:58Z</time>
      </trkpt>
      <trkpt lat="48.84936" lon="-0.3645">
        <ele>59.023552</ele>
        <time>2016-06-10T14:05:03Z</time>
      </trkpt>
      <trkpt lat="48.84939" lon="-0.36442">
        <ele>59.145977</ele>
        <time>2016-06-10T14:05:08Z</time>
      </trkpt>
      <trkpt lat="48.8494" lon="-0.36438">
        <ele>59.145977</ele>
        <time>2016-06-10T14:05:13Z</time>
      </trkpt>
      <trkpt lat="48.84941" lon="-0.36439">
        <ele>59.145977</ele>
        <time>2016-06-10T14:05:23Z</time>
      </trkpt>
      <trkpt lat="48.84941" lon="-0.3644">
        <ele>59.145977</ele>
        <time>2016-06-10T14:05:28Z</time>
      </trkpt>
      <trkpt lat="48.84941" lon="-0.36439">
        <ele>59.145977</ele>
        <time>2016-06-10T14:05:38Z</time>
      </trkpt>
      <trkpt lat="48.84943" lon="-0.36434">
        <ele>59.145977</ele>
        <time>2016-06-10T14:05:43Z</time>
      </trkpt>
      <trkpt lat="48.84947" lon="-0.36418">
        <ele>59.129566</ele>
        <time>2016-06-10T14:05:53Z</time>
      </trkpt>
      <trkpt lat="48.84952" lon="-0.36409">
        <ele>59.129566</ele>
        <time>2016-06-10T14:05:58Z</time>
      </trkpt>
      <trkpt lat="48.84956" lon="-0.3639">
        <ele>59.244137</ele>
        <time>2016-06-10T14:06:08Z</time>
      </trkpt>
      <trkpt lat="48.84959" lon="-0.36382">
        <ele>59.244137</ele>
        <time>2016-06-10T14:06:13Z</time>
      </trkpt>
      <trkpt lat="48.84966" lon="-0.36365">
        <ele>59.436676</ele>
        <time>2016-06-10T14:06:23Z</time>
      </trkpt>
      <trkpt lat="48.84969" lon="-0.36356">
        <ele>59.436676</ele>
        <time>2016-06-10T14:06:28Z</time>
      </trkpt>
      <trkpt lat="48.84978" lon="-0.3633">
        <ele>59.902813</ele>
        <time>2016-06-10T14:06:43Z</time>
      </trkpt>
      <trkpt lat="48.84981" lon="-0.36321">
        <ele>59.902813</ele>
        <time>2016-06-10T14:06:48Z</time>
      </trkpt>
      <trkpt lat="48.84984" lon="-0.36312">
        <ele>60.433945</ele>
        <time>2016-06-10T14:06:53Z</time>
      </trkpt>
      <trkpt lat="48.84987" lon="-0.36304">
        <ele>60.433945</ele>
        <time>2016-06-10T14:06:58Z</time>
      </trkpt>
      <trkpt lat="48.84988" lon="-0.36297">
        <ele>60.663654</ele>
        <time>2016-06-10T14:07:03Z</time>
      </trkpt>
      <trkpt lat="48.84992" lon="-0.36288">
        <ele>60.663654</ele>
        <time>2016-06-10T14:07:08Z</time>
      </trkpt>
      <trkpt lat="48.84993" lon="-0.36281">
        <ele>61.132378</ele>
        <time>2016-06-10T14:07:13Z</time>
      </trkpt>
      <trkpt lat="48.84996" lon="-0.36265">
        <ele>61.922253</ele>
        <time>2016-06-10T14:07:23Z</time>
      </trkpt>
      <trkpt lat="48.84997" lon="-0.36257">
        <ele>61.922253</ele>
        <time>2016-06-10T14:07:28Z</time>
      </trkpt>
      <trkpt lat="48.85003" lon="-0.36242">
        <ele>62.24382</ele>
        <time>2016-06-10T14:07:38Z</time>
      </trkpt>
      <trkpt lat="48.85006" lon="-0.36234">
        <ele>62.24382</ele>
        <time>2016-06-10T14:07:43Z</time>
      </trkpt>
      <trkpt lat="48.85008" lon="-0.36226">
        <ele>62.77923</ele>
        <time>2016-06-10T14:07:53Z</time>
      </trkpt>
      <trkpt lat="48.85007" lon="-0.36226">
        <ele>62.77923</ele>
        <time>2016-06-10T14:07:58Z</time>
      </trkpt>
      <trkpt lat="48.85006" lon="-0.36224">
        <ele>62.77923</ele>
        <time>2016-06-10T14:08:08Z</time>
      </trkpt>
      <trkpt lat="48.85004" lon="-0.36224">
        <ele>62.77923</ele>
        <time>2016-06-10T14:08:13Z</time>
      </trkpt>
      <trkpt lat="48.85005" lon="-0.36225">
        <ele>62.77923</ele>
        <time>2016-06-10T14:08:23Z</time>
      </trkpt>
      <trkpt lat="48.85005" lon="-0.36225">
        <ele>62.77923</ele>
        <time>2016-06-10T14:08:28Z</time>
      </trkpt>
      <trkpt lat="48.85005" lon="-0.36225">
        <ele>62.77923</ele>
        <time>2016-06-10T14:08:38Z</time>
      </trkpt>
      <trkpt lat="48.85005" lon="-0.36225">
        <ele>62.77923</ele>
        <time>2016-06-10T14:08:43Z</time>
      </trkpt>
      <trkpt lat="48.85005" lon="-0.36225">
        <ele>62.77923</ele>
        <time>2016-06-10T14:08:58Z</time>
      </trkpt>
      <trkpt lat="48.85005" lon="-0.36225">
        <ele>62.77923</ele>
        <time>2016-06-10T14:09:03Z</time>
      </trkpt>
      <trkpt lat="48.85005" lon="-0.36225">
        <ele>62.77923</ele>
        <time>2016-06-10T14:09:13Z</time>
      </trkpt>
      <trkpt lat="48.85005" lon="-0.36225">
        <ele>62.77923</ele>
        <time>2016-06-10T14:09:18Z</time>
      </trkpt>
      <trkpt lat="48.85006" lon="-0.36225">
        <ele>62.77923</ele>
        <time>2016-06-10T14:09:28Z</time>
      </trkpt>
      <trkpt lat="48.85007" lon="-0.36226">
        <ele>62.77923</ele>
        <time>2016-06-10T14:09:33Z</time>
      </trkpt>
      <trkpt lat="48.85006" lon="-0.36226">
        <ele>62.77923</ele>
        <time>2016-06-10T14:09:43Z</time>
      </trkpt>
      <trkpt lat="48.85006" lon="-0.36226">
        <ele>62.77923</ele>
        <time>2016-06-10T14:09:48Z</time>
      </trkpt>
      <trkpt lat="48.85006" lon="-0.36226">
        <ele>62.77923</ele>
        <time>2016-06-10T14:09:58Z</time>
      </trkpt>
      <trkpt lat="48.85006" lon="-0.36226">
        <ele>62.77923</ele>
        <time>2016-06-10T14:10:03Z</time>
      </trkpt>
      <trkpt lat="48.85006" lon="-0.36226">
        <ele>62.77923</ele>
        <time>2016-06-10T14:10:13Z</time>
      </trkpt>
      <trkpt lat="48.85006" lon="-0.36225">
        <ele>62.77923</ele>
        <time>2016-06-10T14:10:18Z</time>
      </trkpt>
      <trkpt lat="48.85006" lon="-0.36225">
        <ele>62.77923</ele>
        <time>2016-06-10T14:10:23Z</time>
      </trkpt>
      <trkpt lat="48.85006" lon="-0.36225">
        <ele>62.77923</ele>
        <time>2016-06-10T14:10:28Z</time>
      </trkpt>
      <trkpt lat="48.85006" lon="-0.36225">
        <ele>62.77923</ele>
        <time>2016-06-10T14:10:33Z</time>
      </trkpt>
      <trkpt lat="48.8501" lon="-0.36219">
        <ele>63.597897</ele>
        <time>2016-06-10T14:10:38Z</time>
      </trkpt>
      <trkpt lat="48.85011" lon="-0.36213">
        <ele>63.597897</ele>
        <time>2016-06-10T14:10:48Z</time>
      </trkpt>
      <trkpt lat="48.85012" lon="-0.36211">
        <ele>63.597897</ele>
        <time>2016-06-10T14:10:53Z</time>
      </trkpt>
      <trkpt lat="48.8501" lon="-0.36203">
        <ele>64.734535</ele>
        <time>2016-06-10T14:11:03Z</time>
      </trkpt>
      <trkpt lat="48.8501" lon="-0.36202">
        <ele>64.734535</ele>
        <time>2016-06-10T14:11:08Z</time>
      </trkpt>
      <trkpt lat="48.85005" lon="-0.362">
        <ele>64.734535</ele>
        <time>2016-06-10T14:11:18Z</time>
      </trkpt>
      <trkpt lat="48.85003" lon="-0.36199">
        <ele>64.734535</ele>
        <time>2016-06-10T14:11:23Z</time>
      </trkpt>
      <trkpt lat="48.85002" lon="-0.36197">
        <ele>66.13398</ele>
        <time>2016-06-10T14:11:33Z</time>
      </trkpt>
      <trkpt lat="48.85" lon="-0.36197">
        <ele>66.13398</ele>
        <time>2016-06-10T14:11:38Z</time>
      </trkpt>
      <trkpt lat="48.84993" lon="-0.36194">
        <ele>67.67235</ele>
        <time>2016-06-10T14:11:48Z</time>
      </trkpt>
      <trkpt lat="48.84992" lon="-0.36192">
        <ele>67.67235</ele>
        <time>2016-06-10T14:11:53Z</time>
      </trkpt>
      <trkpt lat="48.84985" lon="-0.36185">
        <ele>69.00393</ele>
        <time>2016-06-10T14:12:03Z</time>
      </trkpt>
      <trkpt lat="48.84984" lon="-0.36183">
        <ele>69.00393</ele>
        <time>2016-06-10T14:12:08Z</time>
      </trkpt>
      <trkpt lat="48.8498" lon="-0.3618">
        <ele>69.00393</ele>
        <time>2016-06-10T14:12:18Z</time>
      </trkpt>
      <trkpt lat="48.84978" lon="-0.36178">
        <ele>69.00393</ele>
        <time>2016-06-10T14:12:23Z</time>
      </trkpt>
      <trkpt lat="48.84974" lon="-0.36175">
        <ele>71.250145</ele>
        <time>2016-06-10T14:12:33Z</time>
      </trkpt>
      <trkpt lat="48.84972" lon="-0.36175">
        <ele>71.250145</ele>
        <time>2016-06-10T14:12:38Z</time>
      </trkpt>
      <trkpt lat="48.84965" lon="-0.36175">
        <ele>71.250145</ele>
        <time>2016-06-10T14:12:53Z</time>
      </trkpt>
      <trkpt lat="48.84962" lon="-0.36173">
        <ele>73.61732</ele>
        <time>2016-06-10T14:12:58Z</time>
      </trkpt>
      <trkpt lat="48.84962" lon="-0.36173">
        <ele>73.61732</ele>
        <time>2016-06-10T14:13:08Z</time>
      </trkpt>
      <trkpt lat="48.84962" lon="-0.36173">
        <ele>73.61732</ele>
        <time>2016-06-10T14:13:13Z</time>
      </trkpt>
      <trkpt lat="48.84958" lon="-0.36168">
        <ele>73.61732</ele>
        <time>2016-06-10T14:13:23Z</time>
      </trkpt>
      <trkpt lat="48.84955" lon="-0.36165">
        <ele>75.71567</ele>
        <time>2016-06-10T14:13:28Z</time>
      </trkpt>
      <trkpt lat="48.84946" lon="-0.36158">
        <ele>77.588394</ele>
        <time>2016-06-10T14:13:38Z</time>
      </trkpt>
      <trkpt lat="48.8494" lon="-0.36155">
        <ele>77.588394</ele>
        <time>2016-06-10T14:13:43Z</time>
      </trkpt>
      <trkpt lat="48.84934" lon="-0.36156">
        <ele>79.44917</ele>
        <time>2016-06-10T14:13:53Z</time>
      </trkpt>
      <trkpt lat="48.84934" lon="-0.36156">
        <ele>79.44917</ele>
        <time>2016-06-10T14:13:58Z</time>
      </trkpt>
      <trkpt lat="48.84931" lon="-0.3615">
        <ele>79.44917</ele>
        <time>2016-06-10T14:14:08Z</time>
      </trkpt>
      <trkpt lat="48.84928" lon="-0.3614">
        <ele>80.977325</ele>
        <time>2016-06-10T14:14:13Z</time>
      </trkpt>
      <trkpt lat="48.84922" lon="-0.36119">
        <ele>82.265854</ele>
        <time>2016-06-10T14:14:28Z</time>
      </trkpt>
      <trkpt lat="48.8492" lon="-0.36115">
        <ele>82.265854</ele>
        <time>2016-06-10T14:14:33Z</time>
      </trkpt>
      <trkpt lat="48.84915" lon="-0.36105">
        <ele>83.17112</ele>
        <time>2016-06-10T14:14:43Z</time>
      </trkpt>
      <trkpt lat="48.84912" lon="-0.361">
        <ele>83.17112</ele>
        <time>2016-06-10T14:14:48Z</time>
      </trkpt>
      <trkpt lat="48.84906" lon="-0.36085">
        <ele>83.964745</ele>
        <time>2016-06-10T14:14:58Z</time>
      </trkpt>
      <trkpt lat="48.84904" lon="-0.36075">
        <ele>83.964745</ele>
        <time>2016-06-10T14:15:03Z</time>
      </trkpt>
      <trkpt lat="48.84906" lon="-0.36065">
        <ele>85.33113</ele>
        <time>2016-06-10T14:15:13Z</time>
      </trkpt>
      <trkpt lat="48.84903" lon="-0.36057">
        <ele>85.33113</ele>
        <time>2016-06-10T14:15:18Z</time>
      </trkpt>
      <trkpt lat="48.849" lon="-0.36051">
        <ele>86.519455</ele>
        <time>2016-06-10T14:15:28Z</time>
      </trkpt>
      <trkpt lat="48.849" lon="-0.36051">
        <ele>86.519455</ele>
        <time>2016-06-10T14:15:33Z</time>
      </trkpt>
      <trkpt lat="48.84899" lon="-0.36048">
        <ele>86.519455</ele>
        <time>2016-06-10T14:15:43Z</time>
      </trkpt>
      <trkpt lat="48.84895" lon="-0.36043">
        <ele>86.519455</ele>
        <time>2016-06-10T14:15:48Z</time>
      </trkpt>
      <trkpt lat="48.8489" lon="-0.36034">
        <ele>87.872215</ele>
        <time>2016-06-10T14:15:58Z</time>
      </trkpt>
      <trkpt lat="48.84887" lon="-0.3603">
        <ele>87.872215</ele>
        <time>2016-06-10T14:16:03Z</time>
      </trkpt>
      <trkpt lat="48.84887" lon="-0.36029">
        <ele>87.872215</ele>
        <time>2016-06-10T14:16:13Z</time>
      </trkpt>
      <trkpt lat="48.84884" lon="-0.36021">
        <ele>88.9138</ele>
        <time>2016-06-10T14:16:18Z</time>
      </trkpt>
      <trkpt lat="48.84876" lon="-0.36007">
        <ele>89.91065</ele>
        <time>2016-06-10T14:16:28Z</time>
      </trkpt>
      <trkpt lat="48.84873" lon="-0.35999">
        <ele>89.91065</ele>
        <time>2016-06-10T14:16:33Z</time>
      </trkpt>
      <trkpt lat="48.84867" lon="-0.35987">
        <ele>91.00896</ele>
        <time>2016-06-10T14:16:48Z</time>
      </trkpt>
      <trkpt lat="48.84866" lon="-0.35979">
        <ele>91.00896</ele>
        <time>2016-06-10T14:16:53Z</time>
      </trkpt>
      <trkpt lat="48.8486" lon="-0.35967">
        <ele>91.96931</ele>
        <time>2016-06-10T14:17:03Z</time>
      </trkpt>
      <trkpt lat="48.84858" lon="-0.3596">
        <ele>91.96931</ele>
        <time>2016-06-10T14:17:08Z</time>
      </trkpt>
      <trkpt lat="48.84852" lon="-0.35942">
        <ele>93.089134</ele>
        <time>2016-06-10T14:17:18Z</time>
      </trkpt>
      <trkpt lat="48.84849" lon="-0.35934">
        <ele>93.089134</ele>
        <time>2016-06-10T14:17:23Z</time>
      </trkpt>
      <trkpt lat="48.84844" lon="-0.35922">
        <ele>94.60044</ele>
        <time>2016-06-10T14:17:33Z</time>
      </trkpt>
      <trkpt lat="48.84842" lon="-0.35916">
        <ele>94.60044</ele>
        <time>2016-06-10T14:17:38Z</time>
      </trkpt>
      <trkpt lat="48.84837" lon="-0.35903">
        <ele>95.99661</ele>
        <time>2016-06-10T14:17:48Z</time>
      </trkpt>
      <trkpt lat="48.84834" lon="-0.35898">
        <ele>95.99661</ele>
        <time>2016-06-10T14:17:53Z</time>
      </trkpt>
      <trkpt lat="48.84827" lon="-0.35886">
        <ele>97.918304</ele>
        <time>2016-06-10T14:18:03Z</time>
      </trkpt>
      <trkpt lat="48.84823" lon="-0.35879">
        <ele>97.918304</ele>
        <time>2016-06-10T14:18:08Z</time>
      </trkpt>
      <trkpt lat="48.84814" lon="-0.35867">
        <ele>100.381294</ele>
        <time>2016-06-10T14:18:18Z</time>
      </trkpt>
      <trkpt lat="48.8481" lon="-0.35864">
        <ele>100.381294</ele>
        <time>2016-06-10T14:18:23Z</time>
      </trkpt>
      <trkpt lat="48.84798" lon="-0.35855">
        <ele>102.21703</ele>
        <time>2016-06-10T14:18:38Z</time>
      </trkpt>
      <trkpt lat="48.84793" lon="-0.3585">
        <ele>102.21703</ele>
        <time>2016-06-10T14:18:43Z</time>
      </trkpt>
      <trkpt lat="48.84785" lon="-0.35841">
        <ele>103.87225</ele>
        <time>2016-06-10T14:18:53Z</time>
      </trkpt>
      <trkpt lat="48.84782" lon="-0.35838">
        <ele>103.87225</ele>
        <time>2016-06-10T14:18:58Z</time>
      </trkpt>
      <trkpt lat="48.84774" lon="-0.35829">
        <ele>105.50208</ele>
        <time>2016-06-10T14:19:08Z</time>
      </trkpt>
      <trkpt lat="48.84769" lon="-0.35825">
        <ele>105.50208</ele>
        <time>2016-06-10T14:19:13Z</time>
      </trkpt>
      <trkpt lat="48.84759" lon="-0.35817">
        <ele>106.774826</ele>
        <time>2016-06-10T14:19:23Z</time>
      </trkpt>
      <trkpt lat="48.84755" lon="-0.35812">
        <ele>106.774826</ele>
        <time>2016-06-10T14:19:28Z</time>
      </trkpt>
      <trkpt lat="48.84749" lon="-0.35805">
        <ele>107.62925</ele>
        <time>2016-06-10T14:19:38Z</time>
      </trkpt>
      <trkpt lat="48.84746" lon="-0.35803">
        <ele>107.62925</ele>
        <time>2016-06-10T14:19:43Z</time>
      </trkpt>
      <trkpt lat="48.84735" lon="-0.35793">
        <ele>108.0387</ele>
        <time>2016-06-10T14:19:53Z</time>
      </trkpt>
      <trkpt lat="48.84731" lon="-0.35784">
        <ele>108.0387</ele>
        <time>2016-06-10T14:19:58Z</time>
      </trkpt>
      <trkpt lat="48.84725" lon="-0.35778">
        <ele>108.8877</ele>
        <time>2016-06-10T14:20:08Z</time>
      </trkpt>
      <trkpt lat="48.84721" lon="-0.35775">
        <ele>108.8877</ele>
        <time>2016-06-10T14:20:13Z</time>
      </trkpt>
      <trkpt lat="48.84712" lon="-0.35766">
        <ele>109.56796</ele>
        <time>2016-06-10T14:20:23Z</time>
      </trkpt>
      <trkpt lat="48.84708" lon="-0.35759">
        <ele>109.56796</ele>
        <time>2016-06-10T14:20:28Z</time>
      </trkpt>
      <trkpt lat="48.84698" lon="-0.35752">
        <ele>110.82779</ele>
        <time>2016-06-10T14:20:38Z</time>
      </trkpt>
      <trkpt lat="48.84692" lon="-0.35746">
        <ele>110.82779</ele>
        <time>2016-06-10T14:20:43Z</time>
      </trkpt>
      <trkpt lat="48.84681" lon="-0.35738">
        <ele>112.35021</ele>
        <time>2016-06-10T14:20:53Z</time>
      </trkpt>
      <trkpt lat="48.84677" lon="-0.35729">
        <ele>112.35021</ele>
        <time>2016-06-10T14:20:58Z</time>
      </trkpt>
      <trkpt lat="48.84674" lon="-0.35724">
        <ele>114.07142</ele>
        <time>2016-06-10T14:21:03Z</time>
      </trkpt>
      <trkpt lat="48.8467" lon="-0.35719">
        <ele>114.07142</ele>
        <time>2016-06-10T14:21:08Z</time>
      </trkpt>
      <trkpt lat="48.84664" lon="-0.35716">
        <ele>115.6868</ele>
        <time>2016-06-10T14:21:13Z</time>
      </trkpt>
      <trkpt lat="48.84655" lon="-0.35708">
        <ele>117.24592</ele>
        <time>2016-06-10T14:21:23Z</time>
      </trkpt>
      <trkpt lat="48.84652" lon="-0.35703">
        <ele>117.24592</ele>
        <time>2016-06-10T14:21:28Z</time>
      </trkpt>
      <trkpt lat="48.84641" lon="-0.3569">
        <ele>118.72288</ele>
        <time>2016-06-10T14:21:38Z</time>
      </trkpt>
      <trkpt lat="48.84635" lon="-0.35685">
        <ele>118.72288</ele>
        <time>2016-06-10T14:21:43Z</time>
      </trkpt>
      <trkpt lat="48.84627" lon="-0.35677">
        <ele>119.690445</ele>
        <time>2016-06-10T14:21:53Z</time>
      </trkpt>
      <trkpt lat="48.84622" lon="-0.35673">
        <ele>119.690445</ele>
        <time>2016-06-10T14:21:58Z</time>
      </trkpt>
      <trkpt lat="48.84614" lon="-0.35662">
        <ele>120.4892</ele>
        <time>2016-06-10T14:22:08Z</time>
      </trkpt>
      <trkpt lat="48.84609" lon="-0.35658">
        <ele>120.4892</ele>
        <time>2016-06-10T14:22:13Z</time>
      </trkpt>
      <trkpt lat="48.84605" lon="-0.35653">
        <ele>121.19025</ele>
        <time>2016-06-10T14:22:23Z</time>
      </trkpt>
      <trkpt lat="48.84601" lon="-0.35652">
        <ele>121.19025</ele>
        <time>2016-06-10T14:22:28Z</time>
      </trkpt>
      <trkpt lat="48.84595" lon="-0.3565">
        <ele>121.71569</ele>
        <time>2016-06-10T14:22:38Z</time>
      </trkpt>
      <trkpt lat="48.84591" lon="-0.35649">
        <ele>121.71569</ele>
        <time>2016-06-10T14:22:43Z</time>
      </trkpt>
      <trkpt lat="48.8458" lon="-0.35647">
        <ele>122.3253</ele>
        <time>2016-06-10T14:22:53Z</time>
      </trkpt>
      <trkpt lat="48.84575" lon="-0.35645">
        <ele>122.3253</ele>
        <time>2016-06-10T14:22:58Z</time>
      </trkpt>
      <trkpt lat="48.84559" lon="-0.35642">
        <ele>123.18752</ele>
        <time>2016-06-10T14:23:13Z</time>
      </trkpt>
      <trkpt lat="48.84553" lon="-0.35642">
        <ele>123.18752</ele>
        <time>2016-06-10T14:23:18Z</time>
      </trkpt>
      <trkpt lat="48.84541" lon="-0.35643">
        <ele>124.19834</ele>
        <time>2016-06-10T14:23:28Z</time>
      </trkpt>
      <trkpt lat="48.84535" lon="-0.35644">
        <ele>124.19834</ele>
        <time>2016-06-10T14:23:33Z</time>
      </trkpt>
      <trkpt lat="48.84531" lon="-0.35645">
        <ele>125.77976</ele>
        <time>2016-06-10T14:23:38Z</time>
      </trkpt>
      <trkpt lat="48.84525" lon="-0.35646">
        <ele>125.77976</ele>
        <time>2016-06-10T14:23:43Z</time>
      </trkpt>
      <trkpt lat="48.84522" lon="-0.35646">
        <ele>127.22598</ele>
        <time>2016-06-10T14:23:48Z</time>
      </trkpt>
      <trkpt lat="48.84517" lon="-0.35644">
        <ele>127.22598</ele>
        <time>2016-06-10T14:23:53Z</time>
      </trkpt>
      <trkpt lat="48.84513" lon="-0.35645">
        <ele>127.22598</ele>
        <time>2016-06-10T14:23:58Z</time>
      </trkpt>
      <trkpt lat="48.84502" lon="-0.35639">
        <ele>127.9843</ele>
        <time>2016-06-10T14:24:08Z</time>
      </trkpt>
      <trkpt lat="48.84496" lon="-0.35639">
        <ele>127.9843</ele>
        <time>2016-06-10T14:24:13Z</time>
      </trkpt>
      <trkpt lat="48.84488" lon="-0.35639">
        <ele>129.74945</ele>
        <time>2016-06-10T14:24:23Z</time>
      </trkpt>
      <trkpt lat="48.84484" lon="-0.35636">
        <ele>129.74945</ele>
        <time>2016-06-10T14:24:28Z</time>
      </trkpt>
      <trkpt lat="48.84474" lon="-0.35628">
        <ele>132.25868</ele>
        <time>2016-06-10T14:24:38Z</time>
      </trkpt>
      <trkpt lat="48.84471" lon="-0.35627">
        <ele>132.25868</ele>
        <time>2016-06-10T14:24:43Z</time>
      </trkpt>
      <trkpt lat="48.84458" lon="-0.35618">
        <ele>134.51707</ele>
        <time>2016-06-10T14:24:58Z</time>
      </trkpt>
      <trkpt lat="48.84453" lon="-0.35613">
        <ele>134.51707</ele>
        <time>2016-06-10T14:25:03Z</time>
      </trkpt>
      <trkpt lat="48.84444" lon="-0.35608">
        <ele>137.04462</ele>
        <time>2016-06-10T14:25:13Z</time>
      </trkpt>
      <trkpt lat="48.8444" lon="-0.35608">
        <ele>137.04462</ele>
        <time>2016-06-10T14:25:18Z</time>
      </trkpt>
      <trkpt lat="48.84427" lon="-0.35598">
        <ele>139.45773</ele>
        <time>2016-06-10T14:25:28Z</time>
      </trkpt>
      <trkpt lat="48.84423" lon="-0.35596">
        <ele>139.45773</ele>
        <time>2016-06-10T14:25:33Z</time>
      </trkpt>
      <trkpt lat="48.84414" lon="-0.35593">
        <ele>141.54547</ele>
        <time>2016-06-10T14:25:43Z</time>
      </trkpt>
      <trkpt lat="48.84409" lon="-0.35591">
        <ele>141.54547</ele>
        <time>2016-06-10T14:25:48Z</time>
      </trkpt>
      <trkpt lat="48.84399" lon="-0.35587">
        <ele>143.76187</ele>
        <time>2016-06-10T14:25:58Z</time>
      </trkpt>
      <trkpt lat="48.84393" lon="-0.35585">
        <ele>143.76187</ele>
        <time>2016-06-10T14:26:03Z</time>
      </trkpt>
      <trkpt lat="48.84382" lon="-0.3558">
        <ele>146.05168</ele>
        <time>2016-06-10T14:26:13Z</time>
      </trkpt>
      <trkpt lat="48.84377" lon="-0.35579">
        <ele>146.05168</ele>
        <time>2016-06-10T14:26:18Z</time>
      </trkpt>
      <trkpt lat="48.84374" lon="-0.35579">
        <ele>146.05168</ele>
        <time>2016-06-10T14:26:23Z</time>
      </trkpt>
      <trkpt lat="48.84357" lon="-0.35571">
        <ele>147.64305</ele>
        <time>2016-06-10T14:26:38Z</time>
      </trkpt>
      <trkpt lat="48.84352" lon="-0.35568">
        <ele>147.64305</ele>
        <time>2016-06-10T14:26:43Z</time>
      </trkpt>
      <trkpt lat="48.84342" lon="-0.35558">
        <ele>149.04776</ele>
        <time>2016-06-10T14:26:53Z</time>
      </trkpt>
      <trkpt lat="48.84337" lon="-0.35552">
        <ele>149.04776</ele>
        <time>2016-06-10T14:26:58Z</time>
      </trkpt>
      <trkpt lat="48.84328" lon="-0.35535">
        <ele>149.32826</ele>
        <time>2016-06-10T14:27:08Z</time>
      </trkpt>
      <trkpt lat="48.84322" lon="-0.35536">
        <ele>149.32826</ele>
        <time>2016-06-10T14:27:13Z</time>
      </trkpt>
      <trkpt lat="48.84313" lon="-0.35521">
        <ele>148.16672</ele>
        <time>2016-06-10T14:27:23Z</time>
      </trkpt>
      <trkpt lat="48.84307" lon="-0.35518">
        <ele>148.16672</ele>
        <time>2016-06-10T14:27:28Z</time>
      </trkpt>
      <trkpt lat="48.84298" lon="-0.35507">
        <ele>146.94443</ele>
        <time>2016-06-10T14:27:38Z</time>
      </trkpt>
      <trkpt lat="48.84294" lon="-0.35503">
        <ele>146.94443</ele>
        <time>2016-06-10T14:27:43Z</time>
      </trkpt>
      <trkpt lat="48.84284" lon="-0.35497">
        <ele>146.2352</ele>
        <time>2016-06-10T14:27:53Z</time>
      </trkpt>
      <trkpt lat="48.84277" lon="-0.3549">
        <ele>146.2352</ele>
        <time>2016-06-10T14:27:58Z</time>
      </trkpt>
      <trkpt lat="48.84269" lon="-0.35484">
        <ele>147.04486</ele>
        <time>2016-06-10T14:28:08Z</time>
      </trkpt>
      <trkpt lat="48.84268" lon="-0.35481">
        <ele>147.04486</ele>
        <time>2016-06-10T14:28:13Z</time>
      </trkpt>
      <trkpt lat="48.84265" lon="-0.35476">
        <ele>147.04486</ele>
        <time>2016-06-10T14:28:18Z</time>
      </trkpt>
      <trkpt lat="48.84262" lon="-0.3547">
        <ele>148.03851</ele>
        <time>2016-06-10T14:28:23Z</time>
      </trkpt>
      <trkpt lat="48.8426" lon="-0.35468">
        <ele>148.03851</ele>
        <time>2016-06-10T14:28:28Z</time>
      </trkpt>
      <trkpt lat="48.84259" lon="-0.35469">
        <ele>148.03851</ele>
        <time>2016-06-10T14:28:38Z</time>
      </trkpt>
      <trkpt lat="48.84259" lon="-0.35469">
        <ele>148.03851</ele>
        <time>2016-06-10T14:28:43Z</time>
      </trkpt>
      <trkpt lat="48.84258" lon="-0.35468">
        <ele>148.03851</ele>
        <time>2016-06-10T14:28:58Z</time>
      </trkpt>
      <trkpt lat="48.84258" lon="-0.35468">
        <ele>148.03851</ele>
        <time>2016-06-10T14:29:03Z</time>
      </trkpt>
      <trkpt lat="48.84257" lon="-0.35469">
        <ele>148.03851</ele>
        <time>2016-06-10T14:29:13Z</time>
      </trkpt>
      <trkpt lat="48.84252" lon="-0.3546">
        <ele>149.65047</ele>
        <time>2016-06-10T14:29:18Z</time>
      </trkpt>
      <trkpt lat="48.84244" lon="-0.35447">
        <ele>150.86906</ele>
        <time>2016-06-10T14:29:28Z</time>
      </trkpt>
      <trkpt lat="48.8424" lon="-0.3544">
        <ele>150.86906</ele>
        <time>2016-06-10T14:29:33Z</time>
      </trkpt>
      <trkpt lat="48.84231" lon="-0.35426">
        <ele>151.75241</ele>
        <time>2016-06-10T14:29:43Z</time>
      </trkpt>
      <trkpt lat="48.84227" lon="-0.35419">
        <ele>151.75241</ele>
        <time>2016-06-10T14:29:48Z</time>
      </trkpt>
      <trkpt lat="48.84227" lon="-0.35419">
        <ele>151.75241</ele>
        <time>2016-06-10T14:29:58Z</time>
      </trkpt>
      <trkpt lat="48.84223" lon="-0.35414">
        <ele>152.08145</ele>
        <time>2016-06-10T14:30:03Z</time>
      </trkpt>
      <trkpt lat="48.84215" lon="-0.35401">
        <ele>151.79884</ele>
        <time>2016-06-10T14:30:13Z</time>
      </trkpt>
      <trkpt lat="48.8421" lon="-0.35396">
        <ele>151.79884</ele>
        <time>2016-06-10T14:30:18Z</time>
      </trkpt>
      <trkpt lat="48.84195" lon="-0.35375">
        <ele>151.38637</ele>
        <time>2016-06-10T14:30:33Z</time>
      </trkpt>
      <trkpt lat="48.8419" lon="-0.35369">
        <ele>151.38637</ele>
        <time>2016-06-10T14:30:38Z</time>
      </trkpt>
      <trkpt lat="48.84182" lon="-0.3536">
        <ele>150.5125</ele>
        <time>2016-06-10T14:30:48Z</time>
      </trkpt>
      <trkpt lat="48.84179" lon="-0.35358">
        <ele>150.5125</ele>
        <time>2016-06-10T14:30:53Z</time>
      </trkpt>
      <trkpt lat="48.8417" lon="-0.3535">
        <ele>149.13072</ele>
        <time>2016-06-10T14:31:03Z</time>
      </trkpt>
      <trkpt lat="48.84166" lon="-0.35342">
        <ele>149.13072</ele>
        <time>2016-06-10T14:31:08Z</time>
      </trkpt>
      <trkpt lat="48.84161" lon="-0.35334">
        <ele>148.33777</ele>
        <time>2016-06-10T14:31:18Z</time>
      </trkpt>
      <trkpt lat="48.8416" lon="-0.35333">
        <ele>148.33777</ele>
        <time>2016-06-10T14:31:23Z</time>
      </trkpt>
      <trkpt lat="48.84154" lon="-0.35336">
        <ele>148.33777</ele>
        <time>2016-06-10T14:31:33Z</time>
      </trkpt>
      <trkpt lat="48.8415" lon="-0.35339">
        <ele>147.6205</ele>
        <time>2016-06-10T14:31:38Z</time>
      </trkpt>
      <trkpt lat="48.8414" lon="-0.35344">
        <ele>146.50311</ele>
        <time>2016-06-10T14:31:48Z</time>
      </trkpt>
      <trkpt lat="48.84136" lon="-0.35345">
        <ele>146.50311</ele>
        <time>2016-06-10T14:31:53Z</time>
      </trkpt>
      <trkpt lat="48.84129" lon="-0.35347">
        <ele>144.68996</ele>
        <time>2016-06-10T14:32:03Z</time>
      </trkpt>
      <trkpt lat="48.84127" lon="-0.35352">
        <ele>144.68996</ele>
        <time>2016-06-10T14:32:08Z</time>
      </trkpt>
      <trkpt lat="48.84115" lon="-0.35366">
        <ele>143.22028</ele>
        <time>2016-06-10T14:32:23Z</time>
      </trkpt>
      <trkpt lat="48.84111" lon="-0.35369">
        <ele>143.22028</ele>
        <time>2016-06-10T14:32:28Z</time>
      </trkpt>
      <trkpt lat="48.84106" lon="-0.35375">
        <ele>141.75893</ele>
        <time>2016-06-10T14:32:38Z</time>
      </trkpt>
      <trkpt lat="48.84104" lon="-0.35378">
        <ele>141.75893</ele>
        <time>2016-06-10T14:32:43Z</time>
      </trkpt>
      <trkpt lat="48.84098" lon="-0.3538">
        <ele>141.75893</ele>
        <time>2016-06-10T14:32:53Z</time>
      </trkpt>
      <trkpt lat="48.84096" lon="-0.35385">
        <ele>141.29218</ele>
        <time>2016-06-10T14:32:58Z</time>
      </trkpt>
      <trkpt lat="48.84096" lon="-0.35385">
        <ele>141.29218</ele>
        <time>2016-06-10T14:33:08Z</time>
      </trkpt>
      <trkpt lat="48.84092" lon="-0.35386">
        <ele>141.29218</ele>
        <time>2016-06-10T14:33:13Z</time>
      </trkpt>
      <trkpt lat="48.84089" lon="-0.35391">
        <ele>141.36188</ele>
        <time>2016-06-10T14:33:23Z</time>
      </trkpt>
      <trkpt lat="48.84089" lon="-0.35391">
        <ele>141.36188</ele>
        <time>2016-06-10T14:33:28Z</time>
      </trkpt>
      <trkpt lat="48.8409" lon="-0.35393">
        <ele>141.36188</ele>
        <time>2016-06-10T14:33:38Z</time>
      </trkpt>
      <trkpt lat="48.8409" lon="-0.35393">
        <ele>141.36188</ele>
        <time>2016-06-10T14:33:43Z</time>
      </trkpt>
      <trkpt lat="48.84087" lon="-0.35395">
        <ele>141.36188</ele>
        <time>2016-06-10T14:33:53Z</time>
      </trkpt>
      <trkpt lat="48.84082" lon="-0.354">
        <ele>141.80125</ele>
        <time>2016-06-10T14:33:58Z</time>
      </trkpt>
      <trkpt lat="48.84075" lon="-0.35406">
        <ele>141.80125</ele>
        <time>2016-06-10T14:34:08Z</time>
      </trkpt>
      <trkpt lat="48.84073" lon="-0.35411">
        <ele>142.25288</ele>
        <time>2016-06-10T14:34:13Z</time>
      </trkpt>
      <trkpt lat="48.84071" lon="-0.35411">
        <ele>142.25288</ele>
        <time>2016-06-10T14:34:23Z</time>
      </trkpt>
      <trkpt lat="48.84071" lon="-0.35411">
        <ele>142.25288</ele>
        <time>2016-06-10T14:34:28Z</time>
      </trkpt>
      <trkpt lat="48.84069" lon="-0.35411">
        <ele>142.25288</ele>
        <time>2016-06-10T14:34:38Z</time>
      </trkpt>
      <trkpt lat="48.84069" lon="-0.35411">
        <ele>142.25288</ele>
        <time>2016-06-10T14:34:43Z</time>
      </trkpt>
      <trkpt lat="48.84057" lon="-0.35411">
        <ele>142.54391</ele>
        <time>2016-06-10T14:34:53Z</time>
      </trkpt>
      <trkpt lat="48.84052" lon="-0.35415">
        <ele>142.54391</ele>
        <time>2016-06-10T14:34:58Z</time>
      </trkpt>
      <trkpt lat="48.84042" lon="-0.35416">
        <ele>143.2927</ele>
        <time>2016-06-10T14:35:08Z</time>
      </trkpt>
      <trkpt lat="48.8403" lon="-0.3542">
        <ele>143.5288</ele>
        <time>2016-06-10T14:35:13Z</time>
      </trkpt>
      <trkpt lat="48.84011" lon="-0.35425">
        <ele>143.92514</ele>
        <time>2016-06-10T14:35:28Z</time>
      </trkpt>
      <trkpt lat="48.84005" lon="-0.35425">
        <ele>143.92514</ele>
        <time>2016-06-10T14:35:33Z</time>
      </trkpt>
      <trkpt lat="48.83996" lon="-0.35427">
        <ele>144.93178</ele>
        <time>2016-06-10T14:35:43Z</time>
      </trkpt>
      <trkpt lat="48.8399" lon="-0.35427">
        <ele>144.93178</ele>
        <time>2016-06-10T14:35:48Z</time>
      </trkpt>
      <trkpt lat="48.83981" lon="-0.3543">
        <ele>146.40184</ele>
        <time>2016-06-10T14:35:58Z</time>
      </trkpt>
      <trkpt lat="48.83977" lon="-0.35432">
        <ele>146.40184</ele>
        <time>2016-06-10T14:36:03Z</time>
      </trkpt>
      <trkpt lat="48.83968" lon="-0.35435">
        <ele>147.8952</ele>
        <time>2016-06-10T14:36:13Z</time>
      </trkpt>
      <trkpt lat="48.83966" lon="-0.35435">
        <ele>147.8952</ele>
        <time>2016-06-10T14:36:18Z</time>
      </trkpt>
      <trkpt lat="48.83961" lon="-0.35436">
        <ele>147.8952</ele>
        <time>2016-06-10T14:36:28Z</time>
      </trkpt>
      <trkpt lat="48.83956" lon="-0.35434">
        <ele>149.29216</ele>
        <time>2016-06-10T14:36:33Z</time>
      </trkpt>
      <trkpt lat="48.83946" lon="-0.35433">
        <ele>150.75581</ele>
        <time>2016-06-10T14:36:43Z</time>
      </trkpt>
      <trkpt lat="48.83939" lon="-0.35432">
        <ele>150.75581</ele>
        <time>2016-06-10T14:36:48Z</time>
      </trkpt>
      <trkpt lat="48.8393" lon="-0.35431">
        <ele>152.32176</ele>
        <time>2016-06-10T14:36:58Z</time>
      </trkpt>
      <trkpt lat="48.83924" lon="-0.3543">
        <ele>152.32176</ele>
        <time>2016-06-10T14:37:03Z</time>
      </trkpt>
      <trkpt lat="48.83914" lon="-0.35428">
        <ele>154.16676</ele>
        <time>2016-06-10T14:37:13Z</time>
      </trkpt>
      <trkpt lat="48.83907" lon="-0.35426">
        <ele>154.16676</ele>
        <time>2016-06-10T14:37:18Z</time>
      </trkpt>
      <trkpt lat="48.83903" lon="-0.35424">
        <ele>155.80528</ele>
        <time>2016-06-10T14:37:23Z</time>
      </trkpt>
      <trkpt lat="48.839" lon="-0.35423">
        <ele>155.80528</ele>
        <time>2016-06-10T14:37:28Z</time>
      </trkpt>
      <trkpt lat="48.83894" lon="-0.35422">
        <ele>157.24919</ele>
        <time>2016-06-10T14:37:33Z</time>
      </trkpt>
      <trkpt lat="48.83889" lon="-0.35422">
        <ele>157.24919</ele>
        <time>2016-06-10T14:37:38Z</time>
      </trkpt>
      <trkpt lat="48.83884" lon="-0.35419">
        <ele>158.75497</ele>
        <time>2016-06-10T14:37:43Z</time>
      </trkpt>
      <trkpt lat="48.83879" lon="-0.35417">
        <ele>158.75497</ele>
        <time>2016-06-10T14:37:48Z</time>
      </trkpt>
      <trkpt lat="48.83869" lon="-0.35413">
        <ele>160.5025</ele>
        <time>2016-06-10T14:37:58Z</time>
      </trkpt>
      <trkpt lat="48.83865" lon="-0.35412">
        <ele>160.5025</ele>
        <time>2016-06-10T14:38:03Z</time>
      </trkpt>
      <trkpt lat="48.83855" lon="-0.35408">
        <ele>162.23982</ele>
        <time>2016-06-10T14:38:13Z</time>
      </trkpt>
      <trkpt lat="48.8385" lon="-0.35407">
        <ele>162.23982</ele>
        <time>2016-06-10T14:38:18Z</time>
      </trkpt>
      <trkpt lat="48.83837" lon="-0.35403">
        <ele>164.32443</ele>
        <time>2016-06-10T14:38:33Z</time>
      </trkpt>
      <trkpt lat="48.83832" lon="-0.35402">
        <ele>164.32443</ele>
        <time>2016-06-10T14:38:38Z</time>
      </trkpt>
      <trkpt lat="48.83823" lon="-0.354">
        <ele>166.35162</ele>
        <time>2016-06-10T14:38:48Z</time>
      </trkpt>
      <trkpt lat="48.83817" lon="-0.354">
        <ele>166.35162</ele>
        <time>2016-06-10T14:38:53Z</time>
      </trkpt>
      <trkpt lat="48.83807" lon="-0.35399">
        <ele>168.52309</ele>
        <time>2016-06-10T14:39:03Z</time>
      </trkpt>
      <trkpt lat="48.83801" lon="-0.35398">
        <ele>168.52309</ele>
        <time>2016-06-10T14:39:08Z</time>
      </trkpt>
      <trkpt lat="48.8379" lon="-0.35395">
        <ele>170.4777</ele>
        <time>2016-06-10T14:39:18Z</time>
      </trkpt>
      <trkpt lat="48.83786" lon="-0.35394">
        <ele>170.4777</ele>
        <time>2016-06-10T14:39:23Z</time>
      </trkpt>
      <trkpt lat="48.83778" lon="-0.35392">
        <ele>172.27068</ele>
        <time>2016-06-10T14:39:33Z</time>
      </trkpt>
      <trkpt lat="48.83773" lon="-0.35391">
        <ele>172.27068</ele>
        <time>2016-06-10T14:39:38Z</time>
      </trkpt>
      <trkpt lat="48.83762" lon="-0.3539">
        <ele>173.9681</ele>
        <time>2016-06-10T14:39:48Z</time>
      </trkpt>
      <trkpt lat="48.83756" lon="-0.35386">
        <ele>173.9681</ele>
        <time>2016-06-10T14:39:53Z</time>
      </trkpt>
      <trkpt lat="48.83746" lon="-0.35383">
        <ele>175.41533</ele>
        <time>2016-06-10T14:40:03Z</time>
      </trkpt>
      <trkpt lat="48.83741" lon="-0.3538">
        <ele>175.41533</ele>
        <time>2016-06-10T14:40:08Z</time>
      </trkpt>
      <trkpt lat="48.83732" lon="-0.35379">
        <ele>176.77255</ele>
        <time>2016-06-10T14:40:18Z</time>
      </trkpt>
      <trkpt lat="48.83727" lon="-0.35377">
        <ele>176.77255</ele>
        <time>2016-06-10T14:40:23Z</time>
      </trkpt>
      <trkpt lat="48.8371" lon="-0.35375">
        <ele>178.21732</ele>
        <time>2016-06-10T14:40:38Z</time>
      </trkpt>
      <trkpt lat="48.83705" lon="-0.35373">
        <ele>178.21732</ele>
        <time>2016-06-10T14:40:43Z</time>
      </trkpt>
      <trkpt lat="48.83694" lon="-0.35372">
        <ele>179.64015</ele>
        <time>2016-06-10T14:40:53Z</time>
      </trkpt>
      <trkpt lat="48.83687" lon="-0.35371">
        <ele>179.64015</ele>
        <time>2016-06-10T14:40:58Z</time>
      </trkpt>
      <trkpt lat="48.83675" lon="-0.35369">
        <ele>180.86772</ele>
        <time>2016-06-10T14:41:08Z</time>
      </trkpt>
      <trkpt lat="48.83669" lon="-0.35368">
        <ele>180.86772</ele>
        <time>2016-06-10T14:41:13Z</time>
      </trkpt>
      <trkpt lat="48.83657" lon="-0.35368">
        <ele>181.65358</ele>
        <time>2016-06-10T14:41:23Z</time>
      </trkpt>
      <trkpt lat="48.83651" lon="-0.35367">
        <ele>181.65358</ele>
        <time>2016-06-10T14:41:28Z</time>
      </trkpt>
      <trkpt lat="48.83641" lon="-0.35365">
        <ele>182.28949</ele>
        <time>2016-06-10T14:41:38Z</time>
      </trkpt>
      <trkpt lat="48.83636" lon="-0.35366">
        <ele>182.28949</ele>
        <time>2016-06-10T14:41:43Z</time>
      </trkpt>
      <trkpt lat="48.83631" lon="-0.35366">
        <ele>182.87338</ele>
        <time>2016-06-10T14:41:48Z</time>
      </trkpt>
      <trkpt lat="48.83626" lon="-0.35366">
        <ele>182.87338</ele>
        <time>2016-06-10T14:41:53Z</time>
      </trkpt>
      <trkpt lat="48.83621" lon="-0.35367">
        <ele>183.13586</ele>
        <time>2016-06-10T14:41:58Z</time>
      </trkpt>
      <trkpt lat="48.83615" lon="-0.35368">
        <ele>183.13586</ele>
        <time>2016-06-10T14:42:03Z</time>
      </trkpt>
      <trkpt lat="48.83609" lon="-0.35369">
        <ele>183.26067</ele>
        <time>2016-06-10T14:42:08Z</time>
      </trkpt>
      <trkpt lat="48.83598" lon="-0.3537">
        <ele>183.27434</ele>
        <time>2016-06-10T14:42:18Z</time>
      </trkpt>
      <trkpt lat="48.83594" lon="-0.3537">
        <ele>183.27434</ele>
        <time>2016-06-10T14:42:23Z</time>
      </trkpt>
      <trkpt lat="48.83583" lon="-0.35373">
        <ele>183.23067</ele>
        <time>2016-06-10T14:42:33Z</time>
      </trkpt>
      <trkpt lat="48.83577" lon="-0.35374">
        <ele>183.23067</ele>
        <time>2016-06-10T14:42:38Z</time>
      </trkpt>
      <trkpt lat="48.83574" lon="-0.35378">
        <ele>182.67525</ele>
        <time>2016-06-10T14:42:48Z</time>
      </trkpt>
      <trkpt lat="48.83576" lon="-0.35378">
        <ele>182.67525</ele>
        <time>2016-06-10T14:42:53Z</time>
      </trkpt>
      <trkpt lat="48.83576" lon="-0.35378">
        <ele>182.67525</ele>
        <time>2016-06-10T14:43:03Z</time>
      </trkpt>
      <trkpt lat="48.83576" lon="-0.35378">
        <ele>182.67525</ele>
        <time>2016-06-10T14:43:08Z</time>
      </trkpt>
      <trkpt lat="48.83576" lon="-0.35378">
        <ele>182.67525</ele>
        <time>2016-06-10T14:43:18Z</time>
      </trkpt>
      <trkpt lat="48.83576" lon="-0.35378">
        <ele>182.67525</ele>
        <time>2016-06-10T14:43:23Z</time>
      </trkpt>
      <trkpt lat="48.83576" lon="-0.35375">
        <ele>182.67525</ele>
        <time>2016-06-10T14:43:38Z</time>
      </trkpt>
      <trkpt lat="48.83576" lon="-0.35374">
        <ele>182.67525</ele>
        <time>2016-06-10T14:43:43Z</time>
      </trkpt>
      <trkpt lat="48.83575" lon="-0.35375">
        <ele>182.67525</ele>
        <time>2016-06-10T14:43:53Z</time>
      </trkpt>
      <trkpt lat="48.83573" lon="-0.35377">
        <ele>181.9091</ele>
        <time>2016-06-10T14:43:58Z</time>
      </trkpt>
      <trkpt lat="48.83572" lon="-0.35377">
        <ele>181.9091</ele>
        <time>2016-06-10T14:44:08Z</time>
      </trkpt>
      <trkpt lat="48.83572" lon="-0.35377">
        <ele>181.9091</ele>
        <time>2016-06-10T14:44:13Z</time>
      </trkpt>
      <trkpt lat="48.83564" lon="-0.35372">
        <ele>181.12526</ele>
        <time>2016-06-10T14:44:23Z</time>
      </trkpt>
      <trkpt lat="48.8356" lon="-0.3537">
        <ele>181.12526</ele>
        <time>2016-06-10T14:44:28Z</time>
      </trkpt>
      <trkpt lat="48.83557" lon="-0.35368">
        <ele>181.12526</ele>
        <time>2016-06-10T14:44:33Z</time>
      </trkpt>
      <trkpt lat="48.83555" lon="-0.35369">
        <ele>179.8541</ele>
        <time>2016-06-10T14:44:38Z</time>
      </trkpt>
      <trkpt lat="48.8355" lon="-0.35365">
        <ele>179.8541</ele>
        <time>2016-06-10T14:44:43Z</time>
      </trkpt>
      <trkpt lat="48.83545" lon="-0.35357">
        <ele>178.94444</ele>
        <time>2016-06-10T14:44:53Z</time>
      </trkpt>
      <trkpt lat="48.83544" lon="-0.35355">
        <ele>178.94444</ele>
        <time>2016-06-10T14:44:58Z</time>
      </trkpt>
      <trkpt lat="48.83539" lon="-0.35348">
        <ele>178.1153</ele>
        <time>2016-06-10T14:45:08Z</time>
      </trkpt>
      <trkpt lat="48.83539" lon="-0.35348">
        <ele>178.1153</ele>
        <time>2016-06-10T14:45:13Z</time>
      </trkpt>
      <trkpt lat="48.83539" lon="-0.35347">
        <ele>178.1153</ele>
        <time>2016-06-10T14:45:23Z</time>
      </trkpt>
      <trkpt lat="48.83539" lon="-0.35347">
        <ele>178.1153</ele>
        <time>2016-06-10T14:45:28Z</time>
      </trkpt>
      <trkpt lat="48.83547" lon="-0.35353">
        <ele>176.55838</ele>
        <time>2016-06-10T14:45:38Z</time>
      </trkpt>
      <trkpt lat="48.83548" lon="-0.35356">
        <ele>176.55838</ele>
        <time>2016-06-10T14:45:43Z</time>
      </trkpt>
      <trkpt lat="48.83548" lon="-0.35357">
        <ele>176.55838</ele>
        <time>2016-06-10T14:45:53Z</time>
      </trkpt>
      <trkpt lat="48.83547" lon="-0.35358">
        <ele>176.55838</ele>
        <time>2016-06-10T14:45:58Z</time>
      </trkpt>
      <trkpt lat="48.83539" lon="-0.35355">
        <ele>174.93907</ele>
        <time>2016-06-10T14:46:13Z</time>
      </trkpt>
      <trkpt lat="48.83536" lon="-0.35352">
        <ele>174.93907</ele>
        <time>2016-06-10T14:46:18Z</time>
      </trkpt>
      <trkpt lat="48.83533" lon="-0.35349">
        <ele>174.93907</ele>
        <time>2016-06-10T14:46:28Z</time>
      </trkpt>
      <trkpt lat="48.83531" lon="-0.3535">
        <ele>173.3984</ele>
        <time>2016-06-10T14:46:33Z</time>
      </trkpt>
      <trkpt lat="48.83521" lon="-0.35345">
        <ele>171.60558</ele>
        <time>2016-06-10T14:46:43Z</time>
      </trkpt>
      <trkpt lat="48.83514" lon="-0.35344">
        <ele>171.60558</ele>
        <time>2016-06-10T14:46:48Z</time>
      </trkpt>
      <trkpt lat="48.83503" lon="-0.35338">
        <ele>169.96086</ele>
        <time>2016-06-10T14:46:58Z</time>
      </trkpt>
      <trkpt lat="48.83493" lon="-0.35336">
        <ele>168.61841</ele>
        <time>2016-06-10T14:47:03Z</time>
      </trkpt>
      <trkpt lat="48.83489" lon="-0.35335">
        <ele>168.61841</ele>
        <time>2016-06-10T14:47:08Z</time>
      </trkpt>
      <trkpt lat="48.83483" lon="-0.35336">
        <ele>167.46066</ele>
        <time>2016-06-10T14:47:13Z</time>
      </trkpt>
      <trkpt lat="48.8348" lon="-0.35332">
        <ele>167.46066</ele>
        <time>2016-06-10T14:47:18Z</time>
      </trkpt>
      <trkpt lat="48.83469" lon="-0.35325">
        <ele>165.6575</ele>
        <time>2016-06-10T14:47:28Z</time>
      </trkpt>
      <trkpt lat="48.83466" lon="-0.3532">
        <ele>165.6575</ele>
        <time>2016-06-10T14:47:33Z</time>
      </trkpt>
      <trkpt lat="48.83458" lon="-0.35308">
        <ele>163.30614</ele>
        <time>2016-06-10T14:47:43Z</time>
      </trkpt>
      <trkpt lat="48.83455" lon="-0.35301">
        <ele>163.30614</ele>
        <time>2016-06-10T14:47:48Z</time>
      </trkpt>
      <trkpt lat="48.83451" lon="-0.35292">
        <ele>160.88712</ele>
        <time>2016-06-10T14:47:58Z</time>
      </trkpt>
      <trkpt lat="48.8345" lon="-0.3529">
        <ele>160.88712</ele>
        <time>2016-06-10T14:48:03Z</time>
      </trkpt>
      <trkpt lat="48.83448" lon="-0.35285">
        <ele>160.88712</ele>
        <time>2016-06-10T14:48:13Z</time>
      </trkpt>
      <trkpt lat="48.83439" lon="-0.35274">
        <ele>158.62955</ele>
        <time>2016-06-10T14:48:18Z</time>
      </trkpt>
      <trkpt lat="48.8343" lon="-0.35267">
        <ele>156.38478</ele>
        <time>2016-06-10T14:48:23Z</time>
      </trkpt>
      <trkpt lat="48.83425" lon="-0.35263">
        <ele>156.38478</ele>
        <time>2016-06-10T14:48:28Z</time>
      </trkpt>
      <trkpt lat="48.83414" lon="-0.35254">
        <ele>154.99487</ele>
        <time>2016-06-10T14:48:33Z</time>
      </trkpt>
      <trkpt lat="48.83413" lon="-0.35253">
        <ele>154.99487</ele>
        <time>2016-06-10T14:48:38Z</time>
      </trkpt>
      <trkpt lat="48.83413" lon="-0.35252">
        <ele>154.99487</ele>
        <time>2016-06-10T14:48:43Z</time>
      </trkpt>
      <trkpt lat="48.8341" lon="-0.35251">
        <ele>154.99487</ele>
        <time>2016-06-10T14:48:48Z</time>
      </trkpt>
      <trkpt lat="48.83409" lon="-0.3525">
        <ele>154.99487</ele>
        <time>2016-06-10T14:48:53Z</time>
      </trkpt>
      <trkpt lat="48.83405" lon="-0.35249">
        <ele>153.82513</ele>
        <time>2016-06-10T14:48:58Z</time>
      </trkpt>
      <trkpt lat="48.83404" lon="-0.35249">
        <ele>153.82513</ele>
        <time>2016-06-10T14:49:03Z</time>
      </trkpt>
      <trkpt lat="48.83403" lon="-0.35249">
        <ele>153.82513</ele>
        <time>2016-06-10T14:49:08Z</time>
      </trkpt>
      <trkpt lat="48.83401" lon="-0.35248">
        <ele>153.82513</ele>
        <time>2016-06-10T14:49:13Z</time>
      </trkpt>
      <trkpt lat="48.83398" lon="-0.35247">
        <ele>153.82513</ele>
        <time>2016-06-10T14:49:18Z</time>
      </trkpt>
      <trkpt lat="48.83393" lon="-0.35249">
        <ele>152.89192</ele>
        <time>2016-06-10T14:49:23Z</time>
      </trkpt>
      <trkpt lat="48.83389" lon="-0.35251">
        <ele>152.89192</ele>
        <time>2016-06-10T14:49:28Z</time>
      </trkpt>
      <trkpt lat="48.83384" lon="-0.35255">
        <ele>151.60435</ele>
        <time>2016-06-10T14:49:33Z</time>
      </trkpt>
      <trkpt lat="48.83376" lon="-0.35254">
        <ele>151.60435</ele>
        <time>2016-06-10T14:49:38Z</time>
      </trkpt>
      <trkpt lat="48.83371" lon="-0.35254">
        <ele>149.73273</ele>
        <time>2016-06-10T14:49:43Z</time>
      </trkpt>
      <trkpt lat="48.83365" lon="-0.35254">
        <ele>149.73273</ele>
        <time>2016-06-10T14:49:48Z</time>
      </trkpt>
      <trkpt lat="48.83362" lon="-0.35258">
        <ele>148.29068</ele>
        <time>2016-06-10T14:49:53Z</time>
      </trkpt>
      <trkpt lat="48.83356" lon="-0.35271">
        <ele>146.37135</ele>
        <time>2016-06-10T14:50:03Z</time>
      </trkpt>
      <trkpt lat="48.83357" lon="-0.35279">
        <ele>146.37135</ele>
        <time>2016-06-10T14:50:08Z</time>
      </trkpt>
      <trkpt lat="48.83359" lon="-0.3529">
        <ele>144.08679</ele>
        <time>2016-06-10T14:50:18Z</time>
      </trkpt>
      <trkpt lat="48.83358" lon="-0.35296">
        <ele>144.08679</ele>
        <time>2016-06-10T14:50:23Z</time>
      </trkpt>
      <trkpt lat="48.83363" lon="-0.35306">
        <ele>141.5849</ele>
        <time>2016-06-10T14:50:33Z</time>
      </trkpt>
      <trkpt lat="48.83366" lon="-0.35314">
        <ele>141.5849</ele>
        <time>2016-06-10T14:50:38Z</time>
      </trkpt>
      <trkpt lat="48.8337" lon="-0.35325">
        <ele>139.34901</ele>
        <time>2016-06-10T14:50:48Z</time>
      </trkpt>
      <trkpt lat="48.83373" lon="-0.3533">
        <ele>139.34901</ele>
        <time>2016-06-10T14:50:53Z</time>
      </trkpt>
      <trkpt lat="48.83379" lon="-0.35339">
        <ele>136.55785</ele>
        <time>2016-06-10T14:51:03Z</time>
      </trkpt>
      <trkpt lat="48.83383" lon="-0.35346">
        <ele>136.55785</ele>
        <time>2016-06-10T14:51:08Z</time>
      </trkpt>
      <trkpt lat="48.83384" lon="-0.35354">
        <ele>134.44052</ele>
        <time>2016-06-10T14:51:13Z</time>
      </trkpt>
      <trkpt lat="48.83388" lon="-0.35361">
        <ele>134.44052</ele>
        <time>2016-06-10T14:51:18Z</time>
      </trkpt>
      <trkpt lat="48.83393" lon="-0.35373">
        <ele>132.1595</ele>
        <time>2016-06-10T14:51:28Z</time>
      </trkpt>
      <trkpt lat="48.83395" lon="-0.35381">
        <ele>132.1595</ele>
        <time>2016-06-10T14:51:33Z</time>
      </trkpt>
      <trkpt lat="48.834" lon="-0.35396">
        <ele>130.1928</ele>
        <time>2016-06-10T14:51:43Z</time>
      </trkpt>
      <trkpt lat="48.83402" lon="-0.35408">
        <ele>130.1928</ele>
        <time>2016-06-10T14:51:48Z</time>
      </trkpt>
      <trkpt lat="48.83404" lon="-0.35423">
        <ele>128.7084</ele>
        <time>2016-06-10T14:51:58Z</time>
      </trkpt>
      <trkpt lat="48.83404" lon="-0.35424">
        <ele>128.7084</ele>
        <time>2016-06-10T14:52:03Z</time>
      </trkpt>
      <trkpt lat="48.83395" lon="-0.35435">
        <ele>127.125496</ele>
        <time>2016-06-10T14:52:18Z</time>
      </trkpt>
      <trkpt lat="48.83389" lon="-0.35437">
        <ele>127.125496</ele>
        <time>2016-06-10T14:52:23Z</time>
      </trkpt>
      <trkpt lat="48.83379" lon="-0.35434">
        <ele>125.79947</ele>
        <time>2016-06-10T14:52:33Z</time>
      </trkpt>
      <trkpt lat="48.83373" lon="-0.3543">
        <ele>125.79947</ele>
        <time>2016-06-10T14:52:38Z</time>
      </trkpt>
      <trkpt lat="48.83364" lon="-0.35429">
        <ele>124.06436</ele>
        <time>2016-06-10T14:52:48Z</time>
      </trkpt>
      <trkpt lat="48.83364" lon="-0.35429">
        <ele>124.06436</ele>
        <time>2016-06-10T14:52:53Z</time>
      </trkpt>
      <trkpt lat="48.83365" lon="-0.35431">
        <ele>124.06436</ele>
        <time>2016-06-10T14:53:03Z</time>
      </trkpt>
      <trkpt lat="48.83365" lon="-0.35432">
        <ele>124.06436</ele>
        <time>2016-06-10T14:53:08Z</time>
      </trkpt>
      <trkpt lat="48.83365" lon="-0.35432">
        <ele>124.06436</ele>
        <time>2016-06-10T14:53:18Z</time>
      </trkpt>
      <trkpt lat="48.83364" lon="-0.35432">
        <ele>124.06436</ele>
        <time>2016-06-10T14:53:23Z</time>
      </trkpt>
      <trkpt lat="48.83364" lon="-0.35432">
        <ele>124.06436</ele>
        <time>2016-06-10T14:53:33Z</time>
      </trkpt>
      <trkpt lat="48.83362" lon="-0.35431">
        <ele>124.06436</ele>
        <time>2016-06-10T14:53:38Z</time>
      </trkpt>
      <trkpt lat="48.83356" lon="-0.35434">
        <ele>122.35614</ele>
        <time>2016-06-10T14:53:48Z</time>
      </trkpt>
      <trkpt lat="48.83355" lon="-0.35433">
        <ele>122.35614</ele>
        <time>2016-06-10T14:53:53Z</time>
      </trkpt>
      <trkpt lat="48.83358" lon="-0.35438">
        <ele>122.35614</ele>
        <time>2016-06-10T14:54:03Z</time>
      </trkpt>
      <trkpt lat="48.83361" lon="-0.3544">
        <ele>119.78148</ele>
        <time>2016-06-10T14:54:08Z</time>
      </trkpt>
      <trkpt lat="48.83366" lon="-0.35449">
        <ele>119.78148</ele>
        <time>2016-06-10T14:54:23Z</time>
      </trkpt>
      <trkpt lat="48.83365" lon="-0.35454">
        <ele>118.03691</ele>
        <time>2016-06-10T14:54:28Z</time>
      </trkpt>
      <trkpt lat="48.83365" lon="-0.35454">
        <ele>118.03691</ele>
        <time>2016-06-10T14:54:38Z</time>
      </trkpt>
      <trkpt lat="48.83363" lon="-0.35456">
        <ele>118.03691</ele>
        <time>2016-06-10T14:54:43Z</time>
      </trkpt>
      <trkpt lat="48.83361" lon="-0.35469">
        <ele>115.449356</ele>
        <time>2016-06-10T14:54:53Z</time>
      </trkpt>
      <trkpt lat="48.83359" lon="-0.35469">
        <ele>115.449356</ele>
        <time>2016-06-10T14:54:58Z</time>
      </trkpt>
      <trkpt lat="48.83347" lon="-0.35468">
        <ele>113.43953</ele>
        <time>2016-06-10T14:55:08Z</time>
      </trkpt>
      <trkpt lat="48.83348" lon="-0.35467">
        <ele>113.43953</ele>
        <time>2016-06-10T14:55:13Z</time>
      </trkpt>
      <trkpt lat="48.83341" lon="-0.35463">
        <ele>113.43953</ele>
        <time>2016-06-10T14:55:23Z</time>
      </trkpt>
      <trkpt lat="48.8334" lon="-0.35462">
        <ele>111.56387</ele>
        <time>2016-06-10T14:55:28Z</time>
      </trkpt>
      <trkpt lat="48.8334" lon="-0.35463">
        <ele>111.56387</ele>
        <time>2016-06-10T14:55:38Z</time>
      </trkpt>
      <trkpt lat="48.83337" lon="-0.35459">
        <ele>111.56387</ele>
        <time>2016-06-10T14:55:43Z</time>
      </trkpt>
      <trkpt lat="48.83329" lon="-0.35457">
        <ele>110.11701</ele>
        <time>2016-06-10T14:55:53Z</time>
      </trkpt>
      <trkpt lat="48.8333" lon="-0.35454">
        <ele>110.11701</ele>
        <time>2016-06-10T14:55:58Z</time>
      </trkpt>
      <trkpt lat="48.83332" lon="-0.35451">
        <ele>110.11701</ele>
        <time>2016-06-10T14:56:08Z</time>
      </trkpt>
      <trkpt lat="48.83333" lon="-0.35447">
        <ele>110.11701</ele>
        <time>2016-06-10T14:56:13Z</time>
      </trkpt>
      <trkpt lat="48.83329" lon="-0.35445">
        <ele>109.34179</ele>
        <time>2016-06-10T14:56:23Z</time>
      </trkpt>
      <trkpt lat="48.83334" lon="-0.35441">
        <ele>109.34179</ele>
        <time>2016-06-10T14:56:28Z</time>
      </trkpt>
      <trkpt lat="48.83336" lon="-0.35438">
        <ele>109.34179</ele>
        <time>2016-06-10T14:56:38Z</time>
      </trkpt>
      <trkpt lat="48.83336" lon="-0.35441">
        <ele>108.20741</ele>
        <time>2016-06-10T14:56:43Z</time>
      </trkpt>
      <trkpt lat="48.83331" lon="-0.35444">
        <ele>108.20741</ele>
        <time>2016-06-10T14:56:53Z</time>
      </trkpt>
      <trkpt lat="48.8333" lon="-0.35443">
        <ele>108.20741</ele>
        <time>2016-06-10T14:56:58Z</time>
      </trkpt>
      <trkpt lat="48.83329" lon="-0.35439">
        <ele>107.15758</ele>
        <time>2016-06-10T14:57:08Z</time>
      </trkpt>
      <trkpt lat="48.83327" lon="-0.35439">
        <ele>107.15758</ele>
        <time>2016-06-10T14:57:13Z</time>
      </trkpt>
      <trkpt lat="48.83322" lon="-0.35438">
        <ele>107.15758</ele>
        <time>2016-06-10T14:57:28Z</time>
      </trkpt>
      <trkpt lat="48.83322" lon="-0.35438">
        <ele>107.15758</ele>
        <time>2016-06-10T14:57:33Z</time>
      </trkpt>
      <trkpt lat="48.8331" lon="-0.35436">
        <ele>107.0498</ele>
        <time>2016-06-10T14:57:43Z</time>
      </trkpt>
      <trkpt lat="48.83305" lon="-0.35439">
        <ele>107.0498</ele>
        <time>2016-06-10T14:57:48Z</time>
      </trkpt>
      <trkpt lat="48.83298" lon="-0.35438">
        <ele>106.398895</ele>
        <time>2016-06-10T14:57:58Z</time>
      </trkpt>
      <trkpt lat="48.83296" lon="-0.35446">
        <ele>106.398895</ele>
        <time>2016-06-10T14:58:03Z</time>
      </trkpt>
      <trkpt lat="48.83297" lon="-0.35446">
        <ele>106.398895</ele>
        <time>2016-06-10T14:58:13Z</time>
      </trkpt>
      <trkpt lat="48.83292" lon="-0.3545">
        <ele>105.919846</ele>
        <time>2016-06-10T14:58:18Z</time>
      </trkpt>
      <trkpt lat="48.83282" lon="-0.35459">
        <ele>105.611664</ele>
        <time>2016-06-10T14:58:28Z</time>
      </trkpt>
      <trkpt lat="48.83276" lon="-0.35459">
        <ele>105.611664</ele>
        <time>2016-06-10T14:58:33Z</time>
      </trkpt>
      <trkpt lat="48.83267" lon="-0.35462">
        <ele>105.68904</ele>
        <time>2016-06-10T14:58:43Z</time>
      </trkpt>
      <trkpt lat="48.83266" lon="-0.35462">
        <ele>105.68904</ele>
        <time>2016-06-10T14:58:48Z</time>
      </trkpt>
      <trkpt lat="48.83267" lon="-0.35462">
        <ele>105.68904</ele>
        <time>2016-06-10T14:58:58Z</time>
      </trkpt>
      <trkpt lat="48.83267" lon="-0.35464">
        <ele>105.68904</ele>
        <time>2016-06-10T14:59:03Z</time>
      </trkpt>
      <trkpt lat="48.83268" lon="-0.35465">
        <ele>105.68904</ele>
        <time>2016-06-10T14:59:13Z</time>
      </trkpt>
      <trkpt lat="48.83265" lon="-0.35465">
        <ele>105.68904</ele>
        <time>2016-06-10T14:59:18Z</time>
      </trkpt>
      <trkpt lat="48.83261" lon="-0.3547">
        <ele>105.91747</ele>
        <time>2016-06-10T14:59:28Z</time>
      </trkpt>
      <trkpt lat="48.83259" lon="-0.35471">
        <ele>105.91747</ele>
        <time>2016-06-10T14:59:33Z</time>
      </trkpt>
      <trkpt lat="48.83253" lon="-0.35493">
        <ele>105.86306</ele>
        <time>2016-06-10T14:59:48Z</time>
      </trkpt>
      <trkpt lat="48.83253" lon="-0.35495">
        <ele>105.86306</ele>
        <time>2016-06-10T14:59:53Z</time>
      </trkpt>
      <trkpt lat="48.83254" lon="-0.35515">
        <ele>105.11015</ele>
        <time>2016-06-10T15:00:03Z</time>
      </trkpt>
      <trkpt lat="48.8325" lon="-0.35524">
        <ele>105.11015</ele>
        <time>2016-06-10T15:00:08Z</time>
      </trkpt>
      <trkpt lat="48.8325" lon="-0.35534">
        <ele>103.261185</ele>
        <time>2016-06-10T15:00:18Z</time>
      </trkpt>
      <trkpt lat="48.83246" lon="-0.35544">
        <ele>103.261185</ele>
        <time>2016-06-10T15:00:23Z</time>
      </trkpt>
      <trkpt lat="48.83236" lon="-0.35559">
        <ele>102.14137</ele>
        <time>2016-06-10T15:00:33Z</time>
      </trkpt>
      <trkpt lat="48.83231" lon="-0.35565">
        <ele>102.14137</ele>
        <time>2016-06-10T15:00:38Z</time>
      </trkpt>
      <trkpt lat="48.83228" lon="-0.35576">
        <ele>101.436676</ele>
        <time>2016-06-10T15:00:48Z</time>
      </trkpt>
      <trkpt lat="48.83227" lon="-0.35591">
        <ele>100.86937</ele>
        <time>2016-06-10T15:00:53Z</time>
      </trkpt>
      <trkpt lat="48.83225" lon="-0.35606">
        <ele>100.0809</ele>
        <time>2016-06-10T15:01:08Z</time>
      </trkpt>
      <trkpt lat="48.83222" lon="-0.35612">
        <ele>100.0809</ele>
        <time>2016-06-10T15:01:13Z</time>
      </trkpt>
      <trkpt lat="48.83217" lon="-0.35627">
        <ele>99.301735</ele>
        <time>2016-06-10T15:01:23Z</time>
      </trkpt>
      <trkpt lat="48.83214" lon="-0.35635">
        <ele>99.301735</ele>
        <time>2016-06-10T15:01:28Z</time>
      </trkpt>
      <trkpt lat="48.83214" lon="-0.35646">
        <ele>98.38512</ele>
        <time>2016-06-10T15:01:38Z</time>
      </trkpt>
      <trkpt lat="48.83212" lon="-0.35651">
        <ele>98.38512</ele>
        <time>2016-06-10T15:01:43Z</time>
      </trkpt>
      <trkpt lat="48.83215" lon="-0.35667">
        <ele>96.892876</ele>
        <time>2016-06-10T15:01:53Z</time>
      </trkpt>
      <trkpt lat="48.83215" lon="-0.35671">
        <ele>96.892876</ele>
        <time>2016-06-10T15:01:58Z</time>
      </trkpt>
      <trkpt lat="48.83216" lon="-0.35678">
        <ele>96.892876</ele>
        <time>2016-06-10T15:02:08Z</time>
      </trkpt>
      <trkpt lat="48.83215" lon="-0.35681">
        <ele>95.242096</ele>
        <time>2016-06-10T15:02:13Z</time>
      </trkpt>
      <trkpt lat="48.83215" lon="-0.35681">
        <ele>95.242096</ele>
        <time>2016-06-10T15:02:18Z</time>
      </trkpt>
      <trkpt lat="48.83215" lon="-0.35684">
        <ele>95.242096</ele>
        <time>2016-06-10T15:02:23Z</time>
      </trkpt>
      <trkpt lat="48.83214" lon="-0.35684">
        <ele>95.242096</ele>
        <time>2016-06-10T15:02:28Z</time>
      </trkpt>
      <trkpt lat="48.83206" lon="-0.35687">
        <ele>94.0935</ele>
        <time>2016-06-10T15:02:33Z</time>
      </trkpt>
      <trkpt lat="48.83206" lon="-0.35727">
        <ele>92.42946</ele>
        <time>2016-06-10T15:02:43Z</time>
      </trkpt>
      <trkpt lat="48.83207" lon="-0.35731">
        <ele>92.42946</ele>
        <time>2016-06-10T15:02:48Z</time>
      </trkpt>
      <trkpt lat="48.83207" lon="-0.35751">
        <ele>90.79291</ele>
        <time>2016-06-10T15:03:03Z</time>
      </trkpt>
      <trkpt lat="48.83209" lon="-0.35762">
        <ele>90.79291</ele>
        <time>2016-06-10T15:03:08Z</time>
      </trkpt>
      <trkpt lat="48.83205" lon="-0.35777">
        <ele>88.8654</ele>
        <time>2016-06-10T15:03:18Z</time>
      </trkpt>
      <trkpt lat="48.83203" lon="-0.35782">
        <ele>88.8654</ele>
        <time>2016-06-10T15:03:23Z</time>
      </trkpt>
      <trkpt lat="48.832" lon="-0.35804">
        <ele>86.842705</ele>
        <time>2016-06-10T15:03:33Z</time>
      </trkpt>
      <trkpt lat="48.83199" lon="-0.35809">
        <ele>86.842705</ele>
        <time>2016-06-10T15:03:38Z</time>
      </trkpt>
      <trkpt lat="48.83195" lon="-0.35828">
        <ele>85.90086</ele>
        <time>2016-06-10T15:03:48Z</time>
      </trkpt>
      <trkpt lat="48.83196" lon="-0.35836">
        <ele>85.90086</ele>
        <time>2016-06-10T15:03:53Z</time>
      </trkpt>
      <trkpt lat="48.83193" lon="-0.35846">
        <ele>84.82071</ele>
        <time>2016-06-10T15:04:03Z</time>
      </trkpt>
      <trkpt lat="48.83192" lon="-0.35852">
        <ele>84.82071</ele>
        <time>2016-06-10T15:04:08Z</time>
      </trkpt>
      <trkpt lat="48.83187" lon="-0.35858">
        <ele>82.79011</ele>
        <time>2016-06-10T15:04:18Z</time>
      </trkpt>
      <trkpt lat="48.83186" lon="-0.35866">
        <ele>82.79011</ele>
        <time>2016-06-10T15:04:23Z</time>
      </trkpt>
      <trkpt lat="48.83175" lon="-0.35887">
        <ele>81.32177</ele>
        <time>2016-06-10T15:04:33Z</time>
      </trkpt>
      <trkpt lat="48.83174" lon="-0.35892">
        <ele>81.32177</ele>
        <time>2016-06-10T15:04:38Z</time>
      </trkpt>
      <trkpt lat="48.83176" lon="-0.35895">
        <ele>81.32177</ele>
        <time>2016-06-10T15:04:48Z</time>
      </trkpt>
      <trkpt lat="48.83171" lon="-0.35904">
        <ele>79.38026</ele>
        <time>2016-06-10T15:04:53Z</time>
      </trkpt>
      <trkpt lat="48.83174" lon="-0.35911">
        <ele>79.38026</ele>
        <time>2016-06-10T15:05:03Z</time>
      </trkpt>
      <trkpt lat="48.83172" lon="-0.35914">
        <ele>79.38026</ele>
        <time>2016-06-10T15:05:08Z</time>
      </trkpt>
      <trkpt lat="48.83166" lon="-0.35926">
        <ele>77.82332</ele>
        <time>2016-06-10T15:05:23Z</time>
      </trkpt>
      <trkpt lat="48.83166" lon="-0.35926">
        <ele>77.82332</ele>
        <time>2016-06-10T15:05:28Z</time>
      </trkpt>
      <trkpt lat="48.83165" lon="-0.35928">
        <ele>77.82332</ele>
        <time>2016-06-10T15:05:38Z</time>
      </trkpt>
      <trkpt lat="48.83165" lon="-0.35928">
        <ele>77.82332</ele>
        <time>2016-06-10T15:05:43Z</time>
      </trkpt>
      <trkpt lat="48.83165" lon="-0.35929">
        <ele>77.82332</ele>
        <time>2016-06-10T15:05:53Z</time>
      </trkpt>
      <trkpt lat="48.83165" lon="-0.35929">
        <ele>77.82332</ele>
        <time>2016-06-10T15:05:58Z</time>
      </trkpt>
      <trkpt lat="48.83162" lon="-0.35938">
        <ele>77.82332</ele>
        <time>2016-06-10T15:06:08Z</time>
      </trkpt>
      <trkpt lat="48.83162" lon="-0.35941">
        <ele>78.00665</ele>
        <time>2016-06-10T15:06:13Z</time>
      </trkpt>
      <trkpt lat="48.83162" lon="-0.35941">
        <ele>78.00665</ele>
        <time>2016-06-10T15:06:23Z</time>
      </trkpt>
      <trkpt lat="48.83162" lon="-0.35942">
        <ele>78.00665</ele>
        <time>2016-06-10T15:06:28Z</time>
      </trkpt>
      <trkpt lat="48.83162" lon="-0.35942">
        <ele>78.00665</ele>
        <time>2016-06-10T15:06:38Z</time>
      </trkpt>
      <trkpt lat="48.83162" lon="-0.35942">
        <ele>78.00665</ele>
        <time>2016-06-10T15:06:43Z</time>
      </trkpt>
      <trkpt lat="48.83162" lon="-0.35943">
        <ele>78.00665</ele>
        <time>2016-06-10T15:06:53Z</time>
      </trkpt>
      <trkpt lat="48.83162" lon="-0.35943">
        <ele>78.00665</ele>
        <time>2016-06-10T15:06:58Z</time>
      </trkpt>
      <trkpt lat="48.83162" lon="-0.35943">
        <ele>78.00665</ele>
        <time>2016-06-10T15:07:08Z</time>
      </trkpt>
      <trkpt lat="48.83162" lon="-0.35943">
        <ele>78.00665</ele>
        <time>2016-06-10T15:07:13Z</time>
      </trkpt>
      <trkpt lat="48.83168" lon="-0.35961">
        <ele>77.146385</ele>
        <time>2016-06-10T15:07:28Z</time>
      </trkpt>
      <trkpt lat="48.83168" lon="-0.35965">
        <ele>77.146385</ele>
        <time>2016-06-10T15:07:33Z</time>
      </trkpt>
      <trkpt lat="48.8316" lon="-0.35984">
        <ele>76.225624</ele>
        <time>2016-06-10T15:07:43Z</time>
      </trkpt>
      <trkpt lat="48.83158" lon="-0.35986">
        <ele>76.225624</ele>
        <time>2016-06-10T15:07:48Z</time>
      </trkpt>
      <trkpt lat="48.83158" lon="-0.35998">
        <ele>74.22434</ele>
        <time>2016-06-10T15:07:58Z</time>
      </trkpt>
      <trkpt lat="48.83154" lon="-0.36003">
        <ele>74.22434</ele>
        <time>2016-06-10T15:08:03Z</time>
      </trkpt>
      <trkpt lat="48.83154" lon="-0.36013">
        <ele>72.29011</ele>
        <time>2016-06-10T15:08:13Z</time>
      </trkpt>
      <trkpt lat="48.83151" lon="-0.36018">
        <ele>72.29011</ele>
        <time>2016-06-10T15:08:18Z</time>
      </trkpt>
      <trkpt lat="48.83147" lon="-0.36028">
        <ele>71.3419</ele>
        <time>2016-06-10T15:08:28Z</time>
      </trkpt>
      <trkpt lat="48.83144" lon="-0.36036">
        <ele>71.3419</ele>
        <time>2016-06-10T15:08:33Z</time>
      </trkpt>
      <trkpt lat="48.83132" lon="-0.36057">
        <ele>71.06114</ele>
        <time>2016-06-10T15:08:48Z</time>
      </trkpt>
      <trkpt lat="48.83124" lon="-0.3606">
        <ele>71.06114</ele>
        <time>2016-06-10T15:08:53Z</time>
      </trkpt>
      <trkpt lat="48.8312" lon="-0.36059">
        <ele>70.74728</ele>
        <time>2016-06-10T15:09:03Z</time>
      </trkpt>
      <trkpt lat="48.8312" lon="-0.36061">
        <ele>70.74728</ele>
        <time>2016-06-10T15:09:08Z</time>
      </trkpt>
      <trkpt lat="48.83119" lon="-0.36062">
        <ele>70.74728</ele>
        <time>2016-06-10T15:09:18Z</time>
      </trkpt>
      <trkpt lat="48.83118" lon="-0.36063">
        <ele>70.74728</ele>
        <time>2016-06-10T15:09:23Z</time>
      </trkpt>
      <trkpt lat="48.83112" lon="-0.36063">
        <ele>70.457466</ele>
        <time>2016-06-10T15:09:33Z</time>
      </trkpt>
      <trkpt lat="48.83112" lon="-0.36064">
        <ele>70.457466</ele>
        <time>2016-06-10T15:09:38Z</time>
      </trkpt>
      <trkpt lat="48.83111" lon="-0.36062">
        <ele>70.457466</ele>
        <time>2016-06-10T15:09:48Z</time>
      </trkpt>
      <trkpt lat="48.8311" lon="-0.36061">
        <ele>70.457466</ele>
        <time>2016-06-10T15:09:53Z</time>
      </trkpt>
      <trkpt lat="48.83108" lon="-0.36059">
        <ele>70.457466</ele>
        <time>2016-06-10T15:10:03Z</time>
      </trkpt>
      <trkpt lat="48.83109" lon="-0.36059">
        <ele>70.457466</ele>
        <time>2016-06-10T15:10:08Z</time>
      </trkpt>
      <trkpt lat="48.83108" lon="-0.36058">
        <ele>70.457466</ele>
        <time>2016-06-10T15:10:18Z</time>
      </trkpt>
      <trkpt lat="48.83108" lon="-0.36057">
        <ele>70.457466</ele>
        <time>2016-06-10T15:10:23Z</time>
      </trkpt>
      <trkpt lat="48.83108" lon="-0.36057">
        <ele>70.46081</ele>
        <time>2016-06-10T15:10:33Z</time>
      </trkpt>
      <trkpt lat="48.83108" lon="-0.36057">
        <ele>70.46081</ele>
        <time>2016-06-10T15:10:38Z</time>
      </trkpt>
      <trkpt lat="48.83108" lon="-0.36057">
        <ele>70.46081</ele>
        <time>2016-06-10T15:10:48Z</time>
      </trkpt>
      <trkpt lat="48.83111" lon="-0.3606">
        <ele>70.46081</ele>
        <time>2016-06-10T15:10:53Z</time>
      </trkpt>
      <trkpt lat="48.83118" lon="-0.3606">
        <ele>70.91937</ele>
        <time>2016-06-10T15:11:08Z</time>
      </trkpt>
      <trkpt lat="48.83118" lon="-0.3606">
        <ele>70.91937</ele>
        <time>2016-06-10T15:11:13Z</time>
      </trkpt>
      <trkpt lat="48.83118" lon="-0.3606">
        <ele>70.91937</ele>
        <time>2016-06-10T15:11:23Z</time>
      </trkpt>
      <trkpt lat="48.83118" lon="-0.3606">
        <ele>70.91937</ele>
        <time>2016-06-10T15:11:28Z</time>
      </trkpt>
      <trkpt lat="48.83118" lon="-0.3606">
        <ele>70.91937</ele>
        <time>2016-06-10T15:11:38Z</time>
      </trkpt>
      <trkpt lat="48.83118" lon="-0.3606">
        <ele>70.91937</ele>
        <time>2016-06-10T15:11:43Z</time>
      </trkpt>
      <trkpt lat="48.83118" lon="-0.3606">
        <ele>70.91937</ele>
        <time>2016-06-10T15:11:53Z</time>
      </trkpt>
      <trkpt lat="48.83118" lon="-0.3606">
        <ele>70.91937</ele>
        <time>2016-06-10T15:11:58Z</time>
      </trkpt>
      <trkpt lat="48.83109" lon="-0.36055">
        <ele>71.39123</ele>
        <time>2016-06-10T15:12:08Z</time>
      </trkpt>
      <trkpt lat="48.83105" lon="-0.36054">
        <ele>71.39123</ele>
        <time>2016-06-10T15:12:13Z</time>
      </trkpt>
      <trkpt lat="48.83099" lon="-0.3605">
        <ele>71.23634</ele>
        <time>2016-06-10T15:12:23Z</time>
      </trkpt>
      <trkpt lat="48.831" lon="-0.36049">
        <ele>71.23634</ele>
        <time>2016-06-10T15:12:28Z</time>
      </trkpt>
      <trkpt lat="48.83094" lon="-0.36046">
        <ele>71.23634</ele>
        <time>2016-06-10T15:12:38Z</time>
      </trkpt>
      <trkpt lat="48.83095" lon="-0.36042">
        <ele>71.23634</ele>
        <time>2016-06-10T15:12:43Z</time>
      </trkpt>
      <trkpt lat="48.83091" lon="-0.3604">
        <ele>71.17495</ele>
        <time>2016-06-10T15:12:53Z</time>
      </trkpt>
      <trkpt lat="48.8309" lon="-0.3604">
        <ele>71.17495</ele>
        <time>2016-06-10T15:12:58Z</time>
      </trkpt>
      <trkpt lat="48.83091" lon="-0.3604">
        <ele>71.17495</ele>
        <time>2016-06-10T15:13:08Z</time>
      </trkpt>
      <trkpt lat="48.83091" lon="-0.3604">
        <ele>71.17495</ele>
        <time>2016-06-10T15:13:13Z</time>
      </trkpt>
      <trkpt lat="48.83091" lon="-0.3604">
        <ele>71.17495</ele>
        <time>2016-06-10T15:13:23Z</time>
      </trkpt>
      <trkpt lat="48.83091" lon="-0.3604">
        <ele>71.17495</ele>
        <time>2016-06-10T15:13:28Z</time>
      </trkpt>
      <trkpt lat="48.83091" lon="-0.3604">
        <ele>71.17495</ele>
        <time>2016-06-10T15:13:43Z</time>
      </trkpt>
      <trkpt lat="48.83091" lon="-0.3604">
        <ele>71.17495</ele>
        <time>2016-06-10T15:13:48Z</time>
      </trkpt>
      <trkpt lat="48.83091" lon="-0.3604">
        <ele>71.17495</ele>
        <time>2016-06-10T15:13:58Z</time>
      </trkpt>
      <trkpt lat="48.83091" lon="-0.3604">
        <ele>71.17495</ele>
        <time>2016-06-10T15:14:03Z</time>
      </trkpt>
      <trkpt lat="48.83091" lon="-0.3604">
        <ele>71.17495</ele>
        <time>2016-06-10T15:14:13Z</time>
      </trkpt>
      <trkpt lat="48.83091" lon="-0.3604">
        <ele>71.17495</ele>
        <time>2016-06-10T15:14:18Z</time>
      </trkpt>
      <trkpt lat="48.83086" lon="-0.36038">
        <ele>71.17495</ele>
        <time>2016-06-10T15:14:28Z</time>
      </trkpt>
      <trkpt lat="48.83083" lon="-0.36041">
        <ele>70.98066</ele>
        <time>2016-06-10T15:14:33Z</time>
      </trkpt>
      <trkpt lat="48.83082" lon="-0.3604">
        <ele>70.98066</ele>
        <time>2016-06-10T15:14:43Z</time>
      </trkpt>
      <trkpt lat="48.83082" lon="-0.3604">
        <ele>70.98066</ele>
        <time>2016-06-10T15:14:48Z</time>
      </trkpt>
      <trkpt lat="48.83082" lon="-0.3604">
        <ele>70.98066</ele>
        <time>2016-06-10T15:14:58Z</time>
      </trkpt>
      <trkpt lat="48.83082" lon="-0.3604">
        <ele>70.98066</ele>
        <time>2016-06-10T15:15:03Z</time>
      </trkpt>
      <trkpt lat="48.83082" lon="-0.3604">
        <ele>70.98066</ele>
        <time>2016-06-10T15:15:13Z</time>
      </trkpt>
      <trkpt lat="48.83082" lon="-0.3604">
        <ele>70.98066</ele>
        <time>2016-06-10T15:15:18Z</time>
      </trkpt>
      <trkpt lat="48.83075" lon="-0.36033">
        <ele>70.98066</ele>
        <time>2016-06-10T15:15:28Z</time>
      </trkpt>
      <trkpt lat="48.83074" lon="-0.36032">
        <ele>71.40974</ele>
        <time>2016-06-10T15:15:33Z</time>
      </trkpt>
      <trkpt lat="48.83071" lon="-0.36025">
        <ele>71.40974</ele>
        <time>2016-06-10T15:15:43Z</time>
      </trkpt>
      <trkpt lat="48.83063" lon="-0.36016">
        <ele>71.403046</ele>
        <time>2016-06-10T15:15:48Z</time>
      </trkpt>
      <trkpt lat="48.83051" lon="-0.35998">
        <ele>71.49372</ele>
        <time>2016-06-10T15:16:03Z</time>
      </trkpt>
      <trkpt lat="48.8305" lon="-0.35997">
        <ele>71.49372</ele>
        <time>2016-06-10T15:16:08Z</time>
      </trkpt>
      <trkpt lat="48.83051" lon="-0.35987">
        <ele>71.49372</ele>
        <time>2016-06-10T15:16:18Z</time>
      </trkpt>
      <trkpt lat="48.83049" lon="-0.35984">
        <ele>70.40299</ele>
        <time>2016-06-10T15:16:23Z</time>
      </trkpt>
      <trkpt lat="48.83041" lon="-0.35968">
        <ele>69.44254</ele>
        <time>2016-06-10T15:16:33Z</time>
      </trkpt>
      <trkpt lat="48.83038" lon="-0.35969">
        <ele>69.44254</ele>
        <time>2016-06-10T15:16:38Z</time>
      </trkpt>
      <trkpt lat="48.83032" lon="-0.3596">
        <ele>68.8763</ele>
        <time>2016-06-10T15:16:48Z</time>
      </trkpt>
      <trkpt lat="48.83029" lon="-0.35952">
        <ele>68.8763</ele>
        <time>2016-06-10T15:16:53Z</time>
      </trkpt>
      <trkpt lat="48.83024" lon="-0.35939">
        <ele>67.91015</ele>
        <time>2016-06-10T15:17:03Z</time>
      </trkpt>
      <trkpt lat="48.83021" lon="-0.35931">
        <ele>67.91015</ele>
        <time>2016-06-10T15:17:08Z</time>
      </trkpt>
      <trkpt lat="48.83013" lon="-0.3591">
        <ele>66.96242</ele>
        <time>2016-06-10T15:17:18Z</time>
      </trkpt>
      <trkpt lat="48.8301" lon="-0.35904">
        <ele>66.96242</ele>
        <time>2016-06-10T15:17:23Z</time>
      </trkpt>
      <trkpt lat="48.83006" lon="-0.359">
        <ele>67.09805</ele>
        <time>2016-06-10T15:17:33Z</time>
      </trkpt>
      <trkpt lat="48.83005" lon="-0.35899">
        <ele>67.09805</ele>
        <time>2016-06-10T15:17:38Z</time>
      </trkpt>
      <trkpt lat="48.83005" lon="-0.35898">
        <ele>67.09805</ele>
        <time>2016-06-10T15:17:48Z</time>
      </trkpt>
      <trkpt lat="48.82999" lon="-0.35888">
        <ele>66.93737</ele>
        <time>2016-06-10T15:17:53Z</time>
      </trkpt>
      <trkpt lat="48.82993" lon="-0.35865">
        <ele>66.49993</ele>
        <time>2016-06-10T15:18:03Z</time>
      </trkpt>
      <trkpt lat="48.82991" lon="-0.35862">
        <ele>66.49993</ele>
        <time>2016-06-10T15:18:08Z</time>
      </trkpt>
      <trkpt lat="48.82981" lon="-0.35835">
        <ele>65.68944</ele>
        <time>2016-06-10T15:18:23Z</time>
      </trkpt>
      <trkpt lat="48.82979" lon="-0.3582">
        <ele>64.44658</ele>
        <time>2016-06-10T15:18:28Z</time>
      </trkpt>
      <trkpt lat="48.82978" lon="-0.35823">
        <ele>64.44658</ele>
        <time>2016-06-10T15:18:38Z</time>
      </trkpt>
      <trkpt lat="48.82977" lon="-0.35824">
        <ele>64.44658</ele>
        <time>2016-06-10T15:18:43Z</time>
      </trkpt>
      <trkpt lat="48.82977" lon="-0.35824">
        <ele>64.44658</ele>
        <time>2016-06-10T15:18:48Z</time>
      </trkpt>
      <trkpt lat="48.82977" lon="-0.35824">
        <ele>64.44658</ele>
        <time>2016-06-10T15:18:53Z</time>
      </trkpt>
      <trkpt lat="48.82971" lon="-0.3582">
        <ele>64.02911</ele>
        <time>2016-06-10T15:19:03Z</time>
      </trkpt>
      <trkpt lat="48.82963" lon="-0.35807">
        <ele>63.798744</ele>
        <time>2016-06-10T15:19:08Z</time>
      </trkpt>
      <trkpt lat="48.82963" lon="-0.35803">
        <ele>63.798744</ele>
        <time>2016-06-10T15:19:18Z</time>
      </trkpt>
      <trkpt lat="48.82961" lon="-0.35801">
        <ele>63.798744</ele>
        <time>2016-06-10T15:19:23Z</time>
      </trkpt>
      <trkpt lat="48.8296" lon="-0.358">
        <ele>63.798744</ele>
        <time>2016-06-10T15:19:33Z</time>
      </trkpt>
      <trkpt lat="48.82957" lon="-0.35792">
        <ele>63.048317</ele>
        <time>2016-06-10T15:19:38Z</time>
      </trkpt>
      <trkpt lat="48.82947" lon="-0.3578">
        <ele>62.651714</ele>
        <time>2016-06-10T15:19:43Z</time>
      </trkpt>
      <trkpt lat="48.82945" lon="-0.35772">
        <ele>62.651714</ele>
        <time>2016-06-10T15:19:48Z</time>
      </trkpt>
      <trkpt lat="48.8294" lon="-0.35763">
        <ele>62.524204</ele>
        <time>2016-06-10T15:19:53Z</time>
      </trkpt>
      <trkpt lat="48.82936" lon="-0.35754">
        <ele>62.524204</ele>
        <time>2016-06-10T15:19:58Z</time>
      </trkpt>
      <trkpt lat="48.82924" lon="-0.35727">
        <ele>62.94685</ele>
        <time>2016-06-10T15:20:13Z</time>
      </trkpt>
      <trkpt lat="48.82925" lon="-0.35725">
        <ele>62.94685</ele>
        <time>2016-06-10T15:20:18Z</time>
      </trkpt>
      <trkpt lat="48.82925" lon="-0.35726">
        <ele>62.94685</ele>
        <time>2016-06-10T15:20:28Z</time>
      </trkpt>
      <trkpt lat="48.82925" lon="-0.35726">
        <ele>62.94685</ele>
        <time>2016-06-10T15:20:33Z</time>
      </trkpt>
      <trkpt lat="48.82923" lon="-0.3572">
        <ele>62.94685</ele>
        <time>2016-06-10T15:20:43Z</time>
      </trkpt>
      <trkpt lat="48.82917" lon="-0.3571">
        <ele>62.795116</ele>
        <time>2016-06-10T15:20:48Z</time>
      </trkpt>
      <trkpt lat="48.82913" lon="-0.35703">
        <ele>62.795116</ele>
        <time>2016-06-10T15:20:58Z</time>
      </trkpt>
      <trkpt lat="48.82913" lon="-0.35702">
        <ele>62.795116</ele>
        <time>2016-06-10T15:21:03Z</time>
      </trkpt>
      <trkpt lat="48.82908" lon="-0.35684">
        <ele>63.046303</ele>
        <time>2016-06-10T15:21:13Z</time>
      </trkpt>
      <trkpt lat="48.82907" lon="-0.35675">
        <ele>63.046303</ele>
        <time>2016-06-10T15:21:18Z</time>
      </trkpt>
      <trkpt lat="48.82897" lon="-0.35655">
        <ele>62.745815</ele>
        <time>2016-06-10T15:21:28Z</time>
      </trkpt>
      <trkpt lat="48.82891" lon="-0.35647">
        <ele>62.745815</ele>
        <time>2016-06-10T15:21:33Z</time>
      </trkpt>
      <trkpt lat="48.82891" lon="-0.35639">
        <ele>63.64802</ele>
        <time>2016-06-10T15:21:43Z</time>
      </trkpt>
      <trkpt lat="48.82893" lon="-0.35639">
        <ele>63.64802</ele>
        <time>2016-06-10T15:21:48Z</time>
      </trkpt>
      <trkpt lat="48.8289" lon="-0.35637">
        <ele>63.64802</ele>
        <time>2016-06-10T15:21:58Z</time>
      </trkpt>
      <trkpt lat="48.8289" lon="-0.35632">
        <ele>63.64802</ele>
        <time>2016-06-10T15:22:03Z</time>
      </trkpt>
      <trkpt lat="48.82888" lon="-0.3563">
        <ele>64.04616</ele>
        <time>2016-06-10T15:22:18Z</time>
      </trkpt>
      <trkpt lat="48.82885" lon="-0.35623">
        <ele>64.04616</ele>
        <time>2016-06-10T15:22:23Z</time>
      </trkpt>
      <trkpt lat="48.82878" lon="-0.35613">
        <ele>64.86783</ele>
        <time>2016-06-10T15:22:33Z</time>
      </trkpt>
      <trkpt lat="48.82878" lon="-0.35609">
        <ele>64.86783</ele>
        <time>2016-06-10T15:22:38Z</time>
      </trkpt>
      <trkpt lat="48.82875" lon="-0.35601">
        <ele>64.86783</ele>
        <time>2016-06-10T15:22:48Z</time>
      </trkpt>
      <trkpt lat="48.82874" lon="-0.356">
        <ele>65.54471</ele>
        <time>2016-06-10T15:22:53Z</time>
      </trkpt>
      <trkpt lat="48.82874" lon="-0.35598">
        <ele>65.54471</ele>
        <time>2016-06-10T15:23:03Z</time>
      </trkpt>
      <trkpt lat="48.82874" lon="-0.35598">
        <ele>65.54471</ele>
        <time>2016-06-10T15:23:08Z</time>
      </trkpt>
      <trkpt lat="48.82874" lon="-0.35598">
        <ele>65.54471</ele>
        <time>2016-06-10T15:23:18Z</time>
      </trkpt>
      <trkpt lat="48.82874" lon="-0.35598">
        <ele>65.54471</ele>
        <time>2016-06-10T15:23:23Z</time>
      </trkpt>
      <trkpt lat="48.82861" lon="-0.35579">
        <ele>66.11273</ele>
        <time>2016-06-10T15:23:33Z</time>
      </trkpt>
      <trkpt lat="48.82861" lon="-0.35575">
        <ele>66.11273</ele>
        <time>2016-06-10T15:23:38Z</time>
      </trkpt>
      <trkpt lat="48.8286" lon="-0.35573">
        <ele>66.11273</ele>
        <time>2016-06-10T15:23:53Z</time>
      </trkpt>
      <trkpt lat="48.82858" lon="-0.35566">
        <ele>66.59116</ele>
        <time>2016-06-10T15:23:58Z</time>
      </trkpt>
      <trkpt lat="48.82856" lon="-0.35558">
        <ele>66.59116</ele>
        <time>2016-06-10T15:24:08Z</time>
      </trkpt>
      <trkpt lat="48.82853" lon="-0.35552">
        <ele>66.724396</ele>
        <time>2016-06-10T15:24:13Z</time>
      </trkpt>
      <trkpt lat="48.82848" lon="-0.35537">
        <ele>67.60247</ele>
        <time>2016-06-10T15:24:23Z</time>
      </trkpt>
      <trkpt lat="48.82848" lon="-0.35526">
        <ele>67.60247</ele>
        <time>2016-06-10T15:24:28Z</time>
      </trkpt>
      <trkpt lat="48.82842" lon="-0.35518">
        <ele>67.17819</ele>
        <time>2016-06-10T15:24:38Z</time>
      </trkpt>
      <trkpt lat="48.82841" lon="-0.35516">
        <ele>67.17819</ele>
        <time>2016-06-10T15:24:43Z</time>
      </trkpt>
      <trkpt lat="48.8284" lon="-0.35515">
        <ele>67.17819</ele>
        <time>2016-06-10T15:24:53Z</time>
      </trkpt>
      <trkpt lat="48.8284" lon="-0.35515">
        <ele>67.17819</ele>
        <time>2016-06-10T15:24:58Z</time>
      </trkpt>
      <trkpt lat="48.8284" lon="-0.35515">
        <ele>67.17819</ele>
        <time>2016-06-10T15:25:08Z</time>
      </trkpt>
      <trkpt lat="48.8284" lon="-0.35515">
        <ele>67.17819</ele>
        <time>2016-06-10T15:25:13Z</time>
      </trkpt>
      <trkpt lat="48.82826" lon="-0.3548">
        <ele>65.748985</ele>
        <time>2016-06-10T15:25:23Z</time>
      </trkpt>
      <trkpt lat="48.82823" lon="-0.35473">
        <ele>65.748985</ele>
        <time>2016-06-10T15:25:28Z</time>
      </trkpt>
      <trkpt lat="48.82821" lon="-0.35459">
        <ele>63.578922</ele>
        <time>2016-06-10T15:25:38Z</time>
      </trkpt>
      <trkpt lat="48.82815" lon="-0.35449">
        <ele>63.578922</ele>
        <time>2016-06-10T15:25:43Z</time>
      </trkpt>
      <trkpt lat="48.82804" lon="-0.35435">
        <ele>63.26382</ele>
        <time>2016-06-10T15:25:53Z</time>
      </trkpt>
      <trkpt lat="48.828" lon="-0.35429">
        <ele>63.26382</ele>
        <time>2016-06-10T15:25:58Z</time>
      </trkpt>
      <trkpt lat="48.82791" lon="-0.35415">
        <ele>62.491238</ele>
        <time>2016-06-10T15:26:13Z</time>
      </trkpt>
      <trkpt lat="48.82786" lon="-0.35412">
        <ele>62.491238</ele>
        <time>2016-06-10T15:26:18Z</time>
      </trkpt>
      <trkpt lat="48.82783" lon="-0.35411">
        <ele>62.722713</ele>
        <time>2016-06-10T15:26:23Z</time>
      </trkpt>
      <trkpt lat="48.82779" lon="-0.35409">
        <ele>62.722713</ele>
        <time>2016-06-10T15:26:28Z</time>
      </trkpt>
      <trkpt lat="48.82777" lon="-0.35402">
        <ele>62.51389</ele>
        <time>2016-06-10T15:26:33Z</time>
      </trkpt>
      <trkpt lat="48.82776" lon="-0.35395">
        <ele>62.51389</ele>
        <time>2016-06-10T15:26:38Z</time>
      </trkpt>
      <trkpt lat="48.82775" lon="-0.35392">
        <ele>62.51389</ele>
        <time>2016-06-10T15:26:43Z</time>
      </trkpt>
      <trkpt lat="48.82774" lon="-0.35386">
        <ele>62.026543</ele>
        <time>2016-06-10T15:26:48Z</time>
      </trkpt>
      <trkpt lat="48.8277" lon="-0.35382">
        <ele>62.026543</ele>
        <time>2016-06-10T15:26:53Z</time>
      </trkpt>
      <trkpt lat="48.82767" lon="-0.35378">
        <ele>61.78607</ele>
        <time>2016-06-10T15:26:58Z</time>
      </trkpt>
      <trkpt lat="48.82764" lon="-0.3536">
        <ele>61.241028</ele>
        <time>2016-06-10T15:27:08Z</time>
      </trkpt>
      <trkpt lat="48.82756" lon="-0.35354">
        <ele>61.241028</ele>
        <time>2016-06-10T15:27:13Z</time>
      </trkpt>
      <trkpt lat="48.82744" lon="-0.3535">
        <ele>61.87008</ele>
        <time>2016-06-10T15:27:23Z</time>
      </trkpt>
      <trkpt lat="48.82741" lon="-0.35344">
        <ele>61.87008</ele>
        <time>2016-06-10T15:27:28Z</time>
      </trkpt>
      <trkpt lat="48.82733" lon="-0.35324">
        <ele>61.739872</ele>
        <time>2016-06-10T15:27:43Z</time>
      </trkpt>
      <trkpt lat="48.82729" lon="-0.35323">
        <ele>61.739872</ele>
        <time>2016-06-10T15:27:48Z</time>
      </trkpt>
      <trkpt lat="48.82725" lon="-0.35313">
        <ele>62.145218</ele>
        <time>2016-06-10T15:27:58Z</time>
      </trkpt>
      <trkpt lat="48.82721" lon="-0.35306">
        <ele>62.145218</ele>
        <time>2016-06-10T15:28:03Z</time>
      </trkpt>
      <trkpt lat="48.82711" lon="-0.35291">
        <ele>63.333206</ele>
        <time>2016-06-10T15:28:13Z</time>
      </trkpt>
      <trkpt lat="48.82707" lon="-0.35286">
        <ele>63.333206</ele>
        <time>2016-06-10T15:28:18Z</time>
      </trkpt>
      <trkpt lat="48.82704" lon="-0.35278">
        <ele>64.37772</ele>
        <time>2016-06-10T15:28:28Z</time>
      </trkpt>
      <trkpt lat="48.82704" lon="-0.35273">
        <ele>64.37772</ele>
        <time>2016-06-10T15:28:33Z</time>
      </trkpt>
      <trkpt lat="48.82693" lon="-0.35268">
        <ele>64.34909</ele>
        <time>2016-06-10T15:28:43Z</time>
      </trkpt>
      <trkpt lat="48.8269" lon="-0.35261">
        <ele>64.34909</ele>
        <time>2016-06-10T15:28:48Z</time>
      </trkpt>
      <trkpt lat="48.82688" lon="-0.35246">
        <ele>64.21917</ele>
        <time>2016-06-10T15:28:58Z</time>
      </trkpt>
      <trkpt lat="48.82685" lon="-0.35241">
        <ele>64.21917</ele>
        <time>2016-06-10T15:29:03Z</time>
      </trkpt>
      <trkpt lat="48.82678" lon="-0.35222">
        <ele>64.41321</ele>
        <time>2016-06-10T15:29:18Z</time>
      </trkpt>
      <trkpt lat="48.82672" lon="-0.35218">
        <ele>64.41321</ele>
        <time>2016-06-10T15:29:23Z</time>
      </trkpt>
      <trkpt lat="48.82658" lon="-0.35203">
        <ele>64.89201</ele>
        <time>2016-06-10T15:29:33Z</time>
      </trkpt>
      <trkpt lat="48.82656" lon="-0.352">
        <ele>64.89201</ele>
        <time>2016-06-10T15:29:38Z</time>
      </trkpt>
      <trkpt lat="48.82653" lon="-0.35195">
        <ele>64.89201</ele>
        <time>2016-06-10T15:29:48Z</time>
      </trkpt>
      <trkpt lat="48.82649" lon="-0.35189">
        <ele>65.17178</ele>
        <time>2016-06-10T15:29:53Z</time>
      </trkpt>
      <trkpt lat="48.82634" lon="-0.3518">
        <ele>66.375656</ele>
        <time>2016-06-10T15:30:03Z</time>
      </trkpt>
      <trkpt lat="48.82633" lon="-0.35176">
        <ele>66.375656</ele>
        <time>2016-06-10T15:30:08Z</time>
      </trkpt>
      <trkpt lat="48.82631" lon="-0.35173">
        <ele>66.375656</ele>
        <time>2016-06-10T15:30:18Z</time>
      </trkpt>
      <trkpt lat="48.82631" lon="-0.35172">
        <ele>66.375656</ele>
        <time>2016-06-10T15:30:23Z</time>
      </trkpt>
      <trkpt lat="48.82631" lon="-0.35163">
        <ele>67.1639</ele>
        <time>2016-06-10T15:30:33Z</time>
      </trkpt>
      <trkpt lat="48.82629" lon="-0.35154">
        <ele>67.1639</ele>
        <time>2016-06-10T15:30:38Z</time>
      </trkpt>
      <trkpt lat="48.82624" lon="-0.35146">
        <ele>67.27638</ele>
        <time>2016-06-10T15:30:48Z</time>
      </trkpt>
      <trkpt lat="48.82621" lon="-0.3514">
        <ele>67.27638</ele>
        <time>2016-06-10T15:30:53Z</time>
      </trkpt>
      <trkpt lat="48.82608" lon="-0.35126">
        <ele>67.68453</ele>
        <time>2016-06-10T15:31:03Z</time>
      </trkpt>
      <trkpt lat="48.82601" lon="-0.35124">
        <ele>67.68453</ele>
        <time>2016-06-10T15:31:08Z</time>
      </trkpt>
      <trkpt lat="48.82601" lon="-0.35095">
        <ele>69.172386</ele>
        <time>2016-06-10T15:31:18Z</time>
      </trkpt>
      <trkpt lat="48.82602" lon="-0.3509">
        <ele>69.172386</ele>
        <time>2016-06-10T15:31:23Z</time>
      </trkpt>
      <trkpt lat="48.8259" lon="-0.35085">
        <ele>70.46025</ele>
        <time>2016-06-10T15:31:38Z</time>
      </trkpt>
      <trkpt lat="48.82591" lon="-0.35083">
        <ele>70.46025</ele>
        <time>2016-06-10T15:31:43Z</time>
      </trkpt>
      <trkpt lat="48.8259" lon="-0.3508">
        <ele>70.46025</ele>
        <time>2016-06-10T15:31:53Z</time>
      </trkpt>
      <trkpt lat="48.8259" lon="-0.3508">
        <ele>70.46025</ele>
        <time>2016-06-10T15:31:58Z</time>
      </trkpt>
      <trkpt lat="48.8258" lon="-0.35075">
        <ele>71.37185</ele>
        <time>2016-06-10T15:32:08Z</time>
      </trkpt>
      <trkpt lat="48.82574" lon="-0.35061">
        <ele>71.442345</ele>
        <time>2016-06-10T15:32:13Z</time>
      </trkpt>
      <trkpt lat="48.82566" lon="-0.35043">
        <ele>71.26665</ele>
        <time>2016-06-10T15:32:23Z</time>
      </trkpt>
      <trkpt lat="48.82562" lon="-0.35039">
        <ele>71.26665</ele>
        <time>2016-06-10T15:32:28Z</time>
      </trkpt>
      <trkpt lat="48.82546" lon="-0.35034">
        <ele>72.08847</ele>
        <time>2016-06-10T15:32:38Z</time>
      </trkpt>
      <trkpt lat="48.82542" lon="-0.35022">
        <ele>72.08847</ele>
        <time>2016-06-10T15:32:43Z</time>
      </trkpt>
      <trkpt lat="48.82536" lon="-0.35011">
        <ele>72.679596</ele>
        <time>2016-06-10T15:32:53Z</time>
      </trkpt>
      <trkpt lat="48.82534" lon="-0.35002">
        <ele>72.679596</ele>
        <time>2016-06-10T15:32:58Z</time>
      </trkpt>
      <trkpt lat="48.8252" lon="-0.34988">
        <ele>73.257355</ele>
        <time>2016-06-10T15:33:08Z</time>
      </trkpt>
      <trkpt lat="48.82517" lon="-0.34984">
        <ele>73.257355</ele>
        <time>2016-06-10T15:33:13Z</time>
      </trkpt>
      <trkpt lat="48.82519" lon="-0.34977">
        <ele>73.27387</ele>
        <time>2016-06-10T15:33:23Z</time>
      </trkpt>
      <trkpt lat="48.82515" lon="-0.34977">
        <ele>73.27387</ele>
        <time>2016-06-10T15:33:28Z</time>
      </trkpt>
      <trkpt lat="48.82506" lon="-0.34947">
        <ele>73.649826</ele>
        <time>2016-06-10T15:33:43Z</time>
      </trkpt>
      <trkpt lat="48.82501" lon="-0.3494">
        <ele>73.649826</ele>
        <time>2016-06-10T15:33:48Z</time>
      </trkpt>
      <trkpt lat="48.82496" lon="-0.34941">
        <ele>74.04119</ele>
        <time>2016-06-10T15:33:58Z</time>
      </trkpt>
      <trkpt lat="48.8249" lon="-0.34944">
        <ele>74.04119</ele>
        <time>2016-06-10T15:34:03Z</time>
      </trkpt>
      <trkpt lat="48.82491" lon="-0.3494">
        <ele>74.04119</ele>
        <time>2016-06-10T15:34:08Z</time>
      </trkpt>
      <trkpt lat="48.82488" lon="-0.34933">
        <ele>73.29338</ele>
        <time>2016-06-10T15:34:13Z</time>
      </trkpt>
      <trkpt lat="48.8249" lon="-0.34914">
        <ele>71.550385</ele>
        <time>2016-06-10T15:34:18Z</time>
      </trkpt>
      <trkpt lat="48.82482" lon="-0.34912">
        <ele>71.550385</ele>
        <time>2016-06-10T15:34:23Z</time>
      </trkpt>
      <trkpt lat="48.82476" lon="-0.34911">
        <ele>70.53367</ele>
        <time>2016-06-10T15:34:28Z</time>
      </trkpt>
      <trkpt lat="48.82475" lon="-0.34906">
        <ele>70.53367</ele>
        <time>2016-06-10T15:34:33Z</time>
      </trkpt>
      <trkpt lat="48.82481" lon="-0.34899">
        <ele>69.22782</ele>
        <time>2016-06-10T15:34:38Z</time>
      </trkpt>
      <trkpt lat="48.8247" lon="-0.34892">
        <ele>68.39333</ele>
        <time>2016-06-10T15:34:48Z</time>
      </trkpt>
      <trkpt lat="48.82468" lon="-0.34886">
        <ele>68.39333</ele>
        <time>2016-06-10T15:34:53Z</time>
      </trkpt>
      <trkpt lat="48.8246" lon="-0.34874">
        <ele>68.08502</ele>
        <time>2016-06-10T15:35:03Z</time>
      </trkpt>
      <trkpt lat="48.82463" lon="-0.34869">
        <ele>68.08502</ele>
        <time>2016-06-10T15:35:08Z</time>
      </trkpt>
      <trkpt lat="48.8246" lon="-0.34865">
        <ele>68.08502</ele>
        <time>2016-06-10T15:35:18Z</time>
      </trkpt>
      <trkpt lat="48.82458" lon="-0.34862">
        <ele>67.559555</ele>
        <time>2016-06-10T15:35:23Z</time>
      </trkpt>
      <trkpt lat="48.82458" lon="-0.34861">
        <ele>67.559555</ele>
        <time>2016-06-10T15:35:33Z</time>
      </trkpt>
      <trkpt lat="48.82448" lon="-0.34851">
        <ele>67.07996</ele>
        <time>2016-06-10T15:35:38Z</time>
      </trkpt>
      <trkpt lat="48.82437" lon="-0.34826">
        <ele>65.80893</ele>
        <time>2016-06-10T15:35:48Z</time>
      </trkpt>
      <trkpt lat="48.82434" lon="-0.34816">
        <ele>65.80893</ele>
        <time>2016-06-10T15:35:53Z</time>
      </trkpt>
      <trkpt lat="48.82427" lon="-0.34796">
        <ele>64.889534</ele>
        <time>2016-06-10T15:36:03Z</time>
      </trkpt>
      <trkpt lat="48.82425" lon="-0.34788">
        <ele>64.889534</ele>
        <time>2016-06-10T15:36:08Z</time>
      </trkpt>
      <trkpt lat="48.82418" lon="-0.34767">
        <ele>63.189377</ele>
        <time>2016-06-10T15:36:23Z</time>
      </trkpt>
      <trkpt lat="48.82417" lon="-0.34761">
        <ele>63.189377</ele>
        <time>2016-06-10T15:36:28Z</time>
      </trkpt>
      <trkpt lat="48.82412" lon="-0.34753">
        <ele>61.92392</ele>
        <time>2016-06-10T15:36:38Z</time>
      </trkpt>
      <trkpt lat="48.82408" lon="-0.34744">
        <ele>61.92392</ele>
        <time>2016-06-10T15:36:43Z</time>
      </trkpt>
      <trkpt lat="48.824" lon="-0.34728">
        <ele>62.318947</ele>
        <time>2016-06-10T15:36:53Z</time>
      </trkpt>
      <trkpt lat="48.82398" lon="-0.34719">
        <ele>62.318947</ele>
        <time>2016-06-10T15:36:58Z</time>
      </trkpt>
      <trkpt lat="48.82391" lon="-0.34709">
        <ele>62.98354</ele>
        <time>2016-06-10T15:37:08Z</time>
      </trkpt>
      <trkpt lat="48.82387" lon="-0.34704">
        <ele>62.98354</ele>
        <time>2016-06-10T15:37:13Z</time>
      </trkpt>
      <trkpt lat="48.82391" lon="-0.34696">
        <ele>64.05485</ele>
        <time>2016-06-10T15:37:23Z</time>
      </trkpt>
      <trkpt lat="48.8239" lon="-0.34687">
        <ele>64.05485</ele>
        <time>2016-06-10T15:37:28Z</time>
      </trkpt>
      <trkpt lat="48.82382" lon="-0.34671">
        <ele>65.615524</ele>
        <time>2016-06-10T15:37:38Z</time>
      </trkpt>
      <trkpt lat="48.82379" lon="-0.34662">
        <ele>65.615524</ele>
        <time>2016-06-10T15:37:43Z</time>
      </trkpt>
      <trkpt lat="48.82376" lon="-0.34657">
        <ele>67.82721</ele>
        <time>2016-06-10T15:37:53Z</time>
      </trkpt>
      <trkpt lat="48.82377" lon="-0.34654">
        <ele>67.82721</ele>
        <time>2016-06-10T15:37:58Z</time>
      </trkpt>
      <trkpt lat="48.82377" lon="-0.34651">
        <ele>67.82721</ele>
        <time>2016-06-10T15:38:13Z</time>
      </trkpt>
      <trkpt lat="48.82377" lon="-0.34651">
        <ele>67.82721</ele>
        <time>2016-06-10T15:38:18Z</time>
      </trkpt>
      <trkpt lat="48.82377" lon="-0.34651">
        <ele>67.82721</ele>
        <time>2016-06-10T15:38:28Z</time>
      </trkpt>
      <trkpt lat="48.82377" lon="-0.34651">
        <ele>67.82721</ele>
        <time>2016-06-10T15:38:33Z</time>
      </trkpt>
      <trkpt lat="48.82377" lon="-0.34651">
        <ele>67.82721</ele>
        <time>2016-06-10T15:38:43Z</time>
      </trkpt>
      <trkpt lat="48.82377" lon="-0.34651">
        <ele>67.82721</ele>
        <time>2016-06-10T15:38:48Z</time>
      </trkpt>
      <trkpt lat="48.82373" lon="-0.34644">
        <ele>68.47441</ele>
        <time>2016-06-10T15:38:58Z</time>
      </trkpt>
      <trkpt lat="48.8237" lon="-0.34635">
        <ele>68.47441</ele>
        <time>2016-06-10T15:39:03Z</time>
      </trkpt>
      <trkpt lat="48.82367" lon="-0.34627">
        <ele>69.212395</ele>
        <time>2016-06-10T15:39:13Z</time>
      </trkpt>
      <trkpt lat="48.82366" lon="-0.34627">
        <ele>69.212395</ele>
        <time>2016-06-10T15:39:18Z</time>
      </trkpt>
      <trkpt lat="48.82354" lon="-0.34605">
        <ele>69.729996</ele>
        <time>2016-06-10T15:39:28Z</time>
      </trkpt>
      <trkpt lat="48.82353" lon="-0.34587">
        <ele>69.480095</ele>
        <time>2016-06-10T15:39:33Z</time>
      </trkpt>
      <trkpt lat="48.8234" lon="-0.34563">
        <ele>69.88904</ele>
        <time>2016-06-10T15:39:48Z</time>
      </trkpt>
      <trkpt lat="48.8234" lon="-0.34558">
        <ele>69.88904</ele>
        <time>2016-06-10T15:39:53Z</time>
      </trkpt>
      <trkpt lat="48.82338" lon="-0.34543">
        <ele>69.55284</ele>
        <time>2016-06-10T15:40:03Z</time>
      </trkpt>
      <trkpt lat="48.82334" lon="-0.34539">
        <ele>69.55284</ele>
        <time>2016-06-10T15:40:08Z</time>
      </trkpt>
      <trkpt lat="48.82333" lon="-0.34536">
        <ele>69.55284</ele>
        <time>2016-06-10T15:40:18Z</time>
      </trkpt>
      <trkpt lat="48.82333" lon="-0.34536">
        <ele>69.55284</ele>
        <time>2016-06-10T15:40:23Z</time>
      </trkpt>
      <trkpt lat="48.82328" lon="-0.34519">
        <ele>69.60825</ele>
        <time>2016-06-10T15:40:33Z</time>
      </trkpt>
      <trkpt lat="48.82323" lon="-0.3451">
        <ele>69.60825</ele>
        <time>2016-06-10T15:40:38Z</time>
      </trkpt>
      <trkpt lat="48.82318" lon="-0.34498">
        <ele>69.017784</ele>
        <time>2016-06-10T15:40:48Z</time>
      </trkpt>
      <trkpt lat="48.82316" lon="-0.34482">
        <ele>68.34958</ele>
        <time>2016-06-10T15:40:53Z</time>
      </trkpt>
      <trkpt lat="48.82315" lon="-0.34464">
        <ele>67.308815</ele>
        <time>2016-06-10T15:41:03Z</time>
      </trkpt>
      <trkpt lat="48.82311" lon="-0.34457">
        <ele>67.308815</ele>
        <time>2016-06-10T15:41:08Z</time>
      </trkpt>
      <trkpt lat="48.8231" lon="-0.34452">
        <ele>66.67537</ele>
        <time>2016-06-10T15:41:18Z</time>
      </trkpt>
      <trkpt lat="48.8231" lon="-0.34452">
        <ele>66.67537</ele>
        <time>2016-06-10T15:41:23Z</time>
      </trkpt>
      <trkpt lat="48.82305" lon="-0.34435">
        <ele>66.334854</ele>
        <time>2016-06-10T15:41:28Z</time>
      </trkpt>
      <trkpt lat="48.82298" lon="-0.34427">
        <ele>66.58394</ele>
        <time>2016-06-10T15:41:33Z</time>
      </trkpt>
      <trkpt lat="48.82296" lon="-0.34417">
        <ele>66.58394</ele>
        <time>2016-06-10T15:41:38Z</time>
      </trkpt>
      <trkpt lat="48.82293" lon="-0.34399">
        <ele>67.86875</ele>
        <time>2016-06-10T15:41:48Z</time>
      </trkpt>
      <trkpt lat="48.82289" lon="-0.34397">
        <ele>67.86875</ele>
        <time>2016-06-10T15:41:53Z</time>
      </trkpt>
      <trkpt lat="48.82284" lon="-0.34392">
        <ele>69.44687</ele>
        <time>2016-06-10T15:41:58Z</time>
      </trkpt>
      <trkpt lat="48.82284" lon="-0.3439">
        <ele>69.44687</ele>
        <time>2016-06-10T15:42:03Z</time>
      </trkpt>
      <trkpt lat="48.82285" lon="-0.34388">
        <ele>69.44687</ele>
        <time>2016-06-10T15:42:08Z</time>
      </trkpt>
      <trkpt lat="48.82284" lon="-0.34383">
        <ele>69.44687</ele>
        <time>2016-06-10T15:42:18Z</time>
      </trkpt>
      <trkpt lat="48.82281" lon="-0.34366">
        <ele>70.39897</ele>
        <time>2016-06-10T15:42:23Z</time>
      </trkpt>
      <trkpt lat="48.82278" lon="-0.34345">
        <ele>70.76854</ele>
        <time>2016-06-10T15:42:33Z</time>
      </trkpt>
      <trkpt lat="48.82277" lon="-0.3433">
        <ele>70.4822</ele>
        <time>2016-06-10T15:42:38Z</time>
      </trkpt>
      <trkpt lat="48.82273" lon="-0.34314">
        <ele>71.18875</ele>
        <time>2016-06-10T15:42:48Z</time>
      </trkpt>
      <trkpt lat="48.82272" lon="-0.34302">
        <ele>71.18875</ele>
        <time>2016-06-10T15:42:53Z</time>
      </trkpt>
      <trkpt lat="48.82274" lon="-0.34274">
        <ele>70.262695</ele>
        <time>2016-06-10T15:43:08Z</time>
      </trkpt>
      <trkpt lat="48.82275" lon="-0.34267">
        <ele>70.262695</ele>
        <time>2016-06-10T15:43:13Z</time>
      </trkpt>
      <trkpt lat="48.82273" lon="-0.34255">
        <ele>68.89318</ele>
        <time>2016-06-10T15:43:23Z</time>
      </trkpt>
      <trkpt lat="48.82273" lon="-0.3424">
        <ele>68.03915</ele>
        <time>2016-06-10T15:43:28Z</time>
      </trkpt>
      <trkpt lat="48.82271" lon="-0.34229">
        <ele>68.03915</ele>
        <time>2016-06-10T15:43:38Z</time>
      </trkpt>
      <trkpt lat="48.82272" lon="-0.34224">
        <ele>66.498</ele>
        <time>2016-06-10T15:43:43Z</time>
      </trkpt>
      <trkpt lat="48.82269" lon="-0.34208">
        <ele>65.39115</ele>
        <time>2016-06-10T15:43:53Z</time>
      </trkpt>
      <trkpt lat="48.82268" lon="-0.342">
        <ele>65.39115</ele>
        <time>2016-06-10T15:43:58Z</time>
      </trkpt>
      <trkpt lat="48.82264" lon="-0.34186">
        <ele>65.77079</ele>
        <time>2016-06-10T15:44:08Z</time>
      </trkpt>
      <trkpt lat="48.82263" lon="-0.3418">
        <ele>65.77079</ele>
        <time>2016-06-10T15:44:13Z</time>
      </trkpt>
      <trkpt lat="48.82261" lon="-0.34173">
        <ele>65.77079</ele>
        <time>2016-06-10T15:44:23Z</time>
      </trkpt>
      <trkpt lat="48.82267" lon="-0.34159">
        <ele>64.97602</ele>
        <time>2016-06-10T15:44:28Z</time>
      </trkpt>
      <trkpt lat="48.82269" lon="-0.34141">
        <ele>63.340424</ele>
        <time>2016-06-10T15:44:38Z</time>
      </trkpt>
      <trkpt lat="48.82268" lon="-0.34131">
        <ele>63.340424</ele>
        <time>2016-06-10T15:44:43Z</time>
      </trkpt>
      <trkpt lat="48.82266" lon="-0.34118">
        <ele>62.53005</ele>
        <time>2016-06-10T15:44:53Z</time>
      </trkpt>
      <trkpt lat="48.82265" lon="-0.34117">
        <ele>62.53005</ele>
        <time>2016-06-10T15:44:58Z</time>
      </trkpt>
      <trkpt lat="48.82268" lon="-0.34101">
        <ele>61.348076</ele>
        <time>2016-06-10T15:45:08Z</time>
      </trkpt>
      <trkpt lat="48.82266" lon="-0.34092">
        <ele>61.348076</ele>
        <time>2016-06-10T15:45:13Z</time>
      </trkpt>
      <trkpt lat="48.82264" lon="-0.34079">
        <ele>60.66094</ele>
        <time>2016-06-10T15:45:18Z</time>
      </trkpt>
      <trkpt lat="48.82263" lon="-0.3407">
        <ele>60.66094</ele>
        <time>2016-06-10T15:45:23Z</time>
      </trkpt>
      <trkpt lat="48.82265" lon="-0.34063">
        <ele>60.0162</ele>
        <time>2016-06-10T15:45:28Z</time>
      </trkpt>
      <trkpt lat="48.82267" lon="-0.34053">
        <ele>60.0162</ele>
        <time>2016-06-10T15:45:33Z</time>
      </trkpt>
      <trkpt lat="48.82266" lon="-0.34042">
        <ele>58.73509</ele>
        <time>2016-06-10T15:45:38Z</time>
      </trkpt>
      <trkpt lat="48.82266" lon="-0.34033">
        <ele>58.73509</ele>
        <time>2016-06-10T15:45:43Z</time>
      </trkpt>
      <trkpt lat="48.82265" lon="-0.34025">
        <ele>58.654724</ele>
        <time>2016-06-10T15:45:48Z</time>
      </trkpt>
      <trkpt lat="48.82267" lon="-0.34005">
        <ele>58.346634</ele>
        <time>2016-06-10T15:45:58Z</time>
      </trkpt>
      <trkpt lat="48.82268" lon="-0.33994">
        <ele>58.346634</ele>
        <time>2016-06-10T15:46:03Z</time>
      </trkpt>
      <trkpt lat="48.82268" lon="-0.33968">
        <ele>58.764812</ele>
        <time>2016-06-10T15:46:18Z</time>
      </trkpt>
      <trkpt lat="48.82266" lon="-0.33957">
        <ele>58.764812</ele>
        <time>2016-06-10T15:46:23Z</time>
      </trkpt>
      <trkpt lat="48.82268" lon="-0.33939">
        <ele>59.133816</ele>
        <time>2016-06-10T15:46:33Z</time>
      </trkpt>
      <trkpt lat="48.82268" lon="-0.3393">
        <ele>59.133816</ele>
        <time>2016-06-10T15:46:38Z</time>
      </trkpt>
      <trkpt lat="48.8227" lon="-0.33913">
        <ele>60.27724</ele>
        <time>2016-06-10T15:46:48Z</time>
      </trkpt>
      <trkpt lat="48.82271" lon="-0.33908">
        <ele>60.27724</ele>
        <time>2016-06-10T15:46:53Z</time>
      </trkpt>
      <trkpt lat="48.82273" lon="-0.33894">
        <ele>60.70784</ele>
        <time>2016-06-10T15:47:03Z</time>
      </trkpt>
      <trkpt lat="48.82273" lon="-0.33891">
        <ele>60.70784</ele>
        <time>2016-06-10T15:47:08Z</time>
      </trkpt>
      <trkpt lat="48.8227" lon="-0.33872">
        <ele>60.908627</ele>
        <time>2016-06-10T15:47:18Z</time>
      </trkpt>
      <trkpt lat="48.82273" lon="-0.33863">
        <ele>60.908627</ele>
        <time>2016-06-10T15:47:23Z</time>
      </trkpt>
      <trkpt lat="48.82272" lon="-0.33854">
        <ele>59.91546</ele>
        <time>2016-06-10T15:47:33Z</time>
      </trkpt>
      <trkpt lat="48.82272" lon="-0.33848">
        <ele>59.91546</ele>
        <time>2016-06-10T15:47:38Z</time>
      </trkpt>
      <trkpt lat="48.82272" lon="-0.33834">
        <ele>58.740627</ele>
        <time>2016-06-10T15:47:48Z</time>
      </trkpt>
      <trkpt lat="48.82272" lon="-0.3383">
        <ele>58.740627</ele>
        <time>2016-06-10T15:47:53Z</time>
      </trkpt>
      <trkpt lat="48.82272" lon="-0.33829">
        <ele>58.740627</ele>
        <time>2016-06-10T15:48:08Z</time>
      </trkpt>
      <trkpt lat="48.82272" lon="-0.33829">
        <ele>58.740627</ele>
        <time>2016-06-10T15:48:13Z</time>
      </trkpt>
      <trkpt lat="48.82272" lon="-0.33829">
        <ele>58.740627</ele>
        <time>2016-06-10T15:48:23Z</time>
      </trkpt>
      <trkpt lat="48.82272" lon="-0.33829">
        <ele>58.740627</ele>
        <time>2016-06-10T15:48:28Z</time>
      </trkpt>
      <trkpt lat="48.82269" lon="-0.33819">
        <ele>58.14961</ele>
        <time>2016-06-10T15:48:38Z</time>
      </trkpt>
      <trkpt lat="48.82267" lon="-0.33809">
        <ele>58.14961</ele>
        <time>2016-06-10T15:48:43Z</time>
      </trkpt>
      <trkpt lat="48.82269" lon="-0.33787">
        <ele>57.25036</ele>
        <time>2016-06-10T15:48:53Z</time>
      </trkpt>
      <trkpt lat="48.82266" lon="-0.33777">
        <ele>57.25036</ele>
        <time>2016-06-10T15:48:58Z</time>
      </trkpt>
      <trkpt lat="48.82261" lon="-0.33758">
        <ele>56.98976</ele>
        <time>2016-06-10T15:49:08Z</time>
      </trkpt>
      <trkpt lat="48.82262" lon="-0.33761">
        <ele>56.98976</ele>
        <time>2016-06-10T15:49:13Z</time>
      </trkpt>
      <trkpt lat="48.82261" lon="-0.33755">
        <ele>56.98976</ele>
        <time>2016-06-10T15:49:23Z</time>
      </trkpt>
      <trkpt lat="48.8226" lon="-0.33754">
        <ele>56.98976</ele>
        <time>2016-06-10T15:49:28Z</time>
      </trkpt>
      <trkpt lat="48.82253" lon="-0.33721">
        <ele>56.787804</ele>
        <time>2016-06-10T15:49:43Z</time>
      </trkpt>
      <trkpt lat="48.82251" lon="-0.3371">
        <ele>56.787804</ele>
        <time>2016-06-10T15:49:48Z</time>
      </trkpt>
      <trkpt lat="48.82244" lon="-0.33688">
        <ele>56.654514</ele>
        <time>2016-06-10T15:49:58Z</time>
      </trkpt>
      <trkpt lat="48.82242" lon="-0.33678">
        <ele>56.654514</ele>
        <time>2016-06-10T15:50:03Z</time>
      </trkpt>
      <trkpt lat="48.82238" lon="-0.33666">
        <ele>55.950462</ele>
        <time>2016-06-10T15:50:13Z</time>
      </trkpt>
      <trkpt lat="48.82236" lon="-0.3366">
        <ele>55.950462</ele>
        <time>2016-06-10T15:50:18Z</time>
      </trkpt>
      <trkpt lat="48.82231" lon="-0.33644">
        <ele>55.194416</ele>
        <time>2016-06-10T15:50:28Z</time>
      </trkpt>
      <trkpt lat="48.82227" lon="-0.33632">
        <ele>55.194416</ele>
        <time>2016-06-10T15:50:33Z</time>
      </trkpt>
      <trkpt lat="48.82215" lon="-0.33632">
        <ele>55.414783</ele>
        <time>2016-06-10T15:50:43Z</time>
      </trkpt>
      <trkpt lat="48.82211" lon="-0.33631">
        <ele>55.414783</ele>
        <time>2016-06-10T15:50:48Z</time>
      </trkpt>
      <trkpt lat="48.8221" lon="-0.33632">
        <ele>55.414783</ele>
        <time>2016-06-10T15:50:58Z</time>
      </trkpt>
      <trkpt lat="48.8221" lon="-0.33632">
        <ele>55.414783</ele>
        <time>2016-06-10T15:51:03Z</time>
      </trkpt>
      <trkpt lat="48.82206" lon="-0.33633">
        <ele>57.057274</ele>
        <time>2016-06-10T15:51:13Z</time>
      </trkpt>
      <trkpt lat="48.82207" lon="-0.33634">
        <ele>57.057274</ele>
        <time>2016-06-10T15:51:18Z</time>
      </trkpt>
      <trkpt lat="48.82208" lon="-0.33632">
        <ele>57.057274</ele>
        <time>2016-06-10T15:51:28Z</time>
      </trkpt>
      <trkpt lat="48.82209" lon="-0.33632">
        <ele>57.057274</ele>
        <time>2016-06-10T15:51:33Z</time>
      </trkpt>
      <trkpt lat="48.82196" lon="-0.3364">
        <ele>58.124203</ele>
        <time>2016-06-10T15:51:48Z</time>
      </trkpt>
      <trkpt lat="48.82194" lon="-0.3364">
        <ele>58.124203</ele>
        <time>2016-06-10T15:51:53Z</time>
      </trkpt>
      <trkpt lat="48.82188" lon="-0.33643">
        <ele>59.014362</ele>
        <time>2016-06-10T15:52:03Z</time>
      </trkpt>
      <trkpt lat="48.82182" lon="-0.33646">
        <ele>59.014362</ele>
        <time>2016-06-10T15:52:08Z</time>
      </trkpt>
      <trkpt lat="48.82176" lon="-0.33648">
        <ele>60.35717</ele>
        <time>2016-06-10T15:52:18Z</time>
      </trkpt>
      <trkpt lat="48.82174" lon="-0.33642">
        <ele>60.35717</ele>
        <time>2016-06-10T15:52:23Z</time>
      </trkpt>
      <trkpt lat="48.82169" lon="-0.3364">
        <ele>61.480774</ele>
        <time>2016-06-10T15:52:33Z</time>
      </trkpt>
      <trkpt lat="48.8217" lon="-0.3364">
        <ele>61.480774</ele>
        <time>2016-06-10T15:52:38Z</time>
      </trkpt>
      <trkpt lat="48.8217" lon="-0.33641">
        <ele>61.480774</ele>
        <time>2016-06-10T15:52:48Z</time>
      </trkpt>
      <trkpt lat="48.8217" lon="-0.33641">
        <ele>61.480774</ele>
        <time>2016-06-10T15:52:53Z</time>
      </trkpt>
      <trkpt lat="48.8217" lon="-0.3364">
        <ele>61.480774</ele>
        <time>2016-06-10T15:52:58Z</time>
      </trkpt>
      <trkpt lat="48.8217" lon="-0.33641">
        <ele>61.480774</ele>
        <time>2016-06-10T15:53:03Z</time>
      </trkpt>
      <trkpt lat="48.82171" lon="-0.33641">
        <ele>61.480774</ele>
        <time>2016-06-10T15:53:08Z</time>
      </trkpt>
      <trkpt lat="48.82171" lon="-0.33641">
        <ele>61.480774</ele>
        <time>2016-06-10T15:53:13Z</time>
      </trkpt>
      <trkpt lat="48.82171" lon="-0.33641">
        <ele>61.480774</ele>
        <time>2016-06-10T15:53:18Z</time>
      </trkpt>
      <trkpt lat="48.82171" lon="-0.33641">
        <ele>61.480774</ele>
        <time>2016-06-10T15:53:23Z</time>
      </trkpt>
      <trkpt lat="48.82171" lon="-0.33641">
        <ele>61.480774</ele>
        <time>2016-06-10T15:53:28Z</time>
      </trkpt>
      <trkpt lat="48.82171" lon="-0.33641">
        <ele>61.480774</ele>
        <time>2016-06-10T15:53:33Z</time>
      </trkpt>
      <trkpt lat="48.82171" lon="-0.33641">
        <ele>61.480774</ele>
        <time>2016-06-10T15:53:43Z</time>
      </trkpt>
      <trkpt lat="48.82171" lon="-0.33641">
        <ele>61.480774</ele>
        <time>2016-06-10T15:53:48Z</time>
      </trkpt>
      <trkpt lat="48.8217" lon="-0.33645">
        <ele>61.480774</ele>
        <time>2016-06-10T15:53:58Z</time>
      </trkpt>
      <trkpt lat="48.82171" lon="-0.33643">
        <ele>61.480774</ele>
        <time>2016-06-10T15:54:03Z</time>
      </trkpt>
      <trkpt lat="48.82167" lon="-0.33645">
        <ele>62.094776</ele>
        <time>2016-06-10T15:54:13Z</time>
      </trkpt>
      <trkpt lat="48.82162" lon="-0.3365">
        <ele>62.094776</ele>
        <time>2016-06-10T15:54:18Z</time>
      </trkpt>
      <trkpt lat="48.82157" lon="-0.33655">
        <ele>62.99801</ele>
        <time>2016-06-10T15:54:23Z</time>
      </trkpt>
      <trkpt lat="48.82151" lon="-0.33662">
        <ele>62.99801</ele>
        <time>2016-06-10T15:54:28Z</time>
      </trkpt>
      <trkpt lat="48.82146" lon="-0.33664">
        <ele>64.10841</ele>
        <time>2016-06-10T15:54:33Z</time>
      </trkpt>
      <trkpt lat="48.82141" lon="-0.33666">
        <ele>64.10841</ele>
        <time>2016-06-10T15:54:38Z</time>
      </trkpt>
      <trkpt lat="48.82137" lon="-0.33668">
        <ele>64.8018</ele>
        <time>2016-06-10T15:54:43Z</time>
      </trkpt>
      <trkpt lat="48.82131" lon="-0.3367">
        <ele>64.8018</ele>
        <time>2016-06-10T15:54:48Z</time>
      </trkpt>
      <trkpt lat="48.82126" lon="-0.33671">
        <ele>65.58192</ele>
        <time>2016-06-10T15:54:53Z</time>
      </trkpt>
      <trkpt lat="48.8212" lon="-0.33673">
        <ele>65.58192</ele>
        <time>2016-06-10T15:54:58Z</time>
      </trkpt>
      <trkpt lat="48.82114" lon="-0.33676">
        <ele>66.33884</ele>
        <time>2016-06-10T15:55:03Z</time>
      </trkpt>
      <trkpt lat="48.8211" lon="-0.33675">
        <ele>66.33884</ele>
        <time>2016-06-10T15:55:08Z</time>
      </trkpt>
      <trkpt lat="48.82101" lon="-0.33677">
        <ele>66.783516</ele>
        <time>2016-06-10T15:55:13Z</time>
      </trkpt>
      <trkpt lat="48.82086" lon="-0.33678">
        <ele>67.22554</ele>
        <time>2016-06-10T15:55:23Z</time>
      </trkpt>
      <trkpt lat="48.82081" lon="-0.33677">
        <ele>67.22554</ele>
        <time>2016-06-10T15:55:28Z</time>
      </trkpt>
      <trkpt lat="48.82083" lon="-0.33673">
        <ele>67.22554</ele>
        <time>2016-06-10T15:55:38Z</time>
      </trkpt>
      <trkpt lat="48.82083" lon="-0.33674">
        <ele>67.22554</ele>
        <time>2016-06-10T15:55:43Z</time>
      </trkpt>
      <trkpt lat="48.82072" lon="-0.3368">
        <ele>66.89979</ele>
        <time>2016-06-10T15:55:53Z</time>
      </trkpt>
      <trkpt lat="48.82069" lon="-0.3368">
        <ele>66.89979</ele>
        <time>2016-06-10T15:55:58Z</time>
      </trkpt>
      <trkpt lat="48.82064" lon="-0.33683">
        <ele>66.89979</ele>
        <time>2016-06-10T15:56:03Z</time>
      </trkpt>
      <trkpt lat="48.82059" lon="-0.33684">
        <ele>66.929794</ele>
        <time>2016-06-10T15:56:08Z</time>
      </trkpt>
      <trkpt lat="48.82054" lon="-0.33684">
        <ele>66.929794</ele>
        <time>2016-06-10T15:56:13Z</time>
      </trkpt>
      <trkpt lat="48.8204" lon="-0.33673">
        <ele>67.851204</ele>
        <time>2016-06-10T15:56:23Z</time>
      </trkpt>
      <trkpt lat="48.82034" lon="-0.33673">
        <ele>67.851204</ele>
        <time>2016-06-10T15:56:28Z</time>
      </trkpt>
      <trkpt lat="48.8203" lon="-0.33674">
        <ele>68.81767</ele>
        <time>2016-06-10T15:56:33Z</time>
      </trkpt>
      <trkpt lat="48.82024" lon="-0.33672">
        <ele>68.81767</ele>
        <time>2016-06-10T15:56:38Z</time>
      </trkpt>
      <trkpt lat="48.82017" lon="-0.3367">
        <ele>70.38518</ele>
        <time>2016-06-10T15:56:43Z</time>
      </trkpt>
      <trkpt lat="48.82011" lon="-0.33671">
        <ele>70.38518</ele>
        <time>2016-06-10T15:56:48Z</time>
      </trkpt>
      <trkpt lat="48.82009" lon="-0.33676">
        <ele>71.69818</ele>
        <time>2016-06-10T15:56:58Z</time>
      </trkpt>
      <trkpt lat="48.82005" lon="-0.33676">
        <ele>71.69818</ele>
        <time>2016-06-10T15:57:03Z</time>
      </trkpt>
      <trkpt lat="48.82002" lon="-0.33678">
        <ele>71.69818</ele>
        <time>2016-06-10T15:57:13Z</time>
      </trkpt>
      <trkpt lat="48.82002" lon="-0.33677">
        <ele>71.69818</ele>
        <time>2016-06-10T15:57:18Z</time>
      </trkpt>
      <trkpt lat="48.82002" lon="-0.33677">
        <ele>71.69818</ele>
        <time>2016-06-10T15:57:23Z</time>
      </trkpt>
      <trkpt lat="48.82002" lon="-0.33677">
        <ele>71.69818</ele>
        <time>2016-06-10T15:57:28Z</time>
      </trkpt>
      <trkpt lat="48.82002" lon="-0.33677">
        <ele>71.69818</ele>
        <time>2016-06-10T15:57:33Z</time>
      </trkpt>
      <trkpt lat="48.82002" lon="-0.33677">
        <ele>71.69818</ele>
        <time>2016-06-10T15:57:38Z</time>
      </trkpt>
      <trkpt lat="48.82002" lon="-0.33677">
        <ele>71.69818</ele>
        <time>2016-06-10T15:57:43Z</time>
      </trkpt>
      <trkpt lat="48.82002" lon="-0.33677">
        <ele>71.69818</ele>
        <time>2016-06-10T15:57:48Z</time>
      </trkpt>
      <trkpt lat="48.82002" lon="-0.33677">
        <ele>71.69818</ele>
        <time>2016-06-10T15:57:53Z</time>
      </trkpt>
      <trkpt lat="48.82002" lon="-0.33677">
        <ele>71.69818</ele>
        <time>2016-06-10T15:57:58Z</time>
      </trkpt>
      <trkpt lat="48.82002" lon="-0.33677">
        <ele>71.69818</ele>
        <time>2016-06-10T15:58:03Z</time>
      </trkpt>
      <trkpt lat="48.82002" lon="-0.33677">
        <ele>71.69818</ele>
        <time>2016-06-10T15:58:13Z</time>
      </trkpt>
      <trkpt lat="48.82002" lon="-0.33677">
        <ele>71.69818</ele>
        <time>2016-06-10T15:58:18Z</time>
      </trkpt>
      <trkpt lat="48.82002" lon="-0.33677">
        <ele>71.69818</ele>
        <time>2016-06-10T15:58:28Z</time>
      </trkpt>
      <trkpt lat="48.82002" lon="-0.33677">
        <ele>71.69818</ele>
        <time>2016-06-10T15:58:33Z</time>
      </trkpt>
      <trkpt lat="48.82002" lon="-0.33677">
        <ele>71.69818</ele>
        <time>2016-06-10T15:58:43Z</time>
      </trkpt>
      <trkpt lat="48.82002" lon="-0.33677">
        <ele>71.69818</ele>
        <time>2016-06-10T15:58:48Z</time>
      </trkpt>
      <trkpt lat="48.82002" lon="-0.33677">
        <ele>71.69818</ele>
        <time>2016-06-10T15:58:53Z</time>
      </trkpt>
      <trkpt lat="48.82002" lon="-0.33677">
        <ele>71.69818</ele>
        <time>2016-06-10T15:59:03Z</time>
      </trkpt>
      <trkpt lat="48.82002" lon="-0.33677">
        <ele>71.69818</ele>
        <time>2016-06-10T15:59:08Z</time>
      </trkpt>
      <trkpt lat="48.82002" lon="-0.33677">
        <ele>71.69818</ele>
        <time>2016-06-10T15:59:13Z</time>
      </trkpt>
      <trkpt lat="48.82002" lon="-0.33677">
        <ele>71.69818</ele>
        <time>2016-06-10T15:59:18Z</time>
      </trkpt>
      <trkpt lat="48.82002" lon="-0.33677">
        <ele>71.69818</ele>
        <time>2016-06-10T15:59:28Z</time>
      </trkpt>
      <trkpt lat="48.82001" lon="-0.33677">
        <ele>71.69818</ele>
        <time>2016-06-10T15:59:33Z</time>
      </trkpt>
      <trkpt lat="48.81983" lon="-0.33681">
        <ele>73.016785</ele>
        <time>2016-06-10T15:59:43Z</time>
      </trkpt>
      <trkpt lat="48.81972" lon="-0.33683">
        <ele>73.702965</ele>
        <time>2016-06-10T15:59:48Z</time>
      </trkpt>
      <trkpt lat="48.81959" lon="-0.33691">
        <ele>74.78147</ele>
        <time>2016-06-10T15:59:58Z</time>
      </trkpt>
      <trkpt lat="48.81952" lon="-0.33692">
        <ele>74.78147</ele>
        <time>2016-06-10T16:00:03Z</time>
      </trkpt>
      <trkpt lat="48.81942" lon="-0.33705">
        <ele>75.759636</ele>
        <time>2016-06-10T16:00:13Z</time>
      </trkpt>
      <trkpt lat="48.81938" lon="-0.33704">
        <ele>75.759636</ele>
        <time>2016-06-10T16:00:18Z</time>
      </trkpt>
      <trkpt lat="48.8193" lon="-0.33709">
        <ele>77.75216</ele>
        <time>2016-06-10T16:00:28Z</time>
      </trkpt>
      <trkpt lat="48.81926" lon="-0.33717">
        <ele>77.75216</ele>
        <time>2016-06-10T16:00:33Z</time>
      </trkpt>
      <trkpt lat="48.8192" lon="-0.33725">
        <ele>78.74837</ele>
        <time>2016-06-10T16:00:43Z</time>
      </trkpt>
      <trkpt lat="48.81916" lon="-0.33731">
        <ele>78.74837</ele>
        <time>2016-06-10T16:00:48Z</time>
      </trkpt>
      <trkpt lat="48.81903" lon="-0.33746">
        <ele>79.64066</ele>
        <time>2016-06-10T16:01:03Z</time>
      </trkpt>
      <trkpt lat="48.81898" lon="-0.33752">
        <ele>79.64066</ele>
        <time>2016-06-10T16:01:08Z</time>
      </trkpt>
      <trkpt lat="48.8189" lon="-0.33761">
        <ele>80.75192</ele>
        <time>2016-06-10T16:01:18Z</time>
      </trkpt>
      <trkpt lat="48.81884" lon="-0.33765">
        <ele>80.75192</ele>
        <time>2016-06-10T16:01:23Z</time>
      </trkpt>
      <trkpt lat="48.81876" lon="-0.33776">
        <ele>82.65457</ele>
        <time>2016-06-10T16:01:33Z</time>
      </trkpt>
      <trkpt lat="48.81871" lon="-0.3378">
        <ele>82.65457</ele>
        <time>2016-06-10T16:01:38Z</time>
      </trkpt>
      <trkpt lat="48.81861" lon="-0.33789">
        <ele>83.94576</ele>
        <time>2016-06-10T16:01:48Z</time>
      </trkpt>
      <trkpt lat="48.81857" lon="-0.33791">
        <ele>83.94576</ele>
        <time>2016-06-10T16:01:53Z</time>
      </trkpt>
      <trkpt lat="48.81849" lon="-0.33801">
        <ele>84.65335</ele>
        <time>2016-06-10T16:02:03Z</time>
      </trkpt>
      <trkpt lat="48.81843" lon="-0.33805">
        <ele>84.65335</ele>
        <time>2016-06-10T16:02:08Z</time>
      </trkpt>
      <trkpt lat="48.81836" lon="-0.33813">
        <ele>86.46215</ele>
        <time>2016-06-10T16:02:18Z</time>
      </trkpt>
      <trkpt lat="48.81836" lon="-0.33809">
        <ele>86.46215</ele>
        <time>2016-06-10T16:02:23Z</time>
      </trkpt>
      <trkpt lat="48.81836" lon="-0.33812">
        <ele>86.46215</ele>
        <time>2016-06-10T16:02:33Z</time>
      </trkpt>
      <trkpt lat="48.81833" lon="-0.33814">
        <ele>86.46215</ele>
        <time>2016-06-10T16:02:38Z</time>
      </trkpt>
      <trkpt lat="48.8182" lon="-0.33823">
        <ele>89.085594</ele>
        <time>2016-06-10T16:02:53Z</time>
      </trkpt>
      <trkpt lat="48.8182" lon="-0.33824">
        <ele>89.085594</ele>
        <time>2016-06-10T16:02:58Z</time>
      </trkpt>
      <trkpt lat="48.81811" lon="-0.33835">
        <ele>91.98218</ele>
        <time>2016-06-10T16:03:08Z</time>
      </trkpt>
      <trkpt lat="48.81802" lon="-0.33842">
        <ele>94.3901</ele>
        <time>2016-06-10T16:03:13Z</time>
      </trkpt>
      <trkpt lat="48.81792" lon="-0.33851">
        <ele>96.080605</ele>
        <time>2016-06-10T16:03:23Z</time>
      </trkpt>
      <trkpt lat="48.81787" lon="-0.33853">
        <ele>96.080605</ele>
        <time>2016-06-10T16:03:28Z</time>
      </trkpt>
      <trkpt lat="48.81779" lon="-0.33861">
        <ele>98.50113</ele>
        <time>2016-06-10T16:03:38Z</time>
      </trkpt>
      <trkpt lat="48.81776" lon="-0.33864">
        <ele>98.50113</ele>
        <time>2016-06-10T16:03:43Z</time>
      </trkpt>
      <trkpt lat="48.81764" lon="-0.33868">
        <ele>101.14626</ele>
        <time>2016-06-10T16:03:53Z</time>
      </trkpt>
      <trkpt lat="48.81758" lon="-0.33872">
        <ele>101.14626</ele>
        <time>2016-06-10T16:03:58Z</time>
      </trkpt>
      <trkpt lat="48.8175" lon="-0.33881">
        <ele>103.374275</ele>
        <time>2016-06-10T16:04:08Z</time>
      </trkpt>
      <trkpt lat="48.81745" lon="-0.33887">
        <ele>103.374275</ele>
        <time>2016-06-10T16:04:13Z</time>
      </trkpt>
      <trkpt lat="48.81743" lon="-0.33888">
        <ele>103.374275</ele>
        <time>2016-06-10T16:04:23Z</time>
      </trkpt>
      <trkpt lat="48.81743" lon="-0.33886">
        <ele>104.89453</ele>
        <time>2016-06-10T16:04:28Z</time>
      </trkpt>
      <trkpt lat="48.81736" lon="-0.33887">
        <ele>104.89453</ele>
        <time>2016-06-10T16:04:38Z</time>
      </trkpt>
      <trkpt lat="48.81728" lon="-0.33885">
        <ele>107.14037</ele>
        <time>2016-06-10T16:04:43Z</time>
      </trkpt>
      <trkpt lat="48.81722" lon="-0.3388">
        <ele>107.14037</ele>
        <time>2016-06-10T16:04:48Z</time>
      </trkpt>
      <trkpt lat="48.81717" lon="-0.33877">
        <ele>109.20422</ele>
        <time>2016-06-10T16:04:53Z</time>
      </trkpt>
      <trkpt lat="48.81714" lon="-0.3387">
        <ele>109.20422</ele>
        <time>2016-06-10T16:04:58Z</time>
      </trkpt>
      <trkpt lat="48.81714" lon="-0.33864">
        <ele>110.63495</ele>
        <time>2016-06-10T16:05:03Z</time>
      </trkpt>
      <trkpt lat="48.81709" lon="-0.33858">
        <ele>110.63495</ele>
        <time>2016-06-10T16:05:08Z</time>
      </trkpt>
      <trkpt lat="48.81706" lon="-0.33852">
        <ele>112.443146</ele>
        <time>2016-06-10T16:05:13Z</time>
      </trkpt>
      <trkpt lat="48.817" lon="-0.33843">
        <ele>112.443146</ele>
        <time>2016-06-10T16:05:18Z</time>
      </trkpt>
      <trkpt lat="48.81698" lon="-0.33837">
        <ele>114.55547</ele>
        <time>2016-06-10T16:05:23Z</time>
      </trkpt>
      <trkpt lat="48.81693" lon="-0.33821">
        <ele>116.52857</ele>
        <time>2016-06-10T16:05:33Z</time>
      </trkpt>
      <trkpt lat="48.81689" lon="-0.33815">
        <ele>116.52857</ele>
        <time>2016-06-10T16:05:38Z</time>
      </trkpt>
      <trkpt lat="48.8168" lon="-0.33801">
        <ele>119.13388</ele>
        <time>2016-06-10T16:05:48Z</time>
      </trkpt>
      <trkpt lat="48.81677" lon="-0.33792">
        <ele>119.13388</ele>
        <time>2016-06-10T16:05:53Z</time>
      </trkpt>
      <trkpt lat="48.81673" lon="-0.33785">
        <ele>121.80194</ele>
        <time>2016-06-10T16:06:03Z</time>
      </trkpt>
      <trkpt lat="48.81672" lon="-0.33783">
        <ele>121.80194</ele>
        <time>2016-06-10T16:06:08Z</time>
      </trkpt>
      <trkpt lat="48.81666" lon="-0.33773">
        <ele>124.077126</ele>
        <time>2016-06-10T16:06:18Z</time>
      </trkpt>
      <trkpt lat="48.81661" lon="-0.33764">
        <ele>124.077126</ele>
        <time>2016-06-10T16:06:23Z</time>
      </trkpt>
      <trkpt lat="48.81651" lon="-0.33751">
        <ele>125.841156</ele>
        <time>2016-06-10T16:06:33Z</time>
      </trkpt>
      <trkpt lat="48.81649" lon="-0.33742">
        <ele>125.841156</ele>
        <time>2016-06-10T16:06:38Z</time>
      </trkpt>
      <trkpt lat="48.81641" lon="-0.33732">
        <ele>127.24539</ele>
        <time>2016-06-10T16:06:48Z</time>
      </trkpt>
      <trkpt lat="48.81636" lon="-0.33726">
        <ele>127.24539</ele>
        <time>2016-06-10T16:06:53Z</time>
      </trkpt>
      <trkpt lat="48.81631" lon="-0.33715">
        <ele>128.51768</ele>
        <time>2016-06-10T16:07:03Z</time>
      </trkpt>
      <trkpt lat="48.81633" lon="-0.33714">
        <ele>128.51768</ele>
        <time>2016-06-10T16:07:08Z</time>
      </trkpt>
      <trkpt lat="48.81634" lon="-0.33713">
        <ele>128.51768</ele>
        <time>2016-06-10T16:07:23Z</time>
      </trkpt>
      <trkpt lat="48.81627" lon="-0.33707">
        <ele>130.1002</ele>
        <time>2016-06-10T16:07:28Z</time>
      </trkpt>
      <trkpt lat="48.81618" lon="-0.33697">
        <ele>131.49397</ele>
        <time>2016-06-10T16:07:38Z</time>
      </trkpt>
      <trkpt lat="48.81613" lon="-0.3369">
        <ele>131.49397</ele>
        <time>2016-06-10T16:07:43Z</time>
      </trkpt>
      <trkpt lat="48.81604" lon="-0.33685">
        <ele>132.78494</ele>
        <time>2016-06-10T16:07:53Z</time>
      </trkpt>
      <trkpt lat="48.81598" lon="-0.33682">
        <ele>132.78494</ele>
        <time>2016-06-10T16:07:58Z</time>
      </trkpt>
      <trkpt lat="48.81587" lon="-0.33678">
        <ele>133.62079</ele>
        <time>2016-06-10T16:08:08Z</time>
      </trkpt>
      <trkpt lat="48.81582" lon="-0.33673">
        <ele>133.62079</ele>
        <time>2016-06-10T16:08:13Z</time>
      </trkpt>
      <trkpt lat="48.81572" lon="-0.33669">
        <ele>135.23283</ele>
        <time>2016-06-10T16:08:23Z</time>
      </trkpt>
      <trkpt lat="48.81565" lon="-0.33666">
        <ele>135.23283</ele>
        <time>2016-06-10T16:08:28Z</time>
      </trkpt>
      <trkpt lat="48.81559" lon="-0.33666">
        <ele>136.29552</ele>
        <time>2016-06-10T16:08:38Z</time>
      </trkpt>
      <trkpt lat="48.81553" lon="-0.33664">
        <ele>136.29552</ele>
        <time>2016-06-10T16:08:43Z</time>
      </trkpt>
      <trkpt lat="48.81552" lon="-0.33663">
        <ele>136.29552</ele>
        <time>2016-06-10T16:08:48Z</time>
      </trkpt>
      <trkpt lat="48.81554" lon="-0.33659">
        <ele>137.36928</ele>
        <time>2016-06-10T16:08:53Z</time>
      </trkpt>
      <trkpt lat="48.81553" lon="-0.33659">
        <ele>137.36928</ele>
        <time>2016-06-10T16:08:58Z</time>
      </trkpt>
      <trkpt lat="48.81549" lon="-0.33658">
        <ele>137.36928</ele>
        <time>2016-06-10T16:09:03Z</time>
      </trkpt>
      <trkpt lat="48.81546" lon="-0.33659">
        <ele>137.36928</ele>
        <time>2016-06-10T16:09:08Z</time>
      </trkpt>
      <trkpt lat="48.8154" lon="-0.33658">
        <ele>138.09433</ele>
        <time>2016-06-10T16:09:13Z</time>
      </trkpt>
      <trkpt lat="48.81534" lon="-0.33658">
        <ele>138.09433</ele>
        <time>2016-06-10T16:09:18Z</time>
      </trkpt>
      <trkpt lat="48.81524" lon="-0.33662">
        <ele>139.0174</ele>
        <time>2016-06-10T16:09:28Z</time>
      </trkpt>
      <trkpt lat="48.8152" lon="-0.33662">
        <ele>139.0174</ele>
        <time>2016-06-10T16:09:33Z</time>
      </trkpt>
      <trkpt lat="48.81511" lon="-0.33659">
        <ele>139.98166</ele>
        <time>2016-06-10T16:09:43Z</time>
      </trkpt>
      <trkpt lat="48.81506" lon="-0.3366">
        <ele>139.98166</ele>
        <time>2016-06-10T16:09:48Z</time>
      </trkpt>
      <trkpt lat="48.81498" lon="-0.33664">
        <ele>141.1299</ele>
        <time>2016-06-10T16:09:58Z</time>
      </trkpt>
      <trkpt lat="48.81494" lon="-0.33666">
        <ele>141.1299</ele>
        <time>2016-06-10T16:10:03Z</time>
      </trkpt>
      <trkpt lat="48.81487" lon="-0.33675">
        <ele>142.89662</ele>
        <time>2016-06-10T16:10:13Z</time>
      </trkpt>
      <trkpt lat="48.81487" lon="-0.33679">
        <ele>142.89662</ele>
        <time>2016-06-10T16:10:18Z</time>
      </trkpt>
      <trkpt lat="48.81497" lon="-0.33698">
        <ele>144.22711</ele>
        <time>2016-06-10T16:10:33Z</time>
      </trkpt>
      <trkpt lat="48.81502" lon="-0.33705">
        <ele>144.22711</ele>
        <time>2016-06-10T16:10:38Z</time>
      </trkpt>
      <trkpt lat="48.81504" lon="-0.33721">
        <ele>145.88918</ele>
        <time>2016-06-10T16:10:48Z</time>
      </trkpt>
      <trkpt lat="48.81509" lon="-0.33727">
        <ele>145.88918</ele>
        <time>2016-06-10T16:10:53Z</time>
      </trkpt>
      <trkpt lat="48.81513" lon="-0.33739">
        <ele>148.1177</ele>
        <time>2016-06-10T16:11:03Z</time>
      </trkpt>
      <trkpt lat="48.81515" lon="-0.33743">
        <ele>148.1177</ele>
        <time>2016-06-10T16:11:08Z</time>
      </trkpt>
      <trkpt lat="48.81517" lon="-0.3375">
        <ele>148.1177</ele>
        <time>2016-06-10T16:11:13Z</time>
      </trkpt>
      <trkpt lat="48.81522" lon="-0.33758">
        <ele>149.42824</ele>
        <time>2016-06-10T16:11:23Z</time>
      </trkpt>
      <trkpt lat="48.81524" lon="-0.33769">
        <ele>149.42824</ele>
        <time>2016-06-10T16:11:28Z</time>
      </trkpt>
      <trkpt lat="48.81529" lon="-0.33782">
        <ele>151.07082</ele>
        <time>2016-06-10T16:11:38Z</time>
      </trkpt>
      <trkpt lat="48.81532" lon="-0.33788">
        <ele>151.07082</ele>
        <time>2016-06-10T16:11:43Z</time>
      </trkpt>
      <trkpt lat="48.81533" lon="-0.33799">
        <ele>152.34367</ele>
        <time>2016-06-10T16:11:53Z</time>
      </trkpt>
      <trkpt lat="48.81534" lon="-0.33806">
        <ele>152.34367</ele>
        <time>2016-06-10T16:11:58Z</time>
      </trkpt>
      <trkpt lat="48.81535" lon="-0.33828">
        <ele>154.05318</ele>
        <time>2016-06-10T16:12:13Z</time>
      </trkpt>
      <trkpt lat="48.81534" lon="-0.33838">
        <ele>154.05318</ele>
        <time>2016-06-10T16:12:18Z</time>
      </trkpt>
      <trkpt lat="48.81536" lon="-0.33847">
        <ele>156.32556</ele>
        <time>2016-06-10T16:12:28Z</time>
      </trkpt>
      <trkpt lat="48.81536" lon="-0.33852">
        <ele>156.32556</ele>
        <time>2016-06-10T16:12:33Z</time>
      </trkpt>
      <trkpt lat="48.81535" lon="-0.33871">
        <ele>158.06569</ele>
        <time>2016-06-10T16:12:43Z</time>
      </trkpt>
      <trkpt lat="48.81536" lon="-0.33879">
        <ele>158.06569</ele>
        <time>2016-06-10T16:12:48Z</time>
      </trkpt>
      <trkpt lat="48.81536" lon="-0.33888">
        <ele>159.35564</ele>
        <time>2016-06-10T16:12:58Z</time>
      </trkpt>
      <trkpt lat="48.81537" lon="-0.33897">
        <ele>159.35564</ele>
        <time>2016-06-10T16:13:03Z</time>
      </trkpt>
      <trkpt lat="48.81534" lon="-0.33917">
        <ele>161.03648</ele>
        <time>2016-06-10T16:13:13Z</time>
      </trkpt>
      <trkpt lat="48.81535" lon="-0.33919">
        <ele>161.03648</ele>
        <time>2016-06-10T16:13:18Z</time>
      </trkpt>
      <trkpt lat="48.81534" lon="-0.33922">
        <ele>161.03648</ele>
        <time>2016-06-10T16:13:28Z</time>
      </trkpt>
      <trkpt lat="48.81532" lon="-0.33929">
        <ele>161.03648</ele>
        <time>2016-06-10T16:13:33Z</time>
      </trkpt>
      <trkpt lat="48.8153" lon="-0.33949">
        <ele>162.99297</ele>
        <time>2016-06-10T16:13:43Z</time>
      </trkpt>
      <trkpt lat="48.81526" lon="-0.33961">
        <ele>162.99297</ele>
        <time>2016-06-10T16:13:48Z</time>
      </trkpt>
      <trkpt lat="48.8152" lon="-0.33983">
        <ele>164.87254</ele>
        <time>2016-06-10T16:13:58Z</time>
      </trkpt>
      <trkpt lat="48.81518" lon="-0.33991">
        <ele>164.87254</ele>
        <time>2016-06-10T16:14:03Z</time>
      </trkpt>
      <trkpt lat="48.81512" lon="-0.34012">
        <ele>167.50168</ele>
        <time>2016-06-10T16:14:18Z</time>
      </trkpt>
      <trkpt lat="48.8151" lon="-0.34019">
        <ele>167.50168</ele>
        <time>2016-06-10T16:14:23Z</time>
      </trkpt>
      <trkpt lat="48.81508" lon="-0.34028">
        <ele>170.53438</ele>
        <time>2016-06-10T16:14:33Z</time>
      </trkpt>
      <trkpt lat="48.81506" lon="-0.34039">
        <ele>170.53438</ele>
        <time>2016-06-10T16:14:38Z</time>
      </trkpt>
      <trkpt lat="48.81503" lon="-0.34052">
        <ele>173.30312</ele>
        <time>2016-06-10T16:14:48Z</time>
      </trkpt>
      <trkpt lat="48.81502" lon="-0.34059">
        <ele>173.30312</ele>
        <time>2016-06-10T16:14:53Z</time>
      </trkpt>
      <trkpt lat="48.81495" lon="-0.34078">
        <ele>174.85866</ele>
        <time>2016-06-10T16:15:03Z</time>
      </trkpt>
      <trkpt lat="48.81494" lon="-0.34083">
        <ele>174.85866</ele>
        <time>2016-06-10T16:15:08Z</time>
      </trkpt>
      <trkpt lat="48.81492" lon="-0.34089">
        <ele>174.85866</ele>
        <time>2016-06-10T16:15:18Z</time>
      </trkpt>
      <trkpt lat="48.81491" lon="-0.3409">
        <ele>176.87576</ele>
        <time>2016-06-10T16:15:23Z</time>
      </trkpt>
      <trkpt lat="48.81485" lon="-0.34106">
        <ele>178.65671</ele>
        <time>2016-06-10T16:15:33Z</time>
      </trkpt>
      <trkpt lat="48.81483" lon="-0.34113">
        <ele>178.65671</ele>
        <time>2016-06-10T16:15:38Z</time>
      </trkpt>
      <trkpt lat="48.8148" lon="-0.3412">
        <ele>180.26192</ele>
        <time>2016-06-10T16:15:43Z</time>
      </trkpt>
      <trkpt lat="48.81476" lon="-0.34126">
        <ele>180.26192</ele>
        <time>2016-06-10T16:15:48Z</time>
      </trkpt>
      <trkpt lat="48.81475" lon="-0.34133">
        <ele>181.64699</ele>
        <time>2016-06-10T16:15:53Z</time>
      </trkpt>
      <trkpt lat="48.81471" lon="-0.34138">
        <ele>181.64699</ele>
        <time>2016-06-10T16:15:58Z</time>
      </trkpt>
      <trkpt lat="48.81461" lon="-0.34154">
        <ele>183.69374</ele>
        <time>2016-06-10T16:16:08Z</time>
      </trkpt>
      <trkpt lat="48.81458" lon="-0.34159">
        <ele>183.69374</ele>
        <time>2016-06-10T16:16:13Z</time>
      </trkpt>
      <trkpt lat="48.81449" lon="-0.34171">
        <ele>186.38156</ele>
        <time>2016-06-10T16:16:23Z</time>
      </trkpt>
      <trkpt lat="48.81444" lon="-0.34175">
        <ele>186.38156</ele>
        <time>2016-06-10T16:16:28Z</time>
      </trkpt>
      <trkpt lat="48.81434" lon="-0.34185">
        <ele>188.56546</ele>
        <time>2016-06-10T16:16:38Z</time>
      </trkpt>
      <trkpt lat="48.81432" lon="-0.34183">
        <ele>188.56546</ele>
        <time>2016-06-10T16:16:43Z</time>
      </trkpt>
      <trkpt lat="48.81422" lon="-0.34197">
        <ele>189.71928</ele>
        <time>2016-06-10T16:16:58Z</time>
      </trkpt>
      <trkpt lat="48.81416" lon="-0.342">
        <ele>189.71928</ele>
        <time>2016-06-10T16:17:03Z</time>
      </trkpt>
      <trkpt lat="48.81405" lon="-0.34206">
        <ele>191.50563</ele>
        <time>2016-06-10T16:17:13Z</time>
      </trkpt>
      <trkpt lat="48.81402" lon="-0.34208">
        <ele>191.50563</ele>
        <time>2016-06-10T16:17:18Z</time>
      </trkpt>
      <trkpt lat="48.81391" lon="-0.34212">
        <ele>192.76839</ele>
        <time>2016-06-10T16:17:28Z</time>
      </trkpt>
      <trkpt lat="48.81385" lon="-0.34214">
        <ele>192.76839</ele>
        <time>2016-06-10T16:17:33Z</time>
      </trkpt>
      <trkpt lat="48.81374" lon="-0.3421">
        <ele>194.29688</ele>
        <time>2016-06-10T16:17:43Z</time>
      </trkpt>
      <trkpt lat="48.81371" lon="-0.34212">
        <ele>194.29688</ele>
        <time>2016-06-10T16:17:48Z</time>
      </trkpt>
      <trkpt lat="48.8136" lon="-0.34217">
        <ele>195.42378</ele>
        <time>2016-06-10T16:17:58Z</time>
      </trkpt>
      <trkpt lat="48.81354" lon="-0.34221">
        <ele>195.42378</ele>
        <time>2016-06-10T16:18:03Z</time>
      </trkpt>
      <trkpt lat="48.81343" lon="-0.34223">
        <ele>196.71375</ele>
        <time>2016-06-10T16:18:13Z</time>
      </trkpt>
      <trkpt lat="48.81341" lon="-0.34222">
        <ele>196.71375</ele>
        <time>2016-06-10T16:18:18Z</time>
      </trkpt>
      <trkpt lat="48.81323" lon="-0.3423">
        <ele>198.4012</ele>
        <time>2016-06-10T16:18:33Z</time>
      </trkpt>
      <trkpt lat="48.81317" lon="-0.34231">
        <ele>198.4012</ele>
        <time>2016-06-10T16:18:38Z</time>
      </trkpt>
      <trkpt lat="48.81311" lon="-0.34236">
        <ele>200.08255</ele>
        <time>2016-06-10T16:18:48Z</time>
      </trkpt>
      <trkpt lat="48.81307" lon="-0.34241">
        <ele>200.08255</ele>
        <time>2016-06-10T16:18:53Z</time>
      </trkpt>
      <trkpt lat="48.81298" lon="-0.34247">
        <ele>201.62892</ele>
        <time>2016-06-10T16:19:03Z</time>
      </trkpt>
      <trkpt lat="48.81293" lon="-0.34249">
        <ele>201.62892</ele>
        <time>2016-06-10T16:19:08Z</time>
      </trkpt>
      <trkpt lat="48.81282" lon="-0.34256">
        <ele>202.96443</ele>
        <time>2016-06-10T16:19:18Z</time>
      </trkpt>
      <trkpt lat="48.8128" lon="-0.34259">
        <ele>202.96443</ele>
        <time>2016-06-10T16:19:23Z</time>
      </trkpt>
      <trkpt lat="48.81271" lon="-0.34259">
        <ele>203.50064</ele>
        <time>2016-06-10T16:19:33Z</time>
      </trkpt>
      <trkpt lat="48.81264" lon="-0.34259">
        <ele>203.50064</ele>
        <time>2016-06-10T16:19:38Z</time>
      </trkpt>
      <trkpt lat="48.81257" lon="-0.34256">
        <ele>204.64</ele>
        <time>2016-06-10T16:19:48Z</time>
      </trkpt>
      <trkpt lat="48.81254" lon="-0.34253">
        <ele>204.64</ele>
        <time>2016-06-10T16:19:53Z</time>
      </trkpt>
      <trkpt lat="48.81246" lon="-0.34244">
        <ele>206.06624</ele>
        <time>2016-06-10T16:20:03Z</time>
      </trkpt>
      <trkpt lat="48.81241" lon="-0.34242">
        <ele>206.06624</ele>
        <time>2016-06-10T16:20:08Z</time>
      </trkpt>
      <trkpt lat="48.81231" lon="-0.34235">
        <ele>207.73045</ele>
        <time>2016-06-10T16:20:18Z</time>
      </trkpt>
      <trkpt lat="48.81226" lon="-0.34232">
        <ele>207.73045</ele>
        <time>2016-06-10T16:20:23Z</time>
      </trkpt>
      <trkpt lat="48.81213" lon="-0.34233">
        <ele>209.31284</ele>
        <time>2016-06-10T16:20:38Z</time>
      </trkpt>
      <trkpt lat="48.81207" lon="-0.34231">
        <ele>209.31284</ele>
        <time>2016-06-10T16:20:43Z</time>
      </trkpt>
      <trkpt lat="48.81199" lon="-0.34228">
        <ele>210.79109</ele>
        <time>2016-06-10T16:20:53Z</time>
      </trkpt>
      <trkpt lat="48.81197" lon="-0.34221">
        <ele>210.79109</ele>
        <time>2016-06-10T16:20:58Z</time>
      </trkpt>
      <trkpt lat="48.81193" lon="-0.34205">
        <ele>212.10161</ele>
        <time>2016-06-10T16:21:08Z</time>
      </trkpt>
      <trkpt lat="48.81188" lon="-0.342">
        <ele>212.10161</ele>
        <time>2016-06-10T16:21:13Z</time>
      </trkpt>
      <trkpt lat="48.8118" lon="-0.34193">
        <ele>213.35881</ele>
        <time>2016-06-10T16:21:23Z</time>
      </trkpt>
      <trkpt lat="48.81179" lon="-0.34188">
        <ele>213.35881</ele>
        <time>2016-06-10T16:21:28Z</time>
      </trkpt>
      <trkpt lat="48.81181" lon="-0.34181">
        <ele>213.35881</ele>
        <time>2016-06-10T16:21:38Z</time>
      </trkpt>
      <trkpt lat="48.81181" lon="-0.34179">
        <ele>214.23654</ele>
        <time>2016-06-10T16:21:43Z</time>
      </trkpt>
      <trkpt lat="48.8118" lon="-0.34177">
        <ele>214.23654</ele>
        <time>2016-06-10T16:21:53Z</time>
      </trkpt>
      <trkpt lat="48.81181" lon="-0.34171">
        <ele>214.23654</ele>
        <time>2016-06-10T16:21:58Z</time>
      </trkpt>
      <trkpt lat="48.8118" lon="-0.34166">
        <ele>214.23654</ele>
        <time>2016-06-10T16:22:08Z</time>
      </trkpt>
      <trkpt lat="48.81181" lon="-0.34165">
        <ele>214.99562</ele>
        <time>2016-06-10T16:22:13Z</time>
      </trkpt>
      <trkpt lat="48.81179" lon="-0.34165">
        <ele>214.99562</ele>
        <time>2016-06-10T16:22:18Z</time>
      </trkpt>
      <trkpt lat="48.81179" lon="-0.34167">
        <ele>214.99562</ele>
        <time>2016-06-10T16:22:23Z</time>
      </trkpt>
      <trkpt lat="48.81179" lon="-0.34168">
        <ele>214.99562</ele>
        <time>2016-06-10T16:22:28Z</time>
      </trkpt>
      <trkpt lat="48.81179" lon="-0.34167">
        <ele>214.99562</ele>
        <time>2016-06-10T16:22:33Z</time>
      </trkpt>
      <trkpt lat="48.81179" lon="-0.34167">
        <ele>214.99562</ele>
        <time>2016-06-10T16:22:38Z</time>
      </trkpt>
      <trkpt lat="48.8118" lon="-0.34168">
        <ele>214.99562</ele>
        <time>2016-06-10T16:22:43Z</time>
      </trkpt>
      <trkpt lat="48.8118" lon="-0.34167">
        <ele>214.99562</ele>
        <time>2016-06-10T16:22:48Z</time>
      </trkpt>
    </trkseg>
  </trk>
</gpx>